﻿ProjectID	SampleID	SampleType	TaxonomyID	UniqCodeType	UniqCode	SampleName	ScientificName	CommonName	CollectionYear	CollectionMonth	CollectionDay	SamplingTimeStartEnd	SamplingTimeAMPM	SamplingDuration	WeatherStartEnd	CollectionRegion	CollectionCountry	CollectionArea	CollectionLatitudeFrom	CollectionLatitudeTo	CollectionLongitudeFrom	CollectionLongitudeTo	Sex	TissueOrgan	TissueLipid	TissueMoist	Weight	WeightUnit	Length	LengthUnit	LengthType	GrowthStage	Age	Disease	TemperatureStartEnd	WaterTemperatureStartEnd	pH	DO	EC	EC_temp	Salinity	SS	WaterDepthM	TransparencyM	WaterColor	SedimentTemperatureStartEnd	SedimentDepthM	SedimentAppearance	SedimentColor	SedimentSurfaceColor	SedimentOdor	SedimentImpurities	SedimentMoistureOnSiteAnalysis	IgnitionLossOnSiteAnalysis	SoilDepthM	FlowRate	MeanPM10	MeanTotalSuspendedParticles	HumidityStartEnd	WindDirectionStartEnd	WindSpeedMSStartEnd	AmountOfCollectedAirStartEnd	Remarks	RegisterDate	UpdateDate
PRA000010	SAA000407	ST003	9606				"Homo sapiens"	Human	1998							Asia	Japan	Ehime	33.84883333		132.7718889		Male	Blood									"22 y.o."																															2016/10/14	2016/10/17
PRA000017	SAA000619	ST003	9606			E-08	"Homo sapiens"	Human	2004							Asia	Japan	Ehime	32.88472222	34.30166667	132.0125	133.6930556	Male	Adipose	73								"25 y.o."	Rhabdomyosarcoma																													"Measenteric fat; Same sample as SAA000652"	2016/11/29	2016/12/5
PRA000017	SAA000620	ST003	9606			E-01	"Homo sapiens"	Human	2003							Asia	Japan	Ehime	32.88472222	34.30166667	132.0125	133.6930556	Male	Adipose	72								"34 y.o."	"Hepatic insufficiency, hepatitis B "																													"Measenteric fat"	2016/11/29	2016/12/5
PRA000017	SAA000621	ST003	9606			E-20	"Homo sapiens"	Human	2004							Asia	Japan	Ehime	32.88472222	34.30166667	132.0125	133.6930556	Male	Adipose	82								"40 y.o."	"Hepatic insufficiency, renal failure "																													"Measenteric fat"	2016/11/29	2016/12/5
PRA000017	SAA000622	ST003	9606			E-16	"Homo sapiens"	Human	2004							Asia	Japan	Ehime	32.88472222	34.30166667	132.0125	133.6930556	Male	Adipose	41								"41 y.o."	"Liposarcoma, liver metastasis, lung metastasis "																													"Measenteric fat; Same sample as SAA000659"	2016/11/29	2016/12/5
PRA000017	SAA000623	ST003	9606			E-02	"Homo sapiens"	Human	2003							Asia	Japan	Ehime	32.88472222	34.30166667	132.0125	133.6930556	Male	Adipose	11								"49 y.o."	"Malignant melanoma "																													"Measenteric fat"	2016/11/29	2016/12/5
PRA000017	SAA000624	ST003	9606			E-09	"Homo sapiens"	Human	2004							Asia	Japan	Ehime	32.88472222	34.30166667	132.0125	133.6930556	Male	Adipose	50								"57 y.o."	Cholangiocarcinoma																													"Measenteric fat; Same sample as SAA000653"	2016/11/29	2016/12/5
PRA000017	SAA000625	ST003	9606			215	"Homo sapiens"	Human	2003							Asia	Japan	Kanto	34.917714	36.28333333	138.7113889	140.857758	Male	Adipose	42								"58 y.o."	"Acute myelocytic leukemia "																													"Measenteric fat; Same sample as SAA000675"	2016/11/29	2016/12/5
PRA000017	SAA000626	ST003	9606			221	"Homo sapiens"	Human	2003							Asia	Japan	Kanto	34.917714	36.28333333	138.7113889	140.857758	Male	Adipose	52								"60 y.o."	"Hepatocellular carcinoma "																													"Measenteric fat; Same sample as SAA000681"	2016/11/29	2016/12/5
PRA000017	SAA000627	ST003	9606			222	"Homo sapiens"	Human	2003							Asia	Japan	Kanto	34.917714	36.28333333	138.7113889	140.857758	Male	Adipose	61								"66 y.o."	"Renal insufficiency "																													"Measenteric fat"	2016/11/29	2016/12/5
PRA000017	SAA000628	ST003	9606			E-04	"Homo sapiens"	Human	2004							Asia	Japan	Ehime	32.88472222	34.30166667	132.0125	133.6930556	Male	Adipose	62								"69 y.o."	"Cervical lymphnode metastatic cancer of unknown origin"																													"Measenteric fat; Same sample as SAA000648"	2016/11/29	2016/12/5
PRA000017	SAA000629	ST003	9606			E-12	"Homo sapiens"	Human	2004							Asia	Japan	Ehime	32.88472222	34.30166667	132.0125	133.6930556	Male	Adipose	75								"70 y.o."	"Perforation of gastro-intestinal tract, pneumocystis carini pneumonia "																													"Measenteric fat; Same sample as SAA000656"	2016/11/29	2016/12/5
PRA000017	SAA000630	ST003	9606			E-13	"Homo sapiens"	Human	2004							Asia	Japan	Ehime	32.88472222	34.30166667	132.0125	133.6930556	Male	Adipose	77								"73 y.o."	"Gastric cancer, malgnant lymphoma "																													"Measenteric fat; Same sample as SAA000657"	2016/11/29	2016/12/5
PRA000017	SAA000631	ST003	9606			E-10	"Homo sapiens"	Human	2004							Asia	Japan	Ehime	32.88472222	34.30166667	132.0125	133.6930556	Male	Adipose	76								"76 y.o."	"Pneumonia, idiopathic interstitial pneumonia "																													"Measenteric fat; Same sample as SAA000654"	2016/11/29	2016/12/5
PRA000017	SAA000632	ST003	9606			E-11	"Homo sapiens"	Human	2004							Asia	Japan	Ehime	32.88472222	34.30166667	132.0125	133.6930556	Male	Adipose	60								"79 y.o."	"Lung cancer "																													"Measenteric fat; Same sample as SAA000655"	2016/11/29	2016/12/5
PRA000017	SAA000633	ST003	9606			219	"Homo sapiens"	Human	2003							Asia	Japan	Kanto	34.917714	36.28333333	138.7113889	140.857758	Male	Adipose	69								"79 y.o."	"Malignant lymphoma "																													"Measenteric fat; Same sample as SAA000679"	2016/11/29	2016/12/5
PRA000017	SAA000634	ST003	9606			E-14	"Homo sapiens"	Human	2004							Asia	Japan	Ehime	32.88472222	34.30166667	132.0125	133.6930556	Male	Adipose	55								"81 y.o."	"Pancreatic cancer "																													"Measenteric fat"	2016/11/29	2016/12/5
PRA000017	SAA000635	ST003	9606			E-15	"Homo sapiens"	Human	2004							Asia	Japan	Ehime	32.88472222	34.30166667	132.0125	133.6930556	Male	Adipose	72								"81 y.o."	"Metastatic liver cancer "																													"Measenteric fat; Same sample as SAA000658"	2016/11/29	2016/12/5
PRA000017	SAA000636	ST003	9606			217	"Homo sapiens"	Human	2003							Asia	Japan	Kanto	34.917714	36.28333333	138.7113889	140.857758	Male	Adipose	72								"81 y.o."	"Cardiac infarction "																													"Measenteric fat; Same sample as SAA000677"	2016/11/29	2016/12/5
PRA000017	SAA000637	ST003	9606			E-03	"Homo sapiens"	Human	2003							Asia	Japan	Ehime	32.88472222	34.30166667	132.0125	133.6930556	Female	Adipose	77								"59 y.o."	"Acute lymphocytic leukemia"																													"Measenteric fat; Same sample as SAA000647"	2016/11/29	2016/12/5
PRA000017	SAA000638	ST003	9606			E-05	"Homo sapiens"	Human	2004							Asia	Japan	Ehime	32.88472222	34.30166667	132.0125	133.6930556	Female	Adipose	70								"53 y.o."	"Acute myelocytic leukemia "																													"Measenteric fat; Same sample as SAA000649"	2016/11/29	2016/12/5
PRA000017	SAA000639	ST003	9606			E-06	"Homo sapiens"	Human	2004							Asia	Japan	Ehime	32.88472222	34.30166667	132.0125	133.6930556	Female	Adipose	50								"69 y.o."	"Carcinoma of the gallbladder "																													"Measenteric fat; Same sample as SAA000650"	2016/11/29	2016/12/5
PRA000017	SAA000640	ST003	9606			E-07	"Homo sapiens"	Human	2004							Asia	Japan	Ehime	32.88472222	34.30166667	132.0125	133.6930556	Female	Adipose	58								"72 y.o."	"Hepatic insufficiency, liver cirrhosis "																													"Measenteric fat; Same sample as SAA000651"	2016/11/29	2016/12/5
PRA000017	SAA000641	ST003	9606			E-17	"Homo sapiens"	Human	2004							Asia	Japan	Ehime	32.88472222	34.30166667	132.0125	133.6930556	Female	Adipose	75								"62 y.o."	"Multiple systemic atrophy "																													"Measenteric fat; Same sample as SAA000660"	2016/11/29	2016/12/5
PRA000017	SAA000642	ST003	9606			212	"Homo sapiens"	Human	2003							Asia	Japan	Kanto	34.917714	36.28333333	138.7113889	140.857758	Female	Adipose	81								"62 y.o."	"Breast cancer"																													"Measenteric fat; Same sample as SAA000674"	2016/11/29	2016/12/5
PRA000017	SAA000643	ST003	9606			E-18	"Homo sapiens"	Human	2004							Asia	Japan	Ehime	32.88472222	34.30166667	132.0125	133.6930556	Female	Adipose	73								"76 y.o."	"Gastric cancer, lung cancer "																													"Measenteric fat; Same sample as SAA000661"	2016/11/29	2016/12/5
PRA000017	SAA000644	ST003	9606			E-19	"Homo sapiens"	Human	2004							Asia	Japan	Ehime	32.88472222	34.30166667	132.0125	133.6930556	Female	Adipose	75								"71 y.o."	"Breast cancer, lymphoangitis carcinomatosa, idiopathic interstitial pneumonia "																													"Measenteric fat; Same sample as SAA000662"	2016/11/29	2016/12/5
PRA000017	SAA000645	ST003	9606			218	"Homo sapiens"	Human	2003							Asia	Japan	Kanto	34.917714	36.28333333	138.7113889	140.857758	Female	Adipose	60								"83 y.o."	"Lung cancer"																													"Measenteric fat; Same sample as SAA000678"	2016/11/29	2016/12/5
PRA000017	SAA000646	ST003	9606			220	"Homo sapiens"	Human	2003							Asia	Japan	Kanto	34.917714	36.28333333	138.7113889	140.857758	Female	Adipose	66								"109 y.o."	"Senile deterioration"																													"Measenteric fat; Same sample as SAA000680"	2016/11/29	2016/12/5
PRA000018	SAA000647	ST003	9606			E-03	"Homo sapiens"	Human	2003							Asia	Japan	Ehime	32.88472222	34.30166667	132.0125	133.6930556	Female	Adipose	79.34								"59 y.o."	"Acute lymphocytic leukemia"																													"Measenteric fat; Same sample as SAA000637"	2016/12/12	2016/12/12
PRA000018	SAA000648	ST003	9606			E-04	"Homo sapiens"	Human	2004							Asia	Japan	Ehime	32.88472222	34.30166667	132.0125	133.6930556	Male	Adipose	64.88								"69 y.o."	"Cervical lymphnode metastatic cancer of unknown origin"																													"Measenteric fat; Same sample as SAA000628"	2016/12/12	2016/12/12
PRA000018	SAA000649	ST003	9606			E-05	"Homo sapiens"	Human	2004							Asia	Japan	Ehime	32.88472222	34.30166667	132.0125	133.6930556	Female	Adipose	75.07								"53 y.o."	"Acute myelocytic leukemia "																													"Measenteric fat; Same sample as SAA000638"	2016/12/12	2016/12/12
PRA000018	SAA000650	ST003	9606			E-06	"Homo sapiens"	Human	2004							Asia	Japan	Ehime	32.88472222	34.30166667	132.0125	133.6930556	Female	Adipose	61.24								"69 y.o."	"Carcinoma of the gallbladder "																													"Measenteric fat; Same sample as SAA000639"	2016/12/12	2016/12/12
PRA000018	SAA000651	ST003	9606			E-07	"Homo sapiens"	Human	2004							Asia	Japan	Ehime	32.88472222	34.30166667	132.0125	133.6930556	Female	Adipose	65.76								"72 y.o."	"Hepatic insufficiency, liver cirrhosis "																													"Measenteric fat; Same sample as SAA000640"	2016/12/12	2016/12/12
PRA000018	SAA000652	ST003	9606			E-08	"Homo sapiens"	Human	2004							Asia	Japan	Ehime	32.88472222	34.30166667	132.0125	133.6930556	Male	Adipose	74.09								"25 y.o."	Rhabdomyosarcoma																													"Measenteric fat; Same sample as SAA000619"	2016/12/12	2016/12/12
PRA000018	SAA000653	ST003	9606			E-09	"Homo sapiens"	Human	2004							Asia	Japan	Ehime	32.88472222	34.30166667	132.0125	133.6930556	Male	Adipose	65.94								"57 y.o."	Cholangiocarcinoma																													"Measenteric fat; Same sample as SAA000624"	2016/12/12	2016/12/12
PRA000018	SAA000654	ST003	9606			E-10	"Homo sapiens"	Human	2004							Asia	Japan	Ehime	32.88472222	34.30166667	132.0125	133.6930556	Male	Adipose	81.36								"76 y.o."	"Pneumonia, idiopathic interstitial pneumonia "																													"Measenteric fat; Same sample as SAA000631"	2016/12/12	2016/12/12
PRA000018	SAA000655	ST003	9606			E-11	"Homo sapiens"	Human	2004							Asia	Japan	Ehime	32.88472222	34.30166667	132.0125	133.6930556	Male	Adipose	50.21								"79 y.o."	"Lung cancer "																													"Measenteric fat; Same sample as SAA000632"	2016/12/12	2016/12/12
PRA000018	SAA000656	ST003	9606			E-12	"Homo sapiens"	Human	2004							Asia	Japan	Ehime	32.88472222	34.30166667	132.0125	133.6930556	Male	Adipose	81.58								"70 y.o."	"Perforation of gastro-intestinal tract, pneumocystis carini pneumonia "																													"Measenteric fat; Same sample as SAA000629"	2016/12/12	2016/12/12
PRA000018	SAA000657	ST003	9606			E-13	"Homo sapiens"	Human	2004							Asia	Japan	Ehime	32.88472222	34.30166667	132.0125	133.6930556	Male	Adipose	75.41								"73 y.o."	"Gastric cancer, malgnant lymphoma "																													"Measenteric fat; Same sample as SAA000630"	2016/12/12	2016/12/12
PRA000018	SAA000658	ST003	9606			E-15	"Homo sapiens"	Human	2004							Asia	Japan	Ehime	32.88472222	34.30166667	132.0125	133.6930556	Male	Adipose	73.54								"81 y.o."	"Metastatic liver cancer "																													"Measenteric fat; Same sample as SAA000635"	2016/12/12	2016/12/12
PRA000018	SAA000659	ST003	9606			E-16	"Homo sapiens"	Human	2004							Asia	Japan	Ehime	32.88472222	34.30166667	132.0125	133.6930556	Male	Adipose	53.52								"41 y.o."	"Liposarcoma, liver metastasis, lung metastasis "																													"Measenteric fat; Same sample as SAA000622"	2016/12/12	2016/12/12
PRA000018	SAA000660	ST003	9606			E-17	"Homo sapiens"	Human	2004							Asia	Japan	Ehime	32.88472222	34.30166667	132.0125	133.6930556	Female	Adipose	70.22								"62 y.o."	"Multiple systemic atrophy "																													"Measenteric fat; Same sample as SAA000641"	2016/12/12	2016/12/12
PRA000018	SAA000661	ST003	9606			E-18	"Homo sapiens"	Human	2004							Asia	Japan	Ehime	32.88472222	34.30166667	132.0125	133.6930556	Female	Adipose	71.5								"76 y.o."	"Gastric cancer, lung cancer "																													"Measenteric fat; Same sample as SAA000643"	2016/12/12	2016/12/12
PRA000018	SAA000662	ST003	9606			E-19	"Homo sapiens"	Human	2004							Asia	Japan	Ehime	32.88472222	34.30166667	132.0125	133.6930556	Female	Adipose	75.76								"71 y.o."	"Breast cancer, lymphoangitis carcinomatosa, idiopathic interstitial pneumonia "																													"Measenteric fat; Same sample as SAA000644"	2016/12/12	2016/12/12
PRA000018	SAA000663	ST003	9606			E-21	"Homo sapiens"	Human	2004							Asia	Japan	Ehime	32.88472222	34.30166667	132.0125	133.6930556	Male	Adipose	72.87								"62 y.o."	"Amyotrophic lateral sclerosis"																													"Measenteric fat"	2016/12/12	2016/12/12
PRA000018	SAA000664	ST003	9606			E-22	"Homo sapiens"	Human	2004							Asia	Japan	Ehime	32.88472222	34.30166667	132.0125	133.6930556	Male	Adipose	60.01								"81 y.o."	"Idiopathic pulmopnary fibrosis, Aspiration pneumonia"																													"Measenteric fat"	2016/12/12	2016/12/12
PRA000018	SAA000665	ST003	9606			E-23	"Homo sapiens"	Human	2004							Asia	Japan	Ehime	32.88472222	34.30166667	132.0125	133.6930556	Male	Adipose	52.34								"75 y.o."	"Hepatocellular carcinoma"																													"Measenteric fat"	2016/12/12	2016/12/12
PRA000018	SAA000666	ST003	9606			E-24	"Homo sapiens"	Human	2004							Asia	Japan	Ehime	32.88472222	34.30166667	132.0125	133.6930556	Male	Adipose	67.44								"75 y.o."	"Hepatocellular carcinoma"																													"Measenteric fat"	2016/12/12	2016/12/12
PRA000018	SAA000667	ST003	9606			E-25	"Homo sapiens"	Human	2004							Asia	Japan	Ehime	32.88472222	34.30166667	132.0125	133.6930556	Male	Adipose	45.88								"63 y.o."	"Lung cancer"																													"Measenteric fat"	2016/12/12	2016/12/12
PRA000018	SAA000668	ST003	9606			E-26	"Homo sapiens"	Human	2004							Asia	Japan	Ehime	32.88472222	34.30166667	132.0125	133.6930556	Female	Adipose	68.46								"70 y.o."	"Fulminant hepatitis"																													"Measenteric fat"	2016/12/12	2016/12/12
PRA000018	SAA000669	ST003	9606			E-27	"Homo sapiens"	Human	2004							Asia	Japan	Ehime	32.88472222	34.30166667	132.0125	133.6930556	Female	Adipose	69.25								"74 y.o."	"Fulminant hepatitis"																													"Measenteric fat"	2016/12/12	2016/12/12
PRA000018	SAA000670	ST003	9606			E-28	"Homo sapiens"	Human	2004							Asia	Japan	Ehime	32.88472222	34.30166667	132.0125	133.6930556	Male	Adipose	59.01								"55 y.o."	"Lung cancer"																													"Measenteric fat"	2016/12/12	2016/12/12
PRA000018	SAA000671	ST003	9606			E-29	"Homo sapiens"	Human	2004							Asia	Japan	Ehime	32.88472222	34.30166667	132.0125	133.6930556	Female	Adipose	81.96								"76 y.o."	"Multiple organ failure"																													"Measenteric fat"	2016/12/12	2016/12/12
PRA000018	SAA000672	ST003	9606			E-30	"Homo sapiens"	Human	2004							Asia	Japan	Ehime	32.88472222	34.30166667	132.0125	133.6930556	Female	Adipose	63.1								"72 y.o."	"Interstitial pneumonia"																													"Measenteric fat"	2016/12/12	2016/12/12
PRA000018	SAA000673	ST003	9606			211	"Homo sapiens"	Human	2003							Asia	Japan	Kanto	34.917714	36.28333333	138.7113889	140.857758	Male	Adipose	61.95								"81 y.o."	Hepatocarcinoma																													"Measenteric fat"	2016/12/12	2016/12/12
PRA000018	SAA000674	ST003	9606			212	"Homo sapiens"	Human	2003							Asia	Japan	Kanto	34.917714	36.28333333	138.7113889	140.857758	Female	Adipose	83.11								"62 y.o."	"Breast cancer"																													"Measenteric fat; Same sample as SAA000642"	2016/12/12	2016/12/12
PRA000018	SAA000675	ST003	9606			215	"Homo sapiens"	Human	2003							Asia	Japan	Kanto	34.917714	36.28333333	138.7113889	140.857758	Male	Adipose	46.62								"58 y.o."	"Acute myelocytic leukemia "																													"Measenteric fat; Same sample as SAA000625"	2016/12/12	2016/12/12
PRA000018	SAA000676	ST003	9606			216	"Homo sapiens"	Human	2003							Asia	Japan	Kanto	34.917714	36.28333333	138.7113889	140.857758	Male	Adipose	67.94								"84 y.o."	"Lung cancer"																													"Measenteric fat"	2016/12/12	2016/12/12
PRA000018	SAA000677	ST003	9606			217	"Homo sapiens"	Human	2003							Asia	Japan	Kanto	34.917714	36.28333333	138.7113889	140.857758	Male	Adipose	74.07								"81 y.o."	"Cardiac infarction "																													"Measenteric fat; Same sample as SAA000636"	2016/12/12	2016/12/12
PRA000018	SAA000678	ST003	9606			218	"Homo sapiens"	Human	2003							Asia	Japan	Kanto	34.917714	36.28333333	138.7113889	140.857758	Female	Adipose	63.06								"83 y.o."	"Lung cancer"																													"Measenteric fat; Same sample as SAA000645"	2016/12/12	2016/12/12
PRA000018	SAA000679	ST003	9606			219	"Homo sapiens"	Human	2003							Asia	Japan	Kanto	34.917714	36.28333333	138.7113889	140.857758	Male	Adipose	68.85								"79 y.o."	"Malignant lymphoma "																													"Measenteric fat; Same sample as SAA000633"	2016/12/12	2016/12/12
PRA000018	SAA000680	ST003	9606			220	"Homo sapiens"	Human	2003							Asia	Japan	Kanto	34.917714	36.28333333	138.7113889	140.857758	Female	Adipose	71.32								"109 y.o."	"Senile deterioration"																													"Measenteric fat; Same sample as SAA000646"	2016/12/12	2016/12/12
PRA000018	SAA000681	ST003	9606			221	"Homo sapiens"	Human	2003							Asia	Japan	Kanto	34.917714	36.28333333	138.7113889	140.857758	Male	Adipose	56.79								"60 y.o."	"Hepatocellular carcinoma "																													"Measenteric fat; Same sample as SAA000626"	2016/12/12	2016/12/12
PRA000027	SAA001352	ST003	9606			DM1.D	"Homo sapiens"	human	2007	9						Asia	Vietnam	"Dong Mai"	20.93		105.73		Male	Hair									"21 y.o."																														"Pb-acid battery recycling craft village"	2017/2/27	2017/2/27
PRA000027	SAA001353	ST003	9606			DM2.D	"Homo sapiens"	human	2007	9						Asia	Vietnam	"Dong Mai"	20.93		105.73		Female	Hair									"26 y.o."																														"Pb-acid battery recycling craft village"	2017/2/27	2017/2/27
PRA000027	SAA001354	ST003	9606			DM3.D	"Homo sapiens"	human	2007	9						Asia	Vietnam	"Dong Mai"	20.93		105.73		Male	Hair									"20 y.o."																														"Pb-acid battery recycling craft village"	2017/2/27	2017/2/27
PRA000027	SAA001355	ST003	9606			DM4.D	"Homo sapiens"	human	2007	9						Asia	Vietnam	"Dong Mai"	20.93		105.73		Male	Hair									"42 y.o."																														"Pb-acid battery recycling craft village"	2017/2/27	2017/2/27
PRA000027	SAA001356	ST003	9606			DM5.D	"Homo sapiens"	human	2007	9						Asia	Vietnam	"Dong Mai"	20.93		105.73		Male	Hair									"55 y.o."																														"Pb-acid battery recycling craft village"	2017/2/27	2017/2/27
PRA000027	SAA001357	ST003	9606			DM6.D	"Homo sapiens"	human	2007	9						Asia	Vietnam	"Dong Mai"	20.93		105.73		Male	Hair									"42 y.o."																														"Pb-acid battery recycling craft village"	2017/2/27	2017/2/27
PRA000027	SAA001358	ST003	9606			DM7.D	"Homo sapiens"	human	2007	9						Asia	Vietnam	"Dong Mai"	20.93		105.73		Male	Hair									"44 y.o."																														"Pb-acid battery recycling craft village"	2017/2/27	2017/2/27
PRA000027	SAA001359	ST003	9606			DM8.D	"Homo sapiens"	human	2007	9						Asia	Vietnam	"Dong Mai"	20.93		105.73		Female	Hair									"56 y.o."																														"Pb-acid battery recycling craft village"	2017/2/27	2017/2/27
PRA000027	SAA001360	ST003	9606			DM10.D	"Homo sapiens"	human	2007	9						Asia	Vietnam	"Dong Mai"	20.93		105.73		Male	Hair									"43 y.o."																														"Pb-acid battery recycling craft village"	2017/2/27	2017/2/27
PRA000027	SAA001361	ST003	9606			DM11.D	"Homo sapiens"	human	2007	9						Asia	Vietnam	"Dong Mai"	20.93		105.73		Female	Hair									"34 y.o."																														"Pb-acid battery recycling craft village"	2017/2/27	2017/2/27
PRA000027	SAA001362	ST003	9606			DM12.D	"Homo sapiens"	human	2007	9						Asia	Vietnam	"Dong Mai"	20.93		105.73		Female	Hair									"36 y.o."																														"Pb-acid battery recycling craft village"	2017/2/27	2017/2/27
PRA000027	SAA001363	ST003	9606			DM13.D	"Homo sapiens"	human	2007	9						Asia	Vietnam	"Dong Mai"	20.93		105.73		Female	Hair									"42 y.o."																														"Pb-acid battery recycling craft village"	2017/2/27	2017/2/27
PRA000027	SAA001364	ST003	9606			DM14.D	"Homo sapiens"	human	2007	9						Asia	Vietnam	"Dong Mai"	20.93		105.73		Female	Hair									"45 y.o."																														"Pb-acid battery recycling craft village"	2017/2/27	2017/2/27
PRA000027	SAA001365	ST003	9606			DM15.D	"Homo sapiens"	human	2007	9						Asia	Vietnam	"Dong Mai"	20.93		105.73		Male	Hair									"53 y.o."																														"Pb-acid battery recycling craft village"	2017/2/27	2017/2/27
PRA000027	SAA001366	ST003	9606			DM16.D	"Homo sapiens"	human	2007	9						Asia	Vietnam	"Dong Mai"	20.93		105.73		Female	Hair									"53 y.o."																														"Pb-acid battery recycling craft village"	2017/2/27	2017/2/27
PRA000027	SAA001367	ST003	9606			DM17.D	"Homo sapiens"	human	2007	9						Asia	Vietnam	"Dong Mai"	20.93		105.73		Female	Hair									"48 y.o."																														"Pb-acid battery recycling craft village"	2017/2/27	2017/2/27
PRA000027	SAA001368	ST003	9606			DM18.D	"Homo sapiens"	human	2007	9						Asia	Vietnam	"Dong Mai"	20.93		105.73		Male	Hair									"53 y.o."																														"Pb-acid battery recycling craft village"	2017/2/27	2017/2/27
PRA000027	SAA001369	ST003	9606			DM19.D	"Homo sapiens"	human	2007	9						Asia	Vietnam	"Dong Mai"	20.93		105.73		Female	Hair									"42 y.o."																														"Pb-acid battery recycling craft village"	2017/2/27	2017/2/27
PRA000027	SAA001370	ST003	9606			DM20.D	"Homo sapiens"	human	2007	9						Asia	Vietnam	"Dong Mai"	20.93		105.73		Female	Hair									"50 y.o."																														"Pb-acid battery recycling craft village"	2017/2/27	2017/2/27
PRA000027	SAA001371	ST003	9606			DM21.D	"Homo sapiens"	human	2007	9						Asia	Vietnam	"Dong Mai"	20.93		105.73		Male	Hair									"21 y.o."																														"Pb-acid battery recycling craft village"	2017/2/27	2017/2/27
PRA000027	SAA001372	ST003	9606			DM22.D	"Homo sapiens"	human	2007	9						Asia	Vietnam	"Dong Mai"	20.93		105.73		Female	Hair									"55 y.o."																														"Pb-acid battery recycling craft village"	2017/2/27	2017/2/27
PRA000027	SAA001373	ST003	9606			DM23.D	"Homo sapiens"	human	2007	9						Asia	Vietnam	"Dong Mai"	20.93		105.73		Female	Hair									"47 y.o."																														"Pb-acid battery recycling craft village"	2017/2/27	2017/2/27
PRA000027	SAA001374	ST003	9606			DM24.D	"Homo sapiens"	human	2007	9						Asia	Vietnam	"Dong Mai"	20.93		105.73		Female	Hair									"39 y.o."																														"Pb-acid battery recycling craft village"	2017/2/27	2017/2/27
PRA000027	SAA001375	ST003	9606			DM25.D	"Homo sapiens"	human	2007	9						Asia	Vietnam	"Dong Mai"	20.93		105.73		Female	Hair									"38 y.o."																														"Pb-acid battery recycling craft village"	2017/2/27	2017/2/27
PRA000027	SAA001376	ST003	9606			DM26.D	"Homo sapiens"	human	2007	9						Asia	Vietnam	"Dong Mai"	20.93		105.73		Female	Hair									"50 y.o."																														"Pb-acid battery recycling craft village"	2017/2/27	2017/2/27
PRA000027	SAA001377	ST003	9606			DM27.D	"Homo sapiens"	human	2007	9						Asia	Vietnam	"Dong Mai"	20.93		105.73		Male	Hair									"58 y.o."																														"Pb-acid battery recycling craft village"	2017/2/27	2017/2/27
PRA000027	SAA001378	ST003	9606			DM28.D	"Homo sapiens"	human	2007	9						Asia	Vietnam	"Dong Mai"	20.93		105.73		Female	Hair									"48 y.o."																														"Pb-acid battery recycling craft village"	2017/2/27	2017/2/27
PRA000027	SAA001379	ST003	9606			DM29.D	"Homo sapiens"	human	2007	9						Asia	Vietnam	"Dong Mai"	20.93		105.73		Female	Hair									"44 y.o."																														"Pb-acid battery recycling craft village"	2017/2/27	2017/2/27
PRA000027	SAA001380	ST003	9606			DM30.D	"Homo sapiens"	human	2007	9						Asia	Vietnam	"Dong Mai"	20.93		105.73		Male	Hair									"50 y.o."																														"Pb-acid battery recycling craft village"	2017/2/27	2017/2/27
PRA000027	SAA001381	ST003	9606			DM31.D	"Homo sapiens"	human	2007	9						Asia	Vietnam	"Dong Mai"	20.93		105.73		Female	Hair									"35 y.o."																														"Pb-acid battery recycling craft village"	2017/2/27	2017/2/27
PRA000027	SAA001382	ST003	9606			DM32.D	"Homo sapiens"	human	2007	9						Asia	Vietnam	"Dong Mai"	20.93		105.73		Female	Hair									"53 y.o."																														"Pb-acid battery recycling craft village"	2017/2/27	2017/2/27
PRA000027	SAA001383	ST003	9606			DM33.D	"Homo sapiens"	human	2007	9						Asia	Vietnam	"Dong Mai"	20.93		105.73		Female	Hair									"40 y.o."																														"Pb-acid battery recycling craft village"	2017/2/27	2017/2/27
PRA000027	SAA001384	ST003	9606			DM34.D	"Homo sapiens"	human	2007	9						Asia	Vietnam	"Dong Mai"	20.93		105.73		Male	Hair									"38 y.o."																														"Pb-acid battery recycling craft village"	2017/2/27	2017/2/27
PRA000027	SAA001385	ST003	9606			DM35.D	"Homo sapiens"	human	2007	9						Asia	Vietnam	"Dong Mai"	20.93		105.73		Male	Hair									"32 y.o."																														"Pb-acid battery recycling craft village"	2017/2/27	2017/2/27
PRA000027	SAA001386	ST003	9606			DM36.D	"Homo sapiens"	human	2007	9						Asia	Vietnam	"Dong Mai"	20.93		105.73		Female	Hair									"36 y.o."																														"Pb-acid battery recycling craft village"	2017/2/27	2017/2/27
PRA000027	SAA001387	ST003	9606			DM37.D	"Homo sapiens"	human	2007	9						Asia	Vietnam	"Dong Mai"	20.93		105.73		Female	Hair									"36 y.o."																														"Pb-acid battery recycling craft village"	2017/2/27	2017/2/27
PRA000027	SAA001388	ST003	9606			DM38.D	"Homo sapiens"	human	2007	9						Asia	Vietnam	"Dong Mai"	20.93		105.73		Female	Hair									"31 y.o."																														"Pb-acid battery recycling craft village"	2017/2/27	2017/2/27
PRA000027	SAA001389	ST003	9606			DM39.D	"Homo sapiens"	human	2007	9						Asia	Vietnam	"Dong Mai"	20.93		105.73		Female	Hair									"48 y.o."																														"Pb-acid battery recycling craft village"	2017/2/27	2017/2/27
PRA000027	SAA001390	ST003	9606			DM40.D	"Homo sapiens"	human	2007	9						Asia	Vietnam	"Dong Mai"	20.93		105.73		Female	Hair									"41 y.o."																														"Pb-acid battery recycling craft village"	2017/2/27	2017/2/27
PRA000027	SAA001391	ST003	9606			DM41.D	"Homo sapiens"	human	2007	9						Asia	Vietnam	"Dong Mai"	20.93		105.73		Female	Hair									"48 y.o."																														"Pb-acid battery recycling craft village"	2017/2/27	2017/2/27
PRA000027	SAA001392	ST003	9606			DM42.D	"Homo sapiens"	human	2007	9						Asia	Vietnam	"Dong Mai"	20.93		105.73		Female	Hair									"34 y.o."																														"Pb-acid battery recycling craft village"	2017/2/27	2017/2/27
PRA000027	SAA001393	ST003	9606			DM43.D	"Homo sapiens"	human	2007	9						Asia	Vietnam	"Dong Mai"	20.93		105.73		Female	Hair									"42 y.o."																														"Pb-acid battery recycling craft village"	2017/2/27	2017/2/27
PRA000027	SAA001394	ST003	9606			DM44.D	"Homo sapiens"	human	2007	9						Asia	Vietnam	"Dong Mai"	20.93		105.73		Female	Hair									"42 y.o."																														"Pb-acid battery recycling craft village"	2017/2/27	2017/2/27
PRA000027	SAA001395	ST003	9606			DM45.D	"Homo sapiens"	human	2007	9						Asia	Vietnam	"Dong Mai"	20.93		105.73		Female	Hair									"50 y.o."																														"Pb-acid battery recycling craft village"	2017/2/27	2017/2/27
PRA000027	SAA001396	ST003	9606			DM46.D	"Homo sapiens"	human	2007	9						Asia	Vietnam	"Dong Mai"	20.93		105.73		Male	Hair									"33 y.o."																														"Pb-acid battery recycling craft village"	2017/2/27	2017/2/27
PRA000027	SAA001397	ST003	9606			DM47.D	"Homo sapiens"	human	2007	9						Asia	Vietnam	"Dong Mai"	20.93		105.73		Female	Hair									"47 y.o."																														"Pb-acid battery recycling craft village"	2017/2/27	2017/2/27
PRA000027	SAA001398	ST003	9606			DM48.D	"Homo sapiens"	human	2007	9						Asia	Vietnam	"Dong Mai"	20.93		105.73		Male	Hair									"56 y.o."																														"Pb-acid battery recycling craft village"	2017/2/27	2017/2/27
PRA000027	SAA001399	ST003	9606			DM49.D	"Homo sapiens"	human	2007	9						Asia	Vietnam	"Dong Mai"	20.93		105.73		Female	Hair									"46 y.o."																														"Pb-acid battery recycling craft village"	2017/2/27	2017/2/27
PRA000027	SAA001400	ST003	9606			DM60.D	"Homo sapiens"	human	2007	9						Asia	Vietnam	"Dong Mai"	20.93		105.73		Female	Hair									"41 y.o."																														"Pb-acid battery recycling craft village"	2017/2/27	2017/2/27
PRA000027	SAA001401	ST003	9606			H1.D	"Homo sapiens"	human	2008	9						Asia	Vietnam	Hanoi	21		105.51		Female	Hair									"26 y.o."																														"Urban control sampling site"	2017/2/27	2017/2/27
PRA000027	SAA001402	ST003	9606			H2.D	"Homo sapiens"	human	2008	9						Asia	Vietnam	Hanoi	21		105.51		Female	Hair									"27 y.o."																														"Urban control sampling site"	2017/2/27	2017/2/27
PRA000027	SAA001403	ST003	9606			H3.D	"Homo sapiens"	human	2008	9						Asia	Vietnam	Hanoi	21		105.51		Male	Hair									"23 y.o."																														"Urban control sampling site"	2017/2/27	2017/2/27
PRA000027	SAA001404	ST003	9606			H4.D	"Homo sapiens"	human	2008	9						Asia	Vietnam	Hanoi	21		105.51		Male	Hair									"32 y.o."																														"Urban control sampling site"	2017/2/27	2017/2/27
PRA000027	SAA001405	ST003	9606			H5.D	"Homo sapiens"	human	2008	9						Asia	Vietnam	Hanoi	21		105.51		Female	Hair									"24 y.o."																														"Urban control sampling site"	2017/2/27	2017/2/27
PRA000027	SAA001406	ST003	9606			H6.D	"Homo sapiens"	human	2008	9						Asia	Vietnam	Hanoi	21		105.51		Male	Hair									"22 y.o."																														"Urban control sampling site"	2017/2/27	2017/2/27
PRA000027	SAA001407	ST003	9606			H7.D	"Homo sapiens"	human	2008	9						Asia	Vietnam	Hanoi	21		105.51		Female	Hair									"24 y.o."																														"Urban control sampling site"	2017/2/27	2017/2/27
PRA000027	SAA001408	ST003	9606			H8.D	"Homo sapiens"	human	2008	9						Asia	Vietnam	Hanoi	21		105.51		Female	Hair									"24 y.o."																														"Urban control sampling site"	2017/2/27	2017/2/27
PRA000027	SAA001409	ST003	9606			H9.D	"Homo sapiens"	human	2008	9						Asia	Vietnam	Hanoi	21		105.51		Female	Hair									"25 y.o."																														"Urban control sampling site"	2017/2/27	2017/2/27
PRA000027	SAA001410	ST003	9606			H10.D	"Homo sapiens"	human	2008	9						Asia	Vietnam	Hanoi	21		105.51		Male	Hair									"37 y.o."																														"Urban control sampling site"	2017/2/27	2017/2/27
PRA000027	SAA001411	ST003	9606			H11.D	"Homo sapiens"	human	2008	9						Asia	Vietnam	Hanoi	21		105.51		Male	Hair									"38 y.o."																														"Urban control sampling site"	2017/2/27	2017/2/27
PRA000027	SAA001412	ST003	9606			H12.D	"Homo sapiens"	human	2008	9						Asia	Vietnam	Hanoi	21		105.51		Female	Hair									"35 y.o."																														"Urban control sampling site"	2017/2/27	2017/2/27
PRA000027	SAA001413	ST003	9606			H13.D	"Homo sapiens"	human	2008	9						Asia	Vietnam	Hanoi	21		105.51		Female	Hair									"47 y.o."																														"Urban control sampling site"	2017/2/27	2017/2/27
PRA000027	SAA001414	ST003	9606			H14.D	"Homo sapiens"	human	2008	9						Asia	Vietnam	Hanoi	21		105.51		Female	Hair									"22 y.o."																														"Urban control sampling site"	2017/2/27	2017/2/27
PRA000027	SAA001415	ST003	9606			H15.D	"Homo sapiens"	human	2008	9						Asia	Vietnam	Hanoi	21		105.51		Male	Hair									"21 y.o."																														"Urban control sampling site"	2017/2/27	2017/2/27
PRA000027	SAA001416	ST003	9606			H16.D	"Homo sapiens"	human	2008	9						Asia	Vietnam	Hanoi	21		105.51		Male	Hair									"23 y.o."																														"Urban control sampling site"	2017/2/27	2017/2/27
PRA000027	SAA001417	ST003	9606			H17.D	"Homo sapiens"	human	2008	9						Asia	Vietnam	Hanoi	21		105.51		Male	Hair									"35 y.o."																														"Urban control sampling site"	2017/2/27	2017/2/27
PRA000027	SAA001418	ST003	9606			H18.D	"Homo sapiens"	human	2008	9						Asia	Vietnam	Hanoi	21		105.51		Male	Hair									"28 y.o."																														"Urban control sampling site"	2017/2/27	2017/2/27
PRA000027	SAA001419	ST003	9606			H19.D	"Homo sapiens"	human	2008	9						Asia	Vietnam	Hanoi	21		105.51		Female	Hair									"54 y.o."																														"Urban control sampling site"	2017/2/27	2017/2/27
PRA000027	SAA001420	ST003	9606			H20.D	"Homo sapiens"	human	2008	9						Asia	Vietnam	Hanoi	21		105.51		Female	Hair									"49 y.o."																														"Urban control sampling site"	2017/2/27	2017/2/27
PRA000027	SAA001421	ST003	9606			DM1.D	"Homo sapiens"	human	2007	9						Asia	Vietnam	"Dong Mai"	20.93		105.73		Male	Blood									"21 y.o."																														"Pb-acid battery recycling craft village"	2017/2/27	2017/2/27
PRA000027	SAA001422	ST003	9606			DM2.D	"Homo sapiens"	human	2007	9						Asia	Vietnam	"Dong Mai"	20.93		105.73		Female	Blood									"26 y.o."																														"Pb-acid battery recycling craft village"	2017/2/27	2017/2/27
PRA000027	SAA001423	ST003	9606			DM3.D	"Homo sapiens"	human	2007	9						Asia	Vietnam	"Dong Mai"	20.93		105.73		Male	Blood									"20 y.o."																														"Pb-acid battery recycling craft village"	2017/2/27	2017/2/27
PRA000027	SAA001424	ST003	9606			DM4.D	"Homo sapiens"	human	2007	9						Asia	Vietnam	"Dong Mai"	20.93		105.73		Male	Blood									"42 y.o."																														"Pb-acid battery recycling craft village"	2017/2/27	2017/2/27
PRA000027	SAA001425	ST003	9606			DM5.D	"Homo sapiens"	human	2007	9						Asia	Vietnam	"Dong Mai"	20.93		105.73		Male	Blood									"55 y.o."																														"Pb-acid battery recycling craft village"	2017/2/27	2017/2/27
PRA000027	SAA001426	ST003	9606			DM6.D	"Homo sapiens"	human	2007	9						Asia	Vietnam	"Dong Mai"	20.93		105.73		Male	Blood									"42 y.o."																														"Pb-acid battery recycling craft village"	2017/2/27	2017/2/27
PRA000027	SAA001427	ST003	9606			DM7.D	"Homo sapiens"	human	2007	9						Asia	Vietnam	"Dong Mai"	20.93		105.73		Male	Blood									"44 y.o."																														"Pb-acid battery recycling craft village"	2017/2/27	2017/2/27
PRA000027	SAA001428	ST003	9606			DM8.D	"Homo sapiens"	human	2007	9						Asia	Vietnam	"Dong Mai"	20.93		105.73		Female	Blood									"56 y.o."																														"Pb-acid battery recycling craft village"	2017/2/27	2017/2/27
PRA000027	SAA001429	ST003	9606			DM10.D	"Homo sapiens"	human	2007	9						Asia	Vietnam	"Dong Mai"	20.93		105.73		Male	Blood									"43 y.o."																														"Pb-acid battery recycling craft village"	2017/2/27	2017/2/27
PRA000027	SAA001430	ST003	9606			DM11.D	"Homo sapiens"	human	2007	9						Asia	Vietnam	"Dong Mai"	20.93		105.73		Female	Blood									"34 y.o."																														"Pb-acid battery recycling craft village"	2017/2/27	2017/2/27
PRA000027	SAA001431	ST003	9606			DM12.D	"Homo sapiens"	human	2007	9						Asia	Vietnam	"Dong Mai"	20.93		105.73		Female	Blood									"36 y.o."																														"Pb-acid battery recycling craft village"	2017/2/27	2017/2/27
PRA000027	SAA001432	ST003	9606			DM13.D	"Homo sapiens"	human	2007	9						Asia	Vietnam	"Dong Mai"	20.93		105.73		Female	Blood									"42 y.o."																														"Pb-acid battery recycling craft village"	2017/2/27	2017/2/27
PRA000027	SAA001433	ST003	9606			DM14.D	"Homo sapiens"	human	2007	9						Asia	Vietnam	"Dong Mai"	20.93		105.73		Female	Blood									"45 y.o."																														"Pb-acid battery recycling craft village"	2017/2/27	2017/2/27
PRA000027	SAA001434	ST003	9606			DM15.D	"Homo sapiens"	human	2007	9						Asia	Vietnam	"Dong Mai"	20.93		105.73		Male	Blood									"53 y.o."																														"Pb-acid battery recycling craft village"	2017/2/27	2017/2/27
PRA000027	SAA001435	ST003	9606			DM16.D	"Homo sapiens"	human	2007	9						Asia	Vietnam	"Dong Mai"	20.93		105.73		Female	Blood									"53 y.o."																														"Pb-acid battery recycling craft village"	2017/2/27	2017/2/27
PRA000027	SAA001436	ST003	9606			DM17.D	"Homo sapiens"	human	2007	9						Asia	Vietnam	"Dong Mai"	20.93		105.73		Female	Blood									"48 y.o."																														"Pb-acid battery recycling craft village"	2017/2/27	2017/2/27
PRA000027	SAA001437	ST003	9606			DM18.D	"Homo sapiens"	human	2007	9						Asia	Vietnam	"Dong Mai"	20.93		105.73		Male	Blood									"53 y.o."																														"Pb-acid battery recycling craft village"	2017/2/27	2017/2/27
PRA000027	SAA001438	ST003	9606			DM19.D	"Homo sapiens"	human	2007	9						Asia	Vietnam	"Dong Mai"	20.93		105.73		Female	Blood									"42 y.o."																														"Pb-acid battery recycling craft village"	2017/2/27	2017/2/27
PRA000027	SAA001439	ST003	9606			DM20.D	"Homo sapiens"	human	2007	9						Asia	Vietnam	"Dong Mai"	20.93		105.73		Female	Blood									"50 y.o."																														"Pb-acid battery recycling craft village"	2017/2/27	2017/2/27
PRA000027	SAA001440	ST003	9606			DM21.D	"Homo sapiens"	human	2007	9						Asia	Vietnam	"Dong Mai"	20.93		105.73		Male	Blood									"21 y.o."																														"Pb-acid battery recycling craft village"	2017/2/27	2017/2/27
PRA000027	SAA001441	ST003	9606			DM22.D	"Homo sapiens"	human	2007	9						Asia	Vietnam	"Dong Mai"	20.93		105.73		Female	Blood									"55 y.o."																														"Pb-acid battery recycling craft village"	2017/2/27	2017/2/27
PRA000027	SAA001442	ST003	9606			DM23.D	"Homo sapiens"	human	2007	9						Asia	Vietnam	"Dong Mai"	20.93		105.73		Female	Blood									"47 y.o."																														"Pb-acid battery recycling craft village"	2017/2/27	2017/2/27
PRA000027	SAA001443	ST003	9606			DM24.D	"Homo sapiens"	human	2007	9						Asia	Vietnam	"Dong Mai"	20.93		105.73		Female	Blood									"39 y.o."																														"Pb-acid battery recycling craft village"	2017/2/27	2017/2/27
PRA000027	SAA001444	ST003	9606			DM25.D	"Homo sapiens"	human	2007	9						Asia	Vietnam	"Dong Mai"	20.93		105.73		Female	Blood									"38 y.o."																														"Pb-acid battery recycling craft village"	2017/2/27	2017/2/27
PRA000027	SAA001445	ST003	9606			DM26.D	"Homo sapiens"	human	2007	9						Asia	Vietnam	"Dong Mai"	20.93		105.73		Female	Blood									"50 y.o."																														"Pb-acid battery recycling craft village"	2017/2/27	2017/2/27
PRA000027	SAA001446	ST003	9606			DM27.D	"Homo sapiens"	human	2007	9						Asia	Vietnam	"Dong Mai"	20.93		105.73		Male	Blood									"58 y.o."																														"Pb-acid battery recycling craft village"	2017/2/27	2017/2/27
PRA000027	SAA001447	ST003	9606			DM28.D	"Homo sapiens"	human	2007	9						Asia	Vietnam	"Dong Mai"	20.93		105.73		Female	Blood									"48 y.o."																														"Pb-acid battery recycling craft village"	2017/2/27	2017/2/27
PRA000027	SAA001448	ST003	9606			DM29.D	"Homo sapiens"	human	2007	9						Asia	Vietnam	"Dong Mai"	20.93		105.73		Female	Blood									"44 y.o."																														"Pb-acid battery recycling craft village"	2017/2/27	2017/2/27
PRA000027	SAA001449	ST003	9606			DM30.D	"Homo sapiens"	human	2007	9						Asia	Vietnam	"Dong Mai"	20.93		105.73		Male	Blood									"50 y.o."																														"Pb-acid battery recycling craft village"	2017/2/27	2017/2/27
PRA000027	SAA001450	ST003	9606			DM31.D	"Homo sapiens"	human	2007	9						Asia	Vietnam	"Dong Mai"	20.93		105.73		Female	Blood									"35 y.o."																														"Pb-acid battery recycling craft village"	2017/2/27	2017/2/27
PRA000027	SAA001451	ST003	9606			DM32.D	"Homo sapiens"	human	2007	9						Asia	Vietnam	"Dong Mai"	20.93		105.73		Female	Blood									"53 y.o."																														"Pb-acid battery recycling craft village"	2017/2/27	2017/2/27
PRA000027	SAA001452	ST003	9606			DM33.D	"Homo sapiens"	human	2007	9						Asia	Vietnam	"Dong Mai"	20.93		105.73		Female	Blood									"40 y.o."																														"Pb-acid battery recycling craft village"	2017/2/27	2017/2/27
PRA000027	SAA001453	ST003	9606			DM34.D	"Homo sapiens"	human	2007	9						Asia	Vietnam	"Dong Mai"	20.93		105.73		Male	Blood									"38 y.o."																														"Pb-acid battery recycling craft village"	2017/2/27	2017/2/27
PRA000027	SAA001454	ST003	9606			DM35.D	"Homo sapiens"	human	2007	9						Asia	Vietnam	"Dong Mai"	20.93		105.73		Male	Blood									"32 y.o."																														"Pb-acid battery recycling craft village"	2017/2/27	2017/2/27
PRA000027	SAA001455	ST003	9606			DM36.D	"Homo sapiens"	human	2007	9						Asia	Vietnam	"Dong Mai"	20.93		105.73		Female	Blood									"36 y.o."																														"Pb-acid battery recycling craft village"	2017/2/27	2017/2/27
PRA000027	SAA001456	ST003	9606			DM37.D	"Homo sapiens"	human	2007	9						Asia	Vietnam	"Dong Mai"	20.93		105.73		Female	Blood									"36 y.o."																														"Pb-acid battery recycling craft village"	2017/2/27	2017/2/27
PRA000027	SAA001457	ST003	9606			DM38.D	"Homo sapiens"	human	2007	9						Asia	Vietnam	"Dong Mai"	20.93		105.73		Female	Blood									"31 y.o."																														"Pb-acid battery recycling craft village"	2017/2/27	2017/2/27
PRA000027	SAA001458	ST003	9606			DM39.D	"Homo sapiens"	human	2007	9						Asia	Vietnam	"Dong Mai"	20.93		105.73		Female	Blood									"48 y.o."																														"Pb-acid battery recycling craft village"	2017/2/27	2017/2/27
PRA000027	SAA001459	ST003	9606			DM40.D	"Homo sapiens"	human	2007	9						Asia	Vietnam	"Dong Mai"	20.93		105.73		Female	Blood									"41 y.o."																														"Pb-acid battery recycling craft village"	2017/2/27	2017/2/27
PRA000027	SAA001460	ST003	9606			DM41.D	"Homo sapiens"	human	2007	9						Asia	Vietnam	"Dong Mai"	20.93		105.73		Female	Blood									"48 y.o."																														"Pb-acid battery recycling craft village"	2017/2/27	2017/2/27
PRA000027	SAA001461	ST003	9606			DM42.D	"Homo sapiens"	human	2007	9						Asia	Vietnam	"Dong Mai"	20.93		105.73		Female	Blood									"34 y.o."																														"Pb-acid battery recycling craft village"	2017/2/27	2017/2/27
PRA000027	SAA001462	ST003	9606			DM43.D	"Homo sapiens"	human	2007	9						Asia	Vietnam	"Dong Mai"	20.93		105.73		Female	Blood									"42 y.o."																														"Pb-acid battery recycling craft village"	2017/2/27	2017/2/27
PRA000027	SAA001463	ST003	9606			DM44.D	"Homo sapiens"	human	2007	9						Asia	Vietnam	"Dong Mai"	20.93		105.73		Female	Blood									"42 y.o."																														"Pb-acid battery recycling craft village"	2017/2/27	2017/2/27
PRA000027	SAA001464	ST003	9606			DM45.D	"Homo sapiens"	human	2007	9						Asia	Vietnam	"Dong Mai"	20.93		105.73		Female	Blood									"50 y.o."																														"Pb-acid battery recycling craft village"	2017/2/27	2017/2/27
PRA000027	SAA001465	ST003	9606			DM46.D	"Homo sapiens"	human	2007	9						Asia	Vietnam	"Dong Mai"	20.93		105.73		Male	Blood									"33 y.o."																														"Pb-acid battery recycling craft village"	2017/2/27	2017/2/27
PRA000027	SAA001466	ST003	9606			DM47.D	"Homo sapiens"	human	2007	9						Asia	Vietnam	"Dong Mai"	20.93		105.73		Female	Blood									"47 y.o."																														"Pb-acid battery recycling craft village"	2017/2/27	2017/2/27
PRA000027	SAA001467	ST003	9606			DM48.D	"Homo sapiens"	human	2007	9						Asia	Vietnam	"Dong Mai"	20.93		105.73		Male	Blood									"56 y.o."																														"Pb-acid battery recycling craft village"	2017/2/27	2017/2/27
PRA000027	SAA001468	ST003	9606			DM49.D	"Homo sapiens"	human	2007	9						Asia	Vietnam	"Dong Mai"	20.93		105.73		Female	Blood									"46 y.o."																														"Pb-acid battery recycling craft village"	2017/2/27	2017/2/27
PRA000027	SAA001469	ST003	9606			DM60.D	"Homo sapiens"	human	2007	9						Asia	Vietnam	"Dong Mai"	20.93		105.73		Female	Blood									"41 y.o."																														"Pb-acid battery recycling craft village"	2017/2/27	2017/2/27
PRA000027	SAA001470	ST003	9606			H1.D	"Homo sapiens"	human	2008	9						Asia	Vietnam	Hanoi	21		105.51		Female	Blood									"26 y.o."																														"Urban control sampling site"	2017/2/27	2017/2/27
PRA000027	SAA001471	ST003	9606			H2.D	"Homo sapiens"	human	2008	9						Asia	Vietnam	Hanoi	21		105.51		Female	Blood									"27 y.o."																														"Urban control sampling site"	2017/2/27	2017/2/27
PRA000027	SAA001472	ST003	9606			H3.D	"Homo sapiens"	human	2008	9						Asia	Vietnam	Hanoi	21		105.51		Male	Blood									"23 y.o."																														"Urban control sampling site"	2017/2/27	2017/2/27
PRA000027	SAA001473	ST003	9606			H4.D	"Homo sapiens"	human	2008	9						Asia	Vietnam	Hanoi	21		105.51		Male	Blood									"32 y.o."																														"Urban control sampling site"	2017/2/27	2017/2/27
PRA000027	SAA001474	ST003	9606			H5.D	"Homo sapiens"	human	2008	9						Asia	Vietnam	Hanoi	21		105.51		Female	Blood									"24 y.o."																														"Urban control sampling site"	2017/2/27	2017/2/27
PRA000027	SAA001475	ST003	9606			H6.D	"Homo sapiens"	human	2008	9						Asia	Vietnam	Hanoi	21		105.51		Male	Blood									"22 y.o."																														"Urban control sampling site"	2017/2/27	2017/2/27
PRA000027	SAA001476	ST003	9606			H7.D	"Homo sapiens"	human	2008	9						Asia	Vietnam	Hanoi	21		105.51		Female	Blood									"24 y.o."																														"Urban control sampling site"	2017/2/27	2017/2/27
PRA000027	SAA001477	ST003	9606			H8.D	"Homo sapiens"	human	2008	9						Asia	Vietnam	Hanoi	21		105.51		Female	Blood									"24 y.o."																														"Urban control sampling site"	2017/2/27	2017/2/27
PRA000027	SAA001478	ST003	9606			H9.D	"Homo sapiens"	human	2008	9						Asia	Vietnam	Hanoi	21		105.51		Female	Blood									"25 y.o."																														"Urban control sampling site"	2017/2/27	2017/2/27
PRA000027	SAA001479	ST003	9606			H10.D	"Homo sapiens"	human	2008	9						Asia	Vietnam	Hanoi	21		105.51		Male	Blood									"37 y.o."																														"Urban control sampling site"	2017/2/27	2017/2/27
PRA000027	SAA001480	ST003	9606			H11.D	"Homo sapiens"	human	2008	9						Asia	Vietnam	Hanoi	21		105.51		Male	Blood									"38 y.o."																														"Urban control sampling site"	2017/2/27	2017/2/27
PRA000027	SAA001481	ST003	9606			H12.D	"Homo sapiens"	human	2008	9						Asia	Vietnam	Hanoi	21		105.51		Female	Blood									"35 y.o."																														"Urban control sampling site"	2017/2/27	2017/2/27
PRA000027	SAA001482	ST003	9606			H13.D	"Homo sapiens"	human	2008	9						Asia	Vietnam	Hanoi	21		105.51		Female	Blood									"47 y.o."																														"Urban control sampling site"	2017/2/27	2017/2/27
PRA000027	SAA001483	ST003	9606			H14.D	"Homo sapiens"	human	2008	9						Asia	Vietnam	Hanoi	21		105.51		Female	Blood									"22 y.o."																														"Urban control sampling site"	2017/2/27	2017/2/27
PRA000027	SAA001484	ST003	9606			H15.D	"Homo sapiens"	human	2008	9						Asia	Vietnam	Hanoi	21		105.51		Male	Blood									"21 y.o."																														"Urban control sampling site"	2017/2/27	2017/2/27
PRA000027	SAA001485	ST003	9606			H16.D	"Homo sapiens"	human	2008	9						Asia	Vietnam	Hanoi	21		105.51		Male	Blood									"23 y.o."																														"Urban control sampling site"	2017/2/27	2017/2/27
PRA000027	SAA001486	ST003	9606			H17.D	"Homo sapiens"	human	2008	9						Asia	Vietnam	Hanoi	21		105.51		Male	Blood									"35 y.o."																														"Urban control sampling site"	2017/2/27	2017/2/27
PRA000027	SAA001487	ST003	9606			H18.D	"Homo sapiens"	human	2008	9						Asia	Vietnam	Hanoi	21		105.51		Male	Blood									"28 y.o."																														"Urban control sampling site"	2017/2/27	2017/2/27
PRA000027	SAA001488	ST003	9606			H19.D	"Homo sapiens"	human	2008	9						Asia	Vietnam	Hanoi	21		105.51		Female	Blood									"54 y.o."																														"Urban control sampling site"	2017/2/27	2017/2/27
PRA000027	SAA001489	ST003	9606			H20.D	"Homo sapiens"	human	2008	9						Asia	Vietnam	Hanoi	21		105.51		Female	Blood									"49 y.o."																														"Urban control sampling site"	2017/2/27	2017/2/27
PRA000027	SAA001490	ST003	9606			DM1.D	"Homo sapiens"	human	2007	9						Asia	Vietnam	"Dong Mai"	20.93		105.73		Male	Urine									"21 y.o."																														"Pb-acid battery recycling craft village"	2017/2/27	2017/2/27
PRA000027	SAA001491	ST003	9606			DM2.D	"Homo sapiens"	human	2007	9						Asia	Vietnam	"Dong Mai"	20.93		105.73		Female	Urine									"26 y.o."																														"Pb-acid battery recycling craft village"	2017/2/27	2017/2/27
PRA000027	SAA001492	ST003	9606			DM3.D	"Homo sapiens"	human	2007	9						Asia	Vietnam	"Dong Mai"	20.93		105.73		Male	Urine									"20 y.o."																														"Pb-acid battery recycling craft village"	2017/2/27	2017/2/27
PRA000027	SAA001493	ST003	9606			DM4.D	"Homo sapiens"	human	2007	9						Asia	Vietnam	"Dong Mai"	20.93		105.73		Male	Urine									"42 y.o."																														"Pb-acid battery recycling craft village"	2017/2/27	2017/2/27
PRA000027	SAA001494	ST003	9606			DM5.D	"Homo sapiens"	human	2007	9						Asia	Vietnam	"Dong Mai"	20.93		105.73		Male	Urine									"55 y.o."																														"Pb-acid battery recycling craft village"	2017/2/27	2017/2/27
PRA000027	SAA001495	ST003	9606			DM6.D	"Homo sapiens"	human	2007	9						Asia	Vietnam	"Dong Mai"	20.93		105.73		Male	Urine									"42 y.o."																														"Pb-acid battery recycling craft village"	2017/2/27	2017/2/27
PRA000027	SAA001496	ST003	9606			DM7.D	"Homo sapiens"	human	2007	9						Asia	Vietnam	"Dong Mai"	20.93		105.73		Male	Urine									"44 y.o."																														"Pb-acid battery recycling craft village"	2017/2/27	2017/2/27
PRA000027	SAA001497	ST003	9606			DM8.D	"Homo sapiens"	human	2007	9						Asia	Vietnam	"Dong Mai"	20.93		105.73		Female	Urine									"56 y.o."																														"Pb-acid battery recycling craft village"	2017/2/27	2017/2/27
PRA000027	SAA001498	ST003	9606			DM10.D	"Homo sapiens"	human	2007	9						Asia	Vietnam	"Dong Mai"	20.93		105.73		Male	Urine									"43 y.o."																														"Pb-acid battery recycling craft village"	2017/2/27	2017/2/27
PRA000027	SAA001499	ST003	9606			DM13.D	"Homo sapiens"	human	2007	9						Asia	Vietnam	"Dong Mai"	20.93		105.73		Female	Urine									"42 y.o."																														"Pb-acid battery recycling craft village"	2017/2/27	2017/2/27
PRA000027	SAA001500	ST003	9606			DM15.D	"Homo sapiens"	human	2007	9						Asia	Vietnam	"Dong Mai"	20.93		105.73		Male	Urine									"53 y.o."																														"Pb-acid battery recycling craft village"	2017/2/27	2017/2/27
PRA000027	SAA001501	ST003	9606			DM18.D	"Homo sapiens"	human	2007	9						Asia	Vietnam	"Dong Mai"	20.93		105.73		Male	Urine									"53 y.o."																														"Pb-acid battery recycling craft village"	2017/2/27	2017/2/27
PRA000027	SAA001502	ST003	9606			DM23.D	"Homo sapiens"	human	2007	9						Asia	Vietnam	"Dong Mai"	20.93		105.73		Female	Urine									"47 y.o."																														"Pb-acid battery recycling craft village"	2017/2/27	2017/2/27
PRA000027	SAA001503	ST003	9606			DM24.D	"Homo sapiens"	human	2007	9						Asia	Vietnam	"Dong Mai"	20.93		105.73		Female	Urine									"39 y.o."																														"Pb-acid battery recycling craft village"	2017/2/27	2017/2/27
PRA000027	SAA001504	ST003	9606			DM27.D	"Homo sapiens"	human	2007	9						Asia	Vietnam	"Dong Mai"	20.93		105.73		Male	Urine									"58 y.o."																														"Pb-acid battery recycling craft village"	2017/2/27	2017/2/27
PRA000027	SAA001505	ST003	9606			DM28.D	"Homo sapiens"	human	2007	9						Asia	Vietnam	"Dong Mai"	20.93		105.73		Female	Urine									"48 y.o."																														"Pb-acid battery recycling craft village"	2017/2/27	2017/2/27
PRA000027	SAA001506	ST003	9606			DM30.D	"Homo sapiens"	human	2007	9						Asia	Vietnam	"Dong Mai"	20.93		105.73		Male	Urine									"50 y.o."																														"Pb-acid battery recycling craft village"	2017/2/27	2017/2/27
PRA000027	SAA001507	ST003	9606			DM32.D	"Homo sapiens"	human	2007	9						Asia	Vietnam	"Dong Mai"	20.93		105.73		Female	Urine									"53 y.o."																														"Pb-acid battery recycling craft village"	2017/2/27	2017/2/27
PRA000027	SAA001508	ST003	9606			DM34.D	"Homo sapiens"	human	2007	9						Asia	Vietnam	"Dong Mai"	20.93		105.73		Male	Urine									"38 y.o."																														"Pb-acid battery recycling craft village"	2017/2/27	2017/2/27
PRA000027	SAA001509	ST003	9606			DM35.D	"Homo sapiens"	human	2007	9						Asia	Vietnam	"Dong Mai"	20.93		105.73		Male	Urine									"32 y.o."																														"Pb-acid battery recycling craft village"	2017/2/27	2017/2/27
PRA000027	SAA001510	ST003	9606			DM36.D	"Homo sapiens"	human	2007	9						Asia	Vietnam	"Dong Mai"	20.93		105.73		Female	Urine									"36 y.o."																														"Pb-acid battery recycling craft village"	2017/2/27	2017/2/27
PRA000027	SAA001511	ST003	9606			DM37.D	"Homo sapiens"	human	2007	9						Asia	Vietnam	"Dong Mai"	20.93		105.73		Female	Urine									"36 y.o."																														"Pb-acid battery recycling craft village"	2017/2/27	2017/2/27
PRA000027	SAA001512	ST003	9606			DM38.D	"Homo sapiens"	human	2007	9						Asia	Vietnam	"Dong Mai"	20.93		105.73		Female	Urine									"31 y.o."																														"Pb-acid battery recycling craft village"	2017/2/27	2017/2/27
PRA000027	SAA001513	ST003	9606			DM39.D	"Homo sapiens"	human	2007	9						Asia	Vietnam	"Dong Mai"	20.93		105.73		Female	Urine									"48 y.o."																														"Pb-acid battery recycling craft village"	2017/2/27	2017/2/27
PRA000027	SAA001514	ST003	9606			DM40.D	"Homo sapiens"	human	2007	9						Asia	Vietnam	"Dong Mai"	20.93		105.73		Female	Urine									"41 y.o."																														"Pb-acid battery recycling craft village"	2017/2/27	2017/2/27
PRA000027	SAA001515	ST003	9606			DM43.D	"Homo sapiens"	human	2007	9						Asia	Vietnam	"Dong Mai"	20.93		105.73		Female	Urine									"42 y.o."																														"Pb-acid battery recycling craft village"	2017/2/27	2017/2/27
PRA000027	SAA001516	ST003	9606			DM46.D	"Homo sapiens"	human	2007	9						Asia	Vietnam	"Dong Mai"	20.93		105.73		Male	Urine									"33 y.o."																														"Pb-acid battery recycling craft village"	2017/2/27	2017/2/27
PRA000027	SAA001517	ST003	9606			DM47.D	"Homo sapiens"	human	2007	9						Asia	Vietnam	"Dong Mai"	20.93		105.73		Female	Urine									"47 y.o."																														"Pb-acid battery recycling craft village"	2017/2/27	2017/2/27
PRA000027	SAA001518	ST003	9606			DM48.D	"Homo sapiens"	human	2007	9						Asia	Vietnam	"Dong Mai"	20.93		105.73		Male	Urine									"56 y.o."																														"Pb-acid battery recycling craft village"	2017/2/27	2017/2/27
PRA000027	SAA001519	ST003	9606			DM60.D	"Homo sapiens"	human	2007	9						Asia	Vietnam	"Dong Mai"	20.93		105.73		Female	Urine									"41 y.o."																														"Pb-acid battery recycling craft village"	2017/2/27	2017/2/27
PRA000027	SAA001520	ST003	9606			H2.D	"Homo sapiens"	human	2008	9						Asia	Vietnam	Hanoi	21		105.51		Female	Urine									"27 y.o."																														"Urban control sampling site"	2017/2/27	2017/2/27
PRA000027	SAA001521	ST003	9606			H5.D	"Homo sapiens"	human	2008	9						Asia	Vietnam	Hanoi	21		105.51		Female	Urine									"24 y.o."																														"Urban control sampling site"	2017/2/27	2017/2/27
PRA000027	SAA001522	ST003	9606			H7.D	"Homo sapiens"	human	2008	9						Asia	Vietnam	Hanoi	21		105.51		Female	Urine									"24 y.o."																														"Urban control sampling site"	2017/2/27	2017/2/27
PRA000027	SAA001523	ST003	9606			H9.D	"Homo sapiens"	human	2008	9						Asia	Vietnam	Hanoi	21		105.51		Female	Urine									"25 y.o."																														"Urban control sampling site"	2017/2/27	2017/2/27
PRA000027	SAA001524	ST003	9606			H10.D	"Homo sapiens"	human	2008	9						Asia	Vietnam	Hanoi	21		105.51		Male	Urine									"37 y.o."																														"Urban control sampling site"	2017/2/27	2017/2/27
PRA000027	SAA001525	ST003	9606			H13.D	"Homo sapiens"	human	2008	9						Asia	Vietnam	Hanoi	21		105.51		Female	Urine									"47 y.o."																														"Urban control sampling site"	2017/2/27	2017/2/27
PRA000027	SAA001526	ST003	9606			H14.D	"Homo sapiens"	human	2008	9						Asia	Vietnam	Hanoi	21		105.51		Female	Urine									"22 y.o."																														"Urban control sampling site"	2017/2/27	2017/2/27
PRA000027	SAA001527	ST003	9606			H15.D	"Homo sapiens"	human	2008	9						Asia	Vietnam	Hanoi	21		105.51		Male	Urine									"21 y.o."																														"Urban control sampling site"	2017/2/27	2017/2/27
PRA000027	SAA001528	ST003	9606			H16.D	"Homo sapiens"	human	2008	9						Asia	Vietnam	Hanoi	21		105.51		Male	Urine									"23 y.o."																														"Urban control sampling site"	2017/2/27	2017/2/27
PRA000027	SAA001529	ST003	9606			H18.D	"Homo sapiens"	human	2008	9						Asia	Vietnam	Hanoi	21		105.51		Male	Urine									"28 y.o."																														"Urban control sampling site"	2017/2/27	2017/2/27
PRA000027	SAA001530	ST003	9606			10DM01a	"Homo sapiens"	human	2010	1						Asia	Vietnam	"Dong Mai"	20.93		105.73		Male	Blood									"55 y.o."																														"Pb-acid battery recycling craft village"	2017/2/27	2017/2/27
PRA000027	SAA001531	ST003	9606			10DM01b	"Homo sapiens"	human	2010	1						Asia	Vietnam	"Dong Mai"	20.93		105.73		Male	Blood									"19 y.o."																														"Pb-acid battery recycling craft village"	2017/2/27	2017/2/27
PRA000027	SAA001532	ST003	9606			10DM01c	"Homo sapiens"	human	2010	1						Asia	Vietnam	"Dong Mai"	20.93		105.73		Female	Blood									"32 y.o."																														"Pb-acid battery recycling craft village"	2017/2/27	2017/2/27
PRA000027	SAA001533	ST003	9606			10DM01d	"Homo sapiens"	human	2010	1						Asia	Vietnam	"Dong Mai"	20.93		105.73		Female	Blood									"35 y.o."																														"Pb-acid battery recycling craft village"	2017/2/27	2017/2/27
PRA000027	SAA001534	ST003	9606			10DM02a	"Homo sapiens"	human	2010	1						Asia	Vietnam	"Dong Mai"	20.93		105.73		Female	Blood									"52 y.o."																														"Pb-acid battery recycling craft village"	2017/2/27	2017/2/27
PRA000027	SAA001535	ST003	9606			10DM02b	"Homo sapiens"	human	2010	1						Asia	Vietnam	"Dong Mai"	20.93		105.73		Female	Blood									"56 y.o."																														"Pb-acid battery recycling craft village"	2017/2/27	2017/2/27
PRA000027	SAA001536	ST003	9606			10DM02c	"Homo sapiens"	human	2010	1						Asia	Vietnam	"Dong Mai"	20.93		105.73		Female	Blood									"55 y.o."																														"Pb-acid battery recycling craft village"	2017/2/27	2017/2/27
PRA000027	SAA001537	ST003	9606			10DM02e	"Homo sapiens"	human	2010	1						Asia	Vietnam	"Dong Mai"	20.93		105.73		Male	Blood									"42 y.o."																														"Pb-acid battery recycling craft village"	2017/2/27	2017/2/27
PRA000027	SAA001538	ST003	9606			10DM02g	"Homo sapiens"	human	2010	1						Asia	Vietnam	"Dong Mai"	20.93		105.73		Female	Blood									"52 y.o."																														"Pb-acid battery recycling craft village"	2017/2/27	2017/2/27
PRA000027	SAA001539	ST003	9606			10DM03a	"Homo sapiens"	human	2010	1						Asia	Vietnam	"Dong Mai"	20.93		105.73		Female	Blood									"36 y.o."																														"Pb-acid battery recycling craft village"	2017/2/27	2017/2/27
PRA000027	SAA001540	ST003	9606			10DM03b	"Homo sapiens"	human	2010	1						Asia	Vietnam	"Dong Mai"	20.93		105.73		Female	Blood									"30 y.o."																														"Pb-acid battery recycling craft village"	2017/2/27	2017/2/27
PRA000027	SAA001541	ST003	9606			10DM03c	"Homo sapiens"	human	2010	1						Asia	Vietnam	"Dong Mai"	20.93		105.73		Female	Blood									"47 y.o."																														"Pb-acid battery recycling craft village"	2017/2/27	2017/2/27
PRA000027	SAA001542	ST003	9606			10DM03d	"Homo sapiens"	human	2010	1						Asia	Vietnam	"Dong Mai"	20.93		105.73		Female	Blood									"25 y.o."																														"Pb-acid battery recycling craft village"	2017/2/27	2017/2/27
PRA000027	SAA001543	ST003	9606			10DM03e	"Homo sapiens"	human	2010	1						Asia	Vietnam	"Dong Mai"	20.93		105.73		Male	Blood									"47 y.o."																														"Pb-acid battery recycling craft village"	2017/2/27	2017/2/27
PRA000027	SAA001544	ST003	9606			10DM03f	"Homo sapiens"	human	2010	1						Asia	Vietnam	"Dong Mai"	20.93		105.73		Male	Blood									"47 y.o."																														"Pb-acid battery recycling craft village"	2017/2/27	2017/2/27
PRA000027	SAA001545	ST003	9606			10DM04a	"Homo sapiens"	human	2010	1						Asia	Vietnam	"Dong Mai"	20.93		105.73		Male	Blood									"37 y.o."																														"Pb-acid battery recycling craft village"	2017/2/27	2017/2/27
PRA000027	SAA001546	ST003	9606			10DM04b	"Homo sapiens"	human	2010	1						Asia	Vietnam	"Dong Mai"	20.93		105.73		Female	Blood									"47 y.o."																														"Pb-acid battery recycling craft village"	2017/2/27	2017/2/27
PRA000027	SAA001547	ST003	9606			10DM04c	"Homo sapiens"	human	2010	1						Asia	Vietnam	"Dong Mai"	20.93		105.73		Female	Blood									"33 y.o."																														"Pb-acid battery recycling craft village"	2017/2/27	2017/2/27
PRA000027	SAA001548	ST003	9606			10DM04d	"Homo sapiens"	human	2010	1						Asia	Vietnam	"Dong Mai"	20.93		105.73		Female	Blood									"37 y.o."																														"Pb-acid battery recycling craft village"	2017/2/27	2017/2/27
PRA000027	SAA001549	ST003	9606			10DM05a	"Homo sapiens"	human	2010	1						Asia	Vietnam	"Dong Mai"	20.93		105.73		Male	Blood									"50 y.o."																														"Pb-acid battery recycling craft village"	2017/2/27	2017/2/27
PRA000027	SAA001550	ST003	9606			10DM05b	"Homo sapiens"	human	2010	1						Asia	Vietnam	"Dong Mai"	20.93		105.73		Female	Blood									"18 y.o."																														"Pb-acid battery recycling craft village"	2017/2/27	2017/2/27
PRA000027	SAA001551	ST003	9606			10DM05d	"Homo sapiens"	human	2010	1						Asia	Vietnam	"Dong Mai"	20.93		105.73		Female	Blood									"41 y.o."																														"Pb-acid battery recycling craft village"	2017/2/27	2017/2/27
PRA000027	SAA001552	ST003	9606			10DM05e	"Homo sapiens"	human	2010	1						Asia	Vietnam	"Dong Mai"	20.93		105.73		Male	Blood									"55 y.o."																														"Pb-acid battery recycling craft village"	2017/2/27	2017/2/27
PRA000027	SAA001553	ST003	9606			10DM06b	"Homo sapiens"	human	2010	1						Asia	Vietnam	"Dong Mai"	20.93		105.73		Female	Blood									"39 y.o."																														"Pb-acid battery recycling craft village"	2017/2/27	2017/2/27
PRA000027	SAA001554	ST003	9606			10DM06c	"Homo sapiens"	human	2010	1						Asia	Vietnam	"Dong Mai"	20.93		105.73		Female	Blood									"41 y.o."																														"Pb-acid battery recycling craft village"	2017/2/27	2017/2/27
PRA000027	SAA001555	ST003	9606			10DM06d	"Homo sapiens"	human	2010	1						Asia	Vietnam	"Dong Mai"	20.93		105.73		Female	Blood									"39 y.o."																														"Pb-acid battery recycling craft village"	2017/2/27	2017/2/27
PRA000027	SAA001556	ST003	9606			10DM06e	"Homo sapiens"	human	2010	1						Asia	Vietnam	"Dong Mai"	20.93		105.73		Male	Blood									"41 y.o."																														"Pb-acid battery recycling craft village"	2017/2/27	2017/2/27
PRA000027	SAA001557	ST003	9606			10DM06f	"Homo sapiens"	human	2010	1						Asia	Vietnam	"Dong Mai"	20.93		105.73		Male	Blood									"46 y.o."																														"Pb-acid battery recycling craft village"	2017/2/27	2017/2/27
PRA000027	SAA001558	ST003	9606			10DM06g	"Homo sapiens"	human	2010	1						Asia	Vietnam	"Dong Mai"	20.93		105.73		Female	Blood									"45 y.o."																														"Pb-acid battery recycling craft village"	2017/2/27	2017/2/27
PRA000027	SAA001559	ST003	9606			10DM08a	"Homo sapiens"	human	2010	1						Asia	Vietnam	"Dong Mai"	20.93		105.73		Male	Blood									"50 y.o."																														"Pb-acid battery recycling craft village"	2017/2/27	2017/2/27
PRA000027	SAA001560	ST003	9606			10DM08b	"Homo sapiens"	human	2010	1						Asia	Vietnam	"Dong Mai"	20.93		105.73		Male	Blood									"30 y.o."																														"Pb-acid battery recycling craft village"	2017/2/27	2017/2/27
PRA000027	SAA001561	ST003	9606			10DM08c	"Homo sapiens"	human	2010	1						Asia	Vietnam	"Dong Mai"	20.93		105.73		Female	Blood									"33 y.o."																														"Pb-acid battery recycling craft village"	2017/2/27	2017/2/27
PRA000027	SAA001562	ST003	9606			10DM08d	"Homo sapiens"	human	2010	1						Asia	Vietnam	"Dong Mai"	20.93		105.73		Female	Blood									"40 y.o."																														"Pb-acid battery recycling craft village"	2017/2/27	2017/2/27
PRA000027	SAA001563	ST003	9606			10DM08e	"Homo sapiens"	human	2010	1						Asia	Vietnam	"Dong Mai"	20.93		105.73		Male	Blood									"40 y.o."																														"Pb-acid battery recycling craft village"	2017/2/27	2017/2/27
PRA000027	SAA001564	ST003	9606			10DM08f	"Homo sapiens"	human	2010	1						Asia	Vietnam	"Dong Mai"	20.93		105.73		Female	Blood									"20 y.o."																														"Pb-acid battery recycling craft village"	2017/2/27	2017/2/27
PRA000027	SAA001565	ST003	9606			10DM08h	"Homo sapiens"	human	2010	1						Asia	Vietnam	"Dong Mai"	20.93		105.73		Male	Blood									"55 y.o."																														"Pb-acid battery recycling craft village"	2017/2/27	2017/2/27
PRA000027	SAA001566	ST003	9606			10DM08i	"Homo sapiens"	human	2010	1						Asia	Vietnam	"Dong Mai"	20.93		105.73		Female	Blood									"49 y.o."																														"Pb-acid battery recycling craft village"	2017/2/27	2017/2/27
PRA000027	SAA001567	ST003	9606			10DM09a	"Homo sapiens"	human	2010	1						Asia	Vietnam	"Dong Mai"	20.93		105.73		Female	Blood									"42 y.o."																														"Pb-acid battery recycling craft village"	2017/2/27	2017/2/27
PRA000027	SAA001568	ST003	9606			10DM09b	"Homo sapiens"	human	2010	1						Asia	Vietnam	"Dong Mai"	20.93		105.73		Female	Blood									"49 y.o."																														"Pb-acid battery recycling craft village"	2017/2/27	2017/2/27
PRA000027	SAA001569	ST003	9606			10DM09c	"Homo sapiens"	human	2010	1						Asia	Vietnam	"Dong Mai"	20.93		105.73		Female	Blood									"28 y.o."																														"Pb-acid battery recycling craft village"	2017/2/27	2017/2/27
PRA000027	SAA001570	ST003	9606			10DM09d	"Homo sapiens"	human	2010	1						Asia	Vietnam	"Dong Mai"	20.93		105.73		Female	Blood									"43 y.o."																														"Pb-acid battery recycling craft village"	2017/2/27	2017/2/27
PRA000027	SAA001571	ST003	9606			11DM2.D	"Homo sapiens"	human	2011	1						Asia	Vietnam	"Dong Mai"	20.93		105.73		Male	Blood									"59 y.o."																														"Pb-acid battery recycling craft village"	2017/2/27	2017/2/27
PRA000027	SAA001572	ST003	9606			11DM3.D	"Homo sapiens"	human	2011	1						Asia	Vietnam	"Dong Mai"	20.93		105.73		Female	Blood									"29 y.o."																														"Pb-acid battery recycling craft village"	2017/2/27	2017/2/27
PRA000027	SAA001573	ST003	9606			11DM5.D	"Homo sapiens"	human	2011	1						Asia	Vietnam	"Dong Mai"	20.93		105.73		Female	Blood									"47 y.o."																														"Pb-acid battery recycling craft village"	2017/2/27	2017/2/27
PRA000027	SAA001574	ST003	9606			11DM6.D	"Homo sapiens"	human	2011	1						Asia	Vietnam	"Dong Mai"	20.93		105.73		Male	Blood									"25 y.o."																														"Pb-acid battery recycling craft village"	2017/2/27	2017/2/27
PRA000027	SAA001575	ST003	9606			11DM7.D	"Homo sapiens"	human	2011	1						Asia	Vietnam	"Dong Mai"	20.93		105.73		Male	Blood									"27 y.o."																														"Pb-acid battery recycling craft village"	2017/2/27	2017/2/27
PRA000027	SAA001576	ST003	9606			11DM8.D	"Homo sapiens"	human	2011	1						Asia	Vietnam	"Dong Mai"	20.93		105.73		Male	Blood									"50 y.o."																														"Pb-acid battery recycling craft village"	2017/2/27	2017/2/27
PRA000027	SAA001577	ST003	9606			11DM9.D	"Homo sapiens"	human	2011	1						Asia	Vietnam	"Dong Mai"	20.93		105.73		Male	Blood									"52 y.o."																														"Pb-acid battery recycling craft village"	2017/2/27	2017/2/27
PRA000027	SAA001578	ST003	9606			11DM11.D	"Homo sapiens"	human	2011	1						Asia	Vietnam	"Dong Mai"	20.93		105.73		Female	Blood									"47 y.o."																														"Pb-acid battery recycling craft village"	2017/2/27	2017/2/27
PRA000027	SAA001579	ST003	9606			11DM12.D	"Homo sapiens"	human	2011	1						Asia	Vietnam	"Dong Mai"	20.93		105.73		Male	Blood									"24 y.o."																														"Pb-acid battery recycling craft village"	2017/2/27	2017/2/27
PRA000027	SAA001580	ST003	9606			11DM14.D	"Homo sapiens"	human	2011	1						Asia	Vietnam	"Dong Mai"	20.93		105.73		Female	Blood									"56 y.o."																														"Pb-acid battery recycling craft village"	2017/2/27	2017/2/27
PRA000027	SAA001581	ST003	9606			11DM16.D	"Homo sapiens"	human	2011	1						Asia	Vietnam	"Dong Mai"	20.93		105.73		Female	Blood									"36 y.o."																														"Pb-acid battery recycling craft village"	2017/2/27	2017/2/27
PRA000027	SAA001582	ST003	9606			11DM18.D	"Homo sapiens"	human	2011	1						Asia	Vietnam	"Dong Mai"	20.93		105.73		Female	Blood									"9 y.o."																														"Pb-acid battery recycling craft village"	2017/2/27	2017/2/27
PRA000027	SAA001583	ST003	9606			11DM19.D	"Homo sapiens"	human	2011	1						Asia	Vietnam	"Dong Mai"	20.93		105.73		Male	Blood									"48 y.o."																														"Pb-acid battery recycling craft village"	2017/2/27	2017/2/27
PRA000027	SAA001584	ST003	9606			11DM20.D	"Homo sapiens"	human	2011	1						Asia	Vietnam	"Dong Mai"	20.93		105.73		Male	Blood									"48 y.o."																														"Pb-acid battery recycling craft village"	2017/2/27	2017/2/27
PRA000027	SAA001585	ST003	9606			11DM22.D	"Homo sapiens"	human	2011	1						Asia	Vietnam	"Dong Mai"	20.93		105.73		Female	Blood									"27 y.o."																														"Pb-acid battery recycling craft village"	2017/2/27	2017/2/27
PRA000027	SAA001586	ST003	9606			11DM23.D	"Homo sapiens"	human	2011	1						Asia	Vietnam	"Dong Mai"	20.93		105.73		Male	Blood									"9 y.o."																														"Pb-acid battery recycling craft village"	2017/2/27	2017/2/27
PRA000027	SAA001587	ST003	9606			11DM26.D	"Homo sapiens"	human	2011	1						Asia	Vietnam	"Dong Mai"	20.93		105.73		Female	Blood									"29 y.o."																														"Pb-acid battery recycling craft village"	2017/2/27	2017/2/27
PRA000027	SAA001588	ST003	9606			11DM28.D	"Homo sapiens"	human	2011	1						Asia	Vietnam	"Dong Mai"	20.93		105.73		Male	Blood									"53 y.o."																														"Pb-acid battery recycling craft village"	2017/2/27	2017/2/27
PRA000027	SAA001589	ST003	9606			11DM29.D	"Homo sapiens"	human	2011	1						Asia	Vietnam	"Dong Mai"	20.93		105.73		Male	Blood									"39 y.o."																														"Pb-acid battery recycling craft village"	2017/2/27	2017/2/27
PRA000027	SAA001590	ST003	9606			11DM30.D	"Homo sapiens"	human	2011	1						Asia	Vietnam	"Dong Mai"	20.93		105.73		Female	Blood									"39 y.o."																														"Pb-acid battery recycling craft village"	2017/2/27	2017/2/27
PRA000027	SAA001591	ST003	9606			11DM31.D	"Homo sapiens"	human	2011	1						Asia	Vietnam	"Dong Mai"	20.93		105.73		Female	Blood									"15 y.o."																														"Pb-acid battery recycling craft village"	2017/2/27	2017/2/27
PRA000027	SAA001592	ST003	9606			11DM32.D	"Homo sapiens"	human	2011	1						Asia	Vietnam	"Dong Mai"	20.93		105.73		Male	Blood									"13 y.o."																														"Pb-acid battery recycling craft village"	2017/2/27	2017/2/27
PRA000027	SAA001593	ST003	9606			11DM34.D	"Homo sapiens"	human	2011	1						Asia	Vietnam	"Dong Mai"	20.93		105.73		Female	Blood									"37 y.o."																														"Pb-acid battery recycling craft village"	2017/2/27	2017/2/27
PRA000027	SAA001594	ST003	9606			11DM35.D	"Homo sapiens"	human	2011	1						Asia	Vietnam	"Dong Mai"	20.93		105.73		Male	Blood									"15 y.o."																														"Pb-acid battery recycling craft village"	2017/2/27	2017/2/27
PRA000027	SAA001595	ST003	9606			11DM36.D	"Homo sapiens"	human	2011	1						Asia	Vietnam	"Dong Mai"	20.93		105.73		Male	Blood									"46 y.o."																														"Pb-acid battery recycling craft village"	2017/2/27	2017/2/27
PRA000027	SAA001596	ST003	9606			11DM37.D	"Homo sapiens"	human	2011	1						Asia	Vietnam	"Dong Mai"	20.93		105.73		Female	Blood									"42 y.o."																														"Pb-acid battery recycling craft village"	2017/2/27	2017/2/27
PRA000027	SAA001597	ST003	9606			11DM38.D	"Homo sapiens"	human	2011	1						Asia	Vietnam	"Dong Mai"	20.93		105.73		Male	Blood									"38 y.o."																														"Pb-acid battery recycling craft village"	2017/2/27	2017/2/27
PRA000027	SAA001598	ST003	9606			11DM39.D	"Homo sapiens"	human	2011	1						Asia	Vietnam	"Dong Mai"	20.93		105.73		Female	Blood									"38 y.o."																														"Pb-acid battery recycling craft village"	2017/2/27	2017/2/27
PRA000027	SAA001599	ST003	9606			11DM40.D	"Homo sapiens"	human	2011	1						Asia	Vietnam	"Dong Mai"	20.93		105.73		Female	Blood									"15 y.o."																														"Pb-acid battery recycling craft village"	2017/2/27	2017/2/27
PRA000027	SAA001600	ST003	9606			11DM41.D	"Homo sapiens"	human	2011	1						Asia	Vietnam	"Dong Mai"	20.93		105.73		Male	Blood									"13 y.o."																														"Pb-acid battery recycling craft village"	2017/2/27	2017/2/27
PRA000027	SAA001601	ST003	9606			11DM42.D	"Homo sapiens"	human	2011	1						Asia	Vietnam	"Dong Mai"	20.93		105.73		Male	Blood									"14 y.o."																														"Pb-acid battery recycling craft village"	2017/2/27	2017/2/27
PRA000027	SAA001602	ST003	9606			11DM43.D	"Homo sapiens"	human	2011	1						Asia	Vietnam	"Dong Mai"	20.93		105.73		Male	Blood									"10 y.o."																														"Pb-acid battery recycling craft village"	2017/2/27	2017/2/27
PRA000027	SAA001603	ST003	9606			11DM44.D	"Homo sapiens"	human	2011	1						Asia	Vietnam	"Dong Mai"	20.93		105.73		Female	Blood									"12 y.o."																														"Pb-acid battery recycling craft village"	2017/2/27	2017/2/27
PRA000027	SAA001604	ST003	9606			11DM45.D	"Homo sapiens"	human	2011	1						Asia	Vietnam	"Dong Mai"	20.93		105.73		Female	Blood									"16 y.o."																														"Pb-acid battery recycling craft village"	2017/2/27	2017/2/27
PRA000027	SAA001605	ST003	9606			11DM46.D	"Homo sapiens"	human	2011	1						Asia	Vietnam	"Dong Mai"	20.93		105.73		Female	Blood									"13 y.o."																														"Pb-acid battery recycling craft village"	2017/2/27	2017/2/27
PRA000027	SAA001606	ST003	9606			11DM47.D	"Homo sapiens"	human	2011	1						Asia	Vietnam	"Dong Mai"	20.93		105.73		Male	Blood									"10 y.o."																														"Pb-acid battery recycling craft village"	2017/2/27	2017/2/27
PRA000027	SAA001607	ST003	9606			11DM48.D	"Homo sapiens"	human	2011	1						Asia	Vietnam	"Dong Mai"	20.93		105.73		Female	Blood									"8 y.o."																														"Pb-acid battery recycling craft village"	2017/2/27	2017/2/27
PRA000027	SAA001608	ST003	9606			11DM49.D	"Homo sapiens"	human	2011	1						Asia	Vietnam	"Dong Mai"	20.93		105.73		Female	Blood									"7 y.o."																														"Pb-acid battery recycling craft village"	2017/2/27	2017/2/27
PRA000027	SAA001609	ST003	9606			11DM50.D	"Homo sapiens"	human	2011	1						Asia	Vietnam	"Dong Mai"	20.93		105.73		Female	Blood									"7 y.o."																														"Pb-acid battery recycling craft village"	2017/2/27	2017/2/27
PRA000027	SAA001610	ST003	9606			11DM52.D	"Homo sapiens"	human	2011	1						Asia	Vietnam	"Dong Mai"	20.93		105.73		Female	Blood									"10 y.o."																														"Pb-acid battery recycling craft village"	2017/2/27	2017/2/27
PRA000027	SAA001611	ST003	9606			11DM54.D	"Homo sapiens"	human	2011	1						Asia	Vietnam	"Dong Mai"	20.93		105.73		Male	Blood									"43 y.o."																														"Pb-acid battery recycling craft village"	2017/2/27	2017/2/27
PRA000027	SAA001612	ST003	9606			11DM55.D	"Homo sapiens"	human	2011	1						Asia	Vietnam	"Dong Mai"	20.93		105.73		Female	Blood									"42 y.o."																														"Pb-acid battery recycling craft village"	2017/2/27	2017/2/27
PRA000027	SAA001613	ST003	9606			11DM56.D	"Homo sapiens"	human	2011	1						Asia	Vietnam	"Dong Mai"	20.93		105.73		Male	Blood									"49 y.o."																														"Pb-acid battery recycling craft village"	2017/2/27	2017/2/27
PRA000027	SAA001614	ST003	9606			11DM60.D	"Homo sapiens"	human	2011	1						Asia	Vietnam	"Dong Mai"	20.93		105.73		Female	Blood									"7 y.o."																														"Pb-acid battery recycling craft village"	2017/2/27	2017/2/27
PRA000027	SAA001615	ST003	9606			11DM63.D	"Homo sapiens"	human	2011	1						Asia	Vietnam	"Dong Mai"	20.93		105.73		Male	Blood									"11 y.o."																														"Pb-acid battery recycling craft village"	2017/2/27	2017/2/27
PRA000027	SAA001616	ST003	9606			11DM66.D	"Homo sapiens"	human	2011	1						Asia	Vietnam	"Dong Mai"	20.93		105.73		Male	Blood									"58 y.o."																														"Pb-acid battery recycling craft village"	2017/2/27	2017/2/27
PRA000027	SAA001617	ST003	9606			11DM70.D	"Homo sapiens"	human	2011	1						Asia	Vietnam	"Dong Mai"	20.93		105.73		Female	Blood									"45 y.o."																														"Pb-acid battery recycling craft village"	2017/2/27	2017/2/27
PRA000027	SAA001618	ST003	9606			11DM74.D	"Homo sapiens"	human	2011	1						Asia	Vietnam	"Dong Mai"	20.93		105.73		Male	Blood									"13 y.o."																														"Pb-acid battery recycling craft village"	2017/2/27	2017/2/27
PRA000027	SAA001619	ST003	9606			11DM76.D	"Homo sapiens"	human	2011	1						Asia	Vietnam	"Dong Mai"	20.93		105.73		Female	Blood									"17 y.o."																														"Pb-acid battery recycling craft village"	2017/2/27	2017/2/27
PRA000027	SAA001620	ST003	9606			11DM77.D	"Homo sapiens"	human	2011	1						Asia	Vietnam	"Dong Mai"	20.93		105.73		Female	Blood									"13 y.o."																														"Pb-acid battery recycling craft village"	2017/2/27	2017/2/27
PRA000027	SAA001621	ST003	9606			11DM78.D	"Homo sapiens"	human	2011	1						Asia	Vietnam	"Dong Mai"	20.93		105.73		Male	Blood									"38 y.o."																														"Pb-acid battery recycling craft village"	2017/2/27	2017/2/27
PRA000027	SAA001622	ST003	9606			11DM79.D	"Homo sapiens"	human	2011	1						Asia	Vietnam	"Dong Mai"	20.93		105.73		Female	Blood									"59 y.o."																														"Pb-acid battery recycling craft village"	2017/2/27	2017/2/27
PRA000027	SAA001623	ST003	9606			10DQ01a	"Homo sapiens"	human	2010	1						Asia	Vietnam	"Duong Quang"	21		105.98		Female	Blood									"36 y.o."																														"Rural control sampling site"	2017/2/27	2017/2/27
PRA000027	SAA001624	ST003	9606			10DQ01c	"Homo sapiens"	human	2010	1						Asia	Vietnam	"Duong Quang"	21		105.98		Female	Blood									"20 y.o."																														"Rural control sampling site"	2017/2/27	2017/2/27
PRA000027	SAA001625	ST003	9606			10DQ02a	"Homo sapiens"	human	2010	1						Asia	Vietnam	"Duong Quang"	21		105.98		Female	Blood									"47 y.o."																														"Rural control sampling site"	2017/2/27	2017/2/27
PRA000027	SAA001626	ST003	9606			10DQ02b	"Homo sapiens"	human	2010	1						Asia	Vietnam	"Duong Quang"	21		105.98		Male	Blood									"24 y.o."																														"Rural control sampling site"	2017/2/27	2017/2/27
PRA000027	SAA001627	ST003	9606			10DQ02c	"Homo sapiens"	human	2010	1						Asia	Vietnam	"Duong Quang"	21		105.98		Female	Blood									"22 y.o."																														"Rural control sampling site"	2017/2/27	2017/2/27
PRA000027	SAA001628	ST003	9606			10DQ02d	"Homo sapiens"	human	2010	1						Asia	Vietnam	"Duong Quang"	21		105.98		Male	Blood									"48 y.o."																														"Rural control sampling site"	2017/2/27	2017/2/27
PRA000027	SAA001629	ST003	9606			10DQ02e	"Homo sapiens"	human	2010	1						Asia	Vietnam	"Duong Quang"	21		105.98		Female	Blood									"27 y.o."																														"Rural control sampling site"	2017/2/27	2017/2/27
PRA000027	SAA001630	ST003	9606			10DQ03a	"Homo sapiens"	human	2010	1						Asia	Vietnam	"Duong Quang"	21		105.98		Female	Blood									"46 y.o."																														"Rural control sampling site"	2017/2/27	2017/2/27
PRA000027	SAA001631	ST003	9606			10DQ03b	"Homo sapiens"	human	2010	1						Asia	Vietnam	"Duong Quang"	21		105.98		Male	Blood									"49 y.o."																														"Rural control sampling site"	2017/2/27	2017/2/27
PRA000027	SAA001632	ST003	9606			10DQ03c	"Homo sapiens"	human	2010	1						Asia	Vietnam	"Duong Quang"	21		105.98		Female	Blood									"26 y.o."																														"Rural control sampling site"	2017/2/27	2017/2/27
PRA000027	SAA001633	ST003	9606			10DQ03d	"Homo sapiens"	human	2010	1						Asia	Vietnam	"Duong Quang"	21		105.98		Female	Blood									"50 y.o."																														"Rural control sampling site"	2017/2/27	2017/2/27
PRA000027	SAA001634	ST003	9606			10DQ04c	"Homo sapiens"	human	2010	1						Asia	Vietnam	"Duong Quang"	21		105.98		Female	Blood									"30 y.o."																														"Rural control sampling site"	2017/2/27	2017/2/27
PRA000027	SAA001635	ST003	9606			10DQ05a	"Homo sapiens"	human	2010	1						Asia	Vietnam	"Duong Quang"	21		105.98		Male	Blood									"49 y.o."																														"Rural control sampling site"	2017/2/27	2017/2/27
PRA000027	SAA001636	ST003	9606			10DQ07b	"Homo sapiens"	human	2010	1						Asia	Vietnam	"Duong Quang"	21		105.98		Male	Blood									"27 y.o."																														"Rural control sampling site"	2017/2/27	2017/2/27
PRA000027	SAA001637	ST003	9606			10DQ07c	"Homo sapiens"	human	2010	1						Asia	Vietnam	"Duong Quang"	21		105.98		Female	Blood									"24 y.o."																														"Rural control sampling site"	2017/2/27	2017/2/27
PRA000027	SAA001638	ST003	9606			10DQ07d	"Homo sapiens"	human	2010	1						Asia	Vietnam	"Duong Quang"	21		105.98		Female	Blood									"34 y.o."																														"Rural control sampling site"	2017/2/27	2017/2/27
PRA000027	SAA001639	ST003	9606			10DQ07e	"Homo sapiens"	human	2010	1						Asia	Vietnam	"Duong Quang"	21		105.98		Female	Blood									"26 y.o."																														"Rural control sampling site"	2017/2/27	2017/2/27
PRA000027	SAA001640	ST003	9606			10DQ07f	"Homo sapiens"	human	2010	1						Asia	Vietnam	"Duong Quang"	21		105.98		Male	Blood									"25 y.o."																														"Rural control sampling site"	2017/2/27	2017/2/27
PRA000027	SAA001641	ST003	9606			10DQ08a	"Homo sapiens"	human	2010	1						Asia	Vietnam	"Duong Quang"	21		105.98		Female	Blood									"36 y.o."																														"Rural control sampling site"	2017/2/27	2017/2/27
PRA000027	SAA001642	ST003	9606			10DQ09a	"Homo sapiens"	human	2010	1						Asia	Vietnam	"Duong Quang"	21		105.98		Male	Blood									"28 y.o."																														"Rural control sampling site"	2017/2/27	2017/2/27
PRA000027	SAA001643	ST003	9606			10DQ11c	"Homo sapiens"	human	2010	1						Asia	Vietnam	"Duong Quang"	21		105.98		Male	Blood									"51 y.o."																														"Rural control sampling site"	2017/2/27	2017/2/27
PRA000027	SAA001644	ST003	9606			10DQ11e	"Homo sapiens"	human	2010	1						Asia	Vietnam	"Duong Quang"	21		105.98		Female	Blood									"20 y.o."																														"Rural control sampling site"	2017/2/27	2017/2/27
PRA000027	SAA001645	ST003	9606			10DQ12c	"Homo sapiens"	human	2010	1						Asia	Vietnam	"Duong Quang"	21		105.98		Female	Blood									"18 y.o."																														"Rural control sampling site"	2017/2/27	2017/2/27
PRA000027	SAA001646	ST003	9606			10DQ12d	"Homo sapiens"	human	2010	1						Asia	Vietnam	"Duong Quang"	21		105.98		Female	Blood									"39 y.o."																														"Rural control sampling site"	2017/2/27	2017/2/27
PRA000027	SAA001647	ST003	9606			10DQ13a	"Homo sapiens"	human	2010	1						Asia	Vietnam	"Duong Quang"	21		105.98		Male	Blood									"28 y.o."																														"Rural control sampling site"	2017/2/27	2017/2/27
PRA000027	SAA001648	ST003	9606			10DQ13b	"Homo sapiens"	human	2010	1						Asia	Vietnam	"Duong Quang"	21		105.98		Female	Blood									"31 y.o."																														"Rural control sampling site"	2017/2/27	2017/2/27
PRA000027	SAA001649	ST003	9606			10DQ15a	"Homo sapiens"	human	2010	1						Asia	Vietnam	"Duong Quang"	21		105.98		Female	Blood									"22 y.o."																														"Rural control sampling site"	2017/2/27	2017/2/27
PRA000027	SAA001650	ST003	9606			10DQ17a	"Homo sapiens"	human	2010	1						Asia	Vietnam	"Duong Quang"	21		105.98		Male	Blood									"30 y.o."																														"Rural control sampling site"	2017/2/27	2017/2/27
PRA000027	SAA001651	ST003	9606			10DQ18a	"Homo sapiens"	human	2010	1						Asia	Vietnam	"Duong Quang"	21		105.98		Male	Blood									"31 y.o."																														"Rural control sampling site"	2017/2/27	2017/2/27
PRA000027	SAA001652	ST003	9606			10DQ18b	"Homo sapiens"	human	2010	1						Asia	Vietnam	"Duong Quang"	21		105.98		Female	Blood									"25 y.o."																														"Rural control sampling site"	2017/2/27	2017/2/27
PRA000027	SAA001653	ST003	9606			11DQ1	"Homo sapiens"	human	2011	1						Asia	Vietnam	"Duong Quang"	21		105.98		Female	Blood									"23 y.o."																														"Rural control sampling site"	2017/2/27	2017/2/27
PRA000027	SAA001654	ST003	9606			11DQ2	"Homo sapiens"	human	2011	1						Asia	Vietnam	"Duong Quang"	21		105.98		Female	Blood									"21 y.o."																														"Rural control sampling site"	2017/2/27	2017/2/27
PRA000027	SAA001655	ST003	9606			11DQ5	"Homo sapiens"	human	2011	1						Asia	Vietnam	"Duong Quang"	21		105.98		Female	Blood									"48 y.o."																														"Rural control sampling site"	2017/2/27	2017/2/27
PRA000027	SAA001656	ST003	9606			11DQ6	"Homo sapiens"	human	2011	1						Asia	Vietnam	"Duong Quang"	21		105.98		Female	Blood									"25 y.o."																														"Rural control sampling site"	2017/2/27	2017/2/27
PRA000027	SAA001657	ST003	9606			11DQ7	"Homo sapiens"	human	2011	1						Asia	Vietnam	"Duong Quang"	21		105.98		Male	Blood									"26 y.o."																														"Rural control sampling site"	2017/2/27	2017/2/27
PRA000027	SAA001658	ST003	9606			11DQ20	"Homo sapiens"	human	2011	1						Asia	Vietnam	"Duong Quang"	21		105.98		Male	Blood									"55 y.o."																														"Rural control sampling site"	2017/2/27	2017/2/27
PRA000027	SAA001659	ST003	9606			11DQ23	"Homo sapiens"	human	2011	1						Asia	Vietnam	"Duong Quang"	21		105.98		Female	Blood									"55 y.o."																														"Rural control sampling site"	2017/2/27	2017/2/27
PRA000027	SAA001660	ST003	9606			11DQ28	"Homo sapiens"	human	2011	1						Asia	Vietnam	"Duong Quang"	21		105.98		Female	Blood									"21 y.o."																														"Rural control sampling site"	2017/2/27	2017/2/27
PRA000027	SAA001661	ST003	9606			11DQ32	"Homo sapiens"	human	2011	1						Asia	Vietnam	"Duong Quang"	21		105.98		Female	Blood									"29 y.o."																														"Rural control sampling site"	2017/2/27	2017/2/27
PRA000027	SAA001662	ST003	9606			11DQ34	"Homo sapiens"	human	2011	1						Asia	Vietnam	"Duong Quang"	21		105.98		Male	Blood									"53 y.o."																														"Rural control sampling site"	2017/2/27	2017/2/27
PRA000027	SAA001663	ST003	9606			11DQ36	"Homo sapiens"	human	2011	1						Asia	Vietnam	"Duong Quang"	21		105.98		Female	Blood									"22 y.o."																														"Rural control sampling site"	2017/2/27	2017/2/27
PRA000027	SAA001664	ST003	9606			11DQ37	"Homo sapiens"	human	2011	1						Asia	Vietnam	"Duong Quang"	21		105.98		Male	Blood									"53 y.o."																														"Rural control sampling site"	2017/2/27	2017/2/27
PRA000027	SAA001665	ST003	9606			11DQ38	"Homo sapiens"	human	2011	1						Asia	Vietnam	"Duong Quang"	21		105.98		Female	Blood									"64 y.o."																														"Rural control sampling site"	2017/2/27	2017/2/27
PRA000027	SAA001666	ST003	9606			11DQ39	"Homo sapiens"	human	2011	1						Asia	Vietnam	"Duong Quang"	21		105.98		Female	Blood									"50 y.o."																														"Rural control sampling site"	2017/2/27	2017/2/27
PRA000027	SAA001667	ST003	9606			11DQ40	"Homo sapiens"	human	2011	1						Asia	Vietnam	"Duong Quang"	21		105.98		Female	Blood									"52 y.o."																														"Rural control sampling site"	2017/2/27	2017/2/27
PRA000027	SAA001668	ST003	9606			11DQ41	"Homo sapiens"	human	2011	1						Asia	Vietnam	"Duong Quang"	21		105.98		Male	Blood									"28 y.o."																														"Rural control sampling site"	2017/2/27	2017/2/27
PRA000027	SAA001669	ST003	9606			11DQ42	"Homo sapiens"	human	2011	1						Asia	Vietnam	"Duong Quang"	21		105.98		Male	Blood									"28 y.o."																														"Rural control sampling site"	2017/2/27	2017/2/27
PRA000027	SAA001670	ST003	9606			11DQ44	"Homo sapiens"	human	2011	1						Asia	Vietnam	"Duong Quang"	21		105.98		Female	Blood									"38 y.o."																														"Rural control sampling site"	2017/2/27	2017/2/27
PRA000027	SAA001671	ST003	9606			11DQ45	"Homo sapiens"	human	2011	1						Asia	Vietnam	"Duong Quang"	21		105.98		Male	Blood									"62 y.o."																														"Rural control sampling site"	2017/2/27	2017/2/27
PRA000027	SAA001672	ST003	9606			11DQ46	"Homo sapiens"	human	2011	1						Asia	Vietnam	"Duong Quang"	21		105.98		Male	Blood									"58 y.o."																														"Rural control sampling site"	2017/2/27	2017/2/27
PRA000027	SAA001673	ST003	9606			11DQ47	"Homo sapiens"	human	2011	1						Asia	Vietnam	"Duong Quang"	21		105.98		Female	Blood									"52 y.o."																														"Rural control sampling site"	2017/2/27	2017/2/27
PRA000027	SAA001674	ST003	9606			11DQ49	"Homo sapiens"	human	2011	1						Asia	Vietnam	"Duong Quang"	21		105.98		Female	Blood									"55 y.o."																														"Rural control sampling site"	2017/2/27	2017/2/27
PRA000027	SAA001675	ST003	9606			11DQ50	"Homo sapiens"	human	2011	1						Asia	Vietnam	"Duong Quang"	21		105.98		Female	Blood									"55 y.o."																														"Rural control sampling site"	2017/2/27	2017/2/27
PRA000027	SAA001676	ST003	9606			11DQ51	"Homo sapiens"	human	2011	1						Asia	Vietnam	"Duong Quang"	21		105.98		Female	Blood									"29 y.o."																														"Rural control sampling site"	2017/2/27	2017/2/27
PRA000027	SAA001677	ST003	9606			11DQ52	"Homo sapiens"	human	2011	1						Asia	Vietnam	"Duong Quang"	21		105.98		Female	Blood									"29 y.o."																														"Rural control sampling site"	2017/2/27	2017/2/27
PRA000027	SAA001678	ST003	9606			11DQ53	"Homo sapiens"	human	2011	1						Asia	Vietnam	"Duong Quang"	21		105.98		Male	Blood									"31 y.o."																														"Rural control sampling site"	2017/2/27	2017/2/27
PRA000027	SAA001679	ST003	9606			11DQ54	"Homo sapiens"	human	2011	1						Asia	Vietnam	"Duong Quang"	21		105.98		Female	Blood									"26 y.o."																														"Rural control sampling site"	2017/2/27	2017/2/27
PRA000027	SAA001680	ST003	9606			11DQ58	"Homo sapiens"	human	2011	1						Asia	Vietnam	"Duong Quang"	21		105.98		Male	Blood									"51 y.o."																														"Rural control sampling site"	2017/2/27	2017/2/27
PRA000027	SAA001681	ST003	9606			11DQ59	"Homo sapiens"	human	2011	1						Asia	Vietnam	"Duong Quang"	21		105.98		Female	Blood									"24 y.o."																														"Rural control sampling site"	2017/2/27	2017/2/27
PRA000027	SAA001682	ST003	9606			11DQ60	"Homo sapiens"	human	2011	1						Asia	Vietnam	"Duong Quang"	21		105.98		Female	Blood									"26 y.o."																														"Rural control sampling site"	2017/2/27	2017/2/27
PRA000027	SAA001683	ST003	9606			11DQ61	"Homo sapiens"	human	2011	1						Asia	Vietnam	"Duong Quang"	21		105.98		Female	Blood									"55 y.o."																														"Rural control sampling site"	2017/2/27	2017/2/27
PRA000027	SAA001684	ST003	9606			11DQ62	"Homo sapiens"	human	2011	1						Asia	Vietnam	"Duong Quang"	21		105.98		Female	Blood									"8 y.o."																														"Rural control sampling site"	2017/2/27	2017/2/27
PRA000027	SAA001685	ST003	9606			11DQ63	"Homo sapiens"	human	2011	1						Asia	Vietnam	"Duong Quang"	21		105.98		Male	Blood									"27 y.o."																														"Rural control sampling site"	2017/2/27	2017/2/27
PRA000027	SAA001686	ST003	9606			11DQ65	"Homo sapiens"	human	2011	1						Asia	Vietnam	"Duong Quang"	21		105.98		Male	Blood									"28 y.o."																														"Rural control sampling site"	2017/2/27	2017/2/27
PRA000027	SAA001687	ST003	9606			11DQ66	"Homo sapiens"	human	2011	1						Asia	Vietnam	"Duong Quang"	21		105.98			Blood									"< 7 y.o."																														"Rural control sampling site"	2017/2/27	2017/2/27
PRA000027	SAA001688	ST003	9606			11DQ67	"Homo sapiens"	human	2011	1						Asia	Vietnam	"Duong Quang"	21		105.98		Male	Blood									"28 y.o."																														"Rural control sampling site"	2017/2/27	2017/2/27
PRA000027	SAA001689	ST003	9606			11DQ68	"Homo sapiens"	human	2011	1						Asia	Vietnam	"Duong Quang"	21		105.98			Blood									"< 7 y.o."																														"Rural control sampling site"	2017/2/27	2017/2/27
PRA000027	SAA001690	ST003	9606			11DQ69	"Homo sapiens"	human	2011	1						Asia	Vietnam	"Duong Quang"	21		105.98		Female	Blood									"29 y.o."																														"Rural control sampling site"	2017/2/27	2017/2/27
PRA000027	SAA001691	ST003	9606			11DQ70	"Homo sapiens"	human	2011	1						Asia	Vietnam	"Duong Quang"	21		105.98			Blood									"< 7 y.o."																														"Rural control sampling site"	2017/2/27	2017/2/27
PRA000027	SAA001692	ST003	9606			11DQ71	"Homo sapiens"	human	2011	1						Asia	Vietnam	"Duong Quang"	21		105.98		Female	Blood									"39 y.o."																														"Rural control sampling site"	2017/2/27	2017/2/27
PRA000027	SAA001693	ST003	9606			11DQ72	"Homo sapiens"	human	2011	1						Asia	Vietnam	"Duong Quang"	21		105.98		Male	Blood									"11 y.o."																														"Rural control sampling site"	2017/2/27	2017/2/27
PRA000028	SAA001752	ST003	9606			aau1	"Homo sapiens"	Human	2001	12						Asia	Cambodia	"Sambok, Kratie"	12.63491667		106.02025		Male	Urine									"66 y.o."																															2017/3/8	2017/3/8
PRA000028	SAA001753	ST003	9606			aau2	"Homo sapiens"	Human	2001	12						Asia	Cambodia	"Sambok, Kratie"	12.63491667		106.02025		Female	Urine									"71 y.o."																															2017/3/8	2017/3/8
PRA000028	SAA001754	ST003	9606			aau3	"Homo sapiens"	Human	2001	12						Asia	Cambodia	"Sambok, Kratie"	12.63491667		106.02025		Male	Urine									"25 y.o."																															2017/3/8	2017/3/8
PRA000028	SAA001755	ST003	9606			aau4	"Homo sapiens"	Human	2001	12						Asia	Cambodia	"Sambok, Kratie"	12.63491667		106.02025		Female	Urine									"23 y.o."																															2017/3/8	2017/3/8
PRA000028	SAA001756	ST003	9606			aau5	"Homo sapiens"	Human	2001	12						Asia	Cambodia	"Sambok, Kratie"	12.63491667		106.02025		Male	Urine									"77 y.o."																															2017/3/8	2017/3/8
PRA000028	SAA001757	ST003	9606			aau6	"Homo sapiens"	Human	2001	12						Asia	Cambodia	"Sambok, Kratie"	12.63491667		106.02025		Female	Urine									"36 y.o."																															2017/3/8	2017/3/8
PRA000028	SAA001758	ST003	9606			aau7	"Homo sapiens"	Human	2001	12						Asia	Cambodia	"Sambok, Kratie"	12.63491667		106.02025		Male	Urine									"65 y.o."																															2017/3/8	2017/3/8
PRA000028	SAA001759	ST003	9606			aau8	"Homo sapiens"	Human	2001	12						Asia	Cambodia	"Sambok, Kratie"	12.63491667		106.02025		Female	Urine									"60 y.o."																															2017/3/8	2017/3/8
PRA000028	SAA001760	ST003	9606			aau9	"Homo sapiens"	Human	2001	12						Asia	Cambodia	"Sambok, Kratie"	12.63491667		106.02025		Male	Urine									"60 y.o."																															2017/3/8	2017/3/8
PRA000028	SAA001761	ST003	9606			aau10	"Homo sapiens"	Human	2001	12						Asia	Cambodia	"Kompong Kor, Prek Prasob District, Kratie"	12.31927778		105.9533611		Female	Urine									"53 y.o."																															2017/3/8	2017/3/8
PRA000028	SAA001762	ST003	9606			aau11	"Homo sapiens"	Human	2001	12						Asia	Cambodia	"Kompong Kor, Prek Prasob District, Kratie"	12.31927778		105.9533611		Male	Urine									"64 y.o."																															2017/3/8	2017/3/8
PRA000028	SAA001763	ST003	9606			aau12	"Homo sapiens"	Human	2001	12						Asia	Cambodia	"Kompong Kor, Prek Prasob District, Kratie"	12.31927778		105.9533611		Female	Urine									"65 y.o."																															2017/3/8	2017/3/8
PRA000028	SAA001764	ST003	9606			aau13	"Homo sapiens"	Human	2001	12						Asia	Cambodia	"Kompong Kor, Prek Prasob District, Kratie"	12.31927778		105.9533611		Male	Urine									"51 y.o."																															2017/3/8	2017/3/8
PRA000028	SAA001765	ST003	9606			aau14	"Homo sapiens"	Human	2001	12						Asia	Cambodia	"Kompong Kor, Prek Prasob District, Kratie"	12.31927778		105.9533611		Female	Urine									"48 y.o."																															2017/3/8	2017/3/8
PRA000028	SAA001766	ST003	9606			aau15	"Homo sapiens"	Human	2001	12						Asia	Cambodia	"Kompong Kor, Prek Prasob District, Kratie"	12.31927778		105.9533611		Male	Urine									"36 y.o."																															2017/3/8	2017/3/8
PRA000028	SAA001767	ST003	9606			aau16	"Homo sapiens"	Human	2001	12						Asia	Cambodia	"Kompong Kor, Prek Prasob District, Kratie"	12.31927778		105.9533611		Female	Urine									"35 y.o."																															2017/3/8	2017/3/8
PRA000028	SAA001768	ST003	9606			aau17	"Homo sapiens"	Human	2001	12						Asia	Cambodia	"Kompong Kor, Prek Prasob District, Kratie"	12.31927778		105.9533611		Male	Urine									"16 y.o."																															2017/3/8	2017/3/8
PRA000028	SAA001769	ST003	9606			aau18	"Homo sapiens"	Human	2001	12						Asia	Cambodia	"Kompong Kor, Prek Prasob District, Kratie"	12.31927778		105.9533611		Male	Urine									"42 y.o."																															2017/3/8	2017/3/8
PRA000028	SAA001770	ST003	9606			aau19	"Homo sapiens"	Human	2001	12						Asia	Cambodia	"Kompong Kor, Prek Prasob District, Kratie"	12.31927778		105.9533611		Female	Urine									"33 y.o."																															2017/3/8	2017/3/8
PRA000028	SAA001771	ST003	9606			aau20	"Homo sapiens"	Human	2001	12						Asia	Cambodia	"Kompong Kor, Prek Prasob District, Kratie"	12.31927778		105.9533611		Male	Urine									"31 y.o."																															2017/3/8	2017/3/8
PRA000028	SAA001772	ST003	9606			aau21	"Homo sapiens"	Human	2001	12						Asia	Cambodia	"Kompong Kor, Prek Prasob District, Kratie"	12.31927778		105.9533611		Female	Urine									"22 y.o."																															2017/3/8	2017/3/8
PRA000028	SAA001773	ST003	9606			aau22	"Homo sapiens"	Human	2001	12						Asia	Cambodia	"Kompong Kor, Prek Prasob District, Kratie"	12.31927778		105.9533611		Male	Urine									"17 y.o."																															2017/3/8	2017/3/8
PRA000028	SAA001774	ST003	9606			aau23	"Homo sapiens"	Human	2001	12						Asia	Cambodia	"Kompong Kor, Prek Prasob District, Kratie"	12.31927778		105.9533611		Male	Urine									"50 y.o."																															2017/3/8	2017/3/8
PRA000028	SAA001775	ST003	9606			aau24	"Homo sapiens"	Human	2001	12						Asia	Cambodia	"Kompong Kor, Prek Prasob District, Kratie"	12.31927778		105.9533611		Female	Urine									"56 y.o."																															2017/3/8	2017/3/8
PRA000028	SAA001776	ST003	9606			aau25	"Homo sapiens"	Human	2001	12						Asia	Cambodia	"Kompong Kor, Prek Prasob District, Kratie"	12.31927778		105.9533611		Female	Urine									"28 y.o."																															2017/3/8	2017/3/8
PRA000028	SAA001777	ST003	9606			aau26	"Homo sapiens"	Human	2001	12						Asia	Cambodia	"Kompong Kor, Prek Prasob District, Kratie"	12.31927778		105.9533611		Male	Urine									"41 y.o."																															2017/3/8	2017/3/8
PRA000028	SAA001778	ST003	9606			aau27	"Homo sapiens"	Human	2001	12						Asia	Cambodia	"Kompong Kor, Prek Prasob District, Kratie"	12.31927778		105.9533611		Female	Urine									"25 y.o."																															2017/3/8	2017/3/8
PRA000028	SAA001779	ST003	9606			aau28	"Homo sapiens"	Human	2001	12						Asia	Cambodia	"Kompong Kor, Prek Prasob District, Kratie"	12.31927778		105.9533611		Female	Urine									"42 y.o."																															2017/3/8	2017/3/8
PRA000028	SAA001780	ST003	9606			aau29	"Homo sapiens"	Human	2001	12						Asia	Cambodia	"Kompong Kor, Prek Prasob District, Kratie"	12.31927778		105.9533611		Male	Urine									"46 y.o."																															2017/3/8	2017/3/8
PRA000028	SAA001781	ST003	9606			aau30	"Homo sapiens"	Human	2001	12						Asia	Cambodia	"Kompong Kor, Prek Prasob District, Kratie"	12.31927778		105.9533611		Male	Urine									"44 y.o."																															2017/3/8	2017/3/8
PRA000028	SAA001782	ST003	9606			aau31	"Homo sapiens"	Human	2001	12						Asia	Cambodia	"Kompong Kor, Prek Prasob District, Kratie"	12.31927778		105.9533611		Female	Urine									"43 y.o."																															2017/3/8	2017/3/8
PRA000028	SAA001783	ST003	9606			aau32	"Homo sapiens"	Human	2001	12						Asia	Cambodia	"Kompong Kor, Prek Prasob District, Kratie"	12.31927778		105.9533611		Female	Urine									"42 y.o."																															2017/3/8	2017/3/8
PRA000028	SAA001784	ST003	9606			aau33	"Homo sapiens"	Human	2001	12						Asia	Cambodia	"Kompong Kor, Prek Prasob District, Kratie"	12.31927778		105.9533611		Male	Urine									"36 y.o."																															2017/3/8	2017/3/8
PRA000028	SAA001785	ST003	9606			ACU1	"Homo sapiens"	Human	2001	12						Asia	Cambodia	"Sambok, Kratie"	12.63491667		106.02025		Female	Urine									"8 y.o."																															2017/3/8	2017/3/8
PRA000028	SAA001786	ST003	9606			ACU2	"Homo sapiens"	Human	2001	12						Asia	Cambodia	"Sambok, Kratie"	12.63491667		106.02025		Male	Urine									"7 y.o."																															2017/3/8	2017/3/8
PRA000028	SAA001787	ST003	9606			ACU3	"Homo sapiens"	Human	2001	12						Asia	Cambodia	"Sambok, Kratie"	12.63491667		106.02025		Male	Urine									"3 y.o."																															2017/3/8	2017/3/8
PRA000028	SAA001788	ST003	9606			ACU4	"Homo sapiens"	Human	2001	12						Asia	Cambodia	"Sambok, Kratie"	12.63491667		106.02025		Female	Urine									"14 y.o."																															2017/3/8	2017/3/8
PRA000028	SAA001789	ST003	9606			ACU5	"Homo sapiens"	Human	2001	12						Asia	Cambodia	"Sambok, Kratie"	12.63491667		106.02025		Female	Urine									"10 y.o."																															2017/3/8	2017/3/8
PRA000028	SAA001790	ST003	9606			ACU6	"Homo sapiens"	Human	2001	12						Asia	Cambodia	"Sambok, Kratie"	12.63491667		106.02025		Male	Urine									"7 y.o."																															2017/3/8	2017/3/8
PRA000028	SAA001791	ST003	9606			ACU7	"Homo sapiens"	Human	2001	12						Asia	Cambodia	"Sambok, Kratie"	12.63491667		106.02025		Male	Urine									"11 y.o."																															2017/3/8	2017/3/8
PRA000028	SAA001792	ST003	9606			ACU8	"Homo sapiens"	Human	2001	12						Asia	Cambodia	"Sambok, Kratie"	12.63491667		106.02025		Female	Urine									"9 y.o."																															2017/3/8	2017/3/8
PRA000028	SAA001793	ST003	9606			ACU9	"Homo sapiens"	Human	2001	12						Asia	Cambodia	"Kompong Kor, Prek Prasob District, Kratie"	12.31927778		105.9533611		Female	Urine									"8 y.o."																															2017/3/8	2017/3/8
PRA000028	SAA001794	ST003	9606			ACU10	"Homo sapiens"	Human	2001	12						Asia	Cambodia	"Kompong Kor, Prek Prasob District, Kratie"	12.31927778		105.9533611		Male	Urine									"5 y.o."																															2017/3/8	2017/3/8
PRA000028	SAA001795	ST003	9606			ACU11	"Homo sapiens"	Human	2001	12						Asia	Cambodia	"Kompong Kor, Prek Prasob District, Kratie"	12.31927778		105.9533611		Female	Urine									"12 y.o."																															2017/3/8	2017/3/8
PRA000028	SAA001796	ST003	9606			ACU12	"Homo sapiens"	Human	2001	12						Asia	Cambodia	"Kompong Kor, Prek Prasob District, Kratie"	12.31927778		105.9533611		Male	Urine									"14 y.o."																															2017/3/8	2017/3/8
PRA000028	SAA001797	ST003	9606			ACU13	"Homo sapiens"	Human	2001	12						Asia	Cambodia	"Kompong Kor, Prek Prasob District, Kratie"	12.31927778		105.9533611		Female	Urine									"6 y.o."																															2017/3/8	2017/3/8
PRA000028	SAA001798	ST003	9606			ACU14	"Homo sapiens"	Human	2001	12						Asia	Cambodia	"Kompong Kor, Prek Prasob District, Kratie"	12.31927778		105.9533611		Male	Urine									"7 y.o."																															2017/3/8	2017/3/8
PRA000028	SAA001799	ST003	9606			ACH15	"Homo sapiens"	Human	2001	12						Asia	Cambodia	"Kompong Kor, Prek Prasob District, Kratie"	12.31927778		105.9533611		Female	Urine									"15 y.o."																															2017/3/8	2017/3/8
PRA000028	SAA001800	ST003	9606			ACU16	"Homo sapiens"	Human	2001	12						Asia	Cambodia	"Kompong Kor, Prek Prasob District, Kratie"	12.31927778		105.9533611		Female	Urine									"10 y.o."																															2017/3/8	2017/3/8
PRA000028	SAA001801	ST003	9606			ACU17	"Homo sapiens"	Human	2001	12						Asia	Cambodia	"Kompong Kor, Prek Prasob District, Kratie"	12.31927778		105.9533611		Male	Urine									"10 y.o."																															2017/3/8	2017/3/8
PRA000028	SAA001802	ST003	9606			ACU18	"Homo sapiens"	Human	2001	12						Asia	Cambodia	"Kompong Kor, Prek Prasob District, Kratie"	12.31927778		105.9533611		Female	Urine									"12 y.o."																															2017/3/8	2017/3/8
PRA000028	SAA001803	ST003	9606			ACU19	"Homo sapiens"	Human	2001	12						Asia	Cambodia	"Kompong Kor, Prek Prasob District, Kratie"	12.31927778		105.9533611		Male	Urine									"15 y.o."																															2017/3/8	2017/3/8
PRA000028	SAA001804	ST003	9606			ACU20	"Homo sapiens"	Human	2001	12						Asia	Cambodia	"Kompong Kor, Prek Prasob District, Kratie"	12.31927778		105.9533611		Male	Urine									"9 y.o."																															2017/3/8	2017/3/8
PRA000028	SAA001805	ST003	9606			ACU21	"Homo sapiens"	Human	2001	12						Asia	Cambodia	"Kompong Kor, Prek Prasob District, Kratie"	12.31927778		105.9533611		Female	Urine									"9 y.o."																															2017/3/8	2017/3/8
PRA000028	SAA001806	ST003	9606			ACU22	"Homo sapiens"	Human	2001	12						Asia	Cambodia	"Kompong Kor, Prek Prasob District, Kratie"	12.31927778		105.9533611		Male	Urine									"8 y.o."																															2017/3/8	2017/3/8
PRA000028	SAA001807	ST003	9606			ACU23	"Homo sapiens"	Human	2001	12						Asia	Cambodia	"Kompong Kor, Prek Prasob District, Kratie"	12.31927778		105.9533611		Female	Urine									"10 y.o."																															2017/3/8	2017/3/8
PRA000028	SAA001808	ST003	9606			ACU24	"Homo sapiens"	Human	2001	12						Asia	Cambodia	"Kompong Kor, Prek Prasob District, Kratie"	12.31927778		105.9533611		Female	Urine									"13 y.o."																															2017/3/8	2017/3/8
PRA000028	SAA001809	ST003	9606			ACU25	"Homo sapiens"	Human	2001	12						Asia	Cambodia	"Kompong Kor, Prek Prasob District, Kratie"	12.31927778		105.9533611		Male	Urine									"16 y.o."																															2017/3/8	2017/3/8
PRA000028	SAA001810	ST003	9606			ACU26	"Homo sapiens"	Human	2001	12						Asia	Cambodia	"Kompong Kor, Prek Prasob District, Kratie"	12.31927778		105.9533611		Male	Urine									"16 y.o."																															2017/3/8	2017/3/8
PRA000028	SAA001811	ST003	9606			ACU27	"Homo sapiens"	Human	2001	12						Asia	Cambodia	"Kompong Kor, Prek Prasob District, Kratie"	12.31927778		105.9533611		Female	Urine									"15 y.o."																															2017/3/8	2017/3/8
PRA000028	SAA001812	ST003	9606			ACU28	"Homo sapiens"	Human	2001	12						Asia	Cambodia	"Kompong Kor, Prek Prasob District, Kratie"	12.31927778		105.9533611		Female	Urine									"15 y.o."																															2017/3/8	2017/3/8
PRA000028	SAA001813	ST003	9606			AAH1	"Homo sapiens"	Human	2001	12						Asia	Cambodia	"Sambok, Kratie"	12.63491667		106.02025		Male	Hair					3.5	cm	"Hair length"		"66 y.o."																															2017/3/8	2019/7/17
PRA000028	SAA001814	ST003	9606			AAH2	"Homo sapiens"	Human	2001	12						Asia	Cambodia	"Sambok, Kratie"	12.63491667		106.02025		Female	Hair					17	cm	"Hair length"		"71 y.o."																															2017/3/8	2019/7/17
PRA000028	SAA001815	ST003	9606			AAH3	"Homo sapiens"	Human	2001	12						Asia	Cambodia	"Sambok, Kratie"	12.63491667		106.02025		Male	Hair					4.5	cm	"Hair length"		"25 y.o."																															2017/3/8	2019/7/17
PRA000028	SAA001816	ST003	9606			AAH4	"Homo sapiens"	Human	2001	12						Asia	Cambodia	"Sambok, Kratie"	12.63491667		106.02025		Female	Hair					30	cm	"Hair length"		"23 y.o."																															2017/3/8	2019/7/17
PRA000028	SAA001817	ST003	9606			AAH5	"Homo sapiens"	Human	2001	12						Asia	Cambodia	"Sambok, Kratie"	12.63491667		106.02025		Male	Hair					3	cm	"Hair length"		"77 y.o."																															2017/3/8	2019/7/17
PRA000028	SAA001818	ST003	9606			AAH6	"Homo sapiens"	Human	2001	12						Asia	Cambodia	"Sambok, Kratie"	12.63491667		106.02025		Female	Hair					50	cm	"Hair length"		"36 y.o."																															2017/3/8	2019/7/17
PRA000028	SAA001819	ST003	9606			AAH7	"Homo sapiens"	Human	2001	12						Asia	Cambodia	"Sambok, Kratie"	12.63491667		106.02025		Male	Hair					3.5	cm	"Hair length"		"65 y.o."																															2017/3/8	2019/7/17
PRA000028	SAA001820	ST003	9606			AAH8	"Homo sapiens"	Human	2001	12						Asia	Cambodia	"Sambok, Kratie"	12.63491667		106.02025		Female	Hair					14	cm	"Hair length"		"60 y.o."																															2017/3/8	2019/7/17
PRA000028	SAA001821	ST003	9606			AAH9	"Homo sapiens"	Human	2001	12						Asia	Cambodia	"Sambok, Kratie"	12.63491667		106.02025		Male	Hair					5.5	cm	"Hair length"		"60 y.o."																															2017/3/8	2019/7/17
PRA000028	SAA001822	ST003	9606			AAH10	"Homo sapiens"	Human	2001	12						Asia	Cambodia	"Kompong Kor, Prek Prasob District, Kratie"	12.31927778		105.9533611		Female	Hair					19	cm	"Hair length"		"53 y.o."																															2017/3/8	2019/7/17
PRA000028	SAA001823	ST003	9606			AAH11	"Homo sapiens"	Human	2001	12						Asia	Cambodia	"Kompong Kor, Prek Prasob District, Kratie"	12.31927778		105.9533611		Male	Hair					6	cm	"Hair length"		"64 y.o."																															2017/3/8	2019/7/17
PRA000028	SAA001824	ST003	9606			AAH12	"Homo sapiens"	Human	2001	12						Asia	Cambodia	"Kompong Kor, Prek Prasob District, Kratie"	12.31927778		105.9533611		Female	Hair					14	cm	"Hair length"		"65 y.o."																															2017/3/8	2019/7/17
PRA000028	SAA001825	ST003	9606			AAH13	"Homo sapiens"	Human	2001	12						Asia	Cambodia	"Kompong Kor, Prek Prasob District, Kratie"	12.31927778		105.9533611		Male	Hair					9	cm	"Hair length"		"51 y.o."																															2017/3/8	2019/7/17
PRA000028	SAA001826	ST003	9606			AAH14	"Homo sapiens"	Human	2001	12						Asia	Cambodia	"Kompong Kor, Prek Prasob District, Kratie"	12.31927778		105.9533611		Female	Hair					22	cm	"Hair length"		"48 y.o."																															2017/3/8	2019/7/17
PRA000028	SAA001827	ST003	9606			AAH15	"Homo sapiens"	Human	2001	12						Asia	Cambodia	"Kompong Kor, Prek Prasob District, Kratie"	12.31927778		105.9533611		Male	Hair					5	cm	"Hair length"		"36 y.o."																															2017/3/8	2019/7/17
PRA000028	SAA001828	ST003	9606			AAH16	"Homo sapiens"	Human	2001	12						Asia	Cambodia	"Kompong Kor, Prek Prasob District, Kratie"	12.31927778		105.9533611		Female	Hair					14	cm	"Hair length"		"35 y.o."																															2017/3/8	2019/7/17
PRA000028	SAA001829	ST003	9606			AAH17	"Homo sapiens"	Human	2001	12						Asia	Cambodia	"Kompong Kor, Prek Prasob District, Kratie"	12.31927778		105.9533611		Male	Hair					11	cm	"Hair length"		"16 y.o."																															2017/3/8	2019/7/17
PRA000028	SAA001830	ST003	9606			AAH18	"Homo sapiens"	Human	2001	12						Asia	Cambodia	"Kompong Kor, Prek Prasob District, Kratie"	12.31927778		105.9533611		Male	Hair					18	cm	"Hair length"		"42 y.o."																															2017/3/8	2019/7/17
PRA000028	SAA001831	ST003	9606			AAH19	"Homo sapiens"	Human	2001	12						Asia	Cambodia	"Kompong Kor, Prek Prasob District, Kratie"	12.31927778		105.9533611		Female	Hair					39	cm	"Hair length"		"33 y.o."																															2017/3/8	2019/7/17
PRA000028	SAA001832	ST003	9606			AAH20	"Homo sapiens"	Human	2001	12						Asia	Cambodia	"Kompong Kor, Prek Prasob District, Kratie"	12.31927778		105.9533611		Male	Hair					12	cm	"Hair length"		"31 y.o."																															2017/3/8	2019/7/17
PRA000028	SAA001833	ST003	9606			AAH21	"Homo sapiens"	Human	2001	12						Asia	Cambodia	"Kompong Kor, Prek Prasob District, Kratie"	12.31927778		105.9533611		Female	Hair					62	cm	"Hair length"		"22 y.o."																															2017/3/8	2019/7/17
PRA000028	SAA001834	ST003	9606			AAH22	"Homo sapiens"	Human	2001	12						Asia	Cambodia	"Kompong Kor, Prek Prasob District, Kratie"	12.31927778		105.9533611		Male	Hair					4	cm	"Hair length"		"17 y.o."																															2017/3/8	2019/7/17
PRA000028	SAA001835	ST003	9606			AAH23	"Homo sapiens"	Human	2001	12						Asia	Cambodia	"Kompong Kor, Prek Prasob District, Kratie"	12.31927778		105.9533611		Male	Hair					4	cm	"Hair length"		"50 y.o."																															2017/3/8	2019/7/17
PRA000028	SAA001836	ST003	9606			AAH24	"Homo sapiens"	Human	2001	12						Asia	Cambodia	"Kompong Kor, Prek Prasob District, Kratie"	12.31927778		105.9533611		Female	Hair					12	cm	"Hair length"		"56 y.o."																															2017/3/8	2019/7/17
PRA000028	SAA001837	ST003	9606			AAH25	"Homo sapiens"	Human	2001	12						Asia	Cambodia	"Kompong Kor, Prek Prasob District, Kratie"	12.31927778		105.9533611		Female	Hair					62	cm	"Hair length"		"28 y.o."																															2017/3/8	2019/7/17
PRA000028	SAA001838	ST003	9606			AAH26	"Homo sapiens"	Human	2001	12						Asia	Cambodia	"Kompong Kor, Prek Prasob District, Kratie"	12.31927778		105.9533611		Male	Hair					9	cm	"Hair length"		"41 y.o."																															2017/3/8	2019/7/17
PRA000028	SAA001839	ST003	9606			AAH27	"Homo sapiens"	Human	2001	12						Asia	Cambodia	"Kompong Kor, Prek Prasob District, Kratie"	12.31927778		105.9533611		Female	Hair					55	cm	"Hair length"		"25 y.o."																															2017/3/8	2019/7/17
PRA000028	SAA001840	ST003	9606			AAH28	"Homo sapiens"	Human	2001	12						Asia	Cambodia	"Kompong Kor, Prek Prasob District, Kratie"	12.31927778		105.9533611		Female	Hair					7	cm	"Hair length"		"42 y.o."																															2017/3/8	2019/7/17
PRA000028	SAA001841	ST003	9606			AAH29	"Homo sapiens"	Human	2001	12						Asia	Cambodia	"Kompong Kor, Prek Prasob District, Kratie"	12.31927778		105.9533611		Male	Hair					3	cm	"Hair length"		"46 y.o."																															2017/3/8	2019/7/17
PRA000028	SAA001842	ST003	9606			AAH30	"Homo sapiens"	Human	2001	12						Asia	Cambodia	"Kompong Kor, Prek Prasob District, Kratie"	12.31927778		105.9533611		Male	Hair					6	cm	"Hair length"		"44 y.o."																															2017/3/8	2019/7/17
PRA000028	SAA001843	ST003	9606			AAH31	"Homo sapiens"	Human	2001	12						Asia	Cambodia	"Kompong Kor, Prek Prasob District, Kratie"	12.31927778		105.9533611		Female	Hair					20	cm	"Hair length"		"43 y.o."																															2017/3/8	2019/7/17
PRA000028	SAA001844	ST003	9606			AAH32	"Homo sapiens"	Human	2001	12						Asia	Cambodia	"Kompong Kor, Prek Prasob District, Kratie"	12.31927778		105.9533611		Female	Hair					19	cm	"Hair length"		"42 y.o."																															2017/3/8	2019/7/17
PRA000028	SAA001845	ST003	9606			AAH33	"Homo sapiens"	Human	2001	12						Asia	Cambodia	"Kompong Kor, Prek Prasob District, Kratie"	12.31927778		105.9533611		Male	Hair					8	cm	"Hair length"		"36 y.o."																															2017/3/8	2019/7/17
PRA000028	SAA001846	ST003	9606			ACH1	"Homo sapiens"	Human	2001	12						Asia	Cambodia	"Sambok, Kratie"	12.63491667		106.02025		Female	Hair					19	cm	"Hair length"		"8 y.o."																															2017/3/8	2019/7/17
PRA000028	SAA001847	ST003	9606			ACH2	"Homo sapiens"	Human	2001	12						Asia	Cambodia	"Sambok, Kratie"	12.63491667		106.02025		Male	Hair					3	cm	"Hair length"		"7 y.o."																															2017/3/8	2019/7/17
PRA000028	SAA001848	ST003	9606			ACH3	"Homo sapiens"	Human	2001	12						Asia	Cambodia	"Sambok, Kratie"	12.63491667		106.02025		Male	Hair					3	cm	"Hair length"		"3 y.o."																															2017/3/8	2019/7/17
PRA000028	SAA001849	ST003	9606			ACH4	"Homo sapiens"	Human	2001	12						Asia	Cambodia	"Sambok, Kratie"	12.63491667		106.02025		Female	Hair					34	cm	"Hair length"		"14 y.o."																															2017/3/8	2019/7/17
PRA000028	SAA001850	ST003	9606			ACH5	"Homo sapiens"	Human	2001	12						Asia	Cambodia	"Sambok, Kratie"	12.63491667		106.02025		Female	Hair					35	cm	"Hair length"		"10 y.o."																															2017/3/8	2019/7/17
PRA000028	SAA001851	ST003	9606			ACH6	"Homo sapiens"	Human	2001	12						Asia	Cambodia	"Sambok, Kratie"	12.63491667		106.02025		Male	Hair					3	cm	"Hair length"		"7 y.o."																															2017/3/8	2019/7/17
PRA000028	SAA001852	ST003	9606			ACH7	"Homo sapiens"	Human	2001	12						Asia	Cambodia	"Sambok, Kratie"	12.63491667		106.02025		Male	Hair					13	cm	"Hair length"		"11 y.o."																															2017/3/8	2019/7/17
PRA000028	SAA001853	ST003	9606			ACH8	"Homo sapiens"	Human	2001	12						Asia	Cambodia	"Sambok, Kratie"	12.63491667		106.02025		Female	Hair					26	cm	"Hair length"		"9 y.o."																															2017/3/8	2019/7/17
PRA000028	SAA001854	ST003	9606			ACH9	"Homo sapiens"	Human	2001	12						Asia	Cambodia	"Kompong Kor, Prek Prasob District, Kratie"	12.31927778		105.9533611		Female	Hair					25	cm	"Hair length"		"8 y.o."																															2017/3/8	2019/7/17
PRA000028	SAA001855	ST003	9606			ACH10	"Homo sapiens"	Human	2001	12						Asia	Cambodia	"Kompong Kor, Prek Prasob District, Kratie"	12.31927778		105.9533611		Male	Hair					3	cm	"Hair length"		"5 y.o."																															2017/3/8	2019/7/17
PRA000028	SAA001856	ST003	9606			ACH11	"Homo sapiens"	Human	2001	12						Asia	Cambodia	"Kompong Kor, Prek Prasob District, Kratie"	12.31927778		105.9533611		Female	Hair					34	cm	"Hair length"		"12 y.o."																															2017/3/8	2019/7/17
PRA000028	SAA001857	ST003	9606			ACH12	"Homo sapiens"	Human	2001	12						Asia	Cambodia	"Kompong Kor, Prek Prasob District, Kratie"	12.31927778		105.9533611		Male	Hair					10	cm	"Hair length"		"14 y.o."																															2017/3/8	2019/7/17
PRA000028	SAA001858	ST003	9606			ACH13	"Homo sapiens"	Human	2001	12						Asia	Cambodia	"Kompong Kor, Prek Prasob District, Kratie"	12.31927778		105.9533611		Female	Hair					17	cm	"Hair length"		"6 y.o."																															2017/3/8	2019/7/17
PRA000028	SAA001859	ST003	9606			ACH14	"Homo sapiens"	Human	2001	12						Asia	Cambodia	"Kompong Kor, Prek Prasob District, Kratie"	12.31927778		105.9533611		Male	Hair					3.5	cm	"Hair length"		"7 y.o."																															2017/3/8	2019/7/17
PRA000028	SAA001860	ST003	9606			ACH15	"Homo sapiens"	Human	2001	12						Asia	Cambodia	"Kompong Kor, Prek Prasob District, Kratie"	12.31927778		105.9533611		Female	Hair					37	cm	"Hair length"		"15 y.o."																															2017/3/8	2019/7/17
PRA000028	SAA001861	ST003	9606			ACH16	"Homo sapiens"	Human	2001	12						Asia	Cambodia	"Kompong Kor, Prek Prasob District, Kratie"	12.31927778		105.9533611		Female	Hair					21	cm	"Hair length"		"10 y.o."																															2017/3/8	2019/7/17
PRA000028	SAA001862	ST003	9606			ACH17	"Homo sapiens"	Human	2001	12						Asia	Cambodia	"Kompong Kor, Prek Prasob District, Kratie"	12.31927778		105.9533611		Male	Hair					10	cm	"Hair length"		"10 y.o."																															2017/3/8	2019/7/17
PRA000028	SAA001863	ST003	9606			ACH18	"Homo sapiens"	Human	2001	12						Asia	Cambodia	"Kompong Kor, Prek Prasob District, Kratie"	12.31927778		105.9533611		Female	Hair					50	cm	"Hair length"		"12 y.o."																															2017/3/8	2019/7/17
PRA000028	SAA001864	ST003	9606			ACH19	"Homo sapiens"	Human	2001	12						Asia	Cambodia	"Kompong Kor, Prek Prasob District, Kratie"	12.31927778		105.9533611		Male	Hair					4	cm	"Hair length"		"15 y.o."																															2017/3/8	2019/7/17
PRA000028	SAA001865	ST003	9606			ACH20	"Homo sapiens"	Human	2001	12						Asia	Cambodia	"Kompong Kor, Prek Prasob District, Kratie"	12.31927778		105.9533611		Male	Hair					4	cm	"Hair length"		"9 y.o."																															2017/3/8	2019/7/17
PRA000028	SAA001866	ST003	9606			ACH21	"Homo sapiens"	Human	2001	12						Asia	Cambodia	"Kompong Kor, Prek Prasob District, Kratie"	12.31927778		105.9533611		Female	Hair					26	cm	"Hair length"		"9 y.o."																															2017/3/8	2019/7/17
PRA000028	SAA001867	ST003	9606			ACH22	"Homo sapiens"	Human	2001	12						Asia	Cambodia	"Kompong Kor, Prek Prasob District, Kratie"	12.31927778		105.9533611		Male	Hair					2	cm	"Hair length"		"8 y.o."																															2017/3/8	2019/7/17
PRA000028	SAA001868	ST003	9606			ACH23	"Homo sapiens"	Human	2001	12						Asia	Cambodia	"Kompong Kor, Prek Prasob District, Kratie"	12.31927778		105.9533611		Female	Hair					19	cm	"Hair length"		"10 y.o."																															2017/3/8	2019/7/17
PRA000028	SAA001869	ST003	9606			ACH24	"Homo sapiens"	Human	2001	12						Asia	Cambodia	"Kompong Kor, Prek Prasob District, Kratie"	12.31927778		105.9533611		Female	Hair					18	cm	"Hair length"		"13 y.o."																															2017/3/8	2019/7/17
PRA000028	SAA001870	ST003	9606			ACH25	"Homo sapiens"	Human	2001	12						Asia	Cambodia	"Kompong Kor, Prek Prasob District, Kratie"	12.31927778		105.9533611		Male	Hair					7	cm	"Hair length"		"16 y.o."																															2017/3/8	2019/7/17
PRA000028	SAA001871	ST003	9606			ACH26	"Homo sapiens"	Human	2001	12						Asia	Cambodia	"Kompong Kor, Prek Prasob District, Kratie"	12.31927778		105.9533611		Male	Hair					9	cm	"Hair length"		"16 y.o."																															2017/3/8	2019/7/17
PRA000028	SAA001872	ST003	9606			ACH27	"Homo sapiens"	Human	2001	12						Asia	Cambodia	"Kompong Kor, Prek Prasob District, Kratie"	12.31927778		105.9533611		Female	Hair					50	cm	"Hair length"		"15 y.o."																															2017/3/8	2019/7/17
PRA000028	SAA001873	ST003	9606			ACH28	"Homo sapiens"	Human	2001	12						Asia	Cambodia	"Kompong Kor, Prek Prasob District, Kratie"	12.31927778		105.9533611		Female	Hair					46	cm	"Hair length"		"15 y.o."																															2017/3/8	2019/7/17
PRA000052	SAA003141	ST003	9606			CP2015_001	"Homo sapiens"	Human	2010							Asia	China	Shanghai	31.22221944		121.4580611		Female	Urine									"25 y.o."																														"Sample collected in 2010-2012"	2017/11/22	2017/11/22
PRA000052	SAA003142	ST003	9606			CP2015_002	"Homo sapiens"	Human	2010							Asia	China	Shanghai	31.22221944		121.4580611		Male	Urine									"24 y.o."																														"Sample collected in 2010-2012"	2017/11/22	2017/11/22
PRA000052	SAA003143	ST003	9606			CP2015_003	"Homo sapiens"	Human	2010							Asia	China	Shanghai	31.22221944		121.4580611		Male	Urine									"24 y.o."																														"Sample collected in 2010-2012"	2017/11/22	2017/11/22
PRA000052	SAA003144	ST003	9606			CP2015_004	"Homo sapiens"	Human	2010							Asia	China	Shanghai	31.22221944		121.4580611		Female	Urine									"23 y.o."																														"Sample collected in 2010-2012"	2017/11/22	2017/11/22
PRA000052	SAA003145	ST003	9606			CP2015_005	"Homo sapiens"	Human	2010							Asia	China	Shanghai	31.22221944		121.4580611		Male	Urine									"23 y.o."																														"Sample collected in 2010-2012"	2017/11/22	2017/11/22
PRA000052	SAA003146	ST003	9606			CP2015_006	"Homo sapiens"	Human	2010							Asia	China	Shanghai	31.22221944		121.4580611		Male	Urine									"22 y.o."																														"Sample collected in 2010-2012"	2017/11/22	2017/11/22
PRA000052	SAA003147	ST003	9606			CP2015_007	"Homo sapiens"	Human	2010							Asia	China	Shanghai	31.22221944		121.4580611		Male	Urine									"24 y.o."																														"Sample collected in 2010-2012"	2017/11/22	2017/11/22
PRA000052	SAA003148	ST003	9606			CP2015_008	"Homo sapiens"	Human	2010							Asia	China	Shanghai	31.22221944		121.4580611		Male	Urine									"23 y.o."																														"Sample collected in 2010-2012"	2017/11/22	2017/11/22
PRA000052	SAA003149	ST003	9606			CP2015_009	"Homo sapiens"	Human	2010							Asia	China	Shanghai	31.22221944		121.4580611		Male	Urine									"24 y.o."																														"Sample collected in 2010-2012"	2017/11/22	2017/11/22
PRA000052	SAA003150	ST003	9606			CP2015_010	"Homo sapiens"	Human	2010							Asia	China	Shanghai	31.22221944		121.4580611		Male	Urine									"23 y.o."																														"Sample collected in 2010-2012"	2017/11/22	2017/11/22
PRA000052	SAA003151	ST003	9606			CP2015_011	"Homo sapiens"	Human	2010							Asia	China	Shanghai	31.22221944		121.4580611		Male	Urine									"24 y.o."																														"Sample collected in 2010-2012"	2017/11/22	2017/11/22
PRA000052	SAA003152	ST003	9606			CP2015_012	"Homo sapiens"	Human	2010							Asia	China	Shanghai	31.22221944		121.4580611		Male	Urine									"23 y.o."																														"Sample collected in 2010-2012"	2017/11/22	2017/11/22
PRA000052	SAA003153	ST003	9606			CP2015_013	"Homo sapiens"	Human	2010							Asia	China	Shanghai	31.22221944		121.4580611		Female	Urine									"56 y.o."																														"Sample collected in 2010-2012"	2017/11/22	2017/11/22
PRA000052	SAA003154	ST003	9606			CP2015_014	"Homo sapiens"	Human	2010							Asia	China	Shanghai	31.22221944		121.4580611		Female	Urine									"22 y.o."																														"Sample collected in 2010-2012"	2017/11/22	2017/11/22
PRA000052	SAA003155	ST003	9606			CP2015_015	"Homo sapiens"	Human	2010							Asia	China	Shanghai	31.22221944		121.4580611		Female	Urine									"23 y.o."																														"Sample collected in 2010-2012"	2017/11/22	2017/11/22
PRA000052	SAA003156	ST003	9606			CP2015_016	"Homo sapiens"	Human	2010							Asia	China	Shanghai	31.22221944		121.4580611		Female	Urine									"26 y.o."																														"Sample collected in 2010-2012"	2017/11/22	2017/11/22
PRA000052	SAA003157	ST003	9606			CP2015_017	"Homo sapiens"	Human	2010							Asia	China	Guangzhou	23.128994		113.25325		Female	Urine									"34 y.o."																														"Sample collected in 2010-2012"	2017/11/22	2017/11/22
PRA000052	SAA003158	ST003	9606			CP2015_018	"Homo sapiens"	Human	2010							Asia	China	Guangzhou	23.128994		113.25325		Female	Urine									"4 y.o."																														"Sample collected in 2010-2012"	2017/11/22	2017/11/22
PRA000052	SAA003159	ST003	9606			CP2015_019	"Homo sapiens"	Human	2010							Asia	China	Guangzhou	23.128994		113.25325		Male	Urine									"39 y.o."																														"Sample collected in 2010-2012"	2017/11/22	2017/11/22
PRA000052	SAA003160	ST003	9606			CP2015_020	"Homo sapiens"	Human	2010							Asia	China	Guangzhou	23.128994		113.25325		Male	Urine									"14 y.o."																														"Sample collected in 2010-2012"	2017/11/22	2017/11/22
PRA000052	SAA003161	ST003	9606			CP2015_021	"Homo sapiens"	Human	2010							Asia	China	Guangzhou	23.128994		113.25325		Female	Urine									"29 y.o."																														"Sample collected in 2010-2012"	2017/11/22	2017/11/22
PRA000052	SAA003162	ST003	9606			CP2015_022	"Homo sapiens"	Human	2010							Asia	China	Guangzhou	23.128994		113.25325		Female	Urine									"4 y.o."																														"Sample collected in 2010-2012"	2017/11/22	2017/11/22
PRA000052	SAA003163	ST003	9606			CP2015_023	"Homo sapiens"	Human	2010							Asia	China	Guangzhou	23.128994		113.25325		Female	Urine									"23 y.o."																														"Sample collected in 2010-2012"	2017/11/22	2017/11/22
PRA000052	SAA003164	ST003	9606			CP2015_024	"Homo sapiens"	Human	2010							Asia	China	Guangzhou	23.128994		113.25325		Female	Urine									"12 y.o."																														"Sample collected in 2010-2012"	2017/11/22	2017/11/22
PRA000052	SAA003165	ST003	9606			CP2015_025	"Homo sapiens"	Human	2010							Asia	China	Guangzhou	23.128994		113.25325		Female	Urine									"42 y.o."																														"Sample collected in 2010-2012"	2017/11/22	2017/11/22
PRA000052	SAA003166	ST003	9606			CP2015_026	"Homo sapiens"	Human	2010							Asia	China	Guangzhou	23.128994		113.25325		Male	Urine									"2 y.o."																														"Sample collected in 2010-2012"	2017/11/22	2017/11/22
PRA000052	SAA003167	ST003	9606			CP2015_027	"Homo sapiens"	Human	2010							Asia	China	Guangzhou	23.128994		113.25325		Female	Urine									"36 y.o."																														"Sample collected in 2010-2012"	2017/11/22	2017/11/22
PRA000052	SAA003168	ST003	9606			CP2015_028	"Homo sapiens"	Human	2010							Asia	China	Guangzhou	23.128994		113.25325		Female	Urine									"36 y.o."																														"Sample collected in 2010-2012"	2017/11/22	2017/11/22
PRA000052	SAA003169	ST003	9606			CP2015_029	"Homo sapiens"	Human	2010							Asia	China	Guangzhou	23.128994		113.25325		Female	Urine									"42 y.o."																														"Sample collected in 2010-2012"	2017/11/22	2017/11/22
PRA000052	SAA003170	ST003	9606			CP2015_030	"Homo sapiens"	Human	2010							Asia	China	Guangzhou	23.128994		113.25325		Female	Urine									"28 y.o."																														"Sample collected in 2010-2012"	2017/11/22	2017/11/22
PRA000052	SAA003171	ST003	9606			CP2015_031	"Homo sapiens"	Human	2010							Asia	China	Guangzhou	23.128994		113.25325		Male	Urine									"30 y.o."																														"Sample collected in 2010-2012"	2017/11/22	2017/11/22
PRA000052	SAA003172	ST003	9606			CP2015_032	"Homo sapiens"	Human	2010							Asia	China	Guangzhou	23.128994		113.25325		Male	Urine									"28 y.o."																														"Sample collected in 2010-2012"	2017/11/22	2017/11/22
PRA000052	SAA003173	ST003	9606			CP2015_033	"Homo sapiens"	Human	2010							Asia	China	Qiqihar	47.34088056		123.96045		Female	Urine									"54 y.o."																														"Sample collected in 2010-2012"	2017/11/22	2017/11/22
PRA000052	SAA003174	ST003	9606			CP2015_034	"Homo sapiens"	Human	2010							Asia	China	Qiqihar	47.34088056		123.96045		Female	Urine									"37 y.o."																														"Sample collected in 2010-2012"	2017/11/22	2017/11/22
PRA000052	SAA003175	ST003	9606			CP2015_035	"Homo sapiens"	Human	2010							Asia	China	Qiqihar	47.34088056		123.96045		Female	Urine									"44 y.o."																														"Sample collected in 2010-2012"	2017/11/22	2017/11/22
PRA000052	SAA003176	ST003	9606			CP2015_036	"Homo sapiens"	Human	2010							Asia	China	Qiqihar	47.34088056		123.96045		Female	Urine									"29 y.o."																														"Sample collected in 2010-2012"	2017/11/22	2017/11/22
PRA000052	SAA003177	ST003	9606			CP2015_037	"Homo sapiens"	Human	2010							Asia	China	Qiqihar	47.34088056		123.96045		Male	Urine									"67 y.o."																														"Sample collected in 2010-2012"	2017/11/22	2017/11/22
PRA000052	SAA003178	ST003	9606			CP2015_038	"Homo sapiens"	Human	2010							Asia	China	Qiqihar	47.34088056		123.96045		Male	Urine									"66 y.o."																														"Sample collected in 2010-2012"	2017/11/22	2017/11/22
PRA000052	SAA003179	ST003	9606			CP2015_039	"Homo sapiens"	Human	2010							Asia	China	Qiqihar	47.34088056		123.96045		Male	Urine									"53 y.o."																														"Sample collected in 2010-2012"	2017/11/22	2017/11/22
PRA000052	SAA003180	ST003	9606			CP2015_040	"Homo sapiens"	Human	2010							Asia	China	Qiqihar	47.34088056		123.96045		Female	Urine									"60 y.o."																														"Sample collected in 2010-2012"	2017/11/22	2017/11/22
PRA000052	SAA003181	ST003	9606			CP2015_041	"Homo sapiens"	Human	2010							Asia	China	Qiqihar	47.34088056		123.96045		Female	Urine									"49 y.o."																														"Sample collected in 2010-2012"	2017/11/22	2017/11/22
PRA000052	SAA003182	ST003	9606			CP2015_042	"Homo sapiens"	Human	2010							Asia	China	Qiqihar	47.34088056		123.96045		Male	Urine									"39 y.o."																														"Sample collected in 2010-2012"	2017/11/22	2017/11/22
PRA000052	SAA003183	ST003	9606			CP2015_043	"Homo sapiens"	Human	2010							Asia	China	Qiqihar	47.34088056		123.96045		Male	Urine									"19 y.o."																														"Sample collected in 2010-2012"	2017/11/22	2017/11/22
PRA000052	SAA003184	ST003	9606			CP2015_044	"Homo sapiens"	Human	2010							Asia	China	Qiqihar	47.34088056		123.96045			Urine																																							"Sample collected in 2010-2012"	2017/11/22	2017/11/22
PRA000052	SAA003185	ST003	9606			CP2015_045	"Homo sapiens"	Human	2010							Asia	China	Qiqihar	47.34088056		123.96045		Female	Urine									"35 y.o."																														"Sample collected in 2010-2012"	2017/11/22	2017/11/22
PRA000052	SAA003186	ST003	9606			CP2015_046	"Homo sapiens"	Human	2010							Asia	China	Qiqihar	47.34088056		123.96045		Female	Urine									"44 y.o."																														"Sample collected in 2010-2012"	2017/11/22	2017/11/22
PRA000052	SAA003187	ST003	9606			CP2015_047	"Homo sapiens"	Human	2010							Asia	China	Qiqihar	47.34088056		123.96045		Female	Urine									"55 y.o."																														"Sample collected in 2010-2012"	2017/11/22	2017/11/22
PRA000052	SAA003188	ST003	9606			CP2015_048	"Homo sapiens"	Human	2010							Asia	India	"Mettupalayam or Chennai"	11.282004	13.245375	76.92109	80.334975		Urine																																							"Sample collected in 2010-2012"	2017/11/22	2017/11/22
PRA000052	SAA003189	ST003	9606			CP2015_049	"Homo sapiens"	Human	2010							Asia	India	"Mettupalayam or Chennai"	11.282004	13.245375	76.92109	80.334975		Urine																																							"Sample collected in 2010-2012"	2017/11/22	2017/11/22
PRA000052	SAA003190	ST003	9606			CP2015_050	"Homo sapiens"	Human	2010							Asia	India	"Mettupalayam or Chennai"	11.282004	13.245375	76.92109	80.334975		Urine																																							"Sample collected in 2010-2012"	2017/11/22	2017/11/22
PRA000052	SAA003191	ST003	9606			CP2015_051	"Homo sapiens"	Human	2010							Asia	India	"Mettupalayam or Chennai"	11.282004	13.245375	76.92109	80.334975		Urine																																							"Sample collected in 2010-2012"	2017/11/22	2017/11/22
PRA000052	SAA003192	ST003	9606			CP2015_052	"Homo sapiens"	Human	2010							Asia	India	"Mettupalayam or Chennai"	11.282004	13.245375	76.92109	80.334975		Urine																																							"Sample collected in 2010-2012"	2017/11/22	2017/11/22
PRA000052	SAA003193	ST003	9606			CP2015_053	"Homo sapiens"	Human	2010							Asia	India	"Mettupalayam or Chennai"	11.282004	13.245375	76.92109	80.334975		Urine																																							"Sample collected in 2010-2012"	2017/11/22	2017/11/22
PRA000052	SAA003194	ST003	9606			CP2015_054	"Homo sapiens"	Human	2010							Asia	India	"Mettupalayam or Chennai"	11.282004	13.245375	76.92109	80.334975		Urine																																							"Sample collected in 2010-2012"	2017/11/22	2017/11/22
PRA000052	SAA003195	ST003	9606			CP2015_055	"Homo sapiens"	Human	2010							Asia	India	"Mettupalayam or Chennai"	11.282004	13.245375	76.92109	80.334975		Urine																																							"Sample collected in 2010-2012"	2017/11/22	2017/11/22
PRA000052	SAA003196	ST003	9606			CP2015_056	"Homo sapiens"	Human	2010							Asia	India	"Mettupalayam or Chennai"	11.282004	13.245375	76.92109	80.334975		Urine																																							"Sample collected in 2010-2012"	2017/11/22	2017/11/22
PRA000052	SAA003197	ST003	9606			CP2015_057	"Homo sapiens"	Human	2010							Asia	India	"Mettupalayam or Chennai"	11.282004	13.245375	76.92109	80.334975		Urine																																							"Sample collected in 2010-2012"	2017/11/22	2017/11/22
PRA000052	SAA003198	ST003	9606			CP2015_058	"Homo sapiens"	Human	2010							Asia	India	"Mettupalayam or Chennai"	11.282004	13.245375	76.92109	80.334975		Urine																																							"Sample collected in 2010-2012"	2017/11/22	2017/11/22
PRA000052	SAA003199	ST003	9606			CP2015_059	"Homo sapiens"	Human	2010							Asia	India	"Mettupalayam or Chennai"	11.282004	13.245375	76.92109	80.334975		Urine																																							"Sample collected in 2010-2012"	2017/11/22	2017/11/22
PRA000052	SAA003200	ST003	9606			CP2015_060	"Homo sapiens"	Human	2010							Asia	India	"Mettupalayam or Chennai"	11.282004	13.245375	76.92109	80.334975		Urine																																							"Sample collected in 2010-2012"	2017/11/22	2017/11/22
PRA000052	SAA003201	ST003	9606			CP2015_061	"Homo sapiens"	Human	2010							Asia	India	"Mettupalayam or Chennai"	11.282004	13.245375	76.92109	80.334975		Urine																																							"Sample collected in 2010-2012"	2017/11/22	2017/11/22
PRA000052	SAA003202	ST003	9606			CP2015_062	"Homo sapiens"	Human	2010							Asia	India	"Mettupalayam or Chennai"	11.282004	13.245375	76.92109	80.334975		Urine																																							"Sample collected in 2010-2012"	2017/11/22	2017/11/22
PRA000052	SAA003203	ST003	9606			CP2015_063	"Homo sapiens"	Human	2010							Asia	India	"Mettupalayam or Chennai"	11.282004	13.245375	76.92109	80.334975		Urine																																							"Sample collected in 2010-2012"	2017/11/22	2017/11/22
PRA000052	SAA003204	ST003	9606			CP2015_064	"Homo sapiens"	Human	2010							Asia	India	"Mettupalayam or Chennai"	11.282004	13.245375	76.92109	80.334975		Urine																																							"Sample collected in 2010-2012"	2017/11/22	2017/11/22
PRA000052	SAA003205	ST003	9606			CP2015_065	"Homo sapiens"	Human	2010							Asia	India	"Mettupalayam or Chennai"	11.282004	13.245375	76.92109	80.334975		Urine																																							"Sample collected in 2010-2012"	2017/11/22	2017/11/22
PRA000052	SAA003206	ST003	9606			CP2015_066	"Homo sapiens"	Human	2010							Asia	India	"Mettupalayam or Chennai"	11.282004	13.245375	76.92109	80.334975		Urine																																							"Sample collected in 2010-2012"	2017/11/22	2017/11/22
PRA000052	SAA003207	ST003	9606			CP2015_067	"Homo sapiens"	Human	2010							Asia	India	"Mettupalayam or Chennai"	11.282004	13.245375	76.92109	80.334975		Urine																																							"Sample collected in 2010-2012"	2017/11/22	2017/11/22
PRA000052	SAA003208	ST003	9606			CP2015_068	"Homo sapiens"	Human	2010							Asia	India	"Mettupalayam or Chennai"	11.282004	13.245375	76.92109	80.334975		Urine																																							"Sample collected in 2010-2012"	2017/11/22	2017/11/22
PRA000052	SAA003209	ST003	9606			CP2015_069	"Homo sapiens"	Human	2010							Asia	India	"Mettupalayam or Chennai"	11.282004	13.245375	76.92109	80.334975		Urine																																							"Sample collected in 2010-2012"	2017/11/22	2017/11/22
PRA000052	SAA003210	ST003	9606			CP2015_070	"Homo sapiens"	Human	2010							Asia	India	"Mettupalayam or Chennai"	11.282004	13.245375	76.92109	80.334975		Urine																																							"Sample collected in 2010-2012"	2017/11/22	2017/11/22
PRA000052	SAA003211	ST003	9606			CP2015_071	"Homo sapiens"	Human	2010							Asia	India	"Mettupalayam or Chennai"	11.282004	13.245375	76.92109	80.334975		Urine																																							"Sample collected in 2010-2012"	2017/11/22	2017/11/22
PRA000052	SAA003212	ST003	9606			CP2015_072	"Homo sapiens"	Human	2010							Asia	India	"Mettupalayam or Chennai"	11.282004	13.245375	76.92109	80.334975		Urine																																							"Sample collected in 2010-2012"	2017/11/22	2017/11/22
PRA000052	SAA003213	ST003	9606			CP2015_073	"Homo sapiens"	Human	2010							Asia	India	"Mettupalayam or Chennai"	11.282004	13.245375	76.92109	80.334975		Urine																																							"Sample collected in 2010-2012"	2017/11/22	2017/11/22
PRA000052	SAA003214	ST003	9606			CP2015_074	"Homo sapiens"	Human	2010							Asia	India	"Mettupalayam or Chennai"	11.282004	13.245375	76.92109	80.334975		Urine																																							"Sample collected in 2010-2012"	2017/11/22	2017/11/22
PRA000052	SAA003215	ST003	9606			CP2015_075	"Homo sapiens"	Human	2010							Asia	India	"Mettupalayam or Chennai"	11.282004	13.245375	76.92109	80.334975		Urine																																							"Sample collected in 2010-2012"	2017/11/22	2017/11/22
PRA000052	SAA003216	ST003	9606			CP2015_076	"Homo sapiens"	Human	2010							Asia	India	"Mettupalayam or Chennai"	11.282004	13.245375	76.92109	80.334975	Female	Urine									"24 y.o."																														"Sample collected in 2010-2012"	2017/11/22	2017/11/22
PRA000052	SAA003217	ST003	9606			CP2015_077	"Homo sapiens"	Human	2010							Asia	India	"Mettupalayam or Chennai"	11.282004	13.245375	76.92109	80.334975	Male	Urine									"50 y.o."																														"Sample collected in 2010-2012"	2017/11/22	2017/11/22
PRA000052	SAA003218	ST003	9606			CP2015_078	"Homo sapiens"	Human	2010							Asia	India	"Mettupalayam or Chennai"	11.282004	13.245375	76.92109	80.334975	Female	Urine									"75 y.o."																														"Sample collected in 2010-2012"	2017/11/22	2017/11/22
PRA000052	SAA003219	ST003	9606			CP2015_079	"Homo sapiens"	Human	2010							Asia	India	"Mettupalayam or Chennai"	11.282004	13.245375	76.92109	80.334975	Female	Urine									"32 y.o."																														"Sample collected in 2010-2012"	2017/11/22	2017/11/22
PRA000052	SAA003220	ST003	9606			CP2015_080	"Homo sapiens"	Human	2010							Asia	India	"Mettupalayam or Chennai"	11.282004	13.245375	76.92109	80.334975		Urine																																							"Sample collected in 2010-2012"	2017/11/22	2017/11/22
PRA000052	SAA003221	ST003	9606			CP2015_081	"Homo sapiens"	Human	2010							Asia	India	"Mettupalayam or Chennai"	11.282004	13.245375	76.92109	80.334975	Male	Urine									"35 y.o."																														"Sample collected in 2010-2012"	2017/11/22	2017/11/22
PRA000052	SAA003222	ST003	9606			CP2015_082	"Homo sapiens"	Human	2010							Asia	India	"Mettupalayam or Chennai"	11.282004	13.245375	76.92109	80.334975	Female	Urine									"41 y.o."																														"Sample collected in 2010-2012"	2017/11/22	2017/11/22
PRA000052	SAA003223	ST003	9606			CP2015_083	"Homo sapiens"	Human	2010							Asia	India	"Mettupalayam or Chennai"	11.282004	13.245375	76.92109	80.334975	Female	Urine									"35 y.o."																														"Sample collected in 2010-2012"	2017/11/22	2017/11/22
PRA000052	SAA003224	ST003	9606			CP2015_084	"Homo sapiens"	Human	2010							Asia	India	"Mettupalayam or Chennai"	11.282004	13.245375	76.92109	80.334975	Female	Urine									"30 y.o."																														"Sample collected in 2010-2012"	2017/11/22	2017/11/22
PRA000052	SAA003225	ST003	9606			CP2015_085	"Homo sapiens"	Human	2010							Asia	India	"Mettupalayam or Chennai"	11.282004	13.245375	76.92109	80.334975	Male	Urine									"69 y.o."																														"Sample collected in 2010-2012"	2017/11/22	2017/11/22
PRA000052	SAA003226	ST003	9606			CP2015_086	"Homo sapiens"	Human	2010							Asia	India	"Mettupalayam or Chennai"	11.282004	13.245375	76.92109	80.334975	Female	Urine									"59 y.o."																														"Sample collected in 2010-2012"	2017/11/22	2017/11/22
PRA000052	SAA003227	ST003	9606			CP2015_087	"Homo sapiens"	Human	2010							Asia	India	"Mettupalayam or Chennai"	11.282004	13.245375	76.92109	80.334975	Female	Urine									"60 y.o."																														"Sample collected in 2010-2012"	2017/11/22	2017/11/22
PRA000052	SAA003228	ST003	9606			CP2015_088	"Homo sapiens"	Human	2010							Asia	India	"Mettupalayam or Chennai"	11.282004	13.245375	76.92109	80.334975	Female	Urine									"44 y.o."																														"Sample collected in 2010-2012"	2017/11/22	2017/11/22
PRA000052	SAA003229	ST003	9606			CP2015_089	"Homo sapiens"	Human	2010							Asia	Japan	"Matsuyama or Kumamoto"	32.66027778	34.07388889	130.5716667	132.9266667	Male	Urine									"46 y.o."																														"Sample collected in 2010-2012"	2017/11/22	2017/11/22
PRA000052	SAA003230	ST003	9606			CP2015_090	"Homo sapiens"	Human	2010							Asia	Japan	"Matsuyama or Kumamoto"	32.66027778	34.07388889	130.5716667	132.9266667	Male	Urine									"39 y.o."																														"Sample collected in 2010-2012"	2017/11/22	2017/11/22
PRA000052	SAA003231	ST003	9606			CP2015_091	"Homo sapiens"	Human	2010							Asia	Japan	"Matsuyama or Kumamoto"	32.66027778	34.07388889	130.5716667	132.9266667	Male	Urine									"50 y.o."																														"Sample collected in 2010-2012"	2017/11/22	2017/11/22
PRA000052	SAA003232	ST003	9606			CP2015_092	"Homo sapiens"	Human	2010							Asia	Japan	"Matsuyama or Kumamoto"	32.66027778	34.07388889	130.5716667	132.9266667	Male	Urine									"47 y.o."																														"Sample collected in 2010-2012"	2017/11/22	2017/11/22
PRA000052	SAA003233	ST003	9606			CP2015_093	"Homo sapiens"	Human	2010							Asia	Japan	"Matsuyama or Kumamoto"	32.66027778	34.07388889	130.5716667	132.9266667	Male	Urine									"36 y.o."																														"Sample collected in 2010-2012"	2017/11/22	2017/11/22
PRA000052	SAA003234	ST003	9606			CP2015_094	"Homo sapiens"	Human	2010							Asia	Japan	"Matsuyama or Kumamoto"	32.66027778	34.07388889	130.5716667	132.9266667	Male	Urine									"41 y.o."																														"Sample collected in 2010-2012"	2017/11/22	2017/11/22
PRA000052	SAA003235	ST003	9606			CP2015_095	"Homo sapiens"	Human	2010							Asia	Japan	"Matsuyama or Kumamoto"	32.66027778	34.07388889	130.5716667	132.9266667	Male	Urine									"32 y.o."																														"Sample collected in 2010-2012"	2017/11/22	2017/11/22
PRA000052	SAA003236	ST003	9606			CP2015_096	"Homo sapiens"	Human	2010							Asia	Japan	"Matsuyama or Kumamoto"	32.66027778	34.07388889	130.5716667	132.9266667	Male	Urine									"36 y.o."																														"Sample collected in 2010-2012"	2017/11/22	2017/11/22
PRA000052	SAA003237	ST003	9606			CP2015_097	"Homo sapiens"	Human	2010							Asia	Japan	"Matsuyama or Kumamoto"	32.66027778	34.07388889	130.5716667	132.9266667	Male	Urine									"22 y.o."																														"Sample collected in 2010-2012"	2017/11/22	2017/11/22
PRA000052	SAA003238	ST003	9606			CP2015_098	"Homo sapiens"	Human	2010							Asia	Japan	"Matsuyama or Kumamoto"	32.66027778	34.07388889	130.5716667	132.9266667	Male	Urine									"29 y.o."																														"Sample collected in 2010-2012"	2017/11/22	2017/11/22
PRA000052	SAA003239	ST003	9606			CP2015_099	"Homo sapiens"	Human	2010							Asia	Japan	"Matsuyama or Kumamoto"	32.66027778	34.07388889	130.5716667	132.9266667	Male	Urine									"32 y.o."																														"Sample collected in 2010-2012"	2017/11/22	2017/11/22
PRA000052	SAA003240	ST003	9606			CP2015_100	"Homo sapiens"	Human	2010							Asia	Japan	"Matsuyama or Kumamoto"	32.66027778	34.07388889	130.5716667	132.9266667	Male	Urine									"59 y.o."																														"Sample collected in 2010-2012"	2017/11/22	2017/11/22
PRA000052	SAA003241	ST003	9606			CP2015_101	"Homo sapiens"	Human	2010							Asia	Japan	"Matsuyama or Kumamoto"	32.66027778	34.07388889	130.5716667	132.9266667	Male	Urine									"25 y.o."																														"Sample collected in 2010-2012"	2017/11/22	2017/11/22
PRA000052	SAA003242	ST003	9606			CP2015_102	"Homo sapiens"	Human	2010							Asia	Japan	"Matsuyama or Kumamoto"	32.66027778	34.07388889	130.5716667	132.9266667	Male	Urine									"31 y.o."																														"Sample collected in 2010-2012"	2017/11/22	2017/11/22
PRA000052	SAA003243	ST003	9606			CP2015_103	"Homo sapiens"	Human	2010							Asia	Japan	"Matsuyama or Kumamoto"	32.66027778	34.07388889	130.5716667	132.9266667	Male	Urine									"35 y.o."																														"Sample collected in 2010-2012"	2017/11/22	2017/11/22
PRA000052	SAA003244	ST003	9606			CP2015_104	"Homo sapiens"	Human	2010							Asia	Japan	"Matsuyama or Kumamoto"	32.66027778	34.07388889	130.5716667	132.9266667	Male	Urine									"39 y.o."																														"Sample collected in 2010-2012"	2017/11/22	2017/11/22
PRA000052	SAA003245	ST003	9606			CP2015_105	"Homo sapiens"	Human	2010							Asia	Japan	"Matsuyama or Kumamoto"	32.66027778	34.07388889	130.5716667	132.9266667	Female	Urine									"32 y.o."																														"Sample collected in 2010-2012"	2017/11/22	2017/11/22
PRA000052	SAA003246	ST003	9606			CP2015_106	"Homo sapiens"	Human	2010							Asia	Japan	"Matsuyama or Kumamoto"	32.66027778	34.07388889	130.5716667	132.9266667	Female	Urine									"36 y.o."																														"Sample collected in 2010-2012"	2017/11/22	2017/11/22
PRA000052	SAA003247	ST003	9606			CP2015_107	"Homo sapiens"	Human	2010							Asia	Japan	"Matsuyama or Kumamoto"	32.66027778	34.07388889	130.5716667	132.9266667	Female	Urine									"24 y.o."																														"Sample collected in 2010-2012"	2017/11/22	2017/11/22
PRA000052	SAA003248	ST003	9606			CP2015_108	"Homo sapiens"	Human	2010							Asia	Japan	"Matsuyama or Kumamoto"	32.66027778	34.07388889	130.5716667	132.9266667	Female	Urine									"23 y.o."																														"Sample collected in 2010-2012"	2017/11/22	2017/11/22
PRA000052	SAA003249	ST003	9606			CP2015_109	"Homo sapiens"	Human	2010							Asia	Japan	"Matsuyama or Kumamoto"	32.66027778	34.07388889	130.5716667	132.9266667	Female	Urine									"27 y.o."																														"Sample collected in 2010-2012"	2017/11/22	2017/11/22
PRA000052	SAA003250	ST003	9606			CP2015_110	"Homo sapiens"	Human	2010							Asia	Japan	"Matsuyama or Kumamoto"	32.66027778	34.07388889	130.5716667	132.9266667	Male	Urine									"33 y.o."																														"Sample collected in 2010-2012"	2017/11/22	2017/11/22
PRA000052	SAA003251	ST003	9606			CP2015_111	"Homo sapiens"	Human	2010							Asia	Japan	"Matsuyama or Kumamoto"	32.66027778	34.07388889	130.5716667	132.9266667	Male	Urine									"36 y.o."																														"Sample collected in 2010-2012"	2017/11/22	2017/11/22
PRA000052	SAA003252	ST003	9606			CP2015_112	"Homo sapiens"	Human	2010							Asia	Japan	"Matsuyama or Kumamoto"	32.66027778	34.07388889	130.5716667	132.9266667	Male	Urine									"34 y.o."																														"Sample collected in 2010-2012"	2017/11/22	2017/11/22
PRA000052	SAA003253	ST003	9606			CP2015_113	"Homo sapiens"	Human	2010							Asia	Japan	"Matsuyama or Kumamoto"	32.66027778	34.07388889	130.5716667	132.9266667	Female	Urine									"22 y.o."																														"Sample collected in 2010-2012"	2017/11/22	2017/11/22
PRA000052	SAA003254	ST003	9606			CP2015_114	"Homo sapiens"	Human	2010							Asia	Japan	"Matsuyama or Kumamoto"	32.66027778	34.07388889	130.5716667	132.9266667	Female	Urine									"23 y.o."																														"Sample collected in 2010-2012"	2017/11/22	2017/11/22
PRA000052	SAA003255	ST003	9606			CP2015_115	"Homo sapiens"	Human	2010							Asia	Japan	"Matsuyama or Kumamoto"	32.66027778	34.07388889	130.5716667	132.9266667	Male	Urine									"22 y.o."																														"Sample collected in 2010-2012"	2017/11/22	2017/11/22
PRA000052	SAA003256	ST003	9606			CP2015_116	"Homo sapiens"	Human	2010							Asia	Japan	"Matsuyama or Kumamoto"	32.66027778	34.07388889	130.5716667	132.9266667	Male	Urine									"39 y.o."																														"Sample collected in 2010-2012"	2017/11/22	2017/11/22
PRA000052	SAA003257	ST003	9606			CP2015_117	"Homo sapiens"	Human	2010							Asia	Japan	"Matsuyama or Kumamoto"	32.66027778	34.07388889	130.5716667	132.9266667	Male	Urine									"24 y.o."																														"Sample collected in 2010-2012"	2017/11/22	2017/11/22
PRA000052	SAA003258	ST003	9606			CP2015_118	"Homo sapiens"	Human	2010							Asia	Japan	"Matsuyama or Kumamoto"	32.66027778	34.07388889	130.5716667	132.9266667	Male	Urine									"21 y.o."																														"Sample collected in 2010-2012"	2017/11/22	2017/11/22
PRA000052	SAA003259	ST003	9606			CP2015_119	"Homo sapiens"	Human	2010							Asia	Japan	"Matsuyama or Kumamoto"	32.66027778	34.07388889	130.5716667	132.9266667	Male	Urine									"41 y.o."																														"Sample collected in 2010-2012"	2017/11/22	2017/11/22
PRA000052	SAA003260	ST003	9606			CP2015_120	"Homo sapiens"	Human	2010							Asia	Japan	"Matsuyama or Kumamoto"	32.66027778	34.07388889	130.5716667	132.9266667	Male	Urine									"23 y.o."																														"Sample collected in 2010-2012"	2017/11/22	2017/11/22
PRA000052	SAA003261	ST003	9606			CP2015_121	"Homo sapiens"	Human	2010							Asia	Japan	"Matsuyama or Kumamoto"	32.66027778	34.07388889	130.5716667	132.9266667	Male	Urine									"2 y.o."																														"Sample collected in 2010-2012"	2017/11/22	2017/11/22
PRA000052	SAA003262	ST003	9606			CP2015_122	"Homo sapiens"	Human	2010							Asia	Japan	"Matsuyama or Kumamoto"	32.66027778	34.07388889	130.5716667	132.9266667	Female	Urine									"34 y.o."																														"Sample collected in 2010-2012"	2017/11/22	2017/11/22
PRA000052	SAA003263	ST003	9606			CP2015_123	"Homo sapiens"	Human	2010							Asia	Japan	"Matsuyama or Kumamoto"	32.66027778	34.07388889	130.5716667	132.9266667	Male	Urine									"22 y.o."																														"Sample collected in 2010-2012"	2017/11/22	2017/11/22
PRA000052	SAA003264	ST003	9606			CP2015_124	"Homo sapiens"	Human	2010							Asia	Japan	"Matsuyama or Kumamoto"	32.66027778	34.07388889	130.5716667	132.9266667	Male	Urine									"23 y.o."																														"Sample collected in 2010-2012"	2017/11/22	2017/11/22
PRA000052	SAA003265	ST003	9606			CP2015_125	"Homo sapiens"	Human	2006							Asia	Korea	"Seoul or Busan or Yeosu"	34.409941	37.699269	126.766254	129.306678		Urine																																							"Sample collected in 2006-2007"	2017/11/22	2017/11/22
PRA000052	SAA003266	ST003	9606			CP2015_126	"Homo sapiens"	Human	2006							Asia	Korea	"Seoul or Busan or Yeosu"	34.409941	37.699269	126.766254	129.306678		Urine																																							"Sample collected in 2006-2007"	2017/11/22	2017/11/22
PRA000052	SAA003267	ST003	9606			CP2015_127	"Homo sapiens"	Human	2006							Asia	Korea	"Seoul or Busan or Yeosu"	34.409941	37.699269	126.766254	129.306678		Urine																																							"Sample collected in 2006-2007"	2017/11/22	2017/11/22
PRA000052	SAA003268	ST003	9606			CP2015_128	"Homo sapiens"	Human	2006							Asia	Korea	"Seoul or Busan or Yeosu"	34.409941	37.699269	126.766254	129.306678		Urine																																							"Sample collected in 2006-2007"	2017/11/22	2017/11/22
PRA000052	SAA003269	ST003	9606			CP2015_129	"Homo sapiens"	Human	2006							Asia	Korea	"Seoul or Busan or Yeosu"	34.409941	37.699269	126.766254	129.306678		Urine																																							"Sample collected in 2006-2007"	2017/11/22	2017/11/22
PRA000052	SAA003270	ST003	9606			CP2015_130	"Homo sapiens"	Human	2006							Asia	Korea	"Seoul or Busan or Yeosu"	34.409941	37.699269	126.766254	129.306678		Urine																																							"Sample collected in 2006-2007"	2017/11/22	2017/11/22
PRA000052	SAA003271	ST003	9606			CP2015_131	"Homo sapiens"	Human	2006							Asia	Korea	"Seoul or Busan or Yeosu"	34.409941	37.699269	126.766254	129.306678		Urine																																							"Sample collected in 2006-2007"	2017/11/22	2017/11/22
PRA000052	SAA003272	ST003	9606			CP2015_132	"Homo sapiens"	Human	2006							Asia	Korea	"Seoul or Busan or Yeosu"	34.409941	37.699269	126.766254	129.306678		Urine																																							"Sample collected in 2006-2007"	2017/11/22	2017/11/22
PRA000052	SAA003273	ST003	9606			CP2015_133	"Homo sapiens"	Human	2006							Asia	Korea	"Seoul or Busan or Yeosu"	34.409941	37.699269	126.766254	129.306678		Urine																																							"Sample collected in 2006-2007"	2017/11/22	2017/11/22
PRA000052	SAA003274	ST003	9606			CP2015_134	"Homo sapiens"	Human	2006							Asia	Korea	"Seoul or Busan or Yeosu"	34.409941	37.699269	126.766254	129.306678		Urine																																							"Sample collected in 2006-2007"	2017/11/22	2017/11/22
PRA000052	SAA003275	ST003	9606			CP2015_135	"Homo sapiens"	Human	2006							Asia	Korea	"Seoul or Busan or Yeosu"	34.409941	37.699269	126.766254	129.306678		Urine																																							"Sample collected in 2006-2007"	2017/11/22	2017/11/22
PRA000052	SAA003276	ST003	9606			CP2015_136	"Homo sapiens"	Human	2006							Asia	Korea	"Seoul or Busan or Yeosu"	34.409941	37.699269	126.766254	129.306678		Urine																																							"Sample collected in 2006-2007"	2017/11/22	2017/11/22
PRA000052	SAA003277	ST003	9606			CP2015_137	"Homo sapiens"	Human	2006							Asia	Korea	"Seoul or Busan or Yeosu"	34.409941	37.699269	126.766254	129.306678		Urine																																							"Sample collected in 2006-2007"	2017/11/22	2017/11/22
PRA000052	SAA003278	ST003	9606			CP2015_138	"Homo sapiens"	Human	2006							Asia	Korea	"Seoul or Busan or Yeosu"	34.409941	37.699269	126.766254	129.306678		Urine																																							"Sample collected in 2006-2007"	2017/11/22	2017/11/22
PRA000052	SAA003279	ST003	9606			CP2015_139	"Homo sapiens"	Human	2006							Asia	Korea	"Seoul or Busan or Yeosu"	34.409941	37.699269	126.766254	129.306678		Urine																																							"Sample collected in 2006-2007"	2017/11/22	2017/11/22
PRA000052	SAA003280	ST003	9606			CP2015_140	"Homo sapiens"	Human	2006							Asia	Korea	"Seoul or Busan or Yeosu"	34.409941	37.699269	126.766254	129.306678		Urine																																							"Sample collected in 2006-2007"	2017/11/22	2017/11/22
PRA000052	SAA003281	ST003	9606			CP2015_141	"Homo sapiens"	Human	2006							Asia	Korea	"Seoul or Busan or Yeosu"	34.409941	37.699269	126.766254	129.306678		Urine																																							"Sample collected in 2006-2007"	2017/11/22	2017/11/22
PRA000052	SAA003282	ST003	9606			CP2015_142	"Homo sapiens"	Human	2006							Asia	Korea	"Seoul or Busan or Yeosu"	34.409941	37.699269	126.766254	129.306678		Urine																																							"Sample collected in 2006-2007"	2017/11/22	2017/11/22
PRA000052	SAA003283	ST003	9606			CP2015_143	"Homo sapiens"	Human	2006							Asia	Korea	"Seoul or Busan or Yeosu"	34.409941	37.699269	126.766254	129.306678		Urine																																							"Sample collected in 2006-2007"	2017/11/22	2017/11/22
PRA000052	SAA003284	ST003	9606			CP2015_144	"Homo sapiens"	Human	2006							Asia	Korea	"Seoul or Busan or Yeosu"	34.409941	37.699269	126.766254	129.306678	Male	Urine									"30 y.o."																														"Sample collected in 2006-2007"	2017/11/22	2017/11/22
PRA000052	SAA003285	ST003	9606			CP2015_145	"Homo sapiens"	Human	2006							Asia	Korea	"Seoul or Busan or Yeosu"	34.409941	37.699269	126.766254	129.306678		Urine																																							"Sample collected in 2006-2007"	2017/11/22	2017/11/22
PRA000052	SAA003286	ST003	9606			CP2015_146	"Homo sapiens"	Human	2006							Asia	Korea	"Seoul or Busan or Yeosu"	34.409941	37.699269	126.766254	129.306678		Urine																																							"Sample collected in 2006-2007"	2017/11/22	2017/11/22
PRA000052	SAA003287	ST003	9606			CP2015_147	"Homo sapiens"	Human	2006							Asia	Korea	"Seoul or Busan or Yeosu"	34.409941	37.699269	126.766254	129.306678		Urine																																							"Sample collected in 2006-2007"	2017/11/22	2017/11/22
PRA000052	SAA003288	ST003	9606			CP2015_148	"Homo sapiens"	Human	2006							Asia	Korea	"Seoul or Busan or Yeosu"	34.409941	37.699269	126.766254	129.306678		Urine																																							"Sample collected in 2006-2007"	2017/11/22	2017/11/22
PRA000052	SAA003289	ST003	9606			CP2015_149	"Homo sapiens"	Human	2006							Asia	Korea	"Seoul or Busan or Yeosu"	34.409941	37.699269	126.766254	129.306678		Urine																																							"Sample collected in 2006-2007"	2017/11/22	2017/11/22
PRA000052	SAA003290	ST003	9606			CP2015_150	"Homo sapiens"	Human	2006							Asia	Korea	"Seoul or Busan or Yeosu"	34.409941	37.699269	126.766254	129.306678		Urine																																							"Sample collected in 2006-2007"	2017/11/22	2017/11/22
PRA000052	SAA003291	ST003	9606			CP2015_151	"Homo sapiens"	Human	2010							Asia	Kuwait	"Al-Asimah or Al-Jahra"	29.282801	29.39249	47.632837	48.028438	Male	Urine									"73 y.o."																														"Sample collected in 2010-2012"	2017/11/22	2017/11/22
PRA000052	SAA003292	ST003	9606			CP2015_152	"Homo sapiens"	Human	2010							Asia	Kuwait	"Al-Asimah or Al-Jahra"	29.282801	29.39249	47.632837	48.028438	Female	Urine									"54 y.o."																														"Sample collected in 2010-2012"	2017/11/22	2017/11/22
PRA000052	SAA003293	ST003	9606			CP2015_153	"Homo sapiens"	Human	2010							Asia	Kuwait	"Al-Asimah or Al-Jahra"	29.282801	29.39249	47.632837	48.028438	Male	Urine									"73 y.o."																														"Sample collected in 2010-2012"	2017/11/22	2017/11/22
PRA000052	SAA003294	ST003	9606			CP2015_154	"Homo sapiens"	Human	2010							Asia	Kuwait	"Al-Asimah or Al-Jahra"	29.282801	29.39249	47.632837	48.028438	Male	Urine									"14 y.o."																														"Sample collected in 2010-2012"	2017/11/22	2017/11/22
PRA000052	SAA003295	ST003	9606			CP2015_155	"Homo sapiens"	Human	2010							Asia	Kuwait	"Al-Asimah or Al-Jahra"	29.282801	29.39249	47.632837	48.028438	Male	Urine									"17 y.o."																														"Sample collected in 2010-2012"	2017/11/22	2017/11/22
PRA000052	SAA003296	ST003	9606			CP2015_156	"Homo sapiens"	Human	2010							Asia	Kuwait	"Al-Asimah or Al-Jahra"	29.282801	29.39249	47.632837	48.028438	Male	Urine									"58 y.o."																														"Sample collected in 2010-2012"	2017/11/22	2017/11/22
PRA000052	SAA003297	ST003	9606			CP2015_157	"Homo sapiens"	Human	2010							Asia	Kuwait	"Al-Asimah or Al-Jahra"	29.282801	29.39249	47.632837	48.028438	Female	Urine									"20 y.o."																														"Sample collected in 2010-2012"	2017/11/22	2017/11/22
PRA000052	SAA003298	ST003	9606			CP2015_158	"Homo sapiens"	Human	2010							Asia	Kuwait	"Al-Asimah or Al-Jahra"	29.282801	29.39249	47.632837	48.028438	Male	Urine									"41 y.o."																														"Sample collected in 2010-2012"	2017/11/22	2017/11/22
PRA000052	SAA003299	ST003	9606			CP2015_159	"Homo sapiens"	Human	2010							Asia	Kuwait	"Al-Asimah or Al-Jahra"	29.282801	29.39249	47.632837	48.028438	Male	Urine									"13 y.o."																														"Sample collected in 2010-2012"	2017/11/22	2017/11/22
PRA000052	SAA003300	ST003	9606			CP2015_160	"Homo sapiens"	Human	2010							Asia	Kuwait	"Al-Asimah or Al-Jahra"	29.282801	29.39249	47.632837	48.028438	Male	Urine									"6 y.o."																														"Sample collected in 2010-2012"	2017/11/22	2017/11/22
PRA000052	SAA003301	ST003	9606			CP2015_161	"Homo sapiens"	Human	2010							Asia	Kuwait	"Al-Asimah or Al-Jahra"	29.282801	29.39249	47.632837	48.028438	Male	Urine									"27 y.o."																														"Sample collected in 2010-2012"	2017/11/22	2017/11/22
PRA000052	SAA003302	ST003	9606			CP2015_162	"Homo sapiens"	Human	2010							Asia	Kuwait	"Al-Asimah or Al-Jahra"	29.282801	29.39249	47.632837	48.028438	Male	Urine									"42 y.o."																														"Sample collected in 2010-2012"	2017/11/22	2017/11/22
PRA000052	SAA003303	ST003	9606			CP2015_163	"Homo sapiens"	Human	2010							Asia	Kuwait	"Al-Asimah or Al-Jahra"	29.282801	29.39249	47.632837	48.028438	Female	Urine									"45 y.o."																														"Sample collected in 2010-2012"	2017/11/22	2017/11/22
PRA000052	SAA003304	ST003	9606			CP2015_164	"Homo sapiens"	Human	2010							Asia	Kuwait	"Al-Asimah or Al-Jahra"	29.282801	29.39249	47.632837	48.028438	Female	Urine									"15 y.o."																														"Sample collected in 2010-2012"	2017/11/22	2017/11/22
PRA000052	SAA003305	ST003	9606			CP2015_165	"Homo sapiens"	Human	2010							Asia	Kuwait	"Al-Asimah or Al-Jahra"	29.282801	29.39249	47.632837	48.028438	Female	Urine									"25 y.o."																														"Sample collected in 2010-2012"	2017/11/22	2017/11/22
PRA000052	SAA003306	ST003	9606			CP2015_166	"Homo sapiens"	Human	2010							Asia	Kuwait	"Al-Asimah or Al-Jahra"	29.282801	29.39249	47.632837	48.028438	Male	Urine									"50 y.o."																														"Sample collected in 2010-2012"	2017/11/22	2017/11/22
PRA000052	SAA003307	ST003	9606			CP2015_167	"Homo sapiens"	Human	2010							Asia	Kuwait	"Al-Asimah or Al-Jahra"	29.282801	29.39249	47.632837	48.028438	Male	Urine									"54 y.o."																														"Sample collected in 2010-2012"	2017/11/22	2017/11/22
PRA000052	SAA003308	ST003	9606			CP2015_168	"Homo sapiens"	Human	2010							Asia	Kuwait	"Al-Asimah or Al-Jahra"	29.282801	29.39249	47.632837	48.028438	Male	Urine									"10 y.o."																														"Sample collected in 2010-2012"	2017/11/22	2017/11/22
PRA000052	SAA003309	ST003	9606			CP2015_169	"Homo sapiens"	Human	2010							Asia	Kuwait	"Al-Asimah or Al-Jahra"	29.282801	29.39249	47.632837	48.028438	Male	Urine									"53 y.o."																														"Sample collected in 2010-2012"	2017/11/22	2017/11/22
PRA000052	SAA003310	ST003	9606			CP2015_170	"Homo sapiens"	Human	2010							Asia	Kuwait	"Al-Asimah or Al-Jahra"	29.282801	29.39249	47.632837	48.028438	Male	Urine									"68 y.o."																														"Sample collected in 2010-2012"	2017/11/22	2017/11/22
PRA000052	SAA003311	ST003	9606			CP2015_171	"Homo sapiens"	Human	2010							Asia	Kuwait	"Al-Asimah or Al-Jahra"	29.282801	29.39249	47.632837	48.028438	Male	Urine									"10 y.o."																														"Sample collected in 2010-2012"	2017/11/22	2017/11/22
PRA000052	SAA003312	ST003	9606			CP2015_172	"Homo sapiens"	Human	2010							Asia	Kuwait	"Al-Asimah or Al-Jahra"	29.282801	29.39249	47.632837	48.028438	Male	Urine									"16 y.o."																														"Sample collected in 2010-2012"	2017/11/22	2017/11/22
PRA000052	SAA003313	ST003	9606			CP2015_173	"Homo sapiens"	Human	2010							Asia	Kuwait	"Al-Asimah or Al-Jahra"	29.282801	29.39249	47.632837	48.028438	Female	Urine									"23 y.o."																														"Sample collected in 2010-2012"	2017/11/22	2017/11/22
PRA000052	SAA003314	ST003	9606			CP2015_174	"Homo sapiens"	Human	2010							Asia	Kuwait	"Al-Asimah or Al-Jahra"	29.282801	29.39249	47.632837	48.028438	Male	Urine									"40 y.o."																														"Sample collected in 2010-2012"	2017/11/22	2017/11/22
PRA000052	SAA003315	ST003	9606			CP2015_175	"Homo sapiens"	Human	2010							Asia	Kuwait	"Al-Asimah or Al-Jahra"	29.282801	29.39249	47.632837	48.028438	Male	Urine									"49 y.o."																														"Sample collected in 2010-2012"	2017/11/22	2017/11/22
PRA000052	SAA003316	ST003	9606			CP2015_176	"Homo sapiens"	Human	2010							Asia	Kuwait	"Al-Asimah or Al-Jahra"	29.282801	29.39249	47.632837	48.028438	Male	Urine									"20 y.o."																														"Sample collected in 2010-2012"	2017/11/22	2017/11/22
PRA000052	SAA003317	ST003	9606			CP2015_177	"Homo sapiens"	Human	2010							Asia	Kuwait	"Al-Asimah or Al-Jahra"	29.282801	29.39249	47.632837	48.028438	Female	Urine									"10 y.o."																														"Sample collected in 2010-2012"	2017/11/22	2017/11/22
PRA000052	SAA003318	ST003	9606			CP2015_178	"Homo sapiens"	Human	2010							Asia	Kuwait	"Al-Asimah or Al-Jahra"	29.282801	29.39249	47.632837	48.028438	Male	Urine									"30 y.o."																														"Sample collected in 2010-2012"	2017/11/22	2017/11/22
PRA000052	SAA003319	ST003	9606			CP2015_179	"Homo sapiens"	Human	2010							Asia	Kuwait	"Al-Asimah or Al-Jahra"	29.282801	29.39249	47.632837	48.028438	Male	Urine									"11 y.o."																														"Sample collected in 2010-2012"	2017/11/22	2017/11/22
PRA000052	SAA003320	ST003	9606			CP2015_180	"Homo sapiens"	Human	2010							Asia	Kuwait	"Al-Asimah or Al-Jahra"	29.282801	29.39249	47.632837	48.028438	Male	Urine									"8 y.o."																														"Sample collected in 2010-2012"	2017/11/22	2017/11/22
PRA000052	SAA003321	ST003	9606			CP2015_181	"Homo sapiens"	Human	2010							Asia	Kuwait	"Al-Asimah or Al-Jahra"	29.282801	29.39249	47.632837	48.028438	Male	Urine									"10 y.o."																														"Sample collected in 2010-2012"	2017/11/22	2017/11/22
PRA000052	SAA003322	ST003	9606			CP2015_182	"Homo sapiens"	Human	2010							Asia	Kuwait	"Al-Asimah or Al-Jahra"	29.282801	29.39249	47.632837	48.028438	Female	Urine									"51 y.o."																														"Sample collected in 2010-2012"	2017/11/22	2017/11/22
PRA000052	SAA003323	ST003	9606			CP2015_183	"Homo sapiens"	Human	2010							Asia	Kuwait	"Al-Asimah or Al-Jahra"	29.282801	29.39249	47.632837	48.028438	Male	Urine									"9 y.o."																														"Sample collected in 2010-2012"	2017/11/22	2017/11/22
PRA000052	SAA003324	ST003	9606			CP2015_184	"Homo sapiens"	Human	2010							Asia	Kuwait	"Al-Asimah or Al-Jahra"	29.282801	29.39249	47.632837	48.028438	Male	Urine									"8 y.o."																														"Sample collected in 2010-2012"	2017/11/22	2017/11/22
PRA000052	SAA003325	ST003	9606			CP2015_185	"Homo sapiens"	Human	2010							Asia	Kuwait	"Al-Asimah or Al-Jahra"	29.282801	29.39249	47.632837	48.028438	Male	Urine									"63 y.o."																														"Sample collected in 2010-2012"	2017/11/22	2017/11/22
PRA000052	SAA003326	ST003	9606			CP2015_186	"Homo sapiens"	Human	2010							Asia	Kuwait	"Al-Asimah or Al-Jahra"	29.282801	29.39249	47.632837	48.028438	Female	Urine									"11 y.o."																														"Sample collected in 2010-2012"	2017/11/22	2017/11/22
PRA000052	SAA003327	ST003	9606			CP2015_187	"Homo sapiens"	Human	2010							Asia	Kuwait	"Al-Asimah or Al-Jahra"	29.282801	29.39249	47.632837	48.028438	Female	Urine									"43 y.o."																														"Sample collected in 2010-2012"	2017/11/22	2017/11/22
PRA000052	SAA003328	ST003	9606			CP2015_188	"Homo sapiens"	Human	2010							Asia	Kuwait	"Al-Asimah or Al-Jahra"	29.282801	29.39249	47.632837	48.028438	Female	Urine									"8 y.o."																														"Sample collected in 2010-2012"	2017/11/22	2017/11/22
PRA000052	SAA003329	ST003	9606			CP2015_189	"Homo sapiens"	Human	2010							Asia	Kuwait	"Al-Asimah or Al-Jahra"	29.282801	29.39249	47.632837	48.028438	Female	Urine									"24 y.o."																														"Sample collected in 2010-2012"	2017/11/22	2017/11/22
PRA000052	SAA003330	ST003	9606			CP2015_190	"Homo sapiens"	Human	2010							Asia	Kuwait	"Al-Asimah or Al-Jahra"	29.282801	29.39249	47.632837	48.028438	Female	Urine									"22 y.o."																														"Sample collected in 2010-2012"	2017/11/22	2017/11/22
PRA000052	SAA003331	ST003	9606			CP2015_191	"Homo sapiens"	Human	2012							Asia	"Saudi Arabia"	Jeddah	21.54238056		39.19796944		Male	Urine									"69 y.o."																														"Sample collected in 2012-2014"	2017/11/22	2017/11/22
PRA000052	SAA003332	ST003	9606			CP2015_192	"Homo sapiens"	Human	2012							Asia	"Saudi Arabia"	Jeddah	21.54238056		39.19796944			Urine																																							"Sample collected in 2012-2014"	2017/11/22	2017/11/22
PRA000052	SAA003333	ST003	9606			CP2015_193	"Homo sapiens"	Human	2012							Asia	"Saudi Arabia"	Jeddah	21.54238056		39.19796944		Female	Urine									"30 y.o."																														"Sample collected in 2012-2014"	2017/11/22	2017/11/22
PRA000052	SAA003334	ST003	9606			CP2015_194	"Homo sapiens"	Human	2012							Asia	"Saudi Arabia"	Jeddah	21.54238056		39.19796944		Female	Urine									"21 y.o."																														"Sample collected in 2012-2014"	2017/11/22	2017/11/22
PRA000052	SAA003335	ST003	9606			CP2015_195	"Homo sapiens"	Human	2012							Asia	"Saudi Arabia"	Jeddah	21.54238056		39.19796944		Male	Urine									"35 y.o."																														"Sample collected in 2012-2014"	2017/11/22	2017/11/22
PRA000052	SAA003336	ST003	9606			CP2015_196	"Homo sapiens"	Human	2012							Asia	"Saudi Arabia"	Jeddah	21.54238056		39.19796944		Female	Urine									"63 y.o."																														"Sample collected in 2012-2014"	2017/11/22	2017/11/22
PRA000052	SAA003337	ST003	9606			CP2015_197	"Homo sapiens"	Human	2012							Asia	"Saudi Arabia"	Jeddah	21.54238056		39.19796944			Urine																																							"Sample collected in 2012-2014"	2017/11/22	2017/11/22
PRA000052	SAA003338	ST003	9606			CP2015_198	"Homo sapiens"	Human	2012							Asia	"Saudi Arabia"	Jeddah	21.54238056		39.19796944		Male	Urine									"59 y.o."																														"Sample collected in 2012-2014"	2017/11/22	2017/11/22
PRA000052	SAA003339	ST003	9606			CP2015_199	"Homo sapiens"	Human	2012							Asia	"Saudi Arabia"	Jeddah	21.54238056		39.19796944		Male	Urine									"37 y.o."																														"Sample collected in 2012-2014"	2017/11/22	2017/11/22
PRA000052	SAA003340	ST003	9606			CP2015_200	"Homo sapiens"	Human	2012							Asia	"Saudi Arabia"	Jeddah	21.54238056		39.19796944			Urine																																							"Sample collected in 2012-2014"	2017/11/22	2017/11/22
PRA000052	SAA003341	ST003	9606			CP2015_201	"Homo sapiens"	Human	2012							Asia	"Saudi Arabia"	Jeddah	21.54238056		39.19796944		Female	Urine									"3 y.o."																														"Sample collected in 2012-2014"	2017/11/22	2017/11/22
PRA000052	SAA003342	ST003	9606			CP2015_202	"Homo sapiens"	Human	2012							Asia	"Saudi Arabia"	Jeddah	21.54238056		39.19796944		Female	Urine									"15 y.o."																														"Sample collected in 2012-2014"	2017/11/22	2017/11/22
PRA000052	SAA003343	ST003	9606			CP2015_203	"Homo sapiens"	Human	2012							Asia	"Saudi Arabia"	Jeddah	21.54238056		39.19796944			Urine																																							"Sample collected in 2012-2014"	2017/11/22	2017/11/22
PRA000052	SAA003344	ST003	9606			CP2015_204	"Homo sapiens"	Human	2012							Asia	"Saudi Arabia"	Jeddah	21.54238056		39.19796944			Urine																																							"Sample collected in 2012-2014"	2017/11/22	2017/11/22
PRA000052	SAA003345	ST003	9606			CP2015_205	"Homo sapiens"	Human	2012							Asia	"Saudi Arabia"	Jeddah	21.54238056		39.19796944		Female	Urine									"22 y.o."																														"Sample collected in 2012-2014"	2017/11/22	2017/11/22
PRA000052	SAA003346	ST003	9606			CP2015_206	"Homo sapiens"	Human	2012							Asia	"Saudi Arabia"	Jeddah	21.54238056		39.19796944		Female	Urine									"87 y.o."																														"Sample collected in 2012-2014"	2017/11/22	2017/11/22
PRA000052	SAA003347	ST003	9606			CP2015_207	"Homo sapiens"	Human	2012							Asia	"Saudi Arabia"	Jeddah	21.54238056		39.19796944			Urine																																							"Sample collected in 2012-2014"	2017/11/22	2017/11/22
PRA000052	SAA003348	ST003	9606			CP2015_208	"Homo sapiens"	Human	2012							Asia	"Saudi Arabia"	Jeddah	21.54238056		39.19796944		Female	Urine									"25 y.o."																														"Sample collected in 2012-2014"	2017/11/22	2017/11/22
PRA000052	SAA003349	ST003	9606			CP2015_209	"Homo sapiens"	Human	2012							Asia	"Saudi Arabia"	Jeddah	21.54238056		39.19796944			Urine																																							"Sample collected in 2012-2014"	2017/11/22	2017/11/22
PRA000052	SAA003350	ST003	9606			CP2015_210	"Homo sapiens"	Human	2012							Asia	"Saudi Arabia"	Jeddah	21.54238056		39.19796944		Male	Urine									"65 y.o."																														"Sample collected in 2012-2014"	2017/11/22	2017/11/22
PRA000052	SAA003351	ST003	9606			CP2015_211	"Homo sapiens"	Human	2012							Asia	"Saudi Arabia"	Jeddah	21.54238056		39.19796944		Male	Urine									"4 y.o."																														"Sample collected in 2012-2014"	2017/11/22	2017/11/22
PRA000052	SAA003352	ST003	9606			CP2015_212	"Homo sapiens"	Human	2012							Asia	"Saudi Arabia"	Jeddah	21.54238056		39.19796944			Urine																																							"Sample collected in 2012-2014"	2017/11/22	2017/11/22
PRA000052	SAA003353	ST003	9606			CP2015_213	"Homo sapiens"	Human	2012							Asia	"Saudi Arabia"	Jeddah	21.54238056		39.19796944		Female	Urine									"35 y.o."																														"Sample collected in 2012-2014"	2017/11/22	2017/11/22
PRA000052	SAA003354	ST003	9606			CP2015_214	"Homo sapiens"	Human	2012							Asia	"Saudi Arabia"	Jeddah	21.54238056		39.19796944			Urine																																							"Sample collected in 2012-2014"	2017/11/22	2017/11/22
PRA000052	SAA003355	ST003	9606			CP2015_215	"Homo sapiens"	Human	2012							Asia	"Saudi Arabia"	Jeddah	21.54238056		39.19796944			Urine																																							"Sample collected in 2012-2014"	2017/11/22	2017/11/22
PRA000052	SAA003356	ST003	9606			CP2015_216	"Homo sapiens"	Human	2012							Asia	"Saudi Arabia"	Jeddah	21.54238056		39.19796944			Urine																																							"Sample collected in 2012-2014"	2017/11/22	2017/11/22
PRA000052	SAA003357	ST003	9606			CP2015_217	"Homo sapiens"	Human	2012							Asia	"Saudi Arabia"	Jeddah	21.54238056		39.19796944			Urine																																							"Sample collected in 2012-2014"	2017/11/22	2017/11/22
PRA000052	SAA003358	ST003	9606			CP2015_218	"Homo sapiens"	Human	2012							Asia	"Saudi Arabia"	Jeddah	21.54238056		39.19796944			Urine																																							"Sample collected in 2012-2014"	2017/11/22	2017/11/22
PRA000052	SAA003359	ST003	9606			CP2015_219	"Homo sapiens"	Human	2012							Asia	"Saudi Arabia"	Jeddah	21.54238056		39.19796944			Urine																																							"Sample collected in 2012-2014"	2017/11/22	2017/11/22
PRA000052	SAA003360	ST003	9606			CP2015_220	"Homo sapiens"	Human	2012							Asia	"Saudi Arabia"	Jeddah	21.54238056		39.19796944		Female	Urine									"23 y.o."																														"Sample collected in 2012-2014"	2017/11/22	2017/11/22
PRA000052	SAA003361	ST003	9606			CP2015_221	"Homo sapiens"	Human	2010							Asia	Vietnam	Hanoi	21.028511		105.804817		Female	Urine									"79 y.o."																														"Sample collected in 2010-2012"	2017/11/22	2017/11/22
PRA000052	SAA003362	ST003	9606			CP2015_222	"Homo sapiens"	Human	2010							Asia	Vietnam	Hanoi	21.028511		105.804817		Male	Urine									"52 y.o."																														"Sample collected in 2010-2012"	2017/11/22	2017/11/22
PRA000052	SAA003363	ST003	9606			CP2015_223	"Homo sapiens"	Human	2010							Asia	Vietnam	Hanoi	21.028511		105.804817		Male	Urine									"51 y.o."																														"Sample collected in 2010-2012"	2017/11/22	2017/11/22
PRA000052	SAA003364	ST003	9606			CP2015_224	"Homo sapiens"	Human	2010							Asia	Vietnam	Hanoi	21.028511		105.804817		Female	Urine									"56 y.o."																														"Sample collected in 2010-2012"	2017/11/22	2017/11/22
PRA000052	SAA003365	ST003	9606			CP2015_225	"Homo sapiens"	Human	2010							Asia	Vietnam	Hanoi	21.028511		105.804817		Male	Urine									"29 y.o."																														"Sample collected in 2010-2012"	2017/11/22	2017/11/22
PRA000052	SAA003366	ST003	9606			CP2015_226	"Homo sapiens"	Human	2010							Asia	Vietnam	Hanoi	21.028511		105.804817		Female	Urine									"54 y.o."																														"Sample collected in 2010-2012"	2017/11/22	2017/11/22
PRA000052	SAA003367	ST003	9606			CP2015_227	"Homo sapiens"	Human	2010							Asia	Vietnam	Hanoi	21.028511		105.804817		Male	Urine									"61 y.o."																														"Sample collected in 2010-2012"	2017/11/22	2017/11/22
PRA000052	SAA003368	ST003	9606			CP2015_228	"Homo sapiens"	Human	2010							Asia	Vietnam	Hanoi	21.028511		105.804817		Male	Urine									"19 y.o."																														"Sample collected in 2010-2012"	2017/11/22	2017/11/22
PRA000052	SAA003369	ST003	9606			CP2015_229	"Homo sapiens"	Human	2010							Asia	Vietnam	Hanoi	21.028511		105.804817		Female	Urine									"80 y.o."																														"Sample collected in 2010-2012"	2017/11/22	2017/11/22
PRA000052	SAA003370	ST003	9606			CP2015_230	"Homo sapiens"	Human	2010							Asia	Vietnam	Hanoi	21.028511		105.804817		Female	Urine									"47 y.o."																														"Sample collected in 2010-2012"	2017/11/22	2017/11/22
PRA000052	SAA003371	ST003	9606			CP2015_231	"Homo sapiens"	Human	2010							Asia	Vietnam	Hanoi	21.028511		105.804817		Female	Urine									"68 y.o."																														"Sample collected in 2010-2012"	2017/11/22	2017/11/22
PRA000052	SAA003372	ST003	9606			CP2015_232	"Homo sapiens"	Human	2010							Asia	Vietnam	Hanoi	21.028511		105.804817		Male	Urine									"35 y.o."																														"Sample collected in 2010-2012"	2017/11/22	2017/11/22
PRA000052	SAA003373	ST003	9606			CP2015_233	"Homo sapiens"	Human	2010							Asia	Vietnam	Hanoi	21.028511		105.804817		Female	Urine									"77 y.o."																														"Sample collected in 2010-2012"	2017/11/22	2017/11/22
PRA000052	SAA003374	ST003	9606			CP2015_234	"Homo sapiens"	Human	2010							Asia	Vietnam	Hanoi	21.028511		105.804817		Female	Urine									"83 y.o."																														"Sample collected in 2010-2012"	2017/11/22	2017/11/22
PRA000052	SAA003375	ST003	9606			CP2015_235	"Homo sapiens"	Human	2010							Asia	Vietnam	Hanoi	21.028511		105.804817		Male	Urine									"27 y.o."																														"Sample collected in 2010-2012"	2017/11/22	2017/11/22
PRA000052	SAA003376	ST003	9606			CP2015_236	"Homo sapiens"	Human	2010							Asia	Vietnam	Hanoi	21.028511		105.804817		Female	Urine									"62 y.o."																														"Sample collected in 2010-2012"	2017/11/22	2017/11/22
PRA000052	SAA003377	ST003	9606			CP2015_237	"Homo sapiens"	Human	2010							Asia	Vietnam	Hanoi	21.028511		105.804817		Female	Urine									"39 y.o."																														"Sample collected in 2010-2012"	2017/11/22	2017/11/22
PRA000052	SAA003378	ST003	9606			CP2015_238	"Homo sapiens"	Human	2010							Asia	Vietnam	Hanoi	21.028511		105.804817		Male	Urine									"58 y.o."																														"Sample collected in 2010-2012"	2017/11/22	2017/11/22
PRA000052	SAA003379	ST003	9606			CP2015_239	"Homo sapiens"	Human	2010							Asia	Vietnam	Hanoi	21.028511		105.804817		Male	Urine									"30 y.o."																														"Sample collected in 2010-2012"	2017/11/22	2017/11/22
PRA000052	SAA003380	ST003	9606			CP2015_240	"Homo sapiens"	Human	2012							Europe	Greece	Athens	37.98381		23.727539		Male	Urine									"23 y.o."																														"Sample collected in 2012-2014"	2017/11/22	2017/11/22
PRA000052	SAA003381	ST003	9606			CP2015_241	"Homo sapiens"	Human	2012							Europe	Greece	Athens	37.98381		23.727539		Male	Urine									"57 y.o."																														"Sample collected in 2012-2014"	2017/11/22	2017/11/22
PRA000052	SAA003382	ST003	9606			CP2015_242	"Homo sapiens"	Human	2012							Europe	Greece	Athens	37.98381		23.727539		Male	Urine									"25 y.o."																														"Sample collected in 2012-2014"	2017/11/22	2017/11/22
PRA000052	SAA003383	ST003	9606			CP2015_243	"Homo sapiens"	Human	2012							Europe	Greece	Athens	37.98381		23.727539		Male	Urine									"29 y.o."																														"Sample collected in 2012-2014"	2017/11/22	2017/11/22
PRA000052	SAA003384	ST003	9606			CP2015_244	"Homo sapiens"	Human	2012							Europe	Greece	Athens	37.98381		23.727539		Male	Urine									"64 y.o."																														"Sample collected in 2012-2014"	2017/11/22	2017/11/22
PRA000052	SAA003385	ST003	9606			CP2015_245	"Homo sapiens"	Human	2012							Europe	Greece	Athens	37.98381		23.727539		Male	Urine									"30 y.o."																														"Sample collected in 2012-2014"	2017/11/22	2017/11/22
PRA000052	SAA003386	ST003	9606			CP2015_246	"Homo sapiens"	Human	2012							Europe	Greece	Athens	37.98381		23.727539		Male	Urine									"28 y.o."																														"Sample collected in 2012-2014"	2017/11/22	2017/11/22
PRA000052	SAA003387	ST003	9606			CP2015_247	"Homo sapiens"	Human	2012							Europe	Greece	Athens	37.98381		23.727539		Male	Urine									"75 y.o."																														"Sample collected in 2012-2014"	2017/11/22	2017/11/22
PRA000052	SAA003388	ST003	9606			CP2015_248	"Homo sapiens"	Human	2012							Europe	Greece	Athens	37.98381		23.727539		Male	Urine									"30 y.o."																														"Sample collected in 2012-2014"	2017/11/22	2017/11/22
PRA000052	SAA003389	ST003	9606			CP2015_249	"Homo sapiens"	Human	2012							Europe	Greece	Athens	37.98381		23.727539		Male	Urine									"58 y.o."																														"Sample collected in 2012-2014"	2017/11/22	2017/11/22
PRA000052	SAA003390	ST003	9606			CP2015_250	"Homo sapiens"	Human	2012							Europe	Greece	Athens	37.98381		23.727539		Male	Urine									"25 y.o."																														"Sample collected in 2012-2014"	2017/11/22	2017/11/22
PRA000052	SAA003391	ST003	9606			CP2015_251	"Homo sapiens"	Human	2012							Europe	Greece	Athens	37.98381		23.727539		Male	Urine									"31 y.o."																														"Sample collected in 2012-2014"	2017/11/22	2017/11/22
PRA000052	SAA003392	ST003	9606			CP2015_252	"Homo sapiens"	Human	2012							Europe	Greece	Athens	37.98381		23.727539		Male	Urine									"28 y.o."																														"Sample collected in 2012-2014"	2017/11/22	2017/11/22
PRA000052	SAA003393	ST003	9606			CP2015_253	"Homo sapiens"	Human	2012							Europe	Greece	Athens	37.98381		23.727539		Male	Urine									"32 y.o."																														"Sample collected in 2012-2014"	2017/11/22	2017/11/22
PRA000052	SAA003394	ST003	9606			CP2015_254	"Homo sapiens"	Human	2012							Europe	Greece	Athens	37.98381		23.727539		Male	Urine									"56 y.o."																														"Sample collected in 2012-2014"	2017/11/22	2017/11/22
PRA000052	SAA003395	ST003	9606			CP2015_255	"Homo sapiens"	Human	2012							Europe	Greece	Athens	37.98381		23.727539		Female	Urine									"26 y.o."																														"Sample collected in 2012-2014"	2017/11/22	2017/11/22
PRA000052	SAA003396	ST003	9606			CP2015_256	"Homo sapiens"	Human	2012							Europe	Greece	Athens	37.98381		23.727539		Female	Urine									"25 y.o."																														"Sample collected in 2012-2014"	2017/11/22	2017/11/22
PRA000052	SAA003397	ST003	9606			CP2015_257	"Homo sapiens"	Human	2012							Europe	Greece	Athens	37.98381		23.727539		Female	Urine									"57 y.o."																														"Sample collected in 2012-2014"	2017/11/22	2017/11/22
PRA000052	SAA003398	ST003	9606			CP2015_258	"Homo sapiens"	Human	2012							Europe	Greece	Athens	37.98381		23.727539		Female	Urine																																							"Sample collected in 2012-2014"	2017/11/22	2017/11/22
PRA000052	SAA003399	ST003	9606			CP2015_259	"Homo sapiens"	Human	2012							Europe	Greece	Athens	37.98381		23.727539		Female	Urine									"31 y.o."																														"Sample collected in 2012-2014"	2017/11/22	2017/11/22
PRA000052	SAA003400	ST003	9606			CP2015_260	"Homo sapiens"	Human	2012							Europe	Greece	Athens	37.98381		23.727539		Female	Urine									"52 y.o."																														"Sample collected in 2012-2014"	2017/11/22	2017/11/22
PRA000052	SAA003401	ST003	9606			CP2015_261	"Homo sapiens"	Human	2012							Europe	Greece	Athens	37.98381		23.727539		Female	Urine									"52 y.o."																														"Sample collected in 2012-2014"	2017/11/22	2017/11/22
PRA000052	SAA003402	ST003	9606			CP2015_262	"Homo sapiens"	Human	2012							Europe	Greece	Athens	37.98381		23.727539		Female	Urine									"25 y.o."																														"Sample collected in 2012-2014"	2017/11/22	2017/11/22
PRA000052	SAA003403	ST003	9606			CP2015_263	"Homo sapiens"	Human	2012							Europe	Greece	Athens	37.98381		23.727539		Female	Urine																																							"Sample collected in 2012-2014"	2017/11/22	2017/11/22
PRA000052	SAA003404	ST003	9606			CP2015_264	"Homo sapiens"	Human	2012							Europe	Greece	Athens	37.98381		23.727539		Female	Urine																																							"Sample collected in 2012-2014"	2017/11/22	2017/11/22
PRA000052	SAA003405	ST003	9606			CP2015_265	"Homo sapiens"	Human	2012							Europe	Greece	Athens	37.98381		23.727539		Female	Urine									"22 y.o."																														"Sample collected in 2012-2014"	2017/11/22	2017/11/22
PRA000052	SAA003406	ST003	9606			CP2015_266	"Homo sapiens"	Human	2012							Europe	Greece	Athens	37.98381		23.727539		Female	Urine									"52 y.o."																														"Sample collected in 2012-2014"	2017/11/22	2017/11/22
PRA000052	SAA003407	ST003	9606			CP2015_267	"Homo sapiens"	Human	2012							Europe	Greece	Athens	37.98381		23.727539		Female	Urine									"50 y.o."																														"Sample collected in 2012-2014"	2017/11/22	2017/11/22
PRA000052	SAA003408	ST003	9606			CP2015_268	"Homo sapiens"	Human	2012							Europe	Greece	Athens	37.98381		23.727539		Female	Urine									"25 y.o."																														"Sample collected in 2012-2014"	2017/11/22	2017/11/22
PRA000052	SAA003409	ST003	9606			CP2015_269	"Homo sapiens"	Human	2012							Europe	Greece	Athens	37.98381		23.727539		Female	Urine									"49 y.o."																														"Sample collected in 2012-2014"	2017/11/22	2017/11/22
PRA000052	SAA003410	ST003	9606			CP2015_270	"Homo sapiens"	Human	2010							"North America"	America	Albany	42.65258		-73.756233		Female	Urine									"50 y.o."																														"Sample collected in 2010-2012"	2017/11/22	2017/11/22
PRA000052	SAA003411	ST003	9606			CP2015_271	"Homo sapiens"	Human	2010							"North America"	America	Albany	42.65258		-73.756233		Female	Urine									"50 y.o."																														"Sample collected in 2010-2012"	2017/11/22	2017/11/22
PRA000052	SAA003412	ST003	9606			CP2015_272	"Homo sapiens"	Human	2010							"North America"	America	Albany	42.65258		-73.756233		Male	Urine									"50 y.o."																														"Sample collected in 2010-2012"	2017/11/22	2017/11/22
PRA000052	SAA003413	ST003	9606			CP2015_273	"Homo sapiens"	Human	2010							"North America"	America	Albany	42.65258		-73.756233		Male	Urine									"58 y.o."																														"Sample collected in 2010-2012"	2017/11/22	2017/11/22
PRA000052	SAA003414	ST003	9606			CP2015_274	"Homo sapiens"	Human	2010							"North America"	America	Albany	42.65258		-73.756233		Male	Urine									"60 y.o."																														"Sample collected in 2010-2012"	2017/11/22	2017/11/22
PRA000052	SAA003415	ST003	9606			CP2015_275	"Homo sapiens"	Human	2010							"North America"	America	Albany	42.65258		-73.756233		Male	Urine									"23 y.o."																														"Sample collected in 2010-2012"	2017/11/22	2017/11/22
PRA000052	SAA003416	ST003	9606			CP2015_276	"Homo sapiens"	Human	2010							"North America"	America	Albany	42.65258		-73.756233		Male	Urine									"49 y.o."																														"Sample collected in 2010-2012"	2017/11/22	2017/11/22
PRA000052	SAA003417	ST003	9606			CP2015_277	"Homo sapiens"	Human	2010							"North America"	America	Albany	42.65258		-73.756233		Male	Urine									"34 y.o."																														"Sample collected in 2010-2012"	2017/11/22	2017/11/22
PRA000052	SAA003418	ST003	9606			CP2015_278	"Homo sapiens"	Human	2010							"North America"	America	Albany	42.65258		-73.756233		Female	Urine									"32 y.o."																														"Sample collected in 2010-2012"	2017/11/22	2017/11/22
PRA000052	SAA003419	ST003	9606			CP2015_279	"Homo sapiens"	Human	2010							"North America"	America	Albany	42.65258		-73.756233		Male	Urine									"42 y.o."																														"Sample collected in 2010-2012"	2017/11/22	2017/11/22
PRA000052	SAA003420	ST003	9606			CP2015_280	"Homo sapiens"	Human	2010							"North America"	America	Albany	42.65258		-73.756233		Male	Urine									"37 y.o."																														"Sample collected in 2010-2012"	2017/11/22	2017/11/22
PRA000052	SAA003421	ST003	9606			CP2015_281	"Homo sapiens"	Human	2010							"North America"	America	Albany	42.65258		-73.756233		Male	Urine									"27 y.o."																														"Sample collected in 2010-2012"	2017/11/22	2017/11/22
PRA000052	SAA003422	ST003	9606			CP2015_282	"Homo sapiens"	Human	2010							"North America"	America	Albany	42.65258		-73.756233		Male	Urine									"31 y.o."																														"Sample collected in 2010-2012"	2017/11/22	2017/11/22
PRA000052	SAA003423	ST003	9606			CP2015_283	"Homo sapiens"	Human	2010							"North America"	America	Albany	42.65258		-73.756233		Male	Urine									"31 y.o."																														"Sample collected in 2010-2012"	2017/11/22	2017/11/22
PRA000052	SAA003424	ST003	9606			CP2015_284	"Homo sapiens"	Human	2010							"North America"	America	Albany	42.65258		-73.756233		Male	Urine									"33 y.o."																														"Sample collected in 2010-2012"	2017/11/22	2017/11/22
PRA000052	SAA003425	ST003	9606			CP2015_285	"Homo sapiens"	Human	2010							"North America"	America	Albany	42.65258		-73.756233		Male	Urine									"40 y.o."																														"Sample collected in 2010-2012"	2017/11/22	2017/11/22
PRA000052	SAA003426	ST003	9606			CP2015_286	"Homo sapiens"	Human	2010							"North America"	America	Albany	42.65258		-73.756233		Male	Urine									"45 y.o."																														"Sample collected in 2010-2012"	2017/11/22	2017/11/22
PRA000052	SAA003427	ST003	9606			CP2015_287	"Homo sapiens"	Human	2010							"North America"	America	Albany	42.65258		-73.756233		Female	Urine									"38 y.o."																														"Sample collected in 2010-2012"	2017/11/22	2017/11/22
PRA000052	SAA003428	ST003	9606			CP2015_288	"Homo sapiens"	Human	2010							"North America"	America	Albany	42.65258		-73.756233		Male	Urine									"15 y.o."																														"Sample collected in 2010-2012"	2017/11/22	2017/11/22
PRA000052	SAA003429	ST003	9606			CP2015_289	"Homo sapiens"	Human	2010							"North America"	America	Albany	42.65258		-73.756233		Male	Urine									"11 y.o."																														"Sample collected in 2010-2012"	2017/11/22	2017/11/22
PRA000052	SAA003430	ST003	9606			CP2015_290	"Homo sapiens"	Human	2010							"North America"	America	Albany	42.65258		-73.756233		Female	Urine									"26 y.o."																														"Sample collected in 2010-2012"	2017/11/22	2017/11/22
PRA000052	SAA003431	ST003	9606			CP2015_291	"Homo sapiens"	Human	2010							"North America"	America	Albany	42.65258		-73.756233		Male	Urine									"48 y.o."																														"Sample collected in 2010-2012"	2017/11/22	2017/11/22
PRA000052	SAA003432	ST003	9606			CP2015_292	"Homo sapiens"	Human	2010							"North America"	America	Albany	42.65258		-73.756233		Female	Urine									"29 y.o."																														"Sample collected in 2010-2012"	2017/11/22	2017/11/22
PRA000052	SAA003433	ST003	9606			CP2015_293	"Homo sapiens"	Human	2010							"North America"	America	Albany	42.65258		-73.756233		Female	Urine									"51 y.o."																														"Sample collected in 2010-2012"	2017/11/22	2017/11/22
PRA000052	SAA003434	ST003	9606			CP2015_294	"Homo sapiens"	Human	2010							"North America"	America	Albany	42.65258		-73.756233		Male	Urine									"50 y.o."																														"Sample collected in 2010-2012"	2017/11/22	2017/11/22
PRA000052	SAA003435	ST003	9606			CP2015_295	"Homo sapiens"	Human	2010							"North America"	America	Albany	42.65258		-73.756233		Female	Urine									"41 y.o."																														"Sample collected in 2010-2012"	2017/11/22	2017/11/22
PRA000052	SAA003436	ST003	9606			CP2015_296	"Homo sapiens"	Human	2010							"North America"	America	Albany	42.65258		-73.756233		Male	Urine									"41 y.o."																														"Sample collected in 2010-2012"	2017/11/22	2017/11/22
PRA000052	SAA003437	ST003	9606			CP2015_297	"Homo sapiens"	Human	2010							"North America"	America	Albany	42.65258		-73.756233		Male	Urine									"46 y.o."																														"Sample collected in 2010-2012"	2017/11/22	2017/11/22
PRA000052	SAA003438	ST003	9606			CP2015_298	"Homo sapiens"	Human	2010							"North America"	America	Albany	42.65258		-73.756233		Male	Urine									"66 y.o."																														"Sample collected in 2010-2012"	2017/11/22	2017/11/22
PRA000052	SAA003439	ST003	9606			CP2015_299	"Homo sapiens"	Human	2010							"North America"	America	Albany	42.65258		-73.756233		Female	Urine									"43 y.o."																														"Sample collected in 2010-2012"	2017/11/22	2017/11/22
PRA000052	SAA003440	ST003	9606			CP2015_300	"Homo sapiens"	Human	2010							"North America"	America	Albany	42.65258		-73.756233		Female	Urine									"25 y.o."																														"Sample collected in 2010-2012"	2017/11/22	2017/11/22
PRA000061	SAA003650	ST003	9606			JPN2009_02	"Homo sapiens"	human	2009							Asia	Japan	Aichi	34.57805556	35.425	136.6708333	137.8380556	Female	"Breast milk"	4.3		48	kg	163	cm	Height	Adult	"31 y.o."																														"Urban area; Parity: 1; "	2018/3/16	2018/3/16
PRA000061	SAA003651	ST003	9606			JPN2010_01	"Homo sapiens"	human	2010							Asia	Japan	Aichi	34.57805556	35.425	136.6708333	137.8380556	Female	"Breast milk"	0.97		48	kg	163	cm	Height	Adult	"31 y.o."																														"Urban area; Parity: 1; "	2018/3/16	2018/3/16
PRA000061	SAA003652	ST003	9606			JPN2010_02	"Homo sapiens"	human	2010							Asia	Japan	Aichi	34.57805556	35.425	136.6708333	137.8380556	Female	"Breast milk"	2.7		52	kg	162	cm	Height	Adult	"30 y.o."																														"Urban area; Parity: 1; "	2018/3/16	2018/3/16
PRA000061	SAA003653	ST003	9606			JPN2011_01	"Homo sapiens"	human	2011							Asia	Japan	Kanagawa	35.12888889	35.67277778	138.9158333	139.7961111	Female	"Breast milk"	4.8		52	kg	161	cm	Height	Adult	"34 y.o."																														"Urban area; Parity: 2; "	2018/3/16	2018/3/16
PRA000061	SAA003654	ST003	9606			JPN2011_02	"Homo sapiens"	human	2011							Asia	Japan	Kanagawa	35.12888889	35.67277778	138.9158333	139.7961111	Female	"Breast milk"	3.2		52	kg	167	cm	Height	Adult	"34 y.o."																														"Urban area; Parity: 2; "	2018/3/16	2018/3/16
PRA000061	SAA003655	ST003	9606			JPN2011_03	"Homo sapiens"	human	2011							Asia	Japan	Kanagawa	35.12888889	35.67277778	138.9158333	139.7961111	Female	"Breast milk"	2.8		47	kg	156	cm	Height	Adult	"35 y.o."																														"Urban area; Parity: 2; "	2018/3/16	2018/3/16
PRA000061	SAA003656	ST003	9606			JPN2011_04	"Homo sapiens"	human	2011							Asia	Japan	Kanagawa	35.12888889	35.67277778	138.9158333	139.7961111	Female	"Breast milk"	2.4		45	kg	166	cm	Height	Adult	"34 y.o."																														"Urban area; Parity: 2; "	2018/3/16	2018/3/16
PRA000061	SAA003657	ST003	9606			JPN2011_06	"Homo sapiens"	human	2011							Asia	Japan	Kanagawa	35.12888889	35.67277778	138.9158333	139.7961111	Female	"Breast milk"	3.1		58	kg	158	cm	Height	Adult	"35 y.o."																														"Urban area; Parity: 2; "	2018/3/16	2018/3/16
PRA000061	SAA003658	ST003	9606			JPN2011_07	"Homo sapiens"	human	2011							Asia	Japan	Kanagawa	35.12888889	35.67277778	138.9158333	139.7961111	Female	"Breast milk"	1.8		54	kg	170	cm	Height	Adult	"33 y.o."																														"Urban area; Parity: 2; "	2018/3/16	2018/3/16
PRA000061	SAA003659	ST003	9606			JPN2011_08	"Homo sapiens"	human	2011							Asia	Japan	Kanagawa	35.12888889	35.67277778	138.9158333	139.7961111	Female	"Breast milk"	3.7		52	kg	163	cm	Height	Adult	"32 y.o."																														"Urban area; Parity: 2; "	2018/3/16	2018/3/16
PRA000061	SAA003660	ST003	9606			JPN2011_09	"Homo sapiens"	human	2011							Asia	Japan	Kanagawa	35.12888889	35.67277778	138.9158333	139.7961111	Female	"Breast milk"	1.3		49	kg	158.5	cm	Height	Adult	"38 y.o."																														"Urban area; Parity: 2; "	2018/3/16	2018/3/16
PRA000061	SAA003661	ST003	9606			JPN2011_10	"Homo sapiens"	human	2011							Asia	Japan	Kanagawa	35.12888889	35.67277778	138.9158333	139.7961111	Female	"Breast milk"	3.9		58	kg	163	cm	Height	Adult	"30 y.o."																														"Urban area; Parity: 1; "	2018/3/16	2018/3/16
PRA000061	SAA003662	ST003	9606			JPN2011_11	"Homo sapiens"	human	2011							Asia	Japan	Kanagawa	35.12888889	35.67277778	138.9158333	139.7961111	Female	"Breast milk"	3.5		50	kg	163	cm	Height	Adult	"40 y.o."																														"Urban area; Parity: 3; "	2018/3/16	2018/3/16
PRA000061	SAA003663	ST003	9606			JPN2011_13	"Homo sapiens"	human	2011							Asia	Japan	Gifu	35.13388889	36.465	136.2763889	137.6530556	Female	"Breast milk"	3.3		45	kg	155	cm	Height	Adult	"25 y.o."																														"Urban area; Parity: 1; "	2018/3/16	2018/3/16
PRA000061	SAA003664	ST003	9606			JPN2011_14	"Homo sapiens"	human	2011							Asia	Japan	Ehime	32.88472222	34.30166667	132.0125	133.6930556	Female	"Breast milk"	2.7		48	kg	157	cm	Height	Adult	"31 y.o."																														"Urban area; Parity: 1; "	2018/3/16	2018/3/16
PRA000061	SAA003665	ST003	9606			JPN2011_15	"Homo sapiens"	human	2011							Asia	Japan	Hokkaido	41.35194444	45.55722222	139.3344444	148.8930556	Female	"Breast milk"	8.8		44	kg	159	cm	Height	Adult	"28 y.o."																														"Urban area; Parity: 1; "	2018/3/16	2018/3/16
PRA000061	SAA003666	ST003	9606			JPN2011_16	"Homo sapiens"	human	2011							Asia	Japan	Hokkaido	41.35194444	45.55722222	139.3344444	148.8930556	Female	"Breast milk"	1.4		48	kg	158	cm	Height	Adult	"29 y.o."																														"Urban area; Parity: 2; "	2018/3/16	2018/3/16
PRA000061	SAA003667	ST003	9606			JPN2011_17	"Homo sapiens"	human	2011							Asia	Japan	Kanagawa	35.12888889	35.67277778	138.9158333	139.7961111	Female	"Breast milk"	0.46		45	kg	158	cm	Height	Adult	"31 y.o."																														"Urban area; Parity: 2; "	2018/3/16	2018/3/16
PRA000061	SAA003668	ST003	9606			JPN2011_18	"Homo sapiens"	human	2011							Asia	Japan	Kanagawa	35.12888889	35.67277778	138.9158333	139.7961111	Female	"Breast milk"	0.34		50	kg	150	cm	Height	Adult	"42 y.o."																														"Urban area; Parity: 2; "	2018/3/16	2018/3/16
PRA000061	SAA003669	ST003	9606			JPN2011_19	"Homo sapiens"	human	2011							Asia	Japan	Kanagawa	35.12888889	35.67277778	138.9158333	139.7961111	Female	"Breast milk"	4		46	kg	162	cm	Height	Adult	"35 y.o."																														"Urban area; Parity: 2; "	2018/3/16	2018/3/16
PRA000061	SAA003670	ST003	9606			L-02	"Homo sapiens"	human	2008							Asia	Philippines	Malate	14.556974	14.577616	120.980267	120.998927	Female	"Breast milk"	4.4		45	kg	150	cm	Height	Adult	"19 y.o."																														"Urban area; Parity: 1; "	2018/3/16	2018/3/16
PRA000061	SAA003671	ST003	9606			L-04	"Homo sapiens"	human	2008							Asia	Philippines	Malate	14.556974	14.577616	120.980267	120.998927	Female	"Breast milk"	2.2		46	kg	135	cm	Height	Adult	"23 y.o."																														"Urban area; Parity: 1; "	2018/3/16	2018/3/16
PRA000061	SAA003672	ST003	9606			L-05	"Homo sapiens"	human	2008							Asia	Philippines	Malate	14.556974	14.577616	120.980267	120.998927	Female	"Breast milk"	6.4		48	kg	165	cm	Height	Adult	"21 y.o."																														"Urban area; Parity: 1; "	2018/3/16	2018/3/16
PRA000061	SAA003673	ST003	9606			L-06	"Homo sapiens"	human	2008							Asia	Philippines	Malate	14.556974	14.577616	120.980267	120.998927	Female	"Breast milk"	3.7		40	kg	160	cm	Height	Adult	"45 y.o."																														"Urban area; Parity: 1; "	2018/3/16	2018/3/16
PRA000061	SAA003674	ST003	9606			L-07	"Homo sapiens"	human	2008							Asia	Philippines	Malate	14.556974	14.577616	120.980267	120.998927	Female	"Breast milk"	4		90	kg	167	cm	Height	Adult	"30 y.o."																														"Urban area; Parity: 1; "	2018/3/16	2018/3/16
PRA000061	SAA003675	ST003	9606			L-08	"Homo sapiens"	human	2008							Asia	Philippines	Malate	14.556974	14.577616	120.980267	120.998927	Female	"Breast milk"	4.5		75	kg	167	cm	Height	Adult	"23 y.o."																														"Urban area; Parity: 1; "	2018/3/16	2018/3/16
PRA000061	SAA003676	ST003	9606			L-10	"Homo sapiens"	human	2008							Asia	Philippines	Malate	14.556974	14.577616	120.980267	120.998927	Female	"Breast milk"	5.9		42	kg	155	cm	Height	Adult	"18 y.o."																														"Urban area; Parity: 1; "	2018/3/16	2018/3/16
PRA000061	SAA003677	ST003	9606			L-11	"Homo sapiens"	human	2008							Asia	Philippines	Malate	14.556974	14.577616	120.980267	120.998927	Female	"Breast milk"	2.3		54	kg	150	cm	Height	Adult	"32 y.o."																														"Urban area; Parity: 1; "	2018/3/16	2018/3/16
PRA000061	SAA003678	ST003	9606			L-12	"Homo sapiens"	human	2008							Asia	Philippines	Malate	14.556974	14.577616	120.980267	120.998927	Female	"Breast milk"	5.1		36.4	kg	150	cm	Height	Adult	"25 y.o."																														"Urban area; Parity: 1; "	2018/3/16	2018/3/16
PRA000061	SAA003679	ST003	9606			L-15	"Homo sapiens"	human	2008							Asia	Philippines	Malate	14.556974	14.577616	120.980267	120.998927	Female	"Breast milk"	6.3		40	kg	160	cm	Height	Adult	"22 y.o."																														"Urban area; Parity: 1; "	2018/3/16	2018/3/16
PRA000061	SAA003680	ST003	9606			L-16	"Homo sapiens"	human	2008							Asia	Philippines	Malate	14.556974	14.577616	120.980267	120.998927	Female	"Breast milk"	5.3		40	kg	159	cm	Height	Adult	"18 y.o."																														"Urban area; Parity: 1; "	2018/3/16	2018/3/16
PRA000061	SAA003681	ST003	9606			L-17	"Homo sapiens"	human	2008							Asia	Philippines	Malate	14.556974	14.577616	120.980267	120.998927	Female	"Breast milk"	7.5		45	kg	155	cm	Height	Adult	"38 y.o."																														"Urban area; Parity: 1; "	2018/3/16	2018/3/16
PRA000061	SAA003682	ST003	9606			L-18	"Homo sapiens"	human	2008							Asia	Philippines	Malate	14.556974	14.577616	120.980267	120.998927	Female	"Breast milk"	5.2		48	kg	157	cm	Height	Adult	"31 y.o."																														"Urban area; Parity: 1; "	2018/3/16	2018/3/16
PRA000061	SAA003683	ST003	9606			L-22	"Homo sapiens"	human	2008							Asia	Philippines	Malate	14.556974	14.577616	120.980267	120.998927	Female	"Breast milk"	4.7		41	kg	150	cm	Height	Adult	"31 y.o."																														"Urban area; Parity: 1; "	2018/3/16	2018/3/16
PRA000061	SAA003684	ST003	9606			L-25	"Homo sapiens"	human	2008							Asia	Philippines	Malate	14.556974	14.577616	120.980267	120.998927	Female	"Breast milk"	4		48	kg	150	cm	Height	Adult	"20 y.o."																														"Urban area; Parity: 1; "	2018/3/16	2018/3/16
PRA000061	SAA003685	ST003	9606			L-26	"Homo sapiens"	human	2008							Asia	Philippines	Malate	14.556974	14.577616	120.980267	120.998927	Female	"Breast milk"	3.1		60	kg	152	cm	Height	Adult	"23 y.o."																														"Urban area; Parity: 1; "	2018/3/16	2018/3/16
PRA000061	SAA003686	ST003	9606			L-27	"Homo sapiens"	human	2008							Asia	Philippines	Malate	14.556974	14.577616	120.980267	120.998927	Female	"Breast milk"	7.7		40	kg	157	cm	Height	Adult	"27 y.o."																														"Urban area; Parity: 1; "	2018/3/16	2018/3/16
PRA000061	SAA003687	ST003	9606			L-28	"Homo sapiens"	human	2008							Asia	Philippines	Malate	14.556974	14.577616	120.980267	120.998927	Female	"Breast milk"	8.5		39	kg	157	cm	Height	Adult	"20 y.o."																														"Urban area; Parity: 1; "	2018/3/16	2018/3/16
PRA000061	SAA003688	ST003	9606			L-29	"Homo sapiens"	human	2008							Asia	Philippines	Malate	14.556974	14.577616	120.980267	120.998927	Female	"Breast milk"	7.1		35	kg	150	cm	Height	Adult	"27 y.o."																														"Urban area; Parity: 1; "	2018/3/16	2018/3/16
PRA000061	SAA003689	ST003	9606			P-01	"Homo sapiens"	human	2008							Asia	Philippines	Payatas	14.69602	14.721497	121.087934	121.112468	Female	"Breast milk"	4.3		43	kg	160	cm	Height	Adult	"21 y.o."																														"Near a municipal waste dumping area; Parity: 2;"	2018/3/16	2018/3/16
PRA000061	SAA003690	ST003	9606			P-03	"Homo sapiens"	human	2008							Asia	Philippines	Payatas	14.69602	14.721497	121.087934	121.112468	Female	"Breast milk"	3.5		41	kg	180	cm	Height	Adult	"25 y.o."																														"Near a municipal waste dumping area; Parity: 2;"	2018/3/16	2018/3/16
PRA000061	SAA003691	ST003	9606			P-04	"Homo sapiens"	human	2008							Asia	Philippines	Payatas	14.69602	14.721497	121.087934	121.112468	Female	"Breast milk"	4.6		40	kg	157	cm	Height	Adult	"25 y.o."																														"Near a municipal waste dumping area; Parity: 2;"	2018/3/16	2018/3/16
PRA000061	SAA003692	ST003	9606			P-05	"Homo sapiens"	human	2008							Asia	Philippines	Payatas	14.69602	14.721497	121.087934	121.112468	Female	"Breast milk"	4.5		50	kg	160	cm	Height	Adult	"31 y.o."																														"Near a municipal waste dumping area; Parity: 3;"	2018/3/16	2018/3/16
PRA000061	SAA003693	ST003	9606			P-06	"Homo sapiens"	human	2008							Asia	Philippines	Payatas	14.69602	14.721497	121.087934	121.112468	Female	"Breast milk"	3.2		48	kg	150	cm	Height	Adult	"21 y.o."																														"Near a municipal waste dumping area; Parity: 3;"	2018/3/16	2018/3/16
PRA000061	SAA003694	ST003	9606			P-07	"Homo sapiens"	human	2008							Asia	Philippines	Payatas	14.69602	14.721497	121.087934	121.112468	Female	"Breast milk"	2.6		63	kg	152	cm	Height	Adult	"33 y.o."																														"Near a municipal waste dumping area; Parity: 3;"	2018/3/16	2018/3/16
PRA000061	SAA003695	ST003	9606			P-09	"Homo sapiens"	human	2008							Asia	Philippines	Payatas	14.69602	14.721497	121.087934	121.112468	Female	"Breast milk"	3.7		54	kg	157	cm	Height	Adult	"20 y.o."																														"Near a municipal waste dumping area; Parity: 3;"	2018/3/16	2018/3/16
PRA000061	SAA003696	ST003	9606			P-10	"Homo sapiens"	human	2008							Asia	Philippines	Payatas	14.69602	14.721497	121.087934	121.112468	Female	"Breast milk"	2.8		46	kg	155	cm	Height	Adult	"27 y.o."																														"Near a municipal waste dumping area; Parity: 4;"	2018/3/16	2018/3/16
PRA000061	SAA003697	ST003	9606			P-11	"Homo sapiens"	human	2008							Asia	Philippines	Payatas	14.69602	14.721497	121.087934	121.112468	Female	"Breast milk"	2.2		55	kg	170	cm	Height	Adult	"18 y.o."																														"Near a municipal waste dumping area; Parity: 4;"	2018/3/16	2018/3/16
PRA000061	SAA003698	ST003	9606			P-12	"Homo sapiens"	human	2008							Asia	Philippines	Payatas	14.69602	14.721497	121.087934	121.112468	Female	"Breast milk"	5.4		45	kg	157	cm	Height	Adult	"27 y.o."																														"Near a municipal waste dumping area; Parity: 5;"	2018/3/16	2018/3/16
PRA000061	SAA003699	ST003	9606			P-13	"Homo sapiens"	human	2008							Asia	Philippines	Payatas	14.69602	14.721497	121.087934	121.112468	Female	"Breast milk"	2.3		47	kg	163	cm	Height	Adult	"33 y.o."																														"Near a municipal waste dumping area; Parity: 6;"	2018/3/16	2018/3/16
PRA000061	SAA003700	ST003	9606			P-14	"Homo sapiens"	human	2008							Asia	Philippines	Payatas	14.69602	14.721497	121.087934	121.112468	Female	"Breast milk"	1.4		52	kg	157	cm	Height	Adult	"33 y.o."																														"Near a municipal waste dumping area; Parity: 7;"	2018/3/16	2018/3/16
PRA000061	SAA003701	ST003	9606			P-15	"Homo sapiens"	human	2008							Asia	Philippines	Payatas	14.69602	14.721497	121.087934	121.112468	Female	"Breast milk"	2.6		45	kg	157	cm	Height	Adult	"28 y.o."																														"Near a municipal waste dumping area; Parity: 2;"	2018/3/16	2018/3/16
PRA000061	SAA003702	ST003	9606			P-16	"Homo sapiens"	human	2008							Asia	Philippines	Payatas	14.69602	14.721497	121.087934	121.112468	Female	"Breast milk"	2.8		55	kg	163	cm	Height	Adult	"40 y.o."																														"Near a municipal waste dumping area; Parity: 2;"	2018/3/16	2018/3/16
PRA000061	SAA003703	ST003	9606			P-18	"Homo sapiens"	human	2008							Asia	Philippines	Payatas	14.69602	14.721497	121.087934	121.112468	Female	"Breast milk"	3.8		45	kg	157	cm	Height	Adult	"17 y.o."																														"Near a municipal waste dumping area; Parity: 2;"	2018/3/16	2018/3/16
PRA000061	SAA003704	ST003	9606			P-24	"Homo sapiens"	human	2008							Asia	Philippines	Payatas	14.69602	14.721497	121.087934	121.112468	Female	"Breast milk"	3.4		42	kg	157	cm	Height	Adult	"20 y.o."																														"Near a municipal waste dumping area; Parity: 2;"	2018/3/16	2018/3/16
PRA000061	SAA003705	ST003	9606			P-29	"Homo sapiens"	human	2008							Asia	Philippines	Payatas	14.69602	14.721497	121.087934	121.112468	Female	"Breast milk"	3.4		43	kg	160	cm	Height	Adult	"19 y.o."																														"Near a municipal waste dumping area; Parity: 3;"	2018/3/16	2018/3/16
PRA000061	SAA003706	ST003	9606			P-31	"Homo sapiens"	human	2008							Asia	Philippines	Payatas	14.69602	14.721497	121.087934	121.112468	Female	"Breast milk"	3.9		36	kg	150	cm	Height	Adult	"18 y.o."																														"Near a municipal waste dumping area; Parity: 4;"	2018/3/16	2018/3/16
PRA000061	SAA003707	ST003	9606			P-34	"Homo sapiens"	human	2008							Asia	Philippines	Payatas	14.69602	14.721497	121.087934	121.112468	Female	"Breast milk"	2.5		50	kg	155	cm	Height	Adult	"20 y.o."																														"Near a municipal waste dumping area; Parity: 4;"	2018/3/16	2018/3/16
PRA000061	SAA003708	ST003	9606			P-35	"Homo sapiens"	human	2008							Asia	Philippines	Payatas	14.69602	14.721497	121.087934	121.112468	Female	"Breast milk"	5.1		49	kg	145	cm	Height	Adult	"23 y.o."																														"Near a municipal waste dumping area; Parity: 4;"	2018/3/16	2018/3/16
PRA000061	SAA003709	ST003	9606			P-37	"Homo sapiens"	human	2008							Asia	Philippines	Payatas	14.69602	14.721497	121.087934	121.112468	Female	"Breast milk"	1.4		70	kg	157	cm	Height	Adult	"34 y.o."																														"Near a municipal waste dumping area; Parity: 5;"	2018/3/16	2018/3/16
PRA000061	SAA003710	ST003	9606			P-38	"Homo sapiens"	human	2008							Asia	Philippines	Payatas	14.69602	14.721497	121.087934	121.112468	Female	"Breast milk"	2.7		45	kg	150	cm	Height	Adult	"30 y.o."																														"Near a municipal waste dumping area; Parity: 7;"	2018/3/16	2018/3/16
PRA000061	SAA003711	ST003	9606			TH-01	"Homo sapiens"	human	2008							Asia	Vietnam	Hanoi	20.995249	21.049966	105.797843	105.876297	Female	"Breast milk"	3.4		56	kg	160	cm	Height	Adult	"31 y.o."																														"Suburban area, The capital of Vietnam; Parity: 2; "	2018/3/16	2018/3/16
PRA000061	SAA003712	ST003	9606			TH-02	"Homo sapiens"	human	2008							Asia	Vietnam	Hanoi	20.995249	21.049966	105.797843	105.876297	Female	"Breast milk"	3.2		52	kg	160	cm	Height	Adult	"27 y.o."																														"Suburban area, The capital of Vietnam; Parity: 2; "	2018/3/16	2018/3/16
PRA000061	SAA003713	ST003	9606			TH-03	"Homo sapiens"	human	2008							Asia	Vietnam	Hanoi	20.995249	21.049966	105.797843	105.876297	Female	"Breast milk"	2.1		47	kg	150	cm	Height	Adult	"24 y.o."																														"Suburban area, The capital of Vietnam; Parity: 2; "	2018/3/16	2018/3/16
PRA000061	SAA003714	ST003	9606			TH-04	"Homo sapiens"	human	2008							Asia	Vietnam	Hanoi	20.995249	21.049966	105.797843	105.876297	Female	"Breast milk"	3.6		45	kg	153	cm	Height	Adult	"28 y.o."																														"Suburban area, The capital of Vietnam; Parity: 2; "	2018/3/16	2018/3/16
PRA000061	SAA003715	ST003	9606			TH-05	"Homo sapiens"	human	2008							Asia	Vietnam	Hanoi	20.995249	21.049966	105.797843	105.876297	Female	"Breast milk"	4		53	kg	150	cm	Height	Adult	"29 y.o."																														"Suburban area, The capital of Vietnam; Parity: 1; "	2018/3/16	2018/3/16
PRA000061	SAA003716	ST003	9606			TH-06	"Homo sapiens"	human	2008							Asia	Vietnam	Hanoi	20.995249	21.049966	105.797843	105.876297	Female	"Breast milk"	5.3		65	kg	161	cm	Height	Adult	"32 y.o."																														"Suburban area, The capital of Vietnam; Parity: 3; "	2018/3/16	2018/3/16
PRA000061	SAA003717	ST003	9606			TH-07	"Homo sapiens"	human	2008							Asia	Vietnam	Hanoi	20.995249	21.049966	105.797843	105.876297	Female	"Breast milk"	5		54	kg	162	cm	Height	Adult	"21 y.o."																														"Suburban area, The capital of Vietnam; Parity: 1; "	2018/3/16	2018/3/16
PRA000061	SAA003718	ST003	9606			BD-01	"Homo sapiens"	human	2008							Asia	Vietnam	"Bui Dau"	20.92888889	20.93944444	106.0894444	106.1011111	Female	"Breast milk"	3.5		44	kg	157	cm	Height	Adult	"24 y.o."																														"E-waste recycling site; Parity: 1; "	2018/3/16	2018/3/16
PRA000061	SAA003719	ST003	9606			BD-02	"Homo sapiens"	human	2008							Asia	Vietnam	"Bui Dau"	20.92888889	20.93944444	106.0894444	106.1011111	Female	"Breast milk"	2.9		47	kg	155	cm	Height	Adult	"28 y.o."																														"E-waste recycling site; Parity: 1; "	2018/3/16	2018/3/16
PRA000061	SAA003720	ST003	9606			BD-03	"Homo sapiens"	human	2008							Asia	Vietnam	"Bui Dau"	20.92888889	20.93944444	106.0894444	106.1011111	Female	"Breast milk"	6.2		48	kg	148	cm	Height	Adult	"23 y.o."																														"E-waste recycling site; Parity: 2; "	2018/3/16	2018/3/16
PRA000061	SAA003721	ST003	9606			BD-04	"Homo sapiens"	human	2008							Asia	Vietnam	"Bui Dau"	20.92888889	20.93944444	106.0894444	106.1011111	Female	"Breast milk"	3.7		45	kg	155	cm	Height	Adult	"25 y.o."																														"E-waste recycling site; Parity: 1; "	2018/3/16	2018/3/16
PRA000061	SAA003722	ST003	9606			BD-05	"Homo sapiens"	human	2008							Asia	Vietnam	"Bui Dau"	20.92888889	20.93944444	106.0894444	106.1011111	Female	"Breast milk"	3.9		39	kg	155	cm	Height	Adult	"22 y.o."																														"E-waste recycling site; Parity: 1; "	2018/3/16	2018/3/16
PRA000061	SAA003723	ST003	9606			BD-06	"Homo sapiens"	human	2008							Asia	Vietnam	"Bui Dau"	20.92888889	20.93944444	106.0894444	106.1011111	Female	"Breast milk"	4.1		43	kg	157	cm	Height	Adult	"22 y.o."																														"E-waste recycling site; Parity: 1; "	2018/3/16	2018/3/16
PRA000061	SAA003724	ST003	9606			BD-07	"Homo sapiens"	human	2008							Asia	Vietnam	"Bui Dau"	20.92888889	20.93944444	106.0894444	106.1011111	Female	"Breast milk"	6		50	kg	150	cm	Height	Adult	"27 y.o."																														"E-waste recycling site; Parity: 2; "	2018/3/16	2018/3/16
PRA000061	SAA003725	ST003	9606			BD-08	"Homo sapiens"	human	2008							Asia	Vietnam	"Bui Dau"	20.92888889	20.93944444	106.0894444	106.1011111	Female	"Breast milk"	4.1		56	kg	152	cm	Height	Adult	"23 y.o."																														"E-waste recycling site; Parity: 1; "	2018/3/16	2018/3/16
PRA000061	SAA003726	ST003	9606			BD-09	"Homo sapiens"	human	2008							Asia	Vietnam	"Bui Dau"	20.92888889	20.93944444	106.0894444	106.1011111	Female	"Breast milk"	3.9		43	kg	150	cm	Height	Adult	"31 y.o."																														"E-waste recycling site; Parity: 2; "	2018/3/16	2018/3/16
PRA000061	SAA003727	ST003	9606			BD-10	"Homo sapiens"	human	2008							Asia	Vietnam	"Bui Dau"	20.92888889	20.93944444	106.0894444	106.1011111	Female	"Breast milk"	3.6		53	kg	158	cm	Height	Adult	"21 y.o."																														"E-waste recycling site; Parity: 1; "	2018/3/16	2018/3/16
PRA000061	SAA003728	ST003	9606			TM-01	"Homo sapiens"	human	2008							Asia	Vietnam	"Trang Minh"	20.773408	20.799126	106.608152	106.632915	Female	"Breast milk"	5		44	kg	156	cm	Height	Adult	"30 y.o."																														"E-waste recycling site; Parity: 2; "	2018/3/16	2018/3/16
PRA000061	SAA003729	ST003	9606			TM-02	"Homo sapiens"	human	2008							Asia	Vietnam	"Trang Minh"	20.773408	20.799126	106.608152	106.632915	Female	"Breast milk"	3.8		42	kg	149	cm	Height	Adult	"25 y.o."																														"E-waste recycling site; Parity: 2; "	2018/3/16	2018/3/16
PRA000061	SAA003730	ST003	9606			TM-04	"Homo sapiens"	human	2008							Asia	Vietnam	"Trang Minh"	20.773408	20.799126	106.608152	106.632915	Female	"Breast milk"	4		53	kg	160	cm	Height	Adult	"25 y.o."																														"E-waste recycling site; Parity: 2; "	2018/3/16	2018/3/16
PRA000061	SAA003731	ST003	9606			TM-05	"Homo sapiens"	human	2008							Asia	Vietnam	"Trang Minh"	20.773408	20.799126	106.608152	106.632915	Female	"Breast milk"	3.8		51	kg	155	cm	Height	Adult	"28 y.o."																														"E-waste recycling site; Parity: 2; "	2018/3/16	2018/3/16
PRA000061	SAA003732	ST003	9606			TM-08	"Homo sapiens"	human	2008							Asia	Vietnam	"Trang Minh"	20.773408	20.799126	106.608152	106.632915	Female	"Breast milk"	4		44	kg	155	cm	Height	Adult	"23 y.o."																														"E-waste recycling site; Parity: 2; "	2018/3/16	2018/3/16
PRA000061	SAA003733	ST003	9606			TM-09	"Homo sapiens"	human	2008							Asia	Vietnam	"Trang Minh"	20.773408	20.799126	106.608152	106.632915	Female	"Breast milk"	4.8		56	kg	156	cm	Height	Adult	"34 y.o."																														"E-waste recycling site; Parity: 2; "	2018/3/16	2018/3/16
PRA000061	SAA003734	ST003	9606			TM-10	"Homo sapiens"	human	2008							Asia	Vietnam	"Trang Minh"	20.773408	20.799126	106.608152	106.632915	Female	"Breast milk"	3.8		49	kg	156	cm	Height	Adult	"31 y.o."																														"E-waste recycling site; Parity: 2; "	2018/3/16	2018/3/16
PRA000061	SAA003735	ST003	9606			TM-11	"Homo sapiens"	human	2008							Asia	Vietnam	"Trang Minh"	20.773408	20.799126	106.608152	106.632915	Female	"Breast milk"	4.6		44	kg	156	cm	Height	Adult	"30 y.o."																														"E-waste recycling site; Parity: 2; "	2018/3/16	2018/3/16
PRA000061	SAA003736	ST003	9606			TM-12	"Homo sapiens"	human	2008							Asia	Vietnam	"Trang Minh"	20.773408	20.799126	106.608152	106.632915	Female	"Breast milk"	3.7		47	kg	155	cm	Height	Adult	"30 y.o."																														"E-waste recycling site; Parity: 2; "	2018/3/16	2018/3/16
PRA000064	SAA003141	ST003	9606			CP2015_001	"Homo sapiens"	Human	2010							Asia	China	Shanghai	31.22221944		121.4580611		Female	Urine									"25 y.o."																														"Sample collected in 2010-2012"	2018/4/6	2018/4/6
PRA000064	SAA003142	ST003	9606			CP2015_002	"Homo sapiens"	Human	2010							Asia	China	Shanghai	31.22221944		121.4580611		Male	Urine									"24 y.o."																														"Sample collected in 2010-2012"	2018/4/6	2018/4/6
PRA000064	SAA003143	ST003	9606			CP2015_003	"Homo sapiens"	Human	2010							Asia	China	Shanghai	31.22221944		121.4580611		Male	Urine									"24 y.o."																														"Sample collected in 2010-2012"	2018/4/6	2018/4/6
PRA000064	SAA003144	ST003	9606			CP2015_004	"Homo sapiens"	Human	2010							Asia	China	Shanghai	31.22221944		121.4580611		Female	Urine									"23 y.o."																														"Sample collected in 2010-2012"	2018/4/6	2018/4/6
PRA000064	SAA003145	ST003	9606			CP2015_005	"Homo sapiens"	Human	2010							Asia	China	Shanghai	31.22221944		121.4580611		Male	Urine									"23 y.o."																														"Sample collected in 2010-2012"	2018/4/6	2018/4/6
PRA000064	SAA003146	ST003	9606			CP2015_006	"Homo sapiens"	Human	2010							Asia	China	Shanghai	31.22221944		121.4580611		Male	Urine									"22 y.o."																														"Sample collected in 2010-2012"	2018/4/6	2018/4/6
PRA000064	SAA003147	ST003	9606			CP2015_007	"Homo sapiens"	Human	2010							Asia	China	Shanghai	31.22221944		121.4580611		Male	Urine									"24 y.o."																														"Sample collected in 2010-2012"	2018/4/6	2018/4/6
PRA000064	SAA003148	ST003	9606			CP2015_008	"Homo sapiens"	Human	2010							Asia	China	Shanghai	31.22221944		121.4580611		Male	Urine									"23 y.o."																														"Sample collected in 2010-2012"	2018/4/6	2018/4/6
PRA000064	SAA003149	ST003	9606			CP2015_009	"Homo sapiens"	Human	2010							Asia	China	Shanghai	31.22221944		121.4580611		Male	Urine									"24 y.o."																														"Sample collected in 2010-2012"	2018/4/6	2018/4/6
PRA000064	SAA003150	ST003	9606			CP2015_010	"Homo sapiens"	Human	2010							Asia	China	Shanghai	31.22221944		121.4580611		Male	Urine									"23 y.o."																														"Sample collected in 2010-2012"	2018/4/6	2018/4/6
PRA000064	SAA003151	ST003	9606			CP2015_011	"Homo sapiens"	Human	2010							Asia	China	Shanghai	31.22221944		121.4580611		Male	Urine									"24 y.o."																														"Sample collected in 2010-2012"	2018/4/6	2018/4/6
PRA000064	SAA003152	ST003	9606			CP2015_012	"Homo sapiens"	Human	2010							Asia	China	Shanghai	31.22221944		121.4580611		Male	Urine									"23 y.o."																														"Sample collected in 2010-2012"	2018/4/6	2018/4/6
PRA000064	SAA003153	ST003	9606			CP2015_013	"Homo sapiens"	Human	2010							Asia	China	Shanghai	31.22221944		121.4580611		Female	Urine									"56 y.o."																														"Sample collected in 2010-2012"	2018/4/6	2018/4/6
PRA000064	SAA003154	ST003	9606			CP2015_014	"Homo sapiens"	Human	2010							Asia	China	Shanghai	31.22221944		121.4580611		Female	Urine									"22 y.o."																														"Sample collected in 2010-2012"	2018/4/6	2018/4/6
PRA000064	SAA003155	ST003	9606			CP2015_015	"Homo sapiens"	Human	2010							Asia	China	Shanghai	31.22221944		121.4580611		Female	Urine									"23 y.o."																														"Sample collected in 2010-2012"	2018/4/6	2018/4/6
PRA000064	SAA003156	ST003	9606			CP2015_016	"Homo sapiens"	Human	2010							Asia	China	Shanghai	31.22221944		121.4580611		Female	Urine									"26 y.o."																														"Sample collected in 2010-2012"	2018/4/6	2018/4/6
PRA000064	SAA003157	ST003	9606			CP2015_017	"Homo sapiens"	Human	2010							Asia	China	Guangzhou	23.128994		113.25325		Female	Urine									"34 y.o."																														"Sample collected in 2010-2012"	2018/4/6	2018/4/6
PRA000064	SAA003158	ST003	9606			CP2015_018	"Homo sapiens"	Human	2010							Asia	China	Guangzhou	23.128994		113.25325		Female	Urine									"4 y.o."																														"Sample collected in 2010-2012"	2018/4/6	2018/4/6
PRA000064	SAA003159	ST003	9606			CP2015_019	"Homo sapiens"	Human	2010							Asia	China	Guangzhou	23.128994		113.25325		Male	Urine									"39 y.o."																														"Sample collected in 2010-2012"	2018/4/6	2018/4/6
PRA000064	SAA003160	ST003	9606			CP2015_020	"Homo sapiens"	Human	2010							Asia	China	Guangzhou	23.128994		113.25325		Male	Urine									"14 y.o."																														"Sample collected in 2010-2012"	2018/4/6	2018/4/6
PRA000064	SAA003161	ST003	9606			CP2015_021	"Homo sapiens"	Human	2010							Asia	China	Guangzhou	23.128994		113.25325		Female	Urine									"29 y.o."																														"Sample collected in 2010-2012"	2018/4/6	2018/4/6
PRA000064	SAA003162	ST003	9606			CP2015_022	"Homo sapiens"	Human	2010							Asia	China	Guangzhou	23.128994		113.25325		Female	Urine									"4 y.o."																														"Sample collected in 2010-2012"	2018/4/6	2018/4/6
PRA000064	SAA003163	ST003	9606			CP2015_023	"Homo sapiens"	Human	2010							Asia	China	Guangzhou	23.128994		113.25325		Female	Urine									"23 y.o."																														"Sample collected in 2010-2012"	2018/4/6	2018/4/6
PRA000064	SAA003164	ST003	9606			CP2015_024	"Homo sapiens"	Human	2010							Asia	China	Guangzhou	23.128994		113.25325		Female	Urine									"12 y.o."																														"Sample collected in 2010-2012"	2018/4/6	2018/4/6
PRA000064	SAA003165	ST003	9606			CP2015_025	"Homo sapiens"	Human	2010							Asia	China	Guangzhou	23.128994		113.25325		Female	Urine									"42 y.o."																														"Sample collected in 2010-2012"	2018/4/6	2018/4/6
PRA000064	SAA003166	ST003	9606			CP2015_026	"Homo sapiens"	Human	2010							Asia	China	Guangzhou	23.128994		113.25325		Male	Urine									"2 y.o."																														"Sample collected in 2010-2012"	2018/4/6	2018/4/6
PRA000064	SAA003167	ST003	9606			CP2015_027	"Homo sapiens"	Human	2010							Asia	China	Guangzhou	23.128994		113.25325		Female	Urine									"36 y.o."																														"Sample collected in 2010-2012"	2018/4/6	2018/4/6
PRA000064	SAA003168	ST003	9606			CP2015_028	"Homo sapiens"	Human	2010							Asia	China	Guangzhou	23.128994		113.25325		Female	Urine									"36 y.o."																														"Sample collected in 2010-2012"	2018/4/6	2018/4/6
PRA000064	SAA003169	ST003	9606			CP2015_029	"Homo sapiens"	Human	2010							Asia	China	Guangzhou	23.128994		113.25325		Female	Urine									"42 y.o."																														"Sample collected in 2010-2012"	2018/4/6	2018/4/6
PRA000064	SAA003170	ST003	9606			CP2015_030	"Homo sapiens"	Human	2010							Asia	China	Guangzhou	23.128994		113.25325		Female	Urine									"28 y.o."																														"Sample collected in 2010-2012"	2018/4/6	2018/4/6
PRA000064	SAA003171	ST003	9606			CP2015_031	"Homo sapiens"	Human	2010							Asia	China	Guangzhou	23.128994		113.25325		Male	Urine									"30 y.o."																														"Sample collected in 2010-2012"	2018/4/6	2018/4/6
PRA000064	SAA003172	ST003	9606			CP2015_032	"Homo sapiens"	Human	2010							Asia	China	Guangzhou	23.128994		113.25325		Male	Urine									"28 y.o."																														"Sample collected in 2010-2012"	2018/4/6	2018/4/6
PRA000064	SAA003173	ST003	9606			CP2015_033	"Homo sapiens"	Human	2010							Asia	China	Qiqihar	47.34088056		123.96045		Female	Urine									"54 y.o."																														"Sample collected in 2010-2012"	2018/4/6	2018/4/6
PRA000064	SAA003174	ST003	9606			CP2015_034	"Homo sapiens"	Human	2010							Asia	China	Qiqihar	47.34088056		123.96045		Female	Urine									"37 y.o."																														"Sample collected in 2010-2012"	2018/4/6	2018/4/6
PRA000064	SAA003175	ST003	9606			CP2015_035	"Homo sapiens"	Human	2010							Asia	China	Qiqihar	47.34088056		123.96045		Female	Urine									"44 y.o."																														"Sample collected in 2010-2012"	2018/4/6	2018/4/6
PRA000064	SAA003176	ST003	9606			CP2015_036	"Homo sapiens"	Human	2010							Asia	China	Qiqihar	47.34088056		123.96045		Female	Urine									"29 y.o."																														"Sample collected in 2010-2012"	2018/4/6	2018/4/6
PRA000064	SAA003177	ST003	9606			CP2015_037	"Homo sapiens"	Human	2010							Asia	China	Qiqihar	47.34088056		123.96045		Male	Urine									"67 y.o."																														"Sample collected in 2010-2012"	2018/4/6	2018/4/6
PRA000064	SAA003178	ST003	9606			CP2015_038	"Homo sapiens"	Human	2010							Asia	China	Qiqihar	47.34088056		123.96045		Male	Urine									"66 y.o."																														"Sample collected in 2010-2012"	2018/4/6	2018/4/6
PRA000064	SAA003179	ST003	9606			CP2015_039	"Homo sapiens"	Human	2010							Asia	China	Qiqihar	47.34088056		123.96045		Male	Urine									"53 y.o."																														"Sample collected in 2010-2012"	2018/4/6	2018/4/6
PRA000064	SAA003180	ST003	9606			CP2015_040	"Homo sapiens"	Human	2010							Asia	China	Qiqihar	47.34088056		123.96045		Female	Urine									"60 y.o."																														"Sample collected in 2010-2012"	2018/4/6	2018/4/6
PRA000064	SAA003181	ST003	9606			CP2015_041	"Homo sapiens"	Human	2010							Asia	China	Qiqihar	47.34088056		123.96045		Female	Urine									"49 y.o."																														"Sample collected in 2010-2012"	2018/4/6	2018/4/6
PRA000064	SAA003182	ST003	9606			CP2015_042	"Homo sapiens"	Human	2010							Asia	China	Qiqihar	47.34088056		123.96045		Male	Urine									"39 y.o."																														"Sample collected in 2010-2012"	2018/4/6	2018/4/6
PRA000064	SAA003183	ST003	9606			CP2015_043	"Homo sapiens"	Human	2010							Asia	China	Qiqihar	47.34088056		123.96045		Male	Urine									"19 y.o."																														"Sample collected in 2010-2012"	2018/4/6	2018/4/6
PRA000064	SAA003184	ST003	9606			CP2015_044	"Homo sapiens"	Human	2010							Asia	China	Qiqihar	47.34088056		123.96045			Urine																																							"Sample collected in 2010-2012"	2018/4/6	2018/4/6
PRA000064	SAA003185	ST003	9606			CP2015_045	"Homo sapiens"	Human	2010							Asia	China	Qiqihar	47.34088056		123.96045		Female	Urine									"35 y.o."																														"Sample collected in 2010-2012"	2018/4/6	2018/4/6
PRA000064	SAA003186	ST003	9606			CP2015_046	"Homo sapiens"	Human	2010							Asia	China	Qiqihar	47.34088056		123.96045		Female	Urine									"44 y.o."																														"Sample collected in 2010-2012"	2018/4/6	2018/4/6
PRA000064	SAA003187	ST003	9606			CP2015_047	"Homo sapiens"	Human	2010							Asia	China	Qiqihar	47.34088056		123.96045		Female	Urine									"55 y.o."																														"Sample collected in 2010-2012"	2018/4/6	2018/4/6
PRA000064	SAA003188	ST003	9606			CP2015_048	"Homo sapiens"	Human	2010							Asia	India	"Mettupalayam or Chennai"	11.282004	13.245375	76.92109	80.334975		Urine																																							"Sample collected in 2010-2012"	2018/4/6	2018/4/6
PRA000064	SAA003189	ST003	9606			CP2015_049	"Homo sapiens"	Human	2010							Asia	India	"Mettupalayam or Chennai"	11.282004	13.245375	76.92109	80.334975		Urine																																							"Sample collected in 2010-2012"	2018/4/6	2018/4/6
PRA000064	SAA003190	ST003	9606			CP2015_050	"Homo sapiens"	Human	2010							Asia	India	"Mettupalayam or Chennai"	11.282004	13.245375	76.92109	80.334975		Urine																																							"Sample collected in 2010-2012"	2018/4/6	2018/4/6
PRA000064	SAA003191	ST003	9606			CP2015_051	"Homo sapiens"	Human	2010							Asia	India	"Mettupalayam or Chennai"	11.282004	13.245375	76.92109	80.334975		Urine																																							"Sample collected in 2010-2012"	2018/4/6	2018/4/6
PRA000064	SAA003192	ST003	9606			CP2015_052	"Homo sapiens"	Human	2010							Asia	India	"Mettupalayam or Chennai"	11.282004	13.245375	76.92109	80.334975		Urine																																							"Sample collected in 2010-2012"	2018/4/6	2018/4/6
PRA000064	SAA003193	ST003	9606			CP2015_053	"Homo sapiens"	Human	2010							Asia	India	"Mettupalayam or Chennai"	11.282004	13.245375	76.92109	80.334975		Urine																																							"Sample collected in 2010-2012"	2018/4/6	2018/4/6
PRA000064	SAA003194	ST003	9606			CP2015_054	"Homo sapiens"	Human	2010							Asia	India	"Mettupalayam or Chennai"	11.282004	13.245375	76.92109	80.334975		Urine																																							"Sample collected in 2010-2012"	2018/4/6	2018/4/6
PRA000064	SAA003195	ST003	9606			CP2015_055	"Homo sapiens"	Human	2010							Asia	India	"Mettupalayam or Chennai"	11.282004	13.245375	76.92109	80.334975		Urine																																							"Sample collected in 2010-2012"	2018/4/6	2018/4/6
PRA000064	SAA003196	ST003	9606			CP2015_056	"Homo sapiens"	Human	2010							Asia	India	"Mettupalayam or Chennai"	11.282004	13.245375	76.92109	80.334975		Urine																																							"Sample collected in 2010-2012"	2018/4/6	2018/4/6
PRA000064	SAA003197	ST003	9606			CP2015_057	"Homo sapiens"	Human	2010							Asia	India	"Mettupalayam or Chennai"	11.282004	13.245375	76.92109	80.334975		Urine																																							"Sample collected in 2010-2012"	2018/4/6	2018/4/6
PRA000064	SAA003198	ST003	9606			CP2015_058	"Homo sapiens"	Human	2010							Asia	India	"Mettupalayam or Chennai"	11.282004	13.245375	76.92109	80.334975		Urine																																							"Sample collected in 2010-2012"	2018/4/6	2018/4/6
PRA000064	SAA003199	ST003	9606			CP2015_059	"Homo sapiens"	Human	2010							Asia	India	"Mettupalayam or Chennai"	11.282004	13.245375	76.92109	80.334975		Urine																																							"Sample collected in 2010-2012"	2018/4/6	2018/4/6
PRA000064	SAA003200	ST003	9606			CP2015_060	"Homo sapiens"	Human	2010							Asia	India	"Mettupalayam or Chennai"	11.282004	13.245375	76.92109	80.334975		Urine																																							"Sample collected in 2010-2012"	2018/4/6	2018/4/6
PRA000064	SAA003201	ST003	9606			CP2015_061	"Homo sapiens"	Human	2010							Asia	India	"Mettupalayam or Chennai"	11.282004	13.245375	76.92109	80.334975		Urine																																							"Sample collected in 2010-2012"	2018/4/6	2018/4/6
PRA000064	SAA003202	ST003	9606			CP2015_062	"Homo sapiens"	Human	2010							Asia	India	"Mettupalayam or Chennai"	11.282004	13.245375	76.92109	80.334975		Urine																																							"Sample collected in 2010-2012"	2018/4/6	2018/4/6
PRA000064	SAA003203	ST003	9606			CP2015_063	"Homo sapiens"	Human	2010							Asia	India	"Mettupalayam or Chennai"	11.282004	13.245375	76.92109	80.334975		Urine																																							"Sample collected in 2010-2012"	2018/4/6	2018/4/6
PRA000064	SAA003204	ST003	9606			CP2015_064	"Homo sapiens"	Human	2010							Asia	India	"Mettupalayam or Chennai"	11.282004	13.245375	76.92109	80.334975		Urine																																							"Sample collected in 2010-2012"	2018/4/6	2018/4/6
PRA000064	SAA003205	ST003	9606			CP2015_065	"Homo sapiens"	Human	2010							Asia	India	"Mettupalayam or Chennai"	11.282004	13.245375	76.92109	80.334975		Urine																																							"Sample collected in 2010-2012"	2018/4/6	2018/4/6
PRA000064	SAA003206	ST003	9606			CP2015_066	"Homo sapiens"	Human	2010							Asia	India	"Mettupalayam or Chennai"	11.282004	13.245375	76.92109	80.334975		Urine																																							"Sample collected in 2010-2012"	2018/4/6	2018/4/6
PRA000064	SAA003207	ST003	9606			CP2015_067	"Homo sapiens"	Human	2010							Asia	India	"Mettupalayam or Chennai"	11.282004	13.245375	76.92109	80.334975		Urine																																							"Sample collected in 2010-2012"	2018/4/6	2018/4/6
PRA000064	SAA003208	ST003	9606			CP2015_068	"Homo sapiens"	Human	2010							Asia	India	"Mettupalayam or Chennai"	11.282004	13.245375	76.92109	80.334975		Urine																																							"Sample collected in 2010-2012"	2018/4/6	2018/4/6
PRA000064	SAA003209	ST003	9606			CP2015_069	"Homo sapiens"	Human	2010							Asia	India	"Mettupalayam or Chennai"	11.282004	13.245375	76.92109	80.334975		Urine																																							"Sample collected in 2010-2012"	2018/4/6	2018/4/6
PRA000064	SAA003210	ST003	9606			CP2015_070	"Homo sapiens"	Human	2010							Asia	India	"Mettupalayam or Chennai"	11.282004	13.245375	76.92109	80.334975		Urine																																							"Sample collected in 2010-2012"	2018/4/6	2018/4/6
PRA000064	SAA003211	ST003	9606			CP2015_071	"Homo sapiens"	Human	2010							Asia	India	"Mettupalayam or Chennai"	11.282004	13.245375	76.92109	80.334975		Urine																																							"Sample collected in 2010-2012"	2018/4/6	2018/4/6
PRA000064	SAA003212	ST003	9606			CP2015_072	"Homo sapiens"	Human	2010							Asia	India	"Mettupalayam or Chennai"	11.282004	13.245375	76.92109	80.334975		Urine																																							"Sample collected in 2010-2012"	2018/4/6	2018/4/6
PRA000064	SAA003213	ST003	9606			CP2015_073	"Homo sapiens"	Human	2010							Asia	India	"Mettupalayam or Chennai"	11.282004	13.245375	76.92109	80.334975		Urine																																							"Sample collected in 2010-2012"	2018/4/6	2018/4/6
PRA000064	SAA003214	ST003	9606			CP2015_074	"Homo sapiens"	Human	2010							Asia	India	"Mettupalayam or Chennai"	11.282004	13.245375	76.92109	80.334975		Urine																																							"Sample collected in 2010-2012"	2018/4/6	2018/4/6
PRA000064	SAA003215	ST003	9606			CP2015_075	"Homo sapiens"	Human	2010							Asia	India	"Mettupalayam or Chennai"	11.282004	13.245375	76.92109	80.334975		Urine																																							"Sample collected in 2010-2012"	2018/4/6	2018/4/6
PRA000064	SAA003216	ST003	9606			CP2015_076	"Homo sapiens"	Human	2010							Asia	India	"Mettupalayam or Chennai"	11.282004	13.245375	76.92109	80.334975	Female	Urine									"24 y.o."																														"Sample collected in 2010-2012"	2018/4/6	2018/4/6
PRA000064	SAA003217	ST003	9606			CP2015_077	"Homo sapiens"	Human	2010							Asia	India	"Mettupalayam or Chennai"	11.282004	13.245375	76.92109	80.334975	Male	Urine									"50 y.o."																														"Sample collected in 2010-2012"	2018/4/6	2018/4/6
PRA000064	SAA003218	ST003	9606			CP2015_078	"Homo sapiens"	Human	2010							Asia	India	"Mettupalayam or Chennai"	11.282004	13.245375	76.92109	80.334975	Female	Urine									"75 y.o."																														"Sample collected in 2010-2012"	2018/4/6	2018/4/6
PRA000064	SAA003219	ST003	9606			CP2015_079	"Homo sapiens"	Human	2010							Asia	India	"Mettupalayam or Chennai"	11.282004	13.245375	76.92109	80.334975	Female	Urine									"32 y.o."																														"Sample collected in 2010-2012"	2018/4/6	2018/4/6
PRA000064	SAA003220	ST003	9606			CP2015_080	"Homo sapiens"	Human	2010							Asia	India	"Mettupalayam or Chennai"	11.282004	13.245375	76.92109	80.334975		Urine																																							"Sample collected in 2010-2012"	2018/4/6	2018/4/6
PRA000064	SAA003221	ST003	9606			CP2015_081	"Homo sapiens"	Human	2010							Asia	India	"Mettupalayam or Chennai"	11.282004	13.245375	76.92109	80.334975	Male	Urine									"35 y.o."																														"Sample collected in 2010-2012"	2018/4/6	2018/4/6
PRA000064	SAA003222	ST003	9606			CP2015_082	"Homo sapiens"	Human	2010							Asia	India	"Mettupalayam or Chennai"	11.282004	13.245375	76.92109	80.334975	Female	Urine									"41 y.o."																														"Sample collected in 2010-2012"	2018/4/6	2018/4/6
PRA000064	SAA003223	ST003	9606			CP2015_083	"Homo sapiens"	Human	2010							Asia	India	"Mettupalayam or Chennai"	11.282004	13.245375	76.92109	80.334975	Female	Urine									"35 y.o."																														"Sample collected in 2010-2012"	2018/4/6	2018/4/6
PRA000064	SAA003224	ST003	9606			CP2015_084	"Homo sapiens"	Human	2010							Asia	India	"Mettupalayam or Chennai"	11.282004	13.245375	76.92109	80.334975	Female	Urine									"30 y.o."																														"Sample collected in 2010-2012"	2018/4/6	2018/4/6
PRA000064	SAA003225	ST003	9606			CP2015_085	"Homo sapiens"	Human	2010							Asia	India	"Mettupalayam or Chennai"	11.282004	13.245375	76.92109	80.334975	Male	Urine									"69 y.o."																														"Sample collected in 2010-2012"	2018/4/6	2018/4/6
PRA000064	SAA003226	ST003	9606			CP2015_086	"Homo sapiens"	Human	2010							Asia	India	"Mettupalayam or Chennai"	11.282004	13.245375	76.92109	80.334975	Female	Urine									"59 y.o."																														"Sample collected in 2010-2012"	2018/4/6	2018/4/6
PRA000064	SAA003227	ST003	9606			CP2015_087	"Homo sapiens"	Human	2010							Asia	India	"Mettupalayam or Chennai"	11.282004	13.245375	76.92109	80.334975	Female	Urine									"60 y.o."																														"Sample collected in 2010-2012"	2018/4/6	2018/4/6
PRA000064	SAA003228	ST003	9606			CP2015_088	"Homo sapiens"	Human	2010							Asia	India	"Mettupalayam or Chennai"	11.282004	13.245375	76.92109	80.334975	Female	Urine									"44 y.o."																														"Sample collected in 2010-2012"	2018/4/6	2018/4/6
PRA000064	SAA003229	ST003	9606			CP2015_089	"Homo sapiens"	Human	2010							Asia	Japan	"Matsuyama or Kumamoto"	32.66027778	34.07388889	130.5716667	132.9266667	Male	Urine									"46 y.o."																														"Sample collected in 2010-2012"	2018/4/6	2018/4/6
PRA000064	SAA003230	ST003	9606			CP2015_090	"Homo sapiens"	Human	2010							Asia	Japan	"Matsuyama or Kumamoto"	32.66027778	34.07388889	130.5716667	132.9266667	Male	Urine									"39 y.o."																														"Sample collected in 2010-2012"	2018/4/6	2018/4/6
PRA000064	SAA003231	ST003	9606			CP2015_091	"Homo sapiens"	Human	2010							Asia	Japan	"Matsuyama or Kumamoto"	32.66027778	34.07388889	130.5716667	132.9266667	Male	Urine									"50 y.o."																														"Sample collected in 2010-2012"	2018/4/6	2018/4/6
PRA000064	SAA003232	ST003	9606			CP2015_092	"Homo sapiens"	Human	2010							Asia	Japan	"Matsuyama or Kumamoto"	32.66027778	34.07388889	130.5716667	132.9266667	Male	Urine									"47 y.o."																														"Sample collected in 2010-2012"	2018/4/6	2018/4/6
PRA000064	SAA003233	ST003	9606			CP2015_093	"Homo sapiens"	Human	2010							Asia	Japan	"Matsuyama or Kumamoto"	32.66027778	34.07388889	130.5716667	132.9266667	Male	Urine									"36 y.o."																														"Sample collected in 2010-2012"	2018/4/6	2018/4/6
PRA000064	SAA003234	ST003	9606			CP2015_094	"Homo sapiens"	Human	2010							Asia	Japan	"Matsuyama or Kumamoto"	32.66027778	34.07388889	130.5716667	132.9266667	Male	Urine									"41 y.o."																														"Sample collected in 2010-2012"	2018/4/6	2018/4/6
PRA000064	SAA003235	ST003	9606			CP2015_095	"Homo sapiens"	Human	2010							Asia	Japan	"Matsuyama or Kumamoto"	32.66027778	34.07388889	130.5716667	132.9266667	Male	Urine									"32 y.o."																														"Sample collected in 2010-2012"	2018/4/6	2018/4/6
PRA000064	SAA003236	ST003	9606			CP2015_096	"Homo sapiens"	Human	2010							Asia	Japan	"Matsuyama or Kumamoto"	32.66027778	34.07388889	130.5716667	132.9266667	Male	Urine									"36 y.o."																														"Sample collected in 2010-2012"	2018/4/6	2018/4/6
PRA000064	SAA003237	ST003	9606			CP2015_097	"Homo sapiens"	Human	2010							Asia	Japan	"Matsuyama or Kumamoto"	32.66027778	34.07388889	130.5716667	132.9266667	Male	Urine									"22 y.o."																														"Sample collected in 2010-2012"	2018/4/6	2018/4/6
PRA000064	SAA003238	ST003	9606			CP2015_098	"Homo sapiens"	Human	2010							Asia	Japan	"Matsuyama or Kumamoto"	32.66027778	34.07388889	130.5716667	132.9266667	Male	Urine									"29 y.o."																														"Sample collected in 2010-2012"	2018/4/6	2018/4/6
PRA000064	SAA003239	ST003	9606			CP2015_099	"Homo sapiens"	Human	2010							Asia	Japan	"Matsuyama or Kumamoto"	32.66027778	34.07388889	130.5716667	132.9266667	Male	Urine									"32 y.o."																														"Sample collected in 2010-2012"	2018/4/6	2018/4/6
PRA000064	SAA003240	ST003	9606			CP2015_100	"Homo sapiens"	Human	2010							Asia	Japan	"Matsuyama or Kumamoto"	32.66027778	34.07388889	130.5716667	132.9266667	Male	Urine									"59 y.o."																														"Sample collected in 2010-2012"	2018/4/6	2018/4/6
PRA000064	SAA003241	ST003	9606			CP2015_101	"Homo sapiens"	Human	2010							Asia	Japan	"Matsuyama or Kumamoto"	32.66027778	34.07388889	130.5716667	132.9266667	Male	Urine									"25 y.o."																														"Sample collected in 2010-2012"	2018/4/6	2018/4/6
PRA000064	SAA003242	ST003	9606			CP2015_102	"Homo sapiens"	Human	2010							Asia	Japan	"Matsuyama or Kumamoto"	32.66027778	34.07388889	130.5716667	132.9266667	Male	Urine									"31 y.o."																														"Sample collected in 2010-2012"	2018/4/6	2018/4/6
PRA000064	SAA003243	ST003	9606			CP2015_103	"Homo sapiens"	Human	2010							Asia	Japan	"Matsuyama or Kumamoto"	32.66027778	34.07388889	130.5716667	132.9266667	Male	Urine									"35 y.o."																														"Sample collected in 2010-2012"	2018/4/6	2018/4/6
PRA000064	SAA003244	ST003	9606			CP2015_104	"Homo sapiens"	Human	2010							Asia	Japan	"Matsuyama or Kumamoto"	32.66027778	34.07388889	130.5716667	132.9266667	Male	Urine									"39 y.o."																														"Sample collected in 2010-2012"	2018/4/6	2018/4/6
PRA000064	SAA003245	ST003	9606			CP2015_105	"Homo sapiens"	Human	2010							Asia	Japan	"Matsuyama or Kumamoto"	32.66027778	34.07388889	130.5716667	132.9266667	Female	Urine									"32 y.o."																														"Sample collected in 2010-2012"	2018/4/6	2018/4/6
PRA000064	SAA003246	ST003	9606			CP2015_106	"Homo sapiens"	Human	2010							Asia	Japan	"Matsuyama or Kumamoto"	32.66027778	34.07388889	130.5716667	132.9266667	Female	Urine									"36 y.o."																														"Sample collected in 2010-2012"	2018/4/6	2018/4/6
PRA000064	SAA003247	ST003	9606			CP2015_107	"Homo sapiens"	Human	2010							Asia	Japan	"Matsuyama or Kumamoto"	32.66027778	34.07388889	130.5716667	132.9266667	Female	Urine									"24 y.o."																														"Sample collected in 2010-2012"	2018/4/6	2018/4/6
PRA000064	SAA003248	ST003	9606			CP2015_108	"Homo sapiens"	Human	2010							Asia	Japan	"Matsuyama or Kumamoto"	32.66027778	34.07388889	130.5716667	132.9266667	Female	Urine									"23 y.o."																														"Sample collected in 2010-2012"	2018/4/6	2018/4/6
PRA000064	SAA003249	ST003	9606			CP2015_109	"Homo sapiens"	Human	2010							Asia	Japan	"Matsuyama or Kumamoto"	32.66027778	34.07388889	130.5716667	132.9266667	Female	Urine									"27 y.o."																														"Sample collected in 2010-2012"	2018/4/6	2018/4/6
PRA000064	SAA003250	ST003	9606			CP2015_110	"Homo sapiens"	Human	2010							Asia	Japan	"Matsuyama or Kumamoto"	32.66027778	34.07388889	130.5716667	132.9266667	Male	Urine									"33 y.o."																														"Sample collected in 2010-2012"	2018/4/6	2018/4/6
PRA000064	SAA003251	ST003	9606			CP2015_111	"Homo sapiens"	Human	2010							Asia	Japan	"Matsuyama or Kumamoto"	32.66027778	34.07388889	130.5716667	132.9266667	Male	Urine									"36 y.o."																														"Sample collected in 2010-2012"	2018/4/6	2018/4/6
PRA000064	SAA003252	ST003	9606			CP2015_112	"Homo sapiens"	Human	2010							Asia	Japan	"Matsuyama or Kumamoto"	32.66027778	34.07388889	130.5716667	132.9266667	Male	Urine									"34 y.o."																														"Sample collected in 2010-2012"	2018/4/6	2018/4/6
PRA000064	SAA003253	ST003	9606			CP2015_113	"Homo sapiens"	Human	2010							Asia	Japan	"Matsuyama or Kumamoto"	32.66027778	34.07388889	130.5716667	132.9266667	Female	Urine									"22 y.o."																														"Sample collected in 2010-2012"	2018/4/6	2018/4/6
PRA000064	SAA003254	ST003	9606			CP2015_114	"Homo sapiens"	Human	2010							Asia	Japan	"Matsuyama or Kumamoto"	32.66027778	34.07388889	130.5716667	132.9266667	Female	Urine									"23 y.o."																														"Sample collected in 2010-2012"	2018/4/6	2018/4/6
PRA000064	SAA003255	ST003	9606			CP2015_115	"Homo sapiens"	Human	2010							Asia	Japan	"Matsuyama or Kumamoto"	32.66027778	34.07388889	130.5716667	132.9266667	Male	Urine									"22 y.o."																														"Sample collected in 2010-2012"	2018/4/6	2018/4/6
PRA000064	SAA003256	ST003	9606			CP2015_116	"Homo sapiens"	Human	2010							Asia	Japan	"Matsuyama or Kumamoto"	32.66027778	34.07388889	130.5716667	132.9266667	Male	Urine									"39 y.o."																														"Sample collected in 2010-2012"	2018/4/6	2018/4/6
PRA000064	SAA003257	ST003	9606			CP2015_117	"Homo sapiens"	Human	2010							Asia	Japan	"Matsuyama or Kumamoto"	32.66027778	34.07388889	130.5716667	132.9266667	Male	Urine									"24 y.o."																														"Sample collected in 2010-2012"	2018/4/6	2018/4/6
PRA000064	SAA003258	ST003	9606			CP2015_118	"Homo sapiens"	Human	2010							Asia	Japan	"Matsuyama or Kumamoto"	32.66027778	34.07388889	130.5716667	132.9266667	Male	Urine									"21 y.o."																														"Sample collected in 2010-2012"	2018/4/6	2018/4/6
PRA000064	SAA003259	ST003	9606			CP2015_119	"Homo sapiens"	Human	2010							Asia	Japan	"Matsuyama or Kumamoto"	32.66027778	34.07388889	130.5716667	132.9266667	Male	Urine									"41 y.o."																														"Sample collected in 2010-2012"	2018/4/6	2018/4/6
PRA000064	SAA003260	ST003	9606			CP2015_120	"Homo sapiens"	Human	2010							Asia	Japan	"Matsuyama or Kumamoto"	32.66027778	34.07388889	130.5716667	132.9266667	Male	Urine									"23 y.o."																														"Sample collected in 2010-2012"	2018/4/6	2018/4/6
PRA000064	SAA003261	ST003	9606			CP2015_121	"Homo sapiens"	Human	2010							Asia	Japan	"Matsuyama or Kumamoto"	32.66027778	34.07388889	130.5716667	132.9266667	Male	Urine									"2 y.o."																														"Sample collected in 2010-2012"	2018/4/6	2018/4/6
PRA000064	SAA003262	ST003	9606			CP2015_122	"Homo sapiens"	Human	2010							Asia	Japan	"Matsuyama or Kumamoto"	32.66027778	34.07388889	130.5716667	132.9266667	Female	Urine									"34 y.o."																														"Sample collected in 2010-2012"	2018/4/6	2018/4/6
PRA000064	SAA003263	ST003	9606			CP2015_123	"Homo sapiens"	Human	2010							Asia	Japan	"Matsuyama or Kumamoto"	32.66027778	34.07388889	130.5716667	132.9266667	Male	Urine									"22 y.o."																														"Sample collected in 2010-2012"	2018/4/6	2018/4/6
PRA000064	SAA003264	ST003	9606			CP2015_124	"Homo sapiens"	Human	2010							Asia	Japan	"Matsuyama or Kumamoto"	32.66027778	34.07388889	130.5716667	132.9266667	Male	Urine									"23 y.o."																														"Sample collected in 2010-2012"	2018/4/6	2018/4/6
PRA000064	SAA003265	ST003	9606			CP2015_125	"Homo sapiens"	Human	2006							Asia	Korea	"Seoul or Busan or Yeosu"	34.409941	37.699269	126.766254	129.306678		Urine																																							"Sample collected in 2006-2007"	2018/4/6	2018/4/6
PRA000064	SAA003266	ST003	9606			CP2015_126	"Homo sapiens"	Human	2006							Asia	Korea	"Seoul or Busan or Yeosu"	34.409941	37.699269	126.766254	129.306678		Urine																																							"Sample collected in 2006-2007"	2018/4/6	2018/4/6
PRA000064	SAA003267	ST003	9606			CP2015_127	"Homo sapiens"	Human	2006							Asia	Korea	"Seoul or Busan or Yeosu"	34.409941	37.699269	126.766254	129.306678		Urine																																							"Sample collected in 2006-2007"	2018/4/6	2018/4/6
PRA000064	SAA003268	ST003	9606			CP2015_128	"Homo sapiens"	Human	2006							Asia	Korea	"Seoul or Busan or Yeosu"	34.409941	37.699269	126.766254	129.306678		Urine																																							"Sample collected in 2006-2007"	2018/4/6	2018/4/6
PRA000064	SAA003269	ST003	9606			CP2015_129	"Homo sapiens"	Human	2006							Asia	Korea	"Seoul or Busan or Yeosu"	34.409941	37.699269	126.766254	129.306678		Urine																																							"Sample collected in 2006-2007"	2018/4/6	2018/4/6
PRA000064	SAA003270	ST003	9606			CP2015_130	"Homo sapiens"	Human	2006							Asia	Korea	"Seoul or Busan or Yeosu"	34.409941	37.699269	126.766254	129.306678		Urine																																							"Sample collected in 2006-2007"	2018/4/6	2018/4/6
PRA000064	SAA003271	ST003	9606			CP2015_131	"Homo sapiens"	Human	2006							Asia	Korea	"Seoul or Busan or Yeosu"	34.409941	37.699269	126.766254	129.306678		Urine																																							"Sample collected in 2006-2007"	2018/4/6	2018/4/6
PRA000064	SAA003272	ST003	9606			CP2015_132	"Homo sapiens"	Human	2006							Asia	Korea	"Seoul or Busan or Yeosu"	34.409941	37.699269	126.766254	129.306678		Urine																																							"Sample collected in 2006-2007"	2018/4/6	2018/4/6
PRA000064	SAA003273	ST003	9606			CP2015_133	"Homo sapiens"	Human	2006							Asia	Korea	"Seoul or Busan or Yeosu"	34.409941	37.699269	126.766254	129.306678		Urine																																							"Sample collected in 2006-2007"	2018/4/6	2018/4/6
PRA000064	SAA003274	ST003	9606			CP2015_134	"Homo sapiens"	Human	2006							Asia	Korea	"Seoul or Busan or Yeosu"	34.409941	37.699269	126.766254	129.306678		Urine																																							"Sample collected in 2006-2007"	2018/4/6	2018/4/6
PRA000064	SAA003275	ST003	9606			CP2015_135	"Homo sapiens"	Human	2006							Asia	Korea	"Seoul or Busan or Yeosu"	34.409941	37.699269	126.766254	129.306678		Urine																																							"Sample collected in 2006-2007"	2018/4/6	2018/4/6
PRA000064	SAA003276	ST003	9606			CP2015_136	"Homo sapiens"	Human	2006							Asia	Korea	"Seoul or Busan or Yeosu"	34.409941	37.699269	126.766254	129.306678		Urine																																							"Sample collected in 2006-2007"	2018/4/6	2018/4/6
PRA000064	SAA003277	ST003	9606			CP2015_137	"Homo sapiens"	Human	2006							Asia	Korea	"Seoul or Busan or Yeosu"	34.409941	37.699269	126.766254	129.306678		Urine																																							"Sample collected in 2006-2007"	2018/4/6	2018/4/6
PRA000064	SAA003278	ST003	9606			CP2015_138	"Homo sapiens"	Human	2006							Asia	Korea	"Seoul or Busan or Yeosu"	34.409941	37.699269	126.766254	129.306678		Urine																																							"Sample collected in 2006-2007"	2018/4/6	2018/4/6
PRA000064	SAA003279	ST003	9606			CP2015_139	"Homo sapiens"	Human	2006							Asia	Korea	"Seoul or Busan or Yeosu"	34.409941	37.699269	126.766254	129.306678		Urine																																							"Sample collected in 2006-2007"	2018/4/6	2018/4/6
PRA000064	SAA003280	ST003	9606			CP2015_140	"Homo sapiens"	Human	2006							Asia	Korea	"Seoul or Busan or Yeosu"	34.409941	37.699269	126.766254	129.306678		Urine																																							"Sample collected in 2006-2007"	2018/4/6	2018/4/6
PRA000064	SAA003281	ST003	9606			CP2015_141	"Homo sapiens"	Human	2006							Asia	Korea	"Seoul or Busan or Yeosu"	34.409941	37.699269	126.766254	129.306678		Urine																																							"Sample collected in 2006-2007"	2018/4/6	2018/4/6
PRA000064	SAA003282	ST003	9606			CP2015_142	"Homo sapiens"	Human	2006							Asia	Korea	"Seoul or Busan or Yeosu"	34.409941	37.699269	126.766254	129.306678		Urine																																							"Sample collected in 2006-2007"	2018/4/6	2018/4/6
PRA000064	SAA003283	ST003	9606			CP2015_143	"Homo sapiens"	Human	2006							Asia	Korea	"Seoul or Busan or Yeosu"	34.409941	37.699269	126.766254	129.306678		Urine																																							"Sample collected in 2006-2007"	2018/4/6	2018/4/6
PRA000064	SAA003284	ST003	9606			CP2015_144	"Homo sapiens"	Human	2006							Asia	Korea	"Seoul or Busan or Yeosu"	34.409941	37.699269	126.766254	129.306678	Male	Urine									"30 y.o."																														"Sample collected in 2006-2007"	2018/4/6	2018/4/6
PRA000064	SAA003285	ST003	9606			CP2015_145	"Homo sapiens"	Human	2006							Asia	Korea	"Seoul or Busan or Yeosu"	34.409941	37.699269	126.766254	129.306678		Urine																																							"Sample collected in 2006-2007"	2018/4/6	2018/4/6
PRA000064	SAA003286	ST003	9606			CP2015_146	"Homo sapiens"	Human	2006							Asia	Korea	"Seoul or Busan or Yeosu"	34.409941	37.699269	126.766254	129.306678		Urine																																							"Sample collected in 2006-2007"	2018/4/6	2018/4/6
PRA000064	SAA003287	ST003	9606			CP2015_147	"Homo sapiens"	Human	2006							Asia	Korea	"Seoul or Busan or Yeosu"	34.409941	37.699269	126.766254	129.306678		Urine																																							"Sample collected in 2006-2007"	2018/4/6	2018/4/6
PRA000064	SAA003288	ST003	9606			CP2015_148	"Homo sapiens"	Human	2006							Asia	Korea	"Seoul or Busan or Yeosu"	34.409941	37.699269	126.766254	129.306678		Urine																																							"Sample collected in 2006-2007"	2018/4/6	2018/4/6
PRA000064	SAA003289	ST003	9606			CP2015_149	"Homo sapiens"	Human	2006							Asia	Korea	"Seoul or Busan or Yeosu"	34.409941	37.699269	126.766254	129.306678		Urine																																							"Sample collected in 2006-2007"	2018/4/6	2018/4/6
PRA000064	SAA003290	ST003	9606			CP2015_150	"Homo sapiens"	Human	2006							Asia	Korea	"Seoul or Busan or Yeosu"	34.409941	37.699269	126.766254	129.306678		Urine																																							"Sample collected in 2006-2007"	2018/4/6	2018/4/6
PRA000064	SAA003291	ST003	9606			CP2015_151	"Homo sapiens"	Human	2010							Asia	Kuwait	"Al-Asimah or Al-Jahra"	29.282801	29.39249	47.632837	48.028438	Male	Urine									"73 y.o."																														"Sample collected in 2010-2012"	2018/4/6	2018/4/6
PRA000064	SAA003292	ST003	9606			CP2015_152	"Homo sapiens"	Human	2010							Asia	Kuwait	"Al-Asimah or Al-Jahra"	29.282801	29.39249	47.632837	48.028438	Female	Urine									"54 y.o."																														"Sample collected in 2010-2012"	2018/4/6	2018/4/6
PRA000064	SAA003293	ST003	9606			CP2015_153	"Homo sapiens"	Human	2010							Asia	Kuwait	"Al-Asimah or Al-Jahra"	29.282801	29.39249	47.632837	48.028438	Male	Urine									"73 y.o."																														"Sample collected in 2010-2012"	2018/4/6	2018/4/6
PRA000064	SAA003294	ST003	9606			CP2015_154	"Homo sapiens"	Human	2010							Asia	Kuwait	"Al-Asimah or Al-Jahra"	29.282801	29.39249	47.632837	48.028438	Male	Urine									"14 y.o."																														"Sample collected in 2010-2012"	2018/4/6	2018/4/6
PRA000064	SAA003295	ST003	9606			CP2015_155	"Homo sapiens"	Human	2010							Asia	Kuwait	"Al-Asimah or Al-Jahra"	29.282801	29.39249	47.632837	48.028438	Male	Urine									"17 y.o."																														"Sample collected in 2010-2012"	2018/4/6	2018/4/6
PRA000064	SAA003296	ST003	9606			CP2015_156	"Homo sapiens"	Human	2010							Asia	Kuwait	"Al-Asimah or Al-Jahra"	29.282801	29.39249	47.632837	48.028438	Male	Urine									"58 y.o."																														"Sample collected in 2010-2012"	2018/4/6	2018/4/6
PRA000064	SAA003297	ST003	9606			CP2015_157	"Homo sapiens"	Human	2010							Asia	Kuwait	"Al-Asimah or Al-Jahra"	29.282801	29.39249	47.632837	48.028438	Female	Urine									"20 y.o."																														"Sample collected in 2010-2012"	2018/4/6	2018/4/6
PRA000064	SAA003298	ST003	9606			CP2015_158	"Homo sapiens"	Human	2010							Asia	Kuwait	"Al-Asimah or Al-Jahra"	29.282801	29.39249	47.632837	48.028438	Male	Urine									"41 y.o."																														"Sample collected in 2010-2012"	2018/4/6	2018/4/6
PRA000064	SAA003299	ST003	9606			CP2015_159	"Homo sapiens"	Human	2010							Asia	Kuwait	"Al-Asimah or Al-Jahra"	29.282801	29.39249	47.632837	48.028438	Male	Urine									"13 y.o."																														"Sample collected in 2010-2012"	2018/4/6	2018/4/6
PRA000064	SAA003300	ST003	9606			CP2015_160	"Homo sapiens"	Human	2010							Asia	Kuwait	"Al-Asimah or Al-Jahra"	29.282801	29.39249	47.632837	48.028438	Male	Urine									"6 y.o."																														"Sample collected in 2010-2012"	2018/4/6	2018/4/6
PRA000064	SAA003301	ST003	9606			CP2015_161	"Homo sapiens"	Human	2010							Asia	Kuwait	"Al-Asimah or Al-Jahra"	29.282801	29.39249	47.632837	48.028438	Male	Urine									"27 y.o."																														"Sample collected in 2010-2012"	2018/4/6	2018/4/6
PRA000064	SAA003302	ST003	9606			CP2015_162	"Homo sapiens"	Human	2010							Asia	Kuwait	"Al-Asimah or Al-Jahra"	29.282801	29.39249	47.632837	48.028438	Male	Urine									"42 y.o."																														"Sample collected in 2010-2012"	2018/4/6	2018/4/6
PRA000064	SAA003303	ST003	9606			CP2015_163	"Homo sapiens"	Human	2010							Asia	Kuwait	"Al-Asimah or Al-Jahra"	29.282801	29.39249	47.632837	48.028438	Female	Urine									"45 y.o."																														"Sample collected in 2010-2012"	2018/4/6	2018/4/6
PRA000064	SAA003304	ST003	9606			CP2015_164	"Homo sapiens"	Human	2010							Asia	Kuwait	"Al-Asimah or Al-Jahra"	29.282801	29.39249	47.632837	48.028438	Female	Urine									"15 y.o."																														"Sample collected in 2010-2012"	2018/4/6	2018/4/6
PRA000064	SAA003305	ST003	9606			CP2015_165	"Homo sapiens"	Human	2010							Asia	Kuwait	"Al-Asimah or Al-Jahra"	29.282801	29.39249	47.632837	48.028438	Female	Urine									"25 y.o."																														"Sample collected in 2010-2012"	2018/4/6	2018/4/6
PRA000064	SAA003306	ST003	9606			CP2015_166	"Homo sapiens"	Human	2010							Asia	Kuwait	"Al-Asimah or Al-Jahra"	29.282801	29.39249	47.632837	48.028438	Male	Urine									"50 y.o."																														"Sample collected in 2010-2012"	2018/4/6	2018/4/6
PRA000064	SAA003307	ST003	9606			CP2015_167	"Homo sapiens"	Human	2010							Asia	Kuwait	"Al-Asimah or Al-Jahra"	29.282801	29.39249	47.632837	48.028438	Male	Urine									"54 y.o."																														"Sample collected in 2010-2012"	2018/4/6	2018/4/6
PRA000064	SAA003308	ST003	9606			CP2015_168	"Homo sapiens"	Human	2010							Asia	Kuwait	"Al-Asimah or Al-Jahra"	29.282801	29.39249	47.632837	48.028438	Male	Urine									"10 y.o."																														"Sample collected in 2010-2012"	2018/4/6	2018/4/6
PRA000064	SAA003309	ST003	9606			CP2015_169	"Homo sapiens"	Human	2010							Asia	Kuwait	"Al-Asimah or Al-Jahra"	29.282801	29.39249	47.632837	48.028438	Male	Urine									"53 y.o."																														"Sample collected in 2010-2012"	2018/4/6	2018/4/6
PRA000064	SAA003310	ST003	9606			CP2015_170	"Homo sapiens"	Human	2010							Asia	Kuwait	"Al-Asimah or Al-Jahra"	29.282801	29.39249	47.632837	48.028438	Male	Urine									"68 y.o."																														"Sample collected in 2010-2012"	2018/4/6	2018/4/6
PRA000064	SAA003311	ST003	9606			CP2015_171	"Homo sapiens"	Human	2010							Asia	Kuwait	"Al-Asimah or Al-Jahra"	29.282801	29.39249	47.632837	48.028438	Male	Urine									"10 y.o."																														"Sample collected in 2010-2012"	2018/4/6	2018/4/6
PRA000064	SAA003312	ST003	9606			CP2015_172	"Homo sapiens"	Human	2010							Asia	Kuwait	"Al-Asimah or Al-Jahra"	29.282801	29.39249	47.632837	48.028438	Male	Urine									"16 y.o."																														"Sample collected in 2010-2012"	2018/4/6	2018/4/6
PRA000064	SAA003313	ST003	9606			CP2015_173	"Homo sapiens"	Human	2010							Asia	Kuwait	"Al-Asimah or Al-Jahra"	29.282801	29.39249	47.632837	48.028438	Female	Urine									"23 y.o."																														"Sample collected in 2010-2012"	2018/4/6	2018/4/6
PRA000064	SAA003314	ST003	9606			CP2015_174	"Homo sapiens"	Human	2010							Asia	Kuwait	"Al-Asimah or Al-Jahra"	29.282801	29.39249	47.632837	48.028438	Male	Urine									"40 y.o."																														"Sample collected in 2010-2012"	2018/4/6	2018/4/6
PRA000064	SAA003315	ST003	9606			CP2015_175	"Homo sapiens"	Human	2010							Asia	Kuwait	"Al-Asimah or Al-Jahra"	29.282801	29.39249	47.632837	48.028438	Male	Urine									"49 y.o."																														"Sample collected in 2010-2012"	2018/4/6	2018/4/6
PRA000064	SAA003316	ST003	9606			CP2015_176	"Homo sapiens"	Human	2010							Asia	Kuwait	"Al-Asimah or Al-Jahra"	29.282801	29.39249	47.632837	48.028438	Male	Urine									"20 y.o."																														"Sample collected in 2010-2012"	2018/4/6	2018/4/6
PRA000064	SAA003317	ST003	9606			CP2015_177	"Homo sapiens"	Human	2010							Asia	Kuwait	"Al-Asimah or Al-Jahra"	29.282801	29.39249	47.632837	48.028438	Female	Urine									"10 y.o."																														"Sample collected in 2010-2012"	2018/4/6	2018/4/6
PRA000064	SAA003318	ST003	9606			CP2015_178	"Homo sapiens"	Human	2010							Asia	Kuwait	"Al-Asimah or Al-Jahra"	29.282801	29.39249	47.632837	48.028438	Male	Urine									"30 y.o."																														"Sample collected in 2010-2012"	2018/4/6	2018/4/6
PRA000064	SAA003319	ST003	9606			CP2015_179	"Homo sapiens"	Human	2010							Asia	Kuwait	"Al-Asimah or Al-Jahra"	29.282801	29.39249	47.632837	48.028438	Male	Urine									"11 y.o."																														"Sample collected in 2010-2012"	2018/4/6	2018/4/6
PRA000064	SAA003320	ST003	9606			CP2015_180	"Homo sapiens"	Human	2010							Asia	Kuwait	"Al-Asimah or Al-Jahra"	29.282801	29.39249	47.632837	48.028438	Male	Urine									"8 y.o."																														"Sample collected in 2010-2012"	2018/4/6	2018/4/6
PRA000064	SAA003321	ST003	9606			CP2015_181	"Homo sapiens"	Human	2010							Asia	Kuwait	"Al-Asimah or Al-Jahra"	29.282801	29.39249	47.632837	48.028438	Male	Urine									"10 y.o."																														"Sample collected in 2010-2012"	2018/4/6	2018/4/6
PRA000064	SAA003322	ST003	9606			CP2015_182	"Homo sapiens"	Human	2010							Asia	Kuwait	"Al-Asimah or Al-Jahra"	29.282801	29.39249	47.632837	48.028438	Female	Urine									"51 y.o."																														"Sample collected in 2010-2012"	2018/4/6	2018/4/6
PRA000064	SAA003323	ST003	9606			CP2015_183	"Homo sapiens"	Human	2010							Asia	Kuwait	"Al-Asimah or Al-Jahra"	29.282801	29.39249	47.632837	48.028438	Male	Urine									"9 y.o."																														"Sample collected in 2010-2012"	2018/4/6	2018/4/6
PRA000064	SAA003324	ST003	9606			CP2015_184	"Homo sapiens"	Human	2010							Asia	Kuwait	"Al-Asimah or Al-Jahra"	29.282801	29.39249	47.632837	48.028438	Male	Urine									"8 y.o."																														"Sample collected in 2010-2012"	2018/4/6	2018/4/6
PRA000064	SAA003325	ST003	9606			CP2015_185	"Homo sapiens"	Human	2010							Asia	Kuwait	"Al-Asimah or Al-Jahra"	29.282801	29.39249	47.632837	48.028438	Male	Urine									"63 y.o."																														"Sample collected in 2010-2012"	2018/4/6	2018/4/6
PRA000064	SAA003326	ST003	9606			CP2015_186	"Homo sapiens"	Human	2010							Asia	Kuwait	"Al-Asimah or Al-Jahra"	29.282801	29.39249	47.632837	48.028438	Female	Urine									"11 y.o."																														"Sample collected in 2010-2012"	2018/4/6	2018/4/6
PRA000064	SAA003327	ST003	9606			CP2015_187	"Homo sapiens"	Human	2010							Asia	Kuwait	"Al-Asimah or Al-Jahra"	29.282801	29.39249	47.632837	48.028438	Female	Urine									"43 y.o."																														"Sample collected in 2010-2012"	2018/4/6	2018/4/6
PRA000064	SAA003328	ST003	9606			CP2015_188	"Homo sapiens"	Human	2010							Asia	Kuwait	"Al-Asimah or Al-Jahra"	29.282801	29.39249	47.632837	48.028438	Female	Urine									"8 y.o."																														"Sample collected in 2010-2012"	2018/4/6	2018/4/6
PRA000064	SAA003329	ST003	9606			CP2015_189	"Homo sapiens"	Human	2010							Asia	Kuwait	"Al-Asimah or Al-Jahra"	29.282801	29.39249	47.632837	48.028438	Female	Urine									"24 y.o."																														"Sample collected in 2010-2012"	2018/4/6	2018/4/6
PRA000064	SAA003330	ST003	9606			CP2015_190	"Homo sapiens"	Human	2010							Asia	Kuwait	"Al-Asimah or Al-Jahra"	29.282801	29.39249	47.632837	48.028438	Female	Urine									"22 y.o."																														"Sample collected in 2010-2012"	2018/4/6	2018/4/6
PRA000064	SAA003331	ST003	9606			CP2015_191	"Homo sapiens"	Human	2012							Asia	"Saudi Arabia"	Jeddah	21.54238056		39.19796944		Male	Urine									"69 y.o."																														"Sample collected in 2012-2014"	2018/4/6	2018/4/6
PRA000064	SAA003332	ST003	9606			CP2015_192	"Homo sapiens"	Human	2012							Asia	"Saudi Arabia"	Jeddah	21.54238056		39.19796944			Urine																																							"Sample collected in 2012-2014"	2018/4/6	2018/4/6
PRA000064	SAA003333	ST003	9606			CP2015_193	"Homo sapiens"	Human	2012							Asia	"Saudi Arabia"	Jeddah	21.54238056		39.19796944		Female	Urine									"30 y.o."																														"Sample collected in 2012-2014"	2018/4/6	2018/4/6
PRA000064	SAA003334	ST003	9606			CP2015_194	"Homo sapiens"	Human	2012							Asia	"Saudi Arabia"	Jeddah	21.54238056		39.19796944		Female	Urine									"21 y.o."																														"Sample collected in 2012-2014"	2018/4/6	2018/4/6
PRA000064	SAA003335	ST003	9606			CP2015_195	"Homo sapiens"	Human	2012							Asia	"Saudi Arabia"	Jeddah	21.54238056		39.19796944		Male	Urine									"35 y.o."																														"Sample collected in 2012-2014"	2018/4/6	2018/4/6
PRA000064	SAA003336	ST003	9606			CP2015_196	"Homo sapiens"	Human	2012							Asia	"Saudi Arabia"	Jeddah	21.54238056		39.19796944		Female	Urine									"63 y.o."																														"Sample collected in 2012-2014"	2018/4/6	2018/4/6
PRA000064	SAA003337	ST003	9606			CP2015_197	"Homo sapiens"	Human	2012							Asia	"Saudi Arabia"	Jeddah	21.54238056		39.19796944			Urine																																							"Sample collected in 2012-2014"	2018/4/6	2018/4/6
PRA000064	SAA003338	ST003	9606			CP2015_198	"Homo sapiens"	Human	2012							Asia	"Saudi Arabia"	Jeddah	21.54238056		39.19796944		Male	Urine									"59 y.o."																														"Sample collected in 2012-2014"	2018/4/6	2018/4/6
PRA000064	SAA003339	ST003	9606			CP2015_199	"Homo sapiens"	Human	2012							Asia	"Saudi Arabia"	Jeddah	21.54238056		39.19796944		Male	Urine									"37 y.o."																														"Sample collected in 2012-2014"	2018/4/6	2018/4/6
PRA000064	SAA003340	ST003	9606			CP2015_200	"Homo sapiens"	Human	2012							Asia	"Saudi Arabia"	Jeddah	21.54238056		39.19796944			Urine																																							"Sample collected in 2012-2014"	2018/4/6	2018/4/6
PRA000064	SAA003341	ST003	9606			CP2015_201	"Homo sapiens"	Human	2012							Asia	"Saudi Arabia"	Jeddah	21.54238056		39.19796944		Female	Urine									"3 y.o."																														"Sample collected in 2012-2014"	2018/4/6	2018/4/6
PRA000064	SAA003342	ST003	9606			CP2015_202	"Homo sapiens"	Human	2012							Asia	"Saudi Arabia"	Jeddah	21.54238056		39.19796944		Female	Urine									"15 y.o."																														"Sample collected in 2012-2014"	2018/4/6	2018/4/6
PRA000064	SAA003343	ST003	9606			CP2015_203	"Homo sapiens"	Human	2012							Asia	"Saudi Arabia"	Jeddah	21.54238056		39.19796944			Urine																																							"Sample collected in 2012-2014"	2018/4/6	2018/4/6
PRA000064	SAA003344	ST003	9606			CP2015_204	"Homo sapiens"	Human	2012							Asia	"Saudi Arabia"	Jeddah	21.54238056		39.19796944			Urine																																							"Sample collected in 2012-2014"	2018/4/6	2018/4/6
PRA000064	SAA003345	ST003	9606			CP2015_205	"Homo sapiens"	Human	2012							Asia	"Saudi Arabia"	Jeddah	21.54238056		39.19796944		Female	Urine									"22 y.o."																														"Sample collected in 2012-2014"	2018/4/6	2018/4/6
PRA000064	SAA003346	ST003	9606			CP2015_206	"Homo sapiens"	Human	2012							Asia	"Saudi Arabia"	Jeddah	21.54238056		39.19796944		Female	Urine									"87 y.o."																														"Sample collected in 2012-2014"	2018/4/6	2018/4/6
PRA000064	SAA003347	ST003	9606			CP2015_207	"Homo sapiens"	Human	2012							Asia	"Saudi Arabia"	Jeddah	21.54238056		39.19796944			Urine																																							"Sample collected in 2012-2014"	2018/4/6	2018/4/6
PRA000064	SAA003348	ST003	9606			CP2015_208	"Homo sapiens"	Human	2012							Asia	"Saudi Arabia"	Jeddah	21.54238056		39.19796944		Female	Urine									"25 y.o."																														"Sample collected in 2012-2014"	2018/4/6	2018/4/6
PRA000064	SAA003349	ST003	9606			CP2015_209	"Homo sapiens"	Human	2012							Asia	"Saudi Arabia"	Jeddah	21.54238056		39.19796944			Urine																																							"Sample collected in 2012-2014"	2018/4/6	2018/4/6
PRA000064	SAA003350	ST003	9606			CP2015_210	"Homo sapiens"	Human	2012							Asia	"Saudi Arabia"	Jeddah	21.54238056		39.19796944		Male	Urine									"65 y.o."																														"Sample collected in 2012-2014"	2018/4/6	2018/4/6
PRA000064	SAA003351	ST003	9606			CP2015_211	"Homo sapiens"	Human	2012							Asia	"Saudi Arabia"	Jeddah	21.54238056		39.19796944		Male	Urine									"4 y.o."																														"Sample collected in 2012-2014"	2018/4/6	2018/4/6
PRA000064	SAA003352	ST003	9606			CP2015_212	"Homo sapiens"	Human	2012							Asia	"Saudi Arabia"	Jeddah	21.54238056		39.19796944			Urine																																							"Sample collected in 2012-2014"	2018/4/6	2018/4/6
PRA000064	SAA003353	ST003	9606			CP2015_213	"Homo sapiens"	Human	2012							Asia	"Saudi Arabia"	Jeddah	21.54238056		39.19796944		Female	Urine									"35 y.o."																														"Sample collected in 2012-2014"	2018/4/6	2018/4/6
PRA000064	SAA003354	ST003	9606			CP2015_214	"Homo sapiens"	Human	2012							Asia	"Saudi Arabia"	Jeddah	21.54238056		39.19796944			Urine																																							"Sample collected in 2012-2014"	2018/4/6	2018/4/6
PRA000064	SAA003355	ST003	9606			CP2015_215	"Homo sapiens"	Human	2012							Asia	"Saudi Arabia"	Jeddah	21.54238056		39.19796944			Urine																																							"Sample collected in 2012-2014"	2018/4/6	2018/4/6
PRA000064	SAA003356	ST003	9606			CP2015_216	"Homo sapiens"	Human	2012							Asia	"Saudi Arabia"	Jeddah	21.54238056		39.19796944			Urine																																							"Sample collected in 2012-2014"	2018/4/6	2018/4/6
PRA000064	SAA003357	ST003	9606			CP2015_217	"Homo sapiens"	Human	2012							Asia	"Saudi Arabia"	Jeddah	21.54238056		39.19796944			Urine																																							"Sample collected in 2012-2014"	2018/4/6	2018/4/6
PRA000064	SAA003358	ST003	9606			CP2015_218	"Homo sapiens"	Human	2012							Asia	"Saudi Arabia"	Jeddah	21.54238056		39.19796944			Urine																																							"Sample collected in 2012-2014"	2018/4/6	2018/4/6
PRA000064	SAA003359	ST003	9606			CP2015_219	"Homo sapiens"	Human	2012							Asia	"Saudi Arabia"	Jeddah	21.54238056		39.19796944			Urine																																							"Sample collected in 2012-2014"	2018/4/6	2018/4/6
PRA000064	SAA003360	ST003	9606			CP2015_220	"Homo sapiens"	Human	2012							Asia	"Saudi Arabia"	Jeddah	21.54238056		39.19796944		Female	Urine									"23 y.o."																														"Sample collected in 2012-2014"	2018/4/6	2018/4/6
PRA000064	SAA003361	ST003	9606			CP2015_221	"Homo sapiens"	Human	2010							Asia	Vietnam	Hanoi	21.028511		105.804817		Female	Urine									"79 y.o."																														"Sample collected in 2010-2012"	2018/4/6	2018/4/6
PRA000064	SAA003362	ST003	9606			CP2015_222	"Homo sapiens"	Human	2010							Asia	Vietnam	Hanoi	21.028511		105.804817		Male	Urine									"52 y.o."																														"Sample collected in 2010-2012"	2018/4/6	2018/4/6
PRA000064	SAA003363	ST003	9606			CP2015_223	"Homo sapiens"	Human	2010							Asia	Vietnam	Hanoi	21.028511		105.804817		Male	Urine									"51 y.o."																														"Sample collected in 2010-2012"	2018/4/6	2018/4/6
PRA000064	SAA003364	ST003	9606			CP2015_224	"Homo sapiens"	Human	2010							Asia	Vietnam	Hanoi	21.028511		105.804817		Female	Urine									"56 y.o."																														"Sample collected in 2010-2012"	2018/4/6	2018/4/6
PRA000064	SAA003365	ST003	9606			CP2015_225	"Homo sapiens"	Human	2010							Asia	Vietnam	Hanoi	21.028511		105.804817		Male	Urine									"29 y.o."																														"Sample collected in 2010-2012"	2018/4/6	2018/4/6
PRA000064	SAA003366	ST003	9606			CP2015_226	"Homo sapiens"	Human	2010							Asia	Vietnam	Hanoi	21.028511		105.804817		Female	Urine									"54 y.o."																														"Sample collected in 2010-2012"	2018/4/6	2018/4/6
PRA000064	SAA003367	ST003	9606			CP2015_227	"Homo sapiens"	Human	2010							Asia	Vietnam	Hanoi	21.028511		105.804817		Male	Urine									"61 y.o."																														"Sample collected in 2010-2012"	2018/4/6	2018/4/6
PRA000064	SAA003368	ST003	9606			CP2015_228	"Homo sapiens"	Human	2010							Asia	Vietnam	Hanoi	21.028511		105.804817		Male	Urine									"19 y.o."																														"Sample collected in 2010-2012"	2018/4/6	2018/4/6
PRA000064	SAA003369	ST003	9606			CP2015_229	"Homo sapiens"	Human	2010							Asia	Vietnam	Hanoi	21.028511		105.804817		Female	Urine									"80 y.o."																														"Sample collected in 2010-2012"	2018/4/6	2018/4/6
PRA000064	SAA003370	ST003	9606			CP2015_230	"Homo sapiens"	Human	2010							Asia	Vietnam	Hanoi	21.028511		105.804817		Female	Urine									"47 y.o."																														"Sample collected in 2010-2012"	2018/4/6	2018/4/6
PRA000064	SAA003371	ST003	9606			CP2015_231	"Homo sapiens"	Human	2010							Asia	Vietnam	Hanoi	21.028511		105.804817		Female	Urine									"68 y.o."																														"Sample collected in 2010-2012"	2018/4/6	2018/4/6
PRA000064	SAA003372	ST003	9606			CP2015_232	"Homo sapiens"	Human	2010							Asia	Vietnam	Hanoi	21.028511		105.804817		Male	Urine									"35 y.o."																														"Sample collected in 2010-2012"	2018/4/6	2018/4/6
PRA000064	SAA003373	ST003	9606			CP2015_233	"Homo sapiens"	Human	2010							Asia	Vietnam	Hanoi	21.028511		105.804817		Female	Urine									"77 y.o."																														"Sample collected in 2010-2012"	2018/4/6	2018/4/6
PRA000064	SAA003374	ST003	9606			CP2015_234	"Homo sapiens"	Human	2010							Asia	Vietnam	Hanoi	21.028511		105.804817		Female	Urine									"83 y.o."																														"Sample collected in 2010-2012"	2018/4/6	2018/4/6
PRA000064	SAA003375	ST003	9606			CP2015_235	"Homo sapiens"	Human	2010							Asia	Vietnam	Hanoi	21.028511		105.804817		Male	Urine									"27 y.o."																														"Sample collected in 2010-2012"	2018/4/6	2018/4/6
PRA000064	SAA003376	ST003	9606			CP2015_236	"Homo sapiens"	Human	2010							Asia	Vietnam	Hanoi	21.028511		105.804817		Female	Urine									"62 y.o."																														"Sample collected in 2010-2012"	2018/4/6	2018/4/6
PRA000064	SAA003377	ST003	9606			CP2015_237	"Homo sapiens"	Human	2010							Asia	Vietnam	Hanoi	21.028511		105.804817		Female	Urine									"39 y.o."																														"Sample collected in 2010-2012"	2018/4/6	2018/4/6
PRA000064	SAA003378	ST003	9606			CP2015_238	"Homo sapiens"	Human	2010							Asia	Vietnam	Hanoi	21.028511		105.804817		Male	Urine									"58 y.o."																														"Sample collected in 2010-2012"	2018/4/6	2018/4/6
PRA000064	SAA003379	ST003	9606			CP2015_239	"Homo sapiens"	Human	2010							Asia	Vietnam	Hanoi	21.028511		105.804817		Male	Urine									"30 y.o."																														"Sample collected in 2010-2012"	2018/4/6	2018/4/6
PRA000064	SAA003380	ST003	9606			CP2015_240	"Homo sapiens"	Human	2012							Europe	Greece	Athens	37.98381		23.727539		Male	Urine									"23 y.o."																														"Sample collected in 2012-2014"	2018/4/6	2018/4/6
PRA000064	SAA003381	ST003	9606			CP2015_241	"Homo sapiens"	Human	2012							Europe	Greece	Athens	37.98381		23.727539		Male	Urine									"57 y.o."																														"Sample collected in 2012-2014"	2018/4/6	2018/4/6
PRA000064	SAA003382	ST003	9606			CP2015_242	"Homo sapiens"	Human	2012							Europe	Greece	Athens	37.98381		23.727539		Male	Urine									"25 y.o."																														"Sample collected in 2012-2014"	2018/4/6	2018/4/6
PRA000064	SAA003383	ST003	9606			CP2015_243	"Homo sapiens"	Human	2012							Europe	Greece	Athens	37.98381		23.727539		Male	Urine									"29 y.o."																														"Sample collected in 2012-2014"	2018/4/6	2018/4/6
PRA000064	SAA003384	ST003	9606			CP2015_244	"Homo sapiens"	Human	2012							Europe	Greece	Athens	37.98381		23.727539		Male	Urine									"64 y.o."																														"Sample collected in 2012-2014"	2018/4/6	2018/4/6
PRA000064	SAA003385	ST003	9606			CP2015_245	"Homo sapiens"	Human	2012							Europe	Greece	Athens	37.98381		23.727539		Male	Urine									"30 y.o."																														"Sample collected in 2012-2014"	2018/4/6	2018/4/6
PRA000064	SAA003386	ST003	9606			CP2015_246	"Homo sapiens"	Human	2012							Europe	Greece	Athens	37.98381		23.727539		Male	Urine									"28 y.o."																														"Sample collected in 2012-2014"	2018/4/6	2018/4/6
PRA000064	SAA003387	ST003	9606			CP2015_247	"Homo sapiens"	Human	2012							Europe	Greece	Athens	37.98381		23.727539		Male	Urine									"75 y.o."																														"Sample collected in 2012-2014"	2018/4/6	2018/4/6
PRA000064	SAA003388	ST003	9606			CP2015_248	"Homo sapiens"	Human	2012							Europe	Greece	Athens	37.98381		23.727539		Male	Urine									"30 y.o."																														"Sample collected in 2012-2014"	2018/4/6	2018/4/6
PRA000064	SAA003389	ST003	9606			CP2015_249	"Homo sapiens"	Human	2012							Europe	Greece	Athens	37.98381		23.727539		Male	Urine									"58 y.o."																														"Sample collected in 2012-2014"	2018/4/6	2018/4/6
PRA000064	SAA003390	ST003	9606			CP2015_250	"Homo sapiens"	Human	2012							Europe	Greece	Athens	37.98381		23.727539		Male	Urine									"25 y.o."																														"Sample collected in 2012-2014"	2018/4/6	2018/4/6
PRA000064	SAA003391	ST003	9606			CP2015_251	"Homo sapiens"	Human	2012							Europe	Greece	Athens	37.98381		23.727539		Male	Urine									"31 y.o."																														"Sample collected in 2012-2014"	2018/4/6	2018/4/6
PRA000064	SAA003392	ST003	9606			CP2015_252	"Homo sapiens"	Human	2012							Europe	Greece	Athens	37.98381		23.727539		Male	Urine									"28 y.o."																														"Sample collected in 2012-2014"	2018/4/6	2018/4/6
PRA000064	SAA003393	ST003	9606			CP2015_253	"Homo sapiens"	Human	2012							Europe	Greece	Athens	37.98381		23.727539		Male	Urine									"32 y.o."																														"Sample collected in 2012-2014"	2018/4/6	2018/4/6
PRA000064	SAA003394	ST003	9606			CP2015_254	"Homo sapiens"	Human	2012							Europe	Greece	Athens	37.98381		23.727539		Male	Urine									"56 y.o."																														"Sample collected in 2012-2014"	2018/4/6	2018/4/6
PRA000064	SAA003395	ST003	9606			CP2015_255	"Homo sapiens"	Human	2012							Europe	Greece	Athens	37.98381		23.727539		Female	Urine									"26 y.o."																														"Sample collected in 2012-2014"	2018/4/6	2018/4/6
PRA000064	SAA003396	ST003	9606			CP2015_256	"Homo sapiens"	Human	2012							Europe	Greece	Athens	37.98381		23.727539		Female	Urine									"25 y.o."																														"Sample collected in 2012-2014"	2018/4/6	2018/4/6
PRA000064	SAA003397	ST003	9606			CP2015_257	"Homo sapiens"	Human	2012							Europe	Greece	Athens	37.98381		23.727539		Female	Urine									"57 y.o."																														"Sample collected in 2012-2014"	2018/4/6	2018/4/6
PRA000064	SAA003398	ST003	9606			CP2015_258	"Homo sapiens"	Human	2012							Europe	Greece	Athens	37.98381		23.727539		Female	Urine																																							"Sample collected in 2012-2014"	2018/4/6	2018/4/6
PRA000064	SAA003399	ST003	9606			CP2015_259	"Homo sapiens"	Human	2012							Europe	Greece	Athens	37.98381		23.727539		Female	Urine									"31 y.o."																														"Sample collected in 2012-2014"	2018/4/6	2018/4/6
PRA000064	SAA003400	ST003	9606			CP2015_260	"Homo sapiens"	Human	2012							Europe	Greece	Athens	37.98381		23.727539		Female	Urine									"52 y.o."																														"Sample collected in 2012-2014"	2018/4/6	2018/4/6
PRA000064	SAA003401	ST003	9606			CP2015_261	"Homo sapiens"	Human	2012							Europe	Greece	Athens	37.98381		23.727539		Female	Urine									"52 y.o."																														"Sample collected in 2012-2014"	2018/4/6	2018/4/6
PRA000064	SAA003402	ST003	9606			CP2015_262	"Homo sapiens"	Human	2012							Europe	Greece	Athens	37.98381		23.727539		Female	Urine									"25 y.o."																														"Sample collected in 2012-2014"	2018/4/6	2018/4/6
PRA000064	SAA003403	ST003	9606			CP2015_263	"Homo sapiens"	Human	2012							Europe	Greece	Athens	37.98381		23.727539		Female	Urine																																							"Sample collected in 2012-2014"	2018/4/6	2018/4/6
PRA000064	SAA003404	ST003	9606			CP2015_264	"Homo sapiens"	Human	2012							Europe	Greece	Athens	37.98381		23.727539		Female	Urine																																							"Sample collected in 2012-2014"	2018/4/6	2018/4/6
PRA000064	SAA003405	ST003	9606			CP2015_265	"Homo sapiens"	Human	2012							Europe	Greece	Athens	37.98381		23.727539		Female	Urine									"22 y.o."																														"Sample collected in 2012-2014"	2018/4/6	2018/4/6
PRA000064	SAA003406	ST003	9606			CP2015_266	"Homo sapiens"	Human	2012							Europe	Greece	Athens	37.98381		23.727539		Female	Urine									"52 y.o."																														"Sample collected in 2012-2014"	2018/4/6	2018/4/6
PRA000064	SAA003407	ST003	9606			CP2015_267	"Homo sapiens"	Human	2012							Europe	Greece	Athens	37.98381		23.727539		Female	Urine									"50 y.o."																														"Sample collected in 2012-2014"	2018/4/6	2018/4/6
PRA000064	SAA003408	ST003	9606			CP2015_268	"Homo sapiens"	Human	2012							Europe	Greece	Athens	37.98381		23.727539		Female	Urine									"25 y.o."																														"Sample collected in 2012-2014"	2018/4/6	2018/4/6
PRA000064	SAA003409	ST003	9606			CP2015_269	"Homo sapiens"	Human	2012							Europe	Greece	Athens	37.98381		23.727539		Female	Urine									"49 y.o."																														"Sample collected in 2012-2014"	2018/4/6	2018/4/6
PRA000064	SAA003410	ST003	9606			CP2015_270	"Homo sapiens"	Human	2010							"North America"	America	Albany	42.65258		-73.756233		Female	Urine									"50 y.o."																														"Sample collected in 2010-2012"	2018/4/6	2018/4/6
PRA000064	SAA003411	ST003	9606			CP2015_271	"Homo sapiens"	Human	2010							"North America"	America	Albany	42.65258		-73.756233		Female	Urine									"50 y.o."																														"Sample collected in 2010-2012"	2018/4/6	2018/4/6
PRA000064	SAA003412	ST003	9606			CP2015_272	"Homo sapiens"	Human	2010							"North America"	America	Albany	42.65258		-73.756233		Male	Urine									"50 y.o."																														"Sample collected in 2010-2012"	2018/4/6	2018/4/6
PRA000064	SAA003413	ST003	9606			CP2015_273	"Homo sapiens"	Human	2010							"North America"	America	Albany	42.65258		-73.756233		Male	Urine									"58 y.o."																														"Sample collected in 2010-2012"	2018/4/6	2018/4/6
PRA000064	SAA003414	ST003	9606			CP2015_274	"Homo sapiens"	Human	2010							"North America"	America	Albany	42.65258		-73.756233		Male	Urine									"60 y.o."																														"Sample collected in 2010-2012"	2018/4/6	2018/4/6
PRA000064	SAA003415	ST003	9606			CP2015_275	"Homo sapiens"	Human	2010							"North America"	America	Albany	42.65258		-73.756233		Male	Urine									"23 y.o."																														"Sample collected in 2010-2012"	2018/4/6	2018/4/6
PRA000064	SAA003416	ST003	9606			CP2015_276	"Homo sapiens"	Human	2010							"North America"	America	Albany	42.65258		-73.756233		Male	Urine									"49 y.o."																														"Sample collected in 2010-2012"	2018/4/6	2018/4/6
PRA000064	SAA003417	ST003	9606			CP2015_277	"Homo sapiens"	Human	2010							"North America"	America	Albany	42.65258		-73.756233		Male	Urine									"34 y.o."																														"Sample collected in 2010-2012"	2018/4/6	2018/4/6
PRA000064	SAA003418	ST003	9606			CP2015_278	"Homo sapiens"	Human	2010							"North America"	America	Albany	42.65258		-73.756233		Female	Urine									"32 y.o."																														"Sample collected in 2010-2012"	2018/4/6	2018/4/6
PRA000064	SAA003419	ST003	9606			CP2015_279	"Homo sapiens"	Human	2010							"North America"	America	Albany	42.65258		-73.756233		Male	Urine									"42 y.o."																														"Sample collected in 2010-2012"	2018/4/6	2018/4/6
PRA000064	SAA003420	ST003	9606			CP2015_280	"Homo sapiens"	Human	2010							"North America"	America	Albany	42.65258		-73.756233		Male	Urine									"37 y.o."																														"Sample collected in 2010-2012"	2018/4/6	2018/4/6
PRA000064	SAA003421	ST003	9606			CP2015_281	"Homo sapiens"	Human	2010							"North America"	America	Albany	42.65258		-73.756233		Male	Urine									"27 y.o."																														"Sample collected in 2010-2012"	2018/4/6	2018/4/6
PRA000064	SAA003422	ST003	9606			CP2015_282	"Homo sapiens"	Human	2010							"North America"	America	Albany	42.65258		-73.756233		Male	Urine									"31 y.o."																														"Sample collected in 2010-2012"	2018/4/6	2018/4/6
PRA000064	SAA003423	ST003	9606			CP2015_283	"Homo sapiens"	Human	2010							"North America"	America	Albany	42.65258		-73.756233		Male	Urine									"31 y.o."																														"Sample collected in 2010-2012"	2018/4/6	2018/4/6
PRA000064	SAA003424	ST003	9606			CP2015_284	"Homo sapiens"	Human	2010							"North America"	America	Albany	42.65258		-73.756233		Male	Urine									"33 y.o."																														"Sample collected in 2010-2012"	2018/4/6	2018/4/6
PRA000064	SAA003425	ST003	9606			CP2015_285	"Homo sapiens"	Human	2010							"North America"	America	Albany	42.65258		-73.756233		Male	Urine									"40 y.o."																														"Sample collected in 2010-2012"	2018/4/6	2018/4/6
PRA000064	SAA003426	ST003	9606			CP2015_286	"Homo sapiens"	Human	2010							"North America"	America	Albany	42.65258		-73.756233		Male	Urine									"45 y.o."																														"Sample collected in 2010-2012"	2018/4/6	2018/4/6
PRA000064	SAA003427	ST003	9606			CP2015_287	"Homo sapiens"	Human	2010							"North America"	America	Albany	42.65258		-73.756233		Female	Urine									"38 y.o."																														"Sample collected in 2010-2012"	2018/4/6	2018/4/6
PRA000064	SAA003428	ST003	9606			CP2015_288	"Homo sapiens"	Human	2010							"North America"	America	Albany	42.65258		-73.756233		Male	Urine									"15 y.o."																														"Sample collected in 2010-2012"	2018/4/6	2018/4/6
PRA000064	SAA003429	ST003	9606			CP2015_289	"Homo sapiens"	Human	2010							"North America"	America	Albany	42.65258		-73.756233		Male	Urine									"11 y.o."																														"Sample collected in 2010-2012"	2018/4/6	2018/4/6
PRA000064	SAA003430	ST003	9606			CP2015_290	"Homo sapiens"	Human	2010							"North America"	America	Albany	42.65258		-73.756233		Female	Urine									"26 y.o."																														"Sample collected in 2010-2012"	2018/4/6	2018/4/6
PRA000064	SAA003431	ST003	9606			CP2015_291	"Homo sapiens"	Human	2010							"North America"	America	Albany	42.65258		-73.756233		Male	Urine									"48 y.o."																														"Sample collected in 2010-2012"	2018/4/6	2018/4/6
PRA000064	SAA003432	ST003	9606			CP2015_292	"Homo sapiens"	Human	2010							"North America"	America	Albany	42.65258		-73.756233		Female	Urine									"29 y.o."																														"Sample collected in 2010-2012"	2018/4/6	2018/4/6
PRA000064	SAA003433	ST003	9606			CP2015_293	"Homo sapiens"	Human	2010							"North America"	America	Albany	42.65258		-73.756233		Female	Urine									"51 y.o."																														"Sample collected in 2010-2012"	2018/4/6	2018/4/6
PRA000064	SAA003434	ST003	9606			CP2015_294	"Homo sapiens"	Human	2010							"North America"	America	Albany	42.65258		-73.756233		Male	Urine									"50 y.o."																														"Sample collected in 2010-2012"	2018/4/6	2018/4/6
PRA000064	SAA003435	ST003	9606			CP2015_295	"Homo sapiens"	Human	2010							"North America"	America	Albany	42.65258		-73.756233		Female	Urine									"41 y.o."																														"Sample collected in 2010-2012"	2018/4/6	2018/4/6
PRA000064	SAA003436	ST003	9606			CP2015_296	"Homo sapiens"	Human	2010							"North America"	America	Albany	42.65258		-73.756233		Male	Urine									"41 y.o."																														"Sample collected in 2010-2012"	2018/4/6	2018/4/6
PRA000064	SAA003437	ST003	9606			CP2015_297	"Homo sapiens"	Human	2010							"North America"	America	Albany	42.65258		-73.756233		Male	Urine									"46 y.o."																														"Sample collected in 2010-2012"	2018/4/6	2018/4/6
PRA000064	SAA003438	ST003	9606			CP2015_298	"Homo sapiens"	Human	2010							"North America"	America	Albany	42.65258		-73.756233		Male	Urine									"66 y.o."																														"Sample collected in 2010-2012"	2018/4/6	2018/4/6
PRA000064	SAA003439	ST003	9606			CP2015_299	"Homo sapiens"	Human	2010							"North America"	America	Albany	42.65258		-73.756233		Female	Urine									"43 y.o."																														"Sample collected in 2010-2012"	2018/4/6	2018/4/6
PRA000064	SAA003440	ST003	9606			CP2015_300	"Homo sapiens"	Human	2010							"North America"	America	Albany	42.65258		-73.756233		Female	Urine									"25 y.o."																														"Sample collected in 2010-2012"	2018/4/6	2018/4/6
PRA000065	SAA003141	ST003	9606			CP2015_001	"Homo sapiens"	Human	2010							Asia	China	Shanghai	31.22221944		121.4580611		Female	Urine									"25 y.o."																														"Sample collected in 2010-2012"	2018/5/2	2018/5/2
PRA000065	SAA003142	ST003	9606			CP2015_002	"Homo sapiens"	Human	2010							Asia	China	Shanghai	31.22221944		121.4580611		Male	Urine									"24 y.o."																														"Sample collected in 2010-2012"	2018/5/2	2018/5/2
PRA000065	SAA003143	ST003	9606			CP2015_003	"Homo sapiens"	Human	2010							Asia	China	Shanghai	31.22221944		121.4580611		Male	Urine									"24 y.o."																														"Sample collected in 2010-2012"	2018/5/2	2018/5/2
PRA000065	SAA003144	ST003	9606			CP2015_004	"Homo sapiens"	Human	2010							Asia	China	Shanghai	31.22221944		121.4580611		Female	Urine									"23 y.o."																														"Sample collected in 2010-2012"	2018/5/2	2018/5/2
PRA000065	SAA003145	ST003	9606			CP2015_005	"Homo sapiens"	Human	2010							Asia	China	Shanghai	31.22221944		121.4580611		Male	Urine									"23 y.o."																														"Sample collected in 2010-2012"	2018/5/2	2018/5/2
PRA000065	SAA003146	ST003	9606			CP2015_006	"Homo sapiens"	Human	2010							Asia	China	Shanghai	31.22221944		121.4580611		Male	Urine									"22 y.o."																														"Sample collected in 2010-2012"	2018/5/2	2018/5/2
PRA000065	SAA003147	ST003	9606			CP2015_007	"Homo sapiens"	Human	2010							Asia	China	Shanghai	31.22221944		121.4580611		Male	Urine									"24 y.o."																														"Sample collected in 2010-2012"	2018/5/2	2018/5/2
PRA000065	SAA003148	ST003	9606			CP2015_008	"Homo sapiens"	Human	2010							Asia	China	Shanghai	31.22221944		121.4580611		Male	Urine									"23 y.o."																														"Sample collected in 2010-2012"	2018/5/2	2018/5/2
PRA000065	SAA003149	ST003	9606			CP2015_009	"Homo sapiens"	Human	2010							Asia	China	Shanghai	31.22221944		121.4580611		Male	Urine									"24 y.o."																														"Sample collected in 2010-2012"	2018/5/2	2018/5/2
PRA000065	SAA003150	ST003	9606			CP2015_010	"Homo sapiens"	Human	2010							Asia	China	Shanghai	31.22221944		121.4580611		Male	Urine									"23 y.o."																														"Sample collected in 2010-2012"	2018/5/2	2018/5/2
PRA000065	SAA003151	ST003	9606			CP2015_011	"Homo sapiens"	Human	2010							Asia	China	Shanghai	31.22221944		121.4580611		Male	Urine									"24 y.o."																														"Sample collected in 2010-2012"	2018/5/2	2018/5/2
PRA000065	SAA003152	ST003	9606			CP2015_012	"Homo sapiens"	Human	2010							Asia	China	Shanghai	31.22221944		121.4580611		Male	Urine									"23 y.o."																														"Sample collected in 2010-2012"	2018/5/2	2018/5/2
PRA000065	SAA003153	ST003	9606			CP2015_013	"Homo sapiens"	Human	2010							Asia	China	Shanghai	31.22221944		121.4580611		Female	Urine									"56 y.o."																														"Sample collected in 2010-2012"	2018/5/2	2018/5/2
PRA000065	SAA003154	ST003	9606			CP2015_014	"Homo sapiens"	Human	2010							Asia	China	Shanghai	31.22221944		121.4580611		Female	Urine									"22 y.o."																														"Sample collected in 2010-2012"	2018/5/2	2018/5/2
PRA000065	SAA003155	ST003	9606			CP2015_015	"Homo sapiens"	Human	2010							Asia	China	Shanghai	31.22221944		121.4580611		Female	Urine									"23 y.o."																														"Sample collected in 2010-2012"	2018/5/2	2018/5/2
PRA000065	SAA003156	ST003	9606			CP2015_016	"Homo sapiens"	Human	2010							Asia	China	Shanghai	31.22221944		121.4580611		Female	Urine									"26 y.o."																														"Sample collected in 2010-2012"	2018/5/2	2018/5/2
PRA000065	SAA003157	ST003	9606			CP2015_017	"Homo sapiens"	Human	2010							Asia	China	Guangzhou	23.128994		113.25325		Female	Urine									"34 y.o."																														"Sample collected in 2010-2012"	2018/5/2	2018/5/2
PRA000065	SAA003158	ST003	9606			CP2015_018	"Homo sapiens"	Human	2010							Asia	China	Guangzhou	23.128994		113.25325		Female	Urine									"4 y.o."																														"Sample collected in 2010-2012"	2018/5/2	2018/5/2
PRA000065	SAA003159	ST003	9606			CP2015_019	"Homo sapiens"	Human	2010							Asia	China	Guangzhou	23.128994		113.25325		Male	Urine									"39 y.o."																														"Sample collected in 2010-2012"	2018/5/2	2018/5/2
PRA000065	SAA003160	ST003	9606			CP2015_020	"Homo sapiens"	Human	2010							Asia	China	Guangzhou	23.128994		113.25325		Male	Urine									"14 y.o."																														"Sample collected in 2010-2012"	2018/5/2	2018/5/2
PRA000065	SAA003161	ST003	9606			CP2015_021	"Homo sapiens"	Human	2010							Asia	China	Guangzhou	23.128994		113.25325		Female	Urine									"29 y.o."																														"Sample collected in 2010-2012"	2018/5/2	2018/5/2
PRA000065	SAA003162	ST003	9606			CP2015_022	"Homo sapiens"	Human	2010							Asia	China	Guangzhou	23.128994		113.25325		Female	Urine									"4 y.o."																														"Sample collected in 2010-2012"	2018/5/2	2018/5/2
PRA000065	SAA003163	ST003	9606			CP2015_023	"Homo sapiens"	Human	2010							Asia	China	Guangzhou	23.128994		113.25325		Female	Urine									"23 y.o."																														"Sample collected in 2010-2012"	2018/5/2	2018/5/2
PRA000065	SAA003164	ST003	9606			CP2015_024	"Homo sapiens"	Human	2010							Asia	China	Guangzhou	23.128994		113.25325		Female	Urine									"12 y.o."																														"Sample collected in 2010-2012"	2018/5/2	2018/5/2
PRA000065	SAA003165	ST003	9606			CP2015_025	"Homo sapiens"	Human	2010							Asia	China	Guangzhou	23.128994		113.25325		Female	Urine									"42 y.o."																														"Sample collected in 2010-2012"	2018/5/2	2018/5/2
PRA000065	SAA003166	ST003	9606			CP2015_026	"Homo sapiens"	Human	2010							Asia	China	Guangzhou	23.128994		113.25325		Male	Urine									"2 y.o."																														"Sample collected in 2010-2012"	2018/5/2	2018/5/2
PRA000065	SAA003167	ST003	9606			CP2015_027	"Homo sapiens"	Human	2010							Asia	China	Guangzhou	23.128994		113.25325		Female	Urine									"36 y.o."																														"Sample collected in 2010-2012"	2018/5/2	2018/5/2
PRA000065	SAA003168	ST003	9606			CP2015_028	"Homo sapiens"	Human	2010							Asia	China	Guangzhou	23.128994		113.25325		Female	Urine									"36 y.o."																														"Sample collected in 2010-2012"	2018/5/2	2018/5/2
PRA000065	SAA003169	ST003	9606			CP2015_029	"Homo sapiens"	Human	2010							Asia	China	Guangzhou	23.128994		113.25325		Female	Urine									"42 y.o."																														"Sample collected in 2010-2012"	2018/5/2	2018/5/2
PRA000065	SAA003170	ST003	9606			CP2015_030	"Homo sapiens"	Human	2010							Asia	China	Guangzhou	23.128994		113.25325		Female	Urine									"28 y.o."																														"Sample collected in 2010-2012"	2018/5/2	2018/5/2
PRA000065	SAA003171	ST003	9606			CP2015_031	"Homo sapiens"	Human	2010							Asia	China	Guangzhou	23.128994		113.25325		Male	Urine									"30 y.o."																														"Sample collected in 2010-2012"	2018/5/2	2018/5/2
PRA000065	SAA003172	ST003	9606			CP2015_032	"Homo sapiens"	Human	2010							Asia	China	Guangzhou	23.128994		113.25325		Male	Urine									"28 y.o."																														"Sample collected in 2010-2012"	2018/5/2	2018/5/2
PRA000065	SAA003173	ST003	9606			CP2015_033	"Homo sapiens"	Human	2010							Asia	China	Qiqihar	47.34088056		123.96045		Female	Urine									"54 y.o."																														"Sample collected in 2010-2012"	2018/5/2	2018/5/2
PRA000065	SAA003174	ST003	9606			CP2015_034	"Homo sapiens"	Human	2010							Asia	China	Qiqihar	47.34088056		123.96045		Female	Urine									"37 y.o."																														"Sample collected in 2010-2012"	2018/5/2	2018/5/2
PRA000065	SAA003175	ST003	9606			CP2015_035	"Homo sapiens"	Human	2010							Asia	China	Qiqihar	47.34088056		123.96045		Female	Urine									"44 y.o."																														"Sample collected in 2010-2012"	2018/5/2	2018/5/2
PRA000065	SAA003176	ST003	9606			CP2015_036	"Homo sapiens"	Human	2010							Asia	China	Qiqihar	47.34088056		123.96045		Female	Urine									"29 y.o."																														"Sample collected in 2010-2012"	2018/5/2	2018/5/2
PRA000065	SAA003177	ST003	9606			CP2015_037	"Homo sapiens"	Human	2010							Asia	China	Qiqihar	47.34088056		123.96045		Male	Urine									"67 y.o."																														"Sample collected in 2010-2012"	2018/5/2	2018/5/2
PRA000065	SAA003178	ST003	9606			CP2015_038	"Homo sapiens"	Human	2010							Asia	China	Qiqihar	47.34088056		123.96045		Male	Urine									"66 y.o."																														"Sample collected in 2010-2012"	2018/5/2	2018/5/2
PRA000065	SAA003179	ST003	9606			CP2015_039	"Homo sapiens"	Human	2010							Asia	China	Qiqihar	47.34088056		123.96045		Male	Urine									"53 y.o."																														"Sample collected in 2010-2012"	2018/5/2	2018/5/2
PRA000065	SAA003180	ST003	9606			CP2015_040	"Homo sapiens"	Human	2010							Asia	China	Qiqihar	47.34088056		123.96045		Female	Urine									"60 y.o."																														"Sample collected in 2010-2012"	2018/5/2	2018/5/2
PRA000065	SAA003181	ST003	9606			CP2015_041	"Homo sapiens"	Human	2010							Asia	China	Qiqihar	47.34088056		123.96045		Female	Urine									"49 y.o."																														"Sample collected in 2010-2012"	2018/5/2	2018/5/2
PRA000065	SAA003182	ST003	9606			CP2015_042	"Homo sapiens"	Human	2010							Asia	China	Qiqihar	47.34088056		123.96045		Male	Urine									"39 y.o."																														"Sample collected in 2010-2012"	2018/5/2	2018/5/2
PRA000065	SAA003183	ST003	9606			CP2015_043	"Homo sapiens"	Human	2010							Asia	China	Qiqihar	47.34088056		123.96045		Male	Urine									"19 y.o."																														"Sample collected in 2010-2012"	2018/5/2	2018/5/2
PRA000065	SAA003184	ST003	9606			CP2015_044	"Homo sapiens"	Human	2010							Asia	China	Qiqihar	47.34088056		123.96045			Urine																																							"Sample collected in 2010-2012"	2018/5/2	2018/5/2
PRA000065	SAA003185	ST003	9606			CP2015_045	"Homo sapiens"	Human	2010							Asia	China	Qiqihar	47.34088056		123.96045		Female	Urine									"35 y.o."																														"Sample collected in 2010-2012"	2018/5/2	2018/5/2
PRA000065	SAA003186	ST003	9606			CP2015_046	"Homo sapiens"	Human	2010							Asia	China	Qiqihar	47.34088056		123.96045		Female	Urine									"44 y.o."																														"Sample collected in 2010-2012"	2018/5/2	2018/5/2
PRA000065	SAA003187	ST003	9606			CP2015_047	"Homo sapiens"	Human	2010							Asia	China	Qiqihar	47.34088056		123.96045		Female	Urine									"55 y.o."																														"Sample collected in 2010-2012"	2018/5/2	2018/5/2
PRA000065	SAA003188	ST003	9606			CP2015_048	"Homo sapiens"	Human	2010							Asia	India	"Mettupalayam or Chennai"	11.282004	13.245375	76.92109	80.334975		Urine																																							"Sample collected in 2010-2012"	2018/5/2	2018/5/2
PRA000065	SAA003189	ST003	9606			CP2015_049	"Homo sapiens"	Human	2010							Asia	India	"Mettupalayam or Chennai"	11.282004	13.245375	76.92109	80.334975		Urine																																							"Sample collected in 2010-2012"	2018/5/2	2018/5/2
PRA000065	SAA003190	ST003	9606			CP2015_050	"Homo sapiens"	Human	2010							Asia	India	"Mettupalayam or Chennai"	11.282004	13.245375	76.92109	80.334975		Urine																																							"Sample collected in 2010-2012"	2018/5/2	2018/5/2
PRA000065	SAA003191	ST003	9606			CP2015_051	"Homo sapiens"	Human	2010							Asia	India	"Mettupalayam or Chennai"	11.282004	13.245375	76.92109	80.334975		Urine																																							"Sample collected in 2010-2012"	2018/5/2	2018/5/2
PRA000065	SAA003192	ST003	9606			CP2015_052	"Homo sapiens"	Human	2010							Asia	India	"Mettupalayam or Chennai"	11.282004	13.245375	76.92109	80.334975		Urine																																							"Sample collected in 2010-2012"	2018/5/2	2018/5/2
PRA000065	SAA003193	ST003	9606			CP2015_053	"Homo sapiens"	Human	2010							Asia	India	"Mettupalayam or Chennai"	11.282004	13.245375	76.92109	80.334975		Urine																																							"Sample collected in 2010-2012"	2018/5/2	2018/5/2
PRA000065	SAA003194	ST003	9606			CP2015_054	"Homo sapiens"	Human	2010							Asia	India	"Mettupalayam or Chennai"	11.282004	13.245375	76.92109	80.334975		Urine																																							"Sample collected in 2010-2012"	2018/5/2	2018/5/2
PRA000065	SAA003195	ST003	9606			CP2015_055	"Homo sapiens"	Human	2010							Asia	India	"Mettupalayam or Chennai"	11.282004	13.245375	76.92109	80.334975		Urine																																							"Sample collected in 2010-2012"	2018/5/2	2018/5/2
PRA000065	SAA003196	ST003	9606			CP2015_056	"Homo sapiens"	Human	2010							Asia	India	"Mettupalayam or Chennai"	11.282004	13.245375	76.92109	80.334975		Urine																																							"Sample collected in 2010-2012"	2018/5/2	2018/5/2
PRA000065	SAA003197	ST003	9606			CP2015_057	"Homo sapiens"	Human	2010							Asia	India	"Mettupalayam or Chennai"	11.282004	13.245375	76.92109	80.334975		Urine																																							"Sample collected in 2010-2012"	2018/5/2	2018/5/2
PRA000065	SAA003198	ST003	9606			CP2015_058	"Homo sapiens"	Human	2010							Asia	India	"Mettupalayam or Chennai"	11.282004	13.245375	76.92109	80.334975		Urine																																							"Sample collected in 2010-2012"	2018/5/2	2018/5/2
PRA000065	SAA003199	ST003	9606			CP2015_059	"Homo sapiens"	Human	2010							Asia	India	"Mettupalayam or Chennai"	11.282004	13.245375	76.92109	80.334975		Urine																																							"Sample collected in 2010-2012"	2018/5/2	2018/5/2
PRA000065	SAA003200	ST003	9606			CP2015_060	"Homo sapiens"	Human	2010							Asia	India	"Mettupalayam or Chennai"	11.282004	13.245375	76.92109	80.334975		Urine																																							"Sample collected in 2010-2012"	2018/5/2	2018/5/2
PRA000065	SAA003201	ST003	9606			CP2015_061	"Homo sapiens"	Human	2010							Asia	India	"Mettupalayam or Chennai"	11.282004	13.245375	76.92109	80.334975		Urine																																							"Sample collected in 2010-2012"	2018/5/2	2018/5/2
PRA000065	SAA003202	ST003	9606			CP2015_062	"Homo sapiens"	Human	2010							Asia	India	"Mettupalayam or Chennai"	11.282004	13.245375	76.92109	80.334975		Urine																																							"Sample collected in 2010-2012"	2018/5/2	2018/5/2
PRA000065	SAA003203	ST003	9606			CP2015_063	"Homo sapiens"	Human	2010							Asia	India	"Mettupalayam or Chennai"	11.282004	13.245375	76.92109	80.334975		Urine																																							"Sample collected in 2010-2012"	2018/5/2	2018/5/2
PRA000065	SAA003204	ST003	9606			CP2015_064	"Homo sapiens"	Human	2010							Asia	India	"Mettupalayam or Chennai"	11.282004	13.245375	76.92109	80.334975		Urine																																							"Sample collected in 2010-2012"	2018/5/2	2018/5/2
PRA000065	SAA003205	ST003	9606			CP2015_065	"Homo sapiens"	Human	2010							Asia	India	"Mettupalayam or Chennai"	11.282004	13.245375	76.92109	80.334975		Urine																																							"Sample collected in 2010-2012"	2018/5/2	2018/5/2
PRA000065	SAA003206	ST003	9606			CP2015_066	"Homo sapiens"	Human	2010							Asia	India	"Mettupalayam or Chennai"	11.282004	13.245375	76.92109	80.334975		Urine																																							"Sample collected in 2010-2012"	2018/5/2	2018/5/2
PRA000065	SAA003207	ST003	9606			CP2015_067	"Homo sapiens"	Human	2010							Asia	India	"Mettupalayam or Chennai"	11.282004	13.245375	76.92109	80.334975		Urine																																							"Sample collected in 2010-2012"	2018/5/2	2018/5/2
PRA000065	SAA003208	ST003	9606			CP2015_068	"Homo sapiens"	Human	2010							Asia	India	"Mettupalayam or Chennai"	11.282004	13.245375	76.92109	80.334975		Urine																																							"Sample collected in 2010-2012"	2018/5/2	2018/5/2
PRA000065	SAA003209	ST003	9606			CP2015_069	"Homo sapiens"	Human	2010							Asia	India	"Mettupalayam or Chennai"	11.282004	13.245375	76.92109	80.334975		Urine																																							"Sample collected in 2010-2012"	2018/5/2	2018/5/2
PRA000065	SAA003210	ST003	9606			CP2015_070	"Homo sapiens"	Human	2010							Asia	India	"Mettupalayam or Chennai"	11.282004	13.245375	76.92109	80.334975		Urine																																							"Sample collected in 2010-2012"	2018/5/2	2018/5/2
PRA000065	SAA003211	ST003	9606			CP2015_071	"Homo sapiens"	Human	2010							Asia	India	"Mettupalayam or Chennai"	11.282004	13.245375	76.92109	80.334975		Urine																																							"Sample collected in 2010-2012"	2018/5/2	2018/5/2
PRA000065	SAA003212	ST003	9606			CP2015_072	"Homo sapiens"	Human	2010							Asia	India	"Mettupalayam or Chennai"	11.282004	13.245375	76.92109	80.334975		Urine																																							"Sample collected in 2010-2012"	2018/5/2	2018/5/2
PRA000065	SAA003213	ST003	9606			CP2015_073	"Homo sapiens"	Human	2010							Asia	India	"Mettupalayam or Chennai"	11.282004	13.245375	76.92109	80.334975		Urine																																							"Sample collected in 2010-2012"	2018/5/2	2018/5/2
PRA000065	SAA003214	ST003	9606			CP2015_074	"Homo sapiens"	Human	2010							Asia	India	"Mettupalayam or Chennai"	11.282004	13.245375	76.92109	80.334975		Urine																																							"Sample collected in 2010-2012"	2018/5/2	2018/5/2
PRA000065	SAA003215	ST003	9606			CP2015_075	"Homo sapiens"	Human	2010							Asia	India	"Mettupalayam or Chennai"	11.282004	13.245375	76.92109	80.334975		Urine																																							"Sample collected in 2010-2012"	2018/5/2	2018/5/2
PRA000065	SAA003216	ST003	9606			CP2015_076	"Homo sapiens"	Human	2010							Asia	India	"Mettupalayam or Chennai"	11.282004	13.245375	76.92109	80.334975	Female	Urine									"24 y.o."																														"Sample collected in 2010-2012"	2018/5/2	2018/5/2
PRA000065	SAA003217	ST003	9606			CP2015_077	"Homo sapiens"	Human	2010							Asia	India	"Mettupalayam or Chennai"	11.282004	13.245375	76.92109	80.334975	Male	Urine									"50 y.o."																														"Sample collected in 2010-2012"	2018/5/2	2018/5/2
PRA000065	SAA003218	ST003	9606			CP2015_078	"Homo sapiens"	Human	2010							Asia	India	"Mettupalayam or Chennai"	11.282004	13.245375	76.92109	80.334975	Female	Urine									"75 y.o."																														"Sample collected in 2010-2012"	2018/5/2	2018/5/2
PRA000065	SAA003219	ST003	9606			CP2015_079	"Homo sapiens"	Human	2010							Asia	India	"Mettupalayam or Chennai"	11.282004	13.245375	76.92109	80.334975	Female	Urine									"32 y.o."																														"Sample collected in 2010-2012"	2018/5/2	2018/5/2
PRA000065	SAA003220	ST003	9606			CP2015_080	"Homo sapiens"	Human	2010							Asia	India	"Mettupalayam or Chennai"	11.282004	13.245375	76.92109	80.334975		Urine																																							"Sample collected in 2010-2012"	2018/5/2	2018/5/2
PRA000065	SAA003221	ST003	9606			CP2015_081	"Homo sapiens"	Human	2010							Asia	India	"Mettupalayam or Chennai"	11.282004	13.245375	76.92109	80.334975	Male	Urine									"35 y.o."																														"Sample collected in 2010-2012"	2018/5/2	2018/5/2
PRA000065	SAA003222	ST003	9606			CP2015_082	"Homo sapiens"	Human	2010							Asia	India	"Mettupalayam or Chennai"	11.282004	13.245375	76.92109	80.334975	Female	Urine									"41 y.o."																														"Sample collected in 2010-2012"	2018/5/2	2018/5/2
PRA000065	SAA003223	ST003	9606			CP2015_083	"Homo sapiens"	Human	2010							Asia	India	"Mettupalayam or Chennai"	11.282004	13.245375	76.92109	80.334975	Female	Urine									"35 y.o."																														"Sample collected in 2010-2012"	2018/5/2	2018/5/2
PRA000065	SAA003224	ST003	9606			CP2015_084	"Homo sapiens"	Human	2010							Asia	India	"Mettupalayam or Chennai"	11.282004	13.245375	76.92109	80.334975	Female	Urine									"30 y.o."																														"Sample collected in 2010-2012"	2018/5/2	2018/5/2
PRA000065	SAA003225	ST003	9606			CP2015_085	"Homo sapiens"	Human	2010							Asia	India	"Mettupalayam or Chennai"	11.282004	13.245375	76.92109	80.334975	Male	Urine									"69 y.o."																														"Sample collected in 2010-2012"	2018/5/2	2018/5/2
PRA000065	SAA003226	ST003	9606			CP2015_086	"Homo sapiens"	Human	2010							Asia	India	"Mettupalayam or Chennai"	11.282004	13.245375	76.92109	80.334975	Female	Urine									"59 y.o."																														"Sample collected in 2010-2012"	2018/5/2	2018/5/2
PRA000065	SAA003227	ST003	9606			CP2015_087	"Homo sapiens"	Human	2010							Asia	India	"Mettupalayam or Chennai"	11.282004	13.245375	76.92109	80.334975	Female	Urine									"60 y.o."																														"Sample collected in 2010-2012"	2018/5/2	2018/5/2
PRA000065	SAA003228	ST003	9606			CP2015_088	"Homo sapiens"	Human	2010							Asia	India	"Mettupalayam or Chennai"	11.282004	13.245375	76.92109	80.334975	Female	Urine									"44 y.o."																														"Sample collected in 2010-2012"	2018/5/2	2018/5/2
PRA000065	SAA003229	ST003	9606			CP2015_089	"Homo sapiens"	Human	2010							Asia	Japan	"Matsuyama or Kumamoto"	32.66027778	34.07388889	130.5716667	132.9266667	Male	Urine									"46 y.o."																														"Sample collected in 2010-2012"	2018/5/2	2018/5/2
PRA000065	SAA003230	ST003	9606			CP2015_090	"Homo sapiens"	Human	2010							Asia	Japan	"Matsuyama or Kumamoto"	32.66027778	34.07388889	130.5716667	132.9266667	Male	Urine									"39 y.o."																														"Sample collected in 2010-2012"	2018/5/2	2018/5/2
PRA000065	SAA003231	ST003	9606			CP2015_091	"Homo sapiens"	Human	2010							Asia	Japan	"Matsuyama or Kumamoto"	32.66027778	34.07388889	130.5716667	132.9266667	Male	Urine									"50 y.o."																														"Sample collected in 2010-2012"	2018/5/2	2018/5/2
PRA000065	SAA003232	ST003	9606			CP2015_092	"Homo sapiens"	Human	2010							Asia	Japan	"Matsuyama or Kumamoto"	32.66027778	34.07388889	130.5716667	132.9266667	Male	Urine									"47 y.o."																														"Sample collected in 2010-2012"	2018/5/2	2018/5/2
PRA000065	SAA003233	ST003	9606			CP2015_093	"Homo sapiens"	Human	2010							Asia	Japan	"Matsuyama or Kumamoto"	32.66027778	34.07388889	130.5716667	132.9266667	Male	Urine									"36 y.o."																														"Sample collected in 2010-2012"	2018/5/2	2018/5/2
PRA000065	SAA003234	ST003	9606			CP2015_094	"Homo sapiens"	Human	2010							Asia	Japan	"Matsuyama or Kumamoto"	32.66027778	34.07388889	130.5716667	132.9266667	Male	Urine									"41 y.o."																														"Sample collected in 2010-2012"	2018/5/2	2018/5/2
PRA000065	SAA003235	ST003	9606			CP2015_095	"Homo sapiens"	Human	2010							Asia	Japan	"Matsuyama or Kumamoto"	32.66027778	34.07388889	130.5716667	132.9266667	Male	Urine									"32 y.o."																														"Sample collected in 2010-2012"	2018/5/2	2018/5/2
PRA000065	SAA003236	ST003	9606			CP2015_096	"Homo sapiens"	Human	2010							Asia	Japan	"Matsuyama or Kumamoto"	32.66027778	34.07388889	130.5716667	132.9266667	Male	Urine									"36 y.o."																														"Sample collected in 2010-2012"	2018/5/2	2018/5/2
PRA000065	SAA003237	ST003	9606			CP2015_097	"Homo sapiens"	Human	2010							Asia	Japan	"Matsuyama or Kumamoto"	32.66027778	34.07388889	130.5716667	132.9266667	Male	Urine									"22 y.o."																														"Sample collected in 2010-2012"	2018/5/2	2018/5/2
PRA000065	SAA003238	ST003	9606			CP2015_098	"Homo sapiens"	Human	2010							Asia	Japan	"Matsuyama or Kumamoto"	32.66027778	34.07388889	130.5716667	132.9266667	Male	Urine									"29 y.o."																														"Sample collected in 2010-2012"	2018/5/2	2018/5/2
PRA000065	SAA003239	ST003	9606			CP2015_099	"Homo sapiens"	Human	2010							Asia	Japan	"Matsuyama or Kumamoto"	32.66027778	34.07388889	130.5716667	132.9266667	Male	Urine									"32 y.o."																														"Sample collected in 2010-2012"	2018/5/2	2018/5/2
PRA000065	SAA003240	ST003	9606			CP2015_100	"Homo sapiens"	Human	2010							Asia	Japan	"Matsuyama or Kumamoto"	32.66027778	34.07388889	130.5716667	132.9266667	Male	Urine									"59 y.o."																														"Sample collected in 2010-2012"	2018/5/2	2018/5/2
PRA000065	SAA003241	ST003	9606			CP2015_101	"Homo sapiens"	Human	2010							Asia	Japan	"Matsuyama or Kumamoto"	32.66027778	34.07388889	130.5716667	132.9266667	Male	Urine									"25 y.o."																														"Sample collected in 2010-2012"	2018/5/2	2018/5/2
PRA000065	SAA003242	ST003	9606			CP2015_102	"Homo sapiens"	Human	2010							Asia	Japan	"Matsuyama or Kumamoto"	32.66027778	34.07388889	130.5716667	132.9266667	Male	Urine									"31 y.o."																														"Sample collected in 2010-2012"	2018/5/2	2018/5/2
PRA000065	SAA003243	ST003	9606			CP2015_103	"Homo sapiens"	Human	2010							Asia	Japan	"Matsuyama or Kumamoto"	32.66027778	34.07388889	130.5716667	132.9266667	Male	Urine									"35 y.o."																														"Sample collected in 2010-2012"	2018/5/2	2018/5/2
PRA000065	SAA003244	ST003	9606			CP2015_104	"Homo sapiens"	Human	2010							Asia	Japan	"Matsuyama or Kumamoto"	32.66027778	34.07388889	130.5716667	132.9266667	Male	Urine									"39 y.o."																														"Sample collected in 2010-2012"	2018/5/2	2018/5/2
PRA000065	SAA003245	ST003	9606			CP2015_105	"Homo sapiens"	Human	2010							Asia	Japan	"Matsuyama or Kumamoto"	32.66027778	34.07388889	130.5716667	132.9266667	Female	Urine									"32 y.o."																														"Sample collected in 2010-2012"	2018/5/2	2018/5/2
PRA000065	SAA003246	ST003	9606			CP2015_106	"Homo sapiens"	Human	2010							Asia	Japan	"Matsuyama or Kumamoto"	32.66027778	34.07388889	130.5716667	132.9266667	Female	Urine									"36 y.o."																														"Sample collected in 2010-2012"	2018/5/2	2018/5/2
PRA000065	SAA003247	ST003	9606			CP2015_107	"Homo sapiens"	Human	2010							Asia	Japan	"Matsuyama or Kumamoto"	32.66027778	34.07388889	130.5716667	132.9266667	Female	Urine									"24 y.o."																														"Sample collected in 2010-2012"	2018/5/2	2018/5/2
PRA000065	SAA003248	ST003	9606			CP2015_108	"Homo sapiens"	Human	2010							Asia	Japan	"Matsuyama or Kumamoto"	32.66027778	34.07388889	130.5716667	132.9266667	Female	Urine									"23 y.o."																														"Sample collected in 2010-2012"	2018/5/2	2018/5/2
PRA000065	SAA003249	ST003	9606			CP2015_109	"Homo sapiens"	Human	2010							Asia	Japan	"Matsuyama or Kumamoto"	32.66027778	34.07388889	130.5716667	132.9266667	Female	Urine									"27 y.o."																														"Sample collected in 2010-2012"	2018/5/2	2018/5/2
PRA000065	SAA003250	ST003	9606			CP2015_110	"Homo sapiens"	Human	2010							Asia	Japan	"Matsuyama or Kumamoto"	32.66027778	34.07388889	130.5716667	132.9266667	Male	Urine									"33 y.o."																														"Sample collected in 2010-2012"	2018/5/2	2018/5/2
PRA000065	SAA003251	ST003	9606			CP2015_111	"Homo sapiens"	Human	2010							Asia	Japan	"Matsuyama or Kumamoto"	32.66027778	34.07388889	130.5716667	132.9266667	Male	Urine									"36 y.o."																														"Sample collected in 2010-2012"	2018/5/2	2018/5/2
PRA000065	SAA003252	ST003	9606			CP2015_112	"Homo sapiens"	Human	2010							Asia	Japan	"Matsuyama or Kumamoto"	32.66027778	34.07388889	130.5716667	132.9266667	Male	Urine									"34 y.o."																														"Sample collected in 2010-2012"	2018/5/2	2018/5/2
PRA000065	SAA003253	ST003	9606			CP2015_113	"Homo sapiens"	Human	2010							Asia	Japan	"Matsuyama or Kumamoto"	32.66027778	34.07388889	130.5716667	132.9266667	Female	Urine									"22 y.o."																														"Sample collected in 2010-2012"	2018/5/2	2018/5/2
PRA000065	SAA003254	ST003	9606			CP2015_114	"Homo sapiens"	Human	2010							Asia	Japan	"Matsuyama or Kumamoto"	32.66027778	34.07388889	130.5716667	132.9266667	Female	Urine									"23 y.o."																														"Sample collected in 2010-2012"	2018/5/2	2018/5/2
PRA000065	SAA003255	ST003	9606			CP2015_115	"Homo sapiens"	Human	2010							Asia	Japan	"Matsuyama or Kumamoto"	32.66027778	34.07388889	130.5716667	132.9266667	Male	Urine									"22 y.o."																														"Sample collected in 2010-2012"	2018/5/2	2018/5/2
PRA000065	SAA003256	ST003	9606			CP2015_116	"Homo sapiens"	Human	2010							Asia	Japan	"Matsuyama or Kumamoto"	32.66027778	34.07388889	130.5716667	132.9266667	Male	Urine									"39 y.o."																														"Sample collected in 2010-2012"	2018/5/2	2018/5/2
PRA000065	SAA003257	ST003	9606			CP2015_117	"Homo sapiens"	Human	2010							Asia	Japan	"Matsuyama or Kumamoto"	32.66027778	34.07388889	130.5716667	132.9266667	Male	Urine									"24 y.o."																														"Sample collected in 2010-2012"	2018/5/2	2018/5/2
PRA000065	SAA003258	ST003	9606			CP2015_118	"Homo sapiens"	Human	2010							Asia	Japan	"Matsuyama or Kumamoto"	32.66027778	34.07388889	130.5716667	132.9266667	Male	Urine									"21 y.o."																														"Sample collected in 2010-2012"	2018/5/2	2018/5/2
PRA000065	SAA003259	ST003	9606			CP2015_119	"Homo sapiens"	Human	2010							Asia	Japan	"Matsuyama or Kumamoto"	32.66027778	34.07388889	130.5716667	132.9266667	Male	Urine									"41 y.o."																														"Sample collected in 2010-2012"	2018/5/2	2018/5/2
PRA000065	SAA003260	ST003	9606			CP2015_120	"Homo sapiens"	Human	2010							Asia	Japan	"Matsuyama or Kumamoto"	32.66027778	34.07388889	130.5716667	132.9266667	Male	Urine									"23 y.o."																														"Sample collected in 2010-2012"	2018/5/2	2018/5/2
PRA000065	SAA003261	ST003	9606			CP2015_121	"Homo sapiens"	Human	2010							Asia	Japan	"Matsuyama or Kumamoto"	32.66027778	34.07388889	130.5716667	132.9266667	Male	Urine									"2 y.o."																														"Sample collected in 2010-2012"	2018/5/2	2018/5/2
PRA000065	SAA003262	ST003	9606			CP2015_122	"Homo sapiens"	Human	2010							Asia	Japan	"Matsuyama or Kumamoto"	32.66027778	34.07388889	130.5716667	132.9266667	Female	Urine									"34 y.o."																														"Sample collected in 2010-2012"	2018/5/2	2018/5/2
PRA000065	SAA003263	ST003	9606			CP2015_123	"Homo sapiens"	Human	2010							Asia	Japan	"Matsuyama or Kumamoto"	32.66027778	34.07388889	130.5716667	132.9266667	Male	Urine									"22 y.o."																														"Sample collected in 2010-2012"	2018/5/2	2018/5/2
PRA000065	SAA003264	ST003	9606			CP2015_124	"Homo sapiens"	Human	2010							Asia	Japan	"Matsuyama or Kumamoto"	32.66027778	34.07388889	130.5716667	132.9266667	Male	Urine									"23 y.o."																														"Sample collected in 2010-2012"	2018/5/2	2018/5/2
PRA000065	SAA003265	ST003	9606			CP2015_125	"Homo sapiens"	Human	2006							Asia	Korea	"Seoul or Busan or Yeosu"	34.409941	37.699269	126.766254	129.306678		Urine																																							"Sample collected in 2006-2007"	2018/5/2	2018/5/2
PRA000065	SAA003266	ST003	9606			CP2015_126	"Homo sapiens"	Human	2006							Asia	Korea	"Seoul or Busan or Yeosu"	34.409941	37.699269	126.766254	129.306678		Urine																																							"Sample collected in 2006-2007"	2018/5/2	2018/5/2
PRA000065	SAA003267	ST003	9606			CP2015_127	"Homo sapiens"	Human	2006							Asia	Korea	"Seoul or Busan or Yeosu"	34.409941	37.699269	126.766254	129.306678		Urine																																							"Sample collected in 2006-2007"	2018/5/2	2018/5/2
PRA000065	SAA003268	ST003	9606			CP2015_128	"Homo sapiens"	Human	2006							Asia	Korea	"Seoul or Busan or Yeosu"	34.409941	37.699269	126.766254	129.306678		Urine																																							"Sample collected in 2006-2007"	2018/5/2	2018/5/2
PRA000065	SAA003269	ST003	9606			CP2015_129	"Homo sapiens"	Human	2006							Asia	Korea	"Seoul or Busan or Yeosu"	34.409941	37.699269	126.766254	129.306678		Urine																																							"Sample collected in 2006-2007"	2018/5/2	2018/5/2
PRA000065	SAA003270	ST003	9606			CP2015_130	"Homo sapiens"	Human	2006							Asia	Korea	"Seoul or Busan or Yeosu"	34.409941	37.699269	126.766254	129.306678		Urine																																							"Sample collected in 2006-2007"	2018/5/2	2018/5/2
PRA000065	SAA003271	ST003	9606			CP2015_131	"Homo sapiens"	Human	2006							Asia	Korea	"Seoul or Busan or Yeosu"	34.409941	37.699269	126.766254	129.306678		Urine																																							"Sample collected in 2006-2007"	2018/5/2	2018/5/2
PRA000065	SAA003272	ST003	9606			CP2015_132	"Homo sapiens"	Human	2006							Asia	Korea	"Seoul or Busan or Yeosu"	34.409941	37.699269	126.766254	129.306678		Urine																																							"Sample collected in 2006-2007"	2018/5/2	2018/5/2
PRA000065	SAA003273	ST003	9606			CP2015_133	"Homo sapiens"	Human	2006							Asia	Korea	"Seoul or Busan or Yeosu"	34.409941	37.699269	126.766254	129.306678		Urine																																							"Sample collected in 2006-2007"	2018/5/2	2018/5/2
PRA000065	SAA003274	ST003	9606			CP2015_134	"Homo sapiens"	Human	2006							Asia	Korea	"Seoul or Busan or Yeosu"	34.409941	37.699269	126.766254	129.306678		Urine																																							"Sample collected in 2006-2007"	2018/5/2	2018/5/2
PRA000065	SAA003275	ST003	9606			CP2015_135	"Homo sapiens"	Human	2006							Asia	Korea	"Seoul or Busan or Yeosu"	34.409941	37.699269	126.766254	129.306678		Urine																																							"Sample collected in 2006-2007"	2018/5/2	2018/5/2
PRA000065	SAA003276	ST003	9606			CP2015_136	"Homo sapiens"	Human	2006							Asia	Korea	"Seoul or Busan or Yeosu"	34.409941	37.699269	126.766254	129.306678		Urine																																							"Sample collected in 2006-2007"	2018/5/2	2018/5/2
PRA000065	SAA003277	ST003	9606			CP2015_137	"Homo sapiens"	Human	2006							Asia	Korea	"Seoul or Busan or Yeosu"	34.409941	37.699269	126.766254	129.306678		Urine																																							"Sample collected in 2006-2007"	2018/5/2	2018/5/2
PRA000065	SAA003278	ST003	9606			CP2015_138	"Homo sapiens"	Human	2006							Asia	Korea	"Seoul or Busan or Yeosu"	34.409941	37.699269	126.766254	129.306678		Urine																																							"Sample collected in 2006-2007"	2018/5/2	2018/5/2
PRA000065	SAA003279	ST003	9606			CP2015_139	"Homo sapiens"	Human	2006							Asia	Korea	"Seoul or Busan or Yeosu"	34.409941	37.699269	126.766254	129.306678		Urine																																							"Sample collected in 2006-2007"	2018/5/2	2018/5/2
PRA000065	SAA003280	ST003	9606			CP2015_140	"Homo sapiens"	Human	2006							Asia	Korea	"Seoul or Busan or Yeosu"	34.409941	37.699269	126.766254	129.306678		Urine																																							"Sample collected in 2006-2007"	2018/5/2	2018/5/2
PRA000065	SAA003281	ST003	9606			CP2015_141	"Homo sapiens"	Human	2006							Asia	Korea	"Seoul or Busan or Yeosu"	34.409941	37.699269	126.766254	129.306678		Urine																																							"Sample collected in 2006-2007"	2018/5/2	2018/5/2
PRA000065	SAA003282	ST003	9606			CP2015_142	"Homo sapiens"	Human	2006							Asia	Korea	"Seoul or Busan or Yeosu"	34.409941	37.699269	126.766254	129.306678		Urine																																							"Sample collected in 2006-2007"	2018/5/2	2018/5/2
PRA000065	SAA003283	ST003	9606			CP2015_143	"Homo sapiens"	Human	2006							Asia	Korea	"Seoul or Busan or Yeosu"	34.409941	37.699269	126.766254	129.306678		Urine																																							"Sample collected in 2006-2007"	2018/5/2	2018/5/2
PRA000065	SAA003284	ST003	9606			CP2015_144	"Homo sapiens"	Human	2006							Asia	Korea	"Seoul or Busan or Yeosu"	34.409941	37.699269	126.766254	129.306678	Male	Urine									"30 y.o."																														"Sample collected in 2006-2007"	2018/5/2	2018/5/2
PRA000065	SAA003285	ST003	9606			CP2015_145	"Homo sapiens"	Human	2006							Asia	Korea	"Seoul or Busan or Yeosu"	34.409941	37.699269	126.766254	129.306678		Urine																																							"Sample collected in 2006-2007"	2018/5/2	2018/5/2
PRA000065	SAA003286	ST003	9606			CP2015_146	"Homo sapiens"	Human	2006							Asia	Korea	"Seoul or Busan or Yeosu"	34.409941	37.699269	126.766254	129.306678		Urine																																							"Sample collected in 2006-2007"	2018/5/2	2018/5/2
PRA000065	SAA003287	ST003	9606			CP2015_147	"Homo sapiens"	Human	2006							Asia	Korea	"Seoul or Busan or Yeosu"	34.409941	37.699269	126.766254	129.306678		Urine																																							"Sample collected in 2006-2007"	2018/5/2	2018/5/2
PRA000065	SAA003288	ST003	9606			CP2015_148	"Homo sapiens"	Human	2006							Asia	Korea	"Seoul or Busan or Yeosu"	34.409941	37.699269	126.766254	129.306678		Urine																																							"Sample collected in 2006-2007"	2018/5/2	2018/5/2
PRA000065	SAA003289	ST003	9606			CP2015_149	"Homo sapiens"	Human	2006							Asia	Korea	"Seoul or Busan or Yeosu"	34.409941	37.699269	126.766254	129.306678		Urine																																							"Sample collected in 2006-2007"	2018/5/2	2018/5/2
PRA000065	SAA003290	ST003	9606			CP2015_150	"Homo sapiens"	Human	2006							Asia	Korea	"Seoul or Busan or Yeosu"	34.409941	37.699269	126.766254	129.306678		Urine																																							"Sample collected in 2006-2007"	2018/5/2	2018/5/2
PRA000065	SAA003291	ST003	9606			CP2015_151	"Homo sapiens"	Human	2010							Asia	Kuwait	"Al-Asimah or Al-Jahra"	29.282801	29.39249	47.632837	48.028438	Male	Urine									"73 y.o."																														"Sample collected in 2010-2012"	2018/5/2	2018/5/2
PRA000065	SAA003292	ST003	9606			CP2015_152	"Homo sapiens"	Human	2010							Asia	Kuwait	"Al-Asimah or Al-Jahra"	29.282801	29.39249	47.632837	48.028438	Female	Urine									"54 y.o."																														"Sample collected in 2010-2012"	2018/5/2	2018/5/2
PRA000065	SAA003293	ST003	9606			CP2015_153	"Homo sapiens"	Human	2010							Asia	Kuwait	"Al-Asimah or Al-Jahra"	29.282801	29.39249	47.632837	48.028438	Male	Urine									"73 y.o."																														"Sample collected in 2010-2012"	2018/5/2	2018/5/2
PRA000065	SAA003294	ST003	9606			CP2015_154	"Homo sapiens"	Human	2010							Asia	Kuwait	"Al-Asimah or Al-Jahra"	29.282801	29.39249	47.632837	48.028438	Male	Urine									"14 y.o."																														"Sample collected in 2010-2012"	2018/5/2	2018/5/2
PRA000065	SAA003295	ST003	9606			CP2015_155	"Homo sapiens"	Human	2010							Asia	Kuwait	"Al-Asimah or Al-Jahra"	29.282801	29.39249	47.632837	48.028438	Male	Urine									"17 y.o."																														"Sample collected in 2010-2012"	2018/5/2	2018/5/2
PRA000065	SAA003296	ST003	9606			CP2015_156	"Homo sapiens"	Human	2010							Asia	Kuwait	"Al-Asimah or Al-Jahra"	29.282801	29.39249	47.632837	48.028438	Male	Urine									"58 y.o."																														"Sample collected in 2010-2012"	2018/5/2	2018/5/2
PRA000065	SAA003297	ST003	9606			CP2015_157	"Homo sapiens"	Human	2010							Asia	Kuwait	"Al-Asimah or Al-Jahra"	29.282801	29.39249	47.632837	48.028438	Female	Urine									"20 y.o."																														"Sample collected in 2010-2012"	2018/5/2	2018/5/2
PRA000065	SAA003298	ST003	9606			CP2015_158	"Homo sapiens"	Human	2010							Asia	Kuwait	"Al-Asimah or Al-Jahra"	29.282801	29.39249	47.632837	48.028438	Male	Urine									"41 y.o."																														"Sample collected in 2010-2012"	2018/5/2	2018/5/2
PRA000065	SAA003299	ST003	9606			CP2015_159	"Homo sapiens"	Human	2010							Asia	Kuwait	"Al-Asimah or Al-Jahra"	29.282801	29.39249	47.632837	48.028438	Male	Urine									"13 y.o."																														"Sample collected in 2010-2012"	2018/5/2	2018/5/2
PRA000065	SAA003300	ST003	9606			CP2015_160	"Homo sapiens"	Human	2010							Asia	Kuwait	"Al-Asimah or Al-Jahra"	29.282801	29.39249	47.632837	48.028438	Male	Urine									"6 y.o."																														"Sample collected in 2010-2012"	2018/5/2	2018/5/2
PRA000065	SAA003301	ST003	9606			CP2015_161	"Homo sapiens"	Human	2010							Asia	Kuwait	"Al-Asimah or Al-Jahra"	29.282801	29.39249	47.632837	48.028438	Male	Urine									"27 y.o."																														"Sample collected in 2010-2012"	2018/5/2	2018/5/2
PRA000065	SAA003302	ST003	9606			CP2015_162	"Homo sapiens"	Human	2010							Asia	Kuwait	"Al-Asimah or Al-Jahra"	29.282801	29.39249	47.632837	48.028438	Male	Urine									"42 y.o."																														"Sample collected in 2010-2012"	2018/5/2	2018/5/2
PRA000065	SAA003303	ST003	9606			CP2015_163	"Homo sapiens"	Human	2010							Asia	Kuwait	"Al-Asimah or Al-Jahra"	29.282801	29.39249	47.632837	48.028438	Female	Urine									"45 y.o."																														"Sample collected in 2010-2012"	2018/5/2	2018/5/2
PRA000065	SAA003304	ST003	9606			CP2015_164	"Homo sapiens"	Human	2010							Asia	Kuwait	"Al-Asimah or Al-Jahra"	29.282801	29.39249	47.632837	48.028438	Female	Urine									"15 y.o."																														"Sample collected in 2010-2012"	2018/5/2	2018/5/2
PRA000065	SAA003305	ST003	9606			CP2015_165	"Homo sapiens"	Human	2010							Asia	Kuwait	"Al-Asimah or Al-Jahra"	29.282801	29.39249	47.632837	48.028438	Female	Urine									"25 y.o."																														"Sample collected in 2010-2012"	2018/5/2	2018/5/2
PRA000065	SAA003306	ST003	9606			CP2015_166	"Homo sapiens"	Human	2010							Asia	Kuwait	"Al-Asimah or Al-Jahra"	29.282801	29.39249	47.632837	48.028438	Male	Urine									"50 y.o."																														"Sample collected in 2010-2012"	2018/5/2	2018/5/2
PRA000065	SAA003307	ST003	9606			CP2015_167	"Homo sapiens"	Human	2010							Asia	Kuwait	"Al-Asimah or Al-Jahra"	29.282801	29.39249	47.632837	48.028438	Male	Urine									"54 y.o."																														"Sample collected in 2010-2012"	2018/5/2	2018/5/2
PRA000065	SAA003308	ST003	9606			CP2015_168	"Homo sapiens"	Human	2010							Asia	Kuwait	"Al-Asimah or Al-Jahra"	29.282801	29.39249	47.632837	48.028438	Male	Urine									"10 y.o."																														"Sample collected in 2010-2012"	2018/5/2	2018/5/2
PRA000065	SAA003309	ST003	9606			CP2015_169	"Homo sapiens"	Human	2010							Asia	Kuwait	"Al-Asimah or Al-Jahra"	29.282801	29.39249	47.632837	48.028438	Male	Urine									"53 y.o."																														"Sample collected in 2010-2012"	2018/5/2	2018/5/2
PRA000065	SAA003310	ST003	9606			CP2015_170	"Homo sapiens"	Human	2010							Asia	Kuwait	"Al-Asimah or Al-Jahra"	29.282801	29.39249	47.632837	48.028438	Male	Urine									"68 y.o."																														"Sample collected in 2010-2012"	2018/5/2	2018/5/2
PRA000065	SAA003311	ST003	9606			CP2015_171	"Homo sapiens"	Human	2010							Asia	Kuwait	"Al-Asimah or Al-Jahra"	29.282801	29.39249	47.632837	48.028438	Male	Urine									"10 y.o."																														"Sample collected in 2010-2012"	2018/5/2	2018/5/2
PRA000065	SAA003312	ST003	9606			CP2015_172	"Homo sapiens"	Human	2010							Asia	Kuwait	"Al-Asimah or Al-Jahra"	29.282801	29.39249	47.632837	48.028438	Male	Urine									"16 y.o."																														"Sample collected in 2010-2012"	2018/5/2	2018/5/2
PRA000065	SAA003313	ST003	9606			CP2015_173	"Homo sapiens"	Human	2010							Asia	Kuwait	"Al-Asimah or Al-Jahra"	29.282801	29.39249	47.632837	48.028438	Female	Urine									"23 y.o."																														"Sample collected in 2010-2012"	2018/5/2	2018/5/2
PRA000065	SAA003314	ST003	9606			CP2015_174	"Homo sapiens"	Human	2010							Asia	Kuwait	"Al-Asimah or Al-Jahra"	29.282801	29.39249	47.632837	48.028438	Male	Urine									"40 y.o."																														"Sample collected in 2010-2012"	2018/5/2	2018/5/2
PRA000065	SAA003315	ST003	9606			CP2015_175	"Homo sapiens"	Human	2010							Asia	Kuwait	"Al-Asimah or Al-Jahra"	29.282801	29.39249	47.632837	48.028438	Male	Urine									"49 y.o."																														"Sample collected in 2010-2012"	2018/5/2	2018/5/2
PRA000065	SAA003316	ST003	9606			CP2015_176	"Homo sapiens"	Human	2010							Asia	Kuwait	"Al-Asimah or Al-Jahra"	29.282801	29.39249	47.632837	48.028438	Male	Urine									"20 y.o."																														"Sample collected in 2010-2012"	2018/5/2	2018/5/2
PRA000065	SAA003317	ST003	9606			CP2015_177	"Homo sapiens"	Human	2010							Asia	Kuwait	"Al-Asimah or Al-Jahra"	29.282801	29.39249	47.632837	48.028438	Female	Urine									"10 y.o."																														"Sample collected in 2010-2012"	2018/5/2	2018/5/2
PRA000065	SAA003318	ST003	9606			CP2015_178	"Homo sapiens"	Human	2010							Asia	Kuwait	"Al-Asimah or Al-Jahra"	29.282801	29.39249	47.632837	48.028438	Male	Urine									"30 y.o."																														"Sample collected in 2010-2012"	2018/5/2	2018/5/2
PRA000065	SAA003319	ST003	9606			CP2015_179	"Homo sapiens"	Human	2010							Asia	Kuwait	"Al-Asimah or Al-Jahra"	29.282801	29.39249	47.632837	48.028438	Male	Urine									"11 y.o."																														"Sample collected in 2010-2012"	2018/5/2	2018/5/2
PRA000065	SAA003320	ST003	9606			CP2015_180	"Homo sapiens"	Human	2010							Asia	Kuwait	"Al-Asimah or Al-Jahra"	29.282801	29.39249	47.632837	48.028438	Male	Urine									"8 y.o."																														"Sample collected in 2010-2012"	2018/5/2	2018/5/2
PRA000065	SAA003321	ST003	9606			CP2015_181	"Homo sapiens"	Human	2010							Asia	Kuwait	"Al-Asimah or Al-Jahra"	29.282801	29.39249	47.632837	48.028438	Male	Urine									"10 y.o."																														"Sample collected in 2010-2012"	2018/5/2	2018/5/2
PRA000065	SAA003322	ST003	9606			CP2015_182	"Homo sapiens"	Human	2010							Asia	Kuwait	"Al-Asimah or Al-Jahra"	29.282801	29.39249	47.632837	48.028438	Female	Urine									"51 y.o."																														"Sample collected in 2010-2012"	2018/5/2	2018/5/2
PRA000065	SAA003323	ST003	9606			CP2015_183	"Homo sapiens"	Human	2010							Asia	Kuwait	"Al-Asimah or Al-Jahra"	29.282801	29.39249	47.632837	48.028438	Male	Urine									"9 y.o."																														"Sample collected in 2010-2012"	2018/5/2	2018/5/2
PRA000065	SAA003324	ST003	9606			CP2015_184	"Homo sapiens"	Human	2010							Asia	Kuwait	"Al-Asimah or Al-Jahra"	29.282801	29.39249	47.632837	48.028438	Male	Urine									"8 y.o."																														"Sample collected in 2010-2012"	2018/5/2	2018/5/2
PRA000065	SAA003325	ST003	9606			CP2015_185	"Homo sapiens"	Human	2010							Asia	Kuwait	"Al-Asimah or Al-Jahra"	29.282801	29.39249	47.632837	48.028438	Male	Urine									"63 y.o."																														"Sample collected in 2010-2012"	2018/5/2	2018/5/2
PRA000065	SAA003326	ST003	9606			CP2015_186	"Homo sapiens"	Human	2010							Asia	Kuwait	"Al-Asimah or Al-Jahra"	29.282801	29.39249	47.632837	48.028438	Female	Urine									"11 y.o."																														"Sample collected in 2010-2012"	2018/5/2	2018/5/2
PRA000065	SAA003327	ST003	9606			CP2015_187	"Homo sapiens"	Human	2010							Asia	Kuwait	"Al-Asimah or Al-Jahra"	29.282801	29.39249	47.632837	48.028438	Female	Urine									"43 y.o."																														"Sample collected in 2010-2012"	2018/5/2	2018/5/2
PRA000065	SAA003328	ST003	9606			CP2015_188	"Homo sapiens"	Human	2010							Asia	Kuwait	"Al-Asimah or Al-Jahra"	29.282801	29.39249	47.632837	48.028438	Female	Urine									"8 y.o."																														"Sample collected in 2010-2012"	2018/5/2	2018/5/2
PRA000065	SAA003329	ST003	9606			CP2015_189	"Homo sapiens"	Human	2010							Asia	Kuwait	"Al-Asimah or Al-Jahra"	29.282801	29.39249	47.632837	48.028438	Female	Urine									"24 y.o."																														"Sample collected in 2010-2012"	2018/5/2	2018/5/2
PRA000065	SAA003330	ST003	9606			CP2015_190	"Homo sapiens"	Human	2010							Asia	Kuwait	"Al-Asimah or Al-Jahra"	29.282801	29.39249	47.632837	48.028438	Female	Urine									"22 y.o."																														"Sample collected in 2010-2012"	2018/5/2	2018/5/2
PRA000065	SAA003331	ST003	9606			CP2015_191	"Homo sapiens"	Human	2012							Asia	"Saudi Arabia"	Jeddah	21.54238056		39.19796944		Male	Urine									"69 y.o."																														"Sample collected in 2012-2014"	2018/5/2	2018/5/2
PRA000065	SAA003332	ST003	9606			CP2015_192	"Homo sapiens"	Human	2012							Asia	"Saudi Arabia"	Jeddah	21.54238056		39.19796944			Urine																																							"Sample collected in 2012-2014"	2018/5/2	2018/5/2
PRA000065	SAA003333	ST003	9606			CP2015_193	"Homo sapiens"	Human	2012							Asia	"Saudi Arabia"	Jeddah	21.54238056		39.19796944		Female	Urine									"30 y.o."																														"Sample collected in 2012-2014"	2018/5/2	2018/5/2
PRA000065	SAA003334	ST003	9606			CP2015_194	"Homo sapiens"	Human	2012							Asia	"Saudi Arabia"	Jeddah	21.54238056		39.19796944		Female	Urine									"21 y.o."																														"Sample collected in 2012-2014"	2018/5/2	2018/5/2
PRA000065	SAA003335	ST003	9606			CP2015_195	"Homo sapiens"	Human	2012							Asia	"Saudi Arabia"	Jeddah	21.54238056		39.19796944		Male	Urine									"35 y.o."																														"Sample collected in 2012-2014"	2018/5/2	2018/5/2
PRA000065	SAA003336	ST003	9606			CP2015_196	"Homo sapiens"	Human	2012							Asia	"Saudi Arabia"	Jeddah	21.54238056		39.19796944		Female	Urine									"63 y.o."																														"Sample collected in 2012-2014"	2018/5/2	2018/5/2
PRA000065	SAA003337	ST003	9606			CP2015_197	"Homo sapiens"	Human	2012							Asia	"Saudi Arabia"	Jeddah	21.54238056		39.19796944			Urine																																							"Sample collected in 2012-2014"	2018/5/2	2018/5/2
PRA000065	SAA003338	ST003	9606			CP2015_198	"Homo sapiens"	Human	2012							Asia	"Saudi Arabia"	Jeddah	21.54238056		39.19796944		Male	Urine									"59 y.o."																														"Sample collected in 2012-2014"	2018/5/2	2018/5/2
PRA000065	SAA003339	ST003	9606			CP2015_199	"Homo sapiens"	Human	2012							Asia	"Saudi Arabia"	Jeddah	21.54238056		39.19796944		Male	Urine									"37 y.o."																														"Sample collected in 2012-2014"	2018/5/2	2018/5/2
PRA000065	SAA003340	ST003	9606			CP2015_200	"Homo sapiens"	Human	2012							Asia	"Saudi Arabia"	Jeddah	21.54238056		39.19796944			Urine																																							"Sample collected in 2012-2014"	2018/5/2	2018/5/2
PRA000065	SAA003341	ST003	9606			CP2015_201	"Homo sapiens"	Human	2012							Asia	"Saudi Arabia"	Jeddah	21.54238056		39.19796944		Female	Urine									"3 y.o."																														"Sample collected in 2012-2014"	2018/5/2	2018/5/2
PRA000065	SAA003342	ST003	9606			CP2015_202	"Homo sapiens"	Human	2012							Asia	"Saudi Arabia"	Jeddah	21.54238056		39.19796944		Female	Urine									"15 y.o."																														"Sample collected in 2012-2014"	2018/5/2	2018/5/2
PRA000065	SAA003343	ST003	9606			CP2015_203	"Homo sapiens"	Human	2012							Asia	"Saudi Arabia"	Jeddah	21.54238056		39.19796944			Urine																																							"Sample collected in 2012-2014"	2018/5/2	2018/5/2
PRA000065	SAA003344	ST003	9606			CP2015_204	"Homo sapiens"	Human	2012							Asia	"Saudi Arabia"	Jeddah	21.54238056		39.19796944			Urine																																							"Sample collected in 2012-2014"	2018/5/2	2018/5/2
PRA000065	SAA003345	ST003	9606			CP2015_205	"Homo sapiens"	Human	2012							Asia	"Saudi Arabia"	Jeddah	21.54238056		39.19796944		Female	Urine									"22 y.o."																														"Sample collected in 2012-2014"	2018/5/2	2018/5/2
PRA000065	SAA003346	ST003	9606			CP2015_206	"Homo sapiens"	Human	2012							Asia	"Saudi Arabia"	Jeddah	21.54238056		39.19796944		Female	Urine									"87 y.o."																														"Sample collected in 2012-2014"	2018/5/2	2018/5/2
PRA000065	SAA003347	ST003	9606			CP2015_207	"Homo sapiens"	Human	2012							Asia	"Saudi Arabia"	Jeddah	21.54238056		39.19796944			Urine																																							"Sample collected in 2012-2014"	2018/5/2	2018/5/2
PRA000065	SAA003348	ST003	9606			CP2015_208	"Homo sapiens"	Human	2012							Asia	"Saudi Arabia"	Jeddah	21.54238056		39.19796944		Female	Urine									"25 y.o."																														"Sample collected in 2012-2014"	2018/5/2	2018/5/2
PRA000065	SAA003349	ST003	9606			CP2015_209	"Homo sapiens"	Human	2012							Asia	"Saudi Arabia"	Jeddah	21.54238056		39.19796944			Urine																																							"Sample collected in 2012-2014"	2018/5/2	2018/5/2
PRA000065	SAA003350	ST003	9606			CP2015_210	"Homo sapiens"	Human	2012							Asia	"Saudi Arabia"	Jeddah	21.54238056		39.19796944		Male	Urine									"65 y.o."																														"Sample collected in 2012-2014"	2018/5/2	2018/5/2
PRA000065	SAA003351	ST003	9606			CP2015_211	"Homo sapiens"	Human	2012							Asia	"Saudi Arabia"	Jeddah	21.54238056		39.19796944		Male	Urine									"4 y.o."																														"Sample collected in 2012-2014"	2018/5/2	2018/5/2
PRA000065	SAA003352	ST003	9606			CP2015_212	"Homo sapiens"	Human	2012							Asia	"Saudi Arabia"	Jeddah	21.54238056		39.19796944			Urine																																							"Sample collected in 2012-2014"	2018/5/2	2018/5/2
PRA000065	SAA003353	ST003	9606			CP2015_213	"Homo sapiens"	Human	2012							Asia	"Saudi Arabia"	Jeddah	21.54238056		39.19796944		Female	Urine									"35 y.o."																														"Sample collected in 2012-2014"	2018/5/2	2018/5/2
PRA000065	SAA003354	ST003	9606			CP2015_214	"Homo sapiens"	Human	2012							Asia	"Saudi Arabia"	Jeddah	21.54238056		39.19796944			Urine																																							"Sample collected in 2012-2014"	2018/5/2	2018/5/2
PRA000065	SAA003355	ST003	9606			CP2015_215	"Homo sapiens"	Human	2012							Asia	"Saudi Arabia"	Jeddah	21.54238056		39.19796944			Urine																																							"Sample collected in 2012-2014"	2018/5/2	2018/5/2
PRA000065	SAA003356	ST003	9606			CP2015_216	"Homo sapiens"	Human	2012							Asia	"Saudi Arabia"	Jeddah	21.54238056		39.19796944			Urine																																							"Sample collected in 2012-2014"	2018/5/2	2018/5/2
PRA000065	SAA003357	ST003	9606			CP2015_217	"Homo sapiens"	Human	2012							Asia	"Saudi Arabia"	Jeddah	21.54238056		39.19796944			Urine																																							"Sample collected in 2012-2014"	2018/5/2	2018/5/2
PRA000065	SAA003358	ST003	9606			CP2015_218	"Homo sapiens"	Human	2012							Asia	"Saudi Arabia"	Jeddah	21.54238056		39.19796944			Urine																																							"Sample collected in 2012-2014"	2018/5/2	2018/5/2
PRA000065	SAA003359	ST003	9606			CP2015_219	"Homo sapiens"	Human	2012							Asia	"Saudi Arabia"	Jeddah	21.54238056		39.19796944			Urine																																							"Sample collected in 2012-2014"	2018/5/2	2018/5/2
PRA000065	SAA003360	ST003	9606			CP2015_220	"Homo sapiens"	Human	2012							Asia	"Saudi Arabia"	Jeddah	21.54238056		39.19796944		Female	Urine									"23 y.o."																														"Sample collected in 2012-2014"	2018/5/2	2018/5/2
PRA000065	SAA003361	ST003	9606			CP2015_221	"Homo sapiens"	Human	2010							Asia	Vietnam	Hanoi	21.028511		105.804817		Female	Urine									"79 y.o."																														"Sample collected in 2010-2012"	2018/5/2	2018/5/2
PRA000065	SAA003362	ST003	9606			CP2015_222	"Homo sapiens"	Human	2010							Asia	Vietnam	Hanoi	21.028511		105.804817		Male	Urine									"52 y.o."																														"Sample collected in 2010-2012"	2018/5/2	2018/5/2
PRA000065	SAA003363	ST003	9606			CP2015_223	"Homo sapiens"	Human	2010							Asia	Vietnam	Hanoi	21.028511		105.804817		Male	Urine									"51 y.o."																														"Sample collected in 2010-2012"	2018/5/2	2018/5/2
PRA000065	SAA003364	ST003	9606			CP2015_224	"Homo sapiens"	Human	2010							Asia	Vietnam	Hanoi	21.028511		105.804817		Female	Urine									"56 y.o."																														"Sample collected in 2010-2012"	2018/5/2	2018/5/2
PRA000065	SAA003365	ST003	9606			CP2015_225	"Homo sapiens"	Human	2010							Asia	Vietnam	Hanoi	21.028511		105.804817		Male	Urine									"29 y.o."																														"Sample collected in 2010-2012"	2018/5/2	2018/5/2
PRA000065	SAA003366	ST003	9606			CP2015_226	"Homo sapiens"	Human	2010							Asia	Vietnam	Hanoi	21.028511		105.804817		Female	Urine									"54 y.o."																														"Sample collected in 2010-2012"	2018/5/2	2018/5/2
PRA000065	SAA003367	ST003	9606			CP2015_227	"Homo sapiens"	Human	2010							Asia	Vietnam	Hanoi	21.028511		105.804817		Male	Urine									"61 y.o."																														"Sample collected in 2010-2012"	2018/5/2	2018/5/2
PRA000065	SAA003368	ST003	9606			CP2015_228	"Homo sapiens"	Human	2010							Asia	Vietnam	Hanoi	21.028511		105.804817		Male	Urine									"19 y.o."																														"Sample collected in 2010-2012"	2018/5/2	2018/5/2
PRA000065	SAA003369	ST003	9606			CP2015_229	"Homo sapiens"	Human	2010							Asia	Vietnam	Hanoi	21.028511		105.804817		Female	Urine									"80 y.o."																														"Sample collected in 2010-2012"	2018/5/2	2018/5/2
PRA000065	SAA003370	ST003	9606			CP2015_230	"Homo sapiens"	Human	2010							Asia	Vietnam	Hanoi	21.028511		105.804817		Female	Urine									"47 y.o."																														"Sample collected in 2010-2012"	2018/5/2	2018/5/2
PRA000065	SAA003371	ST003	9606			CP2015_231	"Homo sapiens"	Human	2010							Asia	Vietnam	Hanoi	21.028511		105.804817		Female	Urine									"68 y.o."																														"Sample collected in 2010-2012"	2018/5/2	2018/5/2
PRA000065	SAA003372	ST003	9606			CP2015_232	"Homo sapiens"	Human	2010							Asia	Vietnam	Hanoi	21.028511		105.804817		Male	Urine									"35 y.o."																														"Sample collected in 2010-2012"	2018/5/2	2018/5/2
PRA000065	SAA003373	ST003	9606			CP2015_233	"Homo sapiens"	Human	2010							Asia	Vietnam	Hanoi	21.028511		105.804817		Female	Urine									"77 y.o."																														"Sample collected in 2010-2012"	2018/5/2	2018/5/2
PRA000065	SAA003374	ST003	9606			CP2015_234	"Homo sapiens"	Human	2010							Asia	Vietnam	Hanoi	21.028511		105.804817		Female	Urine									"83 y.o."																														"Sample collected in 2010-2012"	2018/5/2	2018/5/2
PRA000065	SAA003375	ST003	9606			CP2015_235	"Homo sapiens"	Human	2010							Asia	Vietnam	Hanoi	21.028511		105.804817		Male	Urine									"27 y.o."																														"Sample collected in 2010-2012"	2018/5/2	2018/5/2
PRA000065	SAA003376	ST003	9606			CP2015_236	"Homo sapiens"	Human	2010							Asia	Vietnam	Hanoi	21.028511		105.804817		Female	Urine									"62 y.o."																														"Sample collected in 2010-2012"	2018/5/2	2018/5/2
PRA000065	SAA003377	ST003	9606			CP2015_237	"Homo sapiens"	Human	2010							Asia	Vietnam	Hanoi	21.028511		105.804817		Female	Urine									"39 y.o."																														"Sample collected in 2010-2012"	2018/5/2	2018/5/2
PRA000065	SAA003378	ST003	9606			CP2015_238	"Homo sapiens"	Human	2010							Asia	Vietnam	Hanoi	21.028511		105.804817		Male	Urine									"58 y.o."																														"Sample collected in 2010-2012"	2018/5/2	2018/5/2
PRA000065	SAA003379	ST003	9606			CP2015_239	"Homo sapiens"	Human	2010							Asia	Vietnam	Hanoi	21.028511		105.804817		Male	Urine									"30 y.o."																														"Sample collected in 2010-2012"	2018/5/2	2018/5/2
PRA000065	SAA003380	ST003	9606			CP2015_240	"Homo sapiens"	Human	2012							Europe	Greece	Athens	37.98381		23.727539		Male	Urine									"23 y.o."																														"Sample collected in 2012-2014"	2018/5/2	2018/5/2
PRA000065	SAA003381	ST003	9606			CP2015_241	"Homo sapiens"	Human	2012							Europe	Greece	Athens	37.98381		23.727539		Male	Urine									"57 y.o."																														"Sample collected in 2012-2014"	2018/5/2	2018/5/2
PRA000065	SAA003382	ST003	9606			CP2015_242	"Homo sapiens"	Human	2012							Europe	Greece	Athens	37.98381		23.727539		Male	Urine									"25 y.o."																														"Sample collected in 2012-2014"	2018/5/2	2018/5/2
PRA000065	SAA003383	ST003	9606			CP2015_243	"Homo sapiens"	Human	2012							Europe	Greece	Athens	37.98381		23.727539		Male	Urine									"29 y.o."																														"Sample collected in 2012-2014"	2018/5/2	2018/5/2
PRA000065	SAA003384	ST003	9606			CP2015_244	"Homo sapiens"	Human	2012							Europe	Greece	Athens	37.98381		23.727539		Male	Urine									"64 y.o."																														"Sample collected in 2012-2014"	2018/5/2	2018/5/2
PRA000065	SAA003385	ST003	9606			CP2015_245	"Homo sapiens"	Human	2012							Europe	Greece	Athens	37.98381		23.727539		Male	Urine									"30 y.o."																														"Sample collected in 2012-2014"	2018/5/2	2018/5/2
PRA000065	SAA003386	ST003	9606			CP2015_246	"Homo sapiens"	Human	2012							Europe	Greece	Athens	37.98381		23.727539		Male	Urine									"28 y.o."																														"Sample collected in 2012-2014"	2018/5/2	2018/5/2
PRA000065	SAA003387	ST003	9606			CP2015_247	"Homo sapiens"	Human	2012							Europe	Greece	Athens	37.98381		23.727539		Male	Urine									"75 y.o."																														"Sample collected in 2012-2014"	2018/5/2	2018/5/2
PRA000065	SAA003388	ST003	9606			CP2015_248	"Homo sapiens"	Human	2012							Europe	Greece	Athens	37.98381		23.727539		Male	Urine									"30 y.o."																														"Sample collected in 2012-2014"	2018/5/2	2018/5/2
PRA000065	SAA003389	ST003	9606			CP2015_249	"Homo sapiens"	Human	2012							Europe	Greece	Athens	37.98381		23.727539		Male	Urine									"58 y.o."																														"Sample collected in 2012-2014"	2018/5/2	2018/5/2
PRA000065	SAA003390	ST003	9606			CP2015_250	"Homo sapiens"	Human	2012							Europe	Greece	Athens	37.98381		23.727539		Male	Urine									"25 y.o."																														"Sample collected in 2012-2014"	2018/5/2	2018/5/2
PRA000065	SAA003391	ST003	9606			CP2015_251	"Homo sapiens"	Human	2012							Europe	Greece	Athens	37.98381		23.727539		Male	Urine									"31 y.o."																														"Sample collected in 2012-2014"	2018/5/2	2018/5/2
PRA000065	SAA003392	ST003	9606			CP2015_252	"Homo sapiens"	Human	2012							Europe	Greece	Athens	37.98381		23.727539		Male	Urine									"28 y.o."																														"Sample collected in 2012-2014"	2018/5/2	2018/5/2
PRA000065	SAA003393	ST003	9606			CP2015_253	"Homo sapiens"	Human	2012							Europe	Greece	Athens	37.98381		23.727539		Male	Urine									"32 y.o."																														"Sample collected in 2012-2014"	2018/5/2	2018/5/2
PRA000065	SAA003394	ST003	9606			CP2015_254	"Homo sapiens"	Human	2012							Europe	Greece	Athens	37.98381		23.727539		Male	Urine									"56 y.o."																														"Sample collected in 2012-2014"	2018/5/2	2018/5/2
PRA000065	SAA003395	ST003	9606			CP2015_255	"Homo sapiens"	Human	2012							Europe	Greece	Athens	37.98381		23.727539		Female	Urine									"26 y.o."																														"Sample collected in 2012-2014"	2018/5/2	2018/5/2
PRA000065	SAA003396	ST003	9606			CP2015_256	"Homo sapiens"	Human	2012							Europe	Greece	Athens	37.98381		23.727539		Female	Urine									"25 y.o."																														"Sample collected in 2012-2014"	2018/5/2	2018/5/2
PRA000065	SAA003397	ST003	9606			CP2015_257	"Homo sapiens"	Human	2012							Europe	Greece	Athens	37.98381		23.727539		Female	Urine									"57 y.o."																														"Sample collected in 2012-2014"	2018/5/2	2018/5/2
PRA000065	SAA003398	ST003	9606			CP2015_258	"Homo sapiens"	Human	2012							Europe	Greece	Athens	37.98381		23.727539		Female	Urine																																							"Sample collected in 2012-2014"	2018/5/2	2018/5/2
PRA000065	SAA003399	ST003	9606			CP2015_259	"Homo sapiens"	Human	2012							Europe	Greece	Athens	37.98381		23.727539		Female	Urine									"31 y.o."																														"Sample collected in 2012-2014"	2018/5/2	2018/5/2
PRA000065	SAA003400	ST003	9606			CP2015_260	"Homo sapiens"	Human	2012							Europe	Greece	Athens	37.98381		23.727539		Female	Urine									"52 y.o."																														"Sample collected in 2012-2014"	2018/5/2	2018/5/2
PRA000065	SAA003401	ST003	9606			CP2015_261	"Homo sapiens"	Human	2012							Europe	Greece	Athens	37.98381		23.727539		Female	Urine									"52 y.o."																														"Sample collected in 2012-2014"	2018/5/2	2018/5/2
PRA000065	SAA003402	ST003	9606			CP2015_262	"Homo sapiens"	Human	2012							Europe	Greece	Athens	37.98381		23.727539		Female	Urine									"25 y.o."																														"Sample collected in 2012-2014"	2018/5/2	2018/5/2
PRA000065	SAA003403	ST003	9606			CP2015_263	"Homo sapiens"	Human	2012							Europe	Greece	Athens	37.98381		23.727539		Female	Urine																																							"Sample collected in 2012-2014"	2018/5/2	2018/5/2
PRA000065	SAA003404	ST003	9606			CP2015_264	"Homo sapiens"	Human	2012							Europe	Greece	Athens	37.98381		23.727539		Female	Urine																																							"Sample collected in 2012-2014"	2018/5/2	2018/5/2
PRA000065	SAA003405	ST003	9606			CP2015_265	"Homo sapiens"	Human	2012							Europe	Greece	Athens	37.98381		23.727539		Female	Urine									"22 y.o."																														"Sample collected in 2012-2014"	2018/5/2	2018/5/2
PRA000065	SAA003406	ST003	9606			CP2015_266	"Homo sapiens"	Human	2012							Europe	Greece	Athens	37.98381		23.727539		Female	Urine									"52 y.o."																														"Sample collected in 2012-2014"	2018/5/2	2018/5/2
PRA000065	SAA003407	ST003	9606			CP2015_267	"Homo sapiens"	Human	2012							Europe	Greece	Athens	37.98381		23.727539		Female	Urine									"50 y.o."																														"Sample collected in 2012-2014"	2018/5/2	2018/5/2
PRA000065	SAA003408	ST003	9606			CP2015_268	"Homo sapiens"	Human	2012							Europe	Greece	Athens	37.98381		23.727539		Female	Urine									"25 y.o."																														"Sample collected in 2012-2014"	2018/5/2	2018/5/2
PRA000065	SAA003409	ST003	9606			CP2015_269	"Homo sapiens"	Human	2012							Europe	Greece	Athens	37.98381		23.727539		Female	Urine									"49 y.o."																														"Sample collected in 2012-2014"	2018/5/2	2018/5/2
PRA000065	SAA003410	ST003	9606			CP2015_270	"Homo sapiens"	Human	2010							"North America"	America	Albany	42.65258		-73.756233		Female	Urine									"50 y.o."																														"Sample collected in 2010-2012"	2018/5/2	2018/5/2
PRA000065	SAA003411	ST003	9606			CP2015_271	"Homo sapiens"	Human	2010							"North America"	America	Albany	42.65258		-73.756233		Female	Urine									"50 y.o."																														"Sample collected in 2010-2012"	2018/5/2	2018/5/2
PRA000065	SAA003412	ST003	9606			CP2015_272	"Homo sapiens"	Human	2010							"North America"	America	Albany	42.65258		-73.756233		Male	Urine									"50 y.o."																														"Sample collected in 2010-2012"	2018/5/2	2018/5/2
PRA000065	SAA003413	ST003	9606			CP2015_273	"Homo sapiens"	Human	2010							"North America"	America	Albany	42.65258		-73.756233		Male	Urine									"58 y.o."																														"Sample collected in 2010-2012"	2018/5/2	2018/5/2
PRA000065	SAA003414	ST003	9606			CP2015_274	"Homo sapiens"	Human	2010							"North America"	America	Albany	42.65258		-73.756233		Male	Urine									"60 y.o."																														"Sample collected in 2010-2012"	2018/5/2	2018/5/2
PRA000065	SAA003415	ST003	9606			CP2015_275	"Homo sapiens"	Human	2010							"North America"	America	Albany	42.65258		-73.756233		Male	Urine									"23 y.o."																														"Sample collected in 2010-2012"	2018/5/2	2018/5/2
PRA000065	SAA003416	ST003	9606			CP2015_276	"Homo sapiens"	Human	2010							"North America"	America	Albany	42.65258		-73.756233		Male	Urine									"49 y.o."																														"Sample collected in 2010-2012"	2018/5/2	2018/5/2
PRA000065	SAA003417	ST003	9606			CP2015_277	"Homo sapiens"	Human	2010							"North America"	America	Albany	42.65258		-73.756233		Male	Urine									"34 y.o."																														"Sample collected in 2010-2012"	2018/5/2	2018/5/2
PRA000065	SAA003418	ST003	9606			CP2015_278	"Homo sapiens"	Human	2010							"North America"	America	Albany	42.65258		-73.756233		Female	Urine									"32 y.o."																														"Sample collected in 2010-2012"	2018/5/2	2018/5/2
PRA000065	SAA003419	ST003	9606			CP2015_279	"Homo sapiens"	Human	2010							"North America"	America	Albany	42.65258		-73.756233		Male	Urine									"42 y.o."																														"Sample collected in 2010-2012"	2018/5/2	2018/5/2
PRA000065	SAA003420	ST003	9606			CP2015_280	"Homo sapiens"	Human	2010							"North America"	America	Albany	42.65258		-73.756233		Male	Urine									"37 y.o."																														"Sample collected in 2010-2012"	2018/5/2	2018/5/2
PRA000065	SAA003421	ST003	9606			CP2015_281	"Homo sapiens"	Human	2010							"North America"	America	Albany	42.65258		-73.756233		Male	Urine									"27 y.o."																														"Sample collected in 2010-2012"	2018/5/2	2018/5/2
PRA000065	SAA003422	ST003	9606			CP2015_282	"Homo sapiens"	Human	2010							"North America"	America	Albany	42.65258		-73.756233		Male	Urine									"31 y.o."																														"Sample collected in 2010-2012"	2018/5/2	2018/5/2
PRA000065	SAA003423	ST003	9606			CP2015_283	"Homo sapiens"	Human	2010							"North America"	America	Albany	42.65258		-73.756233		Male	Urine									"31 y.o."																														"Sample collected in 2010-2012"	2018/5/2	2018/5/2
PRA000065	SAA003424	ST003	9606			CP2015_284	"Homo sapiens"	Human	2010							"North America"	America	Albany	42.65258		-73.756233		Male	Urine									"33 y.o."																														"Sample collected in 2010-2012"	2018/5/2	2018/5/2
PRA000065	SAA003425	ST003	9606			CP2015_285	"Homo sapiens"	Human	2010							"North America"	America	Albany	42.65258		-73.756233		Male	Urine									"40 y.o."																														"Sample collected in 2010-2012"	2018/5/2	2018/5/2
PRA000065	SAA003426	ST003	9606			CP2015_286	"Homo sapiens"	Human	2010							"North America"	America	Albany	42.65258		-73.756233		Male	Urine									"45 y.o."																														"Sample collected in 2010-2012"	2018/5/2	2018/5/2
PRA000065	SAA003427	ST003	9606			CP2015_287	"Homo sapiens"	Human	2010							"North America"	America	Albany	42.65258		-73.756233		Female	Urine									"38 y.o."																														"Sample collected in 2010-2012"	2018/5/2	2018/5/2
PRA000065	SAA003428	ST003	9606			CP2015_288	"Homo sapiens"	Human	2010							"North America"	America	Albany	42.65258		-73.756233		Male	Urine									"15 y.o."																														"Sample collected in 2010-2012"	2018/5/2	2018/5/2
PRA000065	SAA003429	ST003	9606			CP2015_289	"Homo sapiens"	Human	2010							"North America"	America	Albany	42.65258		-73.756233		Male	Urine									"11 y.o."																														"Sample collected in 2010-2012"	2018/5/2	2018/5/2
PRA000065	SAA003430	ST003	9606			CP2015_290	"Homo sapiens"	Human	2010							"North America"	America	Albany	42.65258		-73.756233		Female	Urine									"26 y.o."																														"Sample collected in 2010-2012"	2018/5/2	2018/5/2
PRA000065	SAA003431	ST003	9606			CP2015_291	"Homo sapiens"	Human	2010							"North America"	America	Albany	42.65258		-73.756233		Male	Urine									"48 y.o."																														"Sample collected in 2010-2012"	2018/5/2	2018/5/2
PRA000065	SAA003432	ST003	9606			CP2015_292	"Homo sapiens"	Human	2010							"North America"	America	Albany	42.65258		-73.756233		Female	Urine									"29 y.o."																														"Sample collected in 2010-2012"	2018/5/2	2018/5/2
PRA000065	SAA003433	ST003	9606			CP2015_293	"Homo sapiens"	Human	2010							"North America"	America	Albany	42.65258		-73.756233		Female	Urine									"51 y.o."																														"Sample collected in 2010-2012"	2018/5/2	2018/5/2
PRA000065	SAA003434	ST003	9606			CP2015_294	"Homo sapiens"	Human	2010							"North America"	America	Albany	42.65258		-73.756233		Male	Urine									"50 y.o."																														"Sample collected in 2010-2012"	2018/5/2	2018/5/2
PRA000065	SAA003435	ST003	9606			CP2015_295	"Homo sapiens"	Human	2010							"North America"	America	Albany	42.65258		-73.756233		Female	Urine									"41 y.o."																														"Sample collected in 2010-2012"	2018/5/2	2018/5/2
PRA000065	SAA003436	ST003	9606			CP2015_296	"Homo sapiens"	Human	2010							"North America"	America	Albany	42.65258		-73.756233		Male	Urine									"41 y.o."																														"Sample collected in 2010-2012"	2018/5/2	2018/5/2
PRA000065	SAA003437	ST003	9606			CP2015_297	"Homo sapiens"	Human	2010							"North America"	America	Albany	42.65258		-73.756233		Male	Urine									"46 y.o."																														"Sample collected in 2010-2012"	2018/5/2	2018/5/2
PRA000065	SAA003438	ST003	9606			CP2015_298	"Homo sapiens"	Human	2010							"North America"	America	Albany	42.65258		-73.756233		Male	Urine									"66 y.o."																														"Sample collected in 2010-2012"	2018/5/2	2018/5/2
PRA000065	SAA003439	ST003	9606			CP2015_299	"Homo sapiens"	Human	2010							"North America"	America	Albany	42.65258		-73.756233		Female	Urine									"43 y.o."																														"Sample collected in 2010-2012"	2018/5/2	2018/5/2
PRA000065	SAA003440	ST003	9606			CP2015_300	"Homo sapiens"	Human	2010							"North America"	America	Albany	42.65258		-73.756233		Female	Urine									"25 y.o."																														"Sample collected in 2010-2012"	2018/5/2	2018/5/2
PRA000078	SAA004428	ST003	9606			US_kids_T1	"Homo sapiens"	Human	2012							"North America"	America	"Albany, New York"	42.65258		-73.756233		Female	Urine								Child	"3-8 y.o."																														"Sample collected from March to September in 2012"	2018/11/5	2018/11/5
PRA000078	SAA004429	ST003	9606			US_kids_T2	"Homo sapiens"	Human	2012							"North America"	America	"Albany, New York"	42.65258		-73.756233		Female	Urine								Child	"3-8 y.o."																														"Sample collected from March to September in 2012"	2018/11/5	2018/11/5
PRA000078	SAA004430	ST003	9606			US_kids_T3	"Homo sapiens"	Human	2012							"North America"	America	"Albany, New York"	42.65258		-73.756233		Female	Urine								Child	"3-8 y.o."																														"Sample collected from March to September in 2012"	2018/11/5	2018/11/5
PRA000078	SAA004431	ST003	9606			US_kids_T4	"Homo sapiens"	Human	2012							"North America"	America	"Albany, New York"	42.65258		-73.756233		Female	Urine								Child	"3-8 y.o."																														"Sample collected from March to September in 2012"	2018/11/5	2018/11/5
PRA000078	SAA004432	ST003	9606			US_kids_T5	"Homo sapiens"	Human	2012							"North America"	America	"Albany, New York"	42.65258		-73.756233		Female	Urine								Child	"3-8 y.o."																														"Sample collected from March to September in 2012"	2018/11/5	2018/11/5
PRA000078	SAA004433	ST003	9606			US_kids_T6	"Homo sapiens"	Human	2012							"North America"	America	"Albany, New York"	42.65258		-73.756233		Female	Urine								Child	"3-8 y.o."																														"Sample collected from March to September in 2012"	2018/11/5	2018/11/5
PRA000078	SAA004434	ST003	9606			US_kids_T7	"Homo sapiens"	Human	2012							"North America"	America	"Albany, New York"	42.65258		-73.756233		Female	Urine								Child	"3-8 y.o."																														"Sample collected from March to September in 2012"	2018/11/5	2018/11/5
PRA000078	SAA004435	ST003	9606			US_kids_T8	"Homo sapiens"	Human	2012							"North America"	America	"Albany, New York"	42.65258		-73.756233		Female	Urine								Child	"3-8 y.o."																														"Sample collected from March to September in 2012"	2018/11/5	2018/11/5
PRA000078	SAA004436	ST003	9606			US_kids_T9	"Homo sapiens"	Human	2012							"North America"	America	"Albany, New York"	42.65258		-73.756233		Female	Urine								Child	"3-8 y.o."																														"Sample collected from March to September in 2012"	2018/11/5	2018/11/5
PRA000078	SAA004437	ST003	9606			US_kids_T10	"Homo sapiens"	Human	2012							"North America"	America	"Albany, New York"	42.65258		-73.756233		Female	Urine								Child	"3-8 y.o."																														"Sample collected from March to September in 2012"	2018/11/5	2018/11/5
PRA000078	SAA004438	ST003	9606			US_kids_T11	"Homo sapiens"	Human	2012							"North America"	America	"Albany, New York"	42.65258		-73.756233		Female	Urine								Child	"3-8 y.o."																														"Sample collected from March to September in 2012"	2018/11/5	2018/11/5
PRA000078	SAA004439	ST003	9606			US_kids_T12	"Homo sapiens"	Human	2012							"North America"	America	"Albany, New York"	42.65258		-73.756233		Female	Urine								Child	"3-8 y.o."																														"Sample collected from March to September in 2012"	2018/11/5	2018/11/5
PRA000078	SAA004440	ST003	9606			US_kids_T13	"Homo sapiens"	Human	2012							"North America"	America	"Albany, New York"	42.65258		-73.756233		Female	Urine								Child	"3-8 y.o."																														"Sample collected from March to September in 2012"	2018/11/5	2018/11/5
PRA000078	SAA004441	ST003	9606			US_kids_T14	"Homo sapiens"	Human	2012							"North America"	America	"Albany, New York"	42.65258		-73.756233		Female	Urine								Child	"3-8 y.o."																														"Sample collected from March to September in 2012"	2018/11/5	2018/11/5
PRA000078	SAA004442	ST003	9606			US_kids_T15	"Homo sapiens"	Human	2012							"North America"	America	"Albany, New York"	42.65258		-73.756233		Female	Urine								Child	"3-8 y.o."																														"Sample collected from March to September in 2012"	2018/11/5	2018/11/5
PRA000078	SAA004443	ST003	9606			US_kids_T16	"Homo sapiens"	Human	2012							"North America"	America	"Albany, New York"	42.65258		-73.756233		Female	Urine								Child	"3-8 y.o."																														"Sample collected from March to September in 2012"	2018/11/5	2018/11/5
PRA000078	SAA004444	ST003	9606			US_kids_T17	"Homo sapiens"	Human	2012							"North America"	America	"Albany, New York"	42.65258		-73.756233		Female	Urine								Child	"3-8 y.o."																														"Sample collected from March to September in 2012"	2018/11/5	2018/11/5
PRA000078	SAA004445	ST003	9606			US_kids_T18	"Homo sapiens"	Human	2012							"North America"	America	"Albany, New York"	42.65258		-73.756233		Female	Urine								Child	"3-8 y.o."																														"Sample collected from March to September in 2012"	2018/11/5	2018/11/5
PRA000078	SAA004446	ST003	9606			US_kids_T19	"Homo sapiens"	Human	2012							"North America"	America	"Albany, New York"	42.65258		-73.756233		Female	Urine								Child	"3-8 y.o."																														"Sample collected from March to September in 2012"	2018/11/5	2018/11/5
PRA000078	SAA004447	ST003	9606			US_kids_T20	"Homo sapiens"	Human	2012							"North America"	America	"Albany, New York"	42.65258		-73.756233		Female	Urine								Child	"3-8 y.o."																														"Sample collected from March to September in 2012"	2018/11/5	2018/11/5
PRA000078	SAA004448	ST003	9606			US_kids_T21	"Homo sapiens"	Human	2012							"North America"	America	"Albany, New York"	42.65258		-73.756233		Female	Urine								Child	"3-8 y.o."																														"Sample collected from March to September in 2012"	2018/11/5	2018/11/5
PRA000078	SAA004449	ST003	9606			US_kids_T22	"Homo sapiens"	Human	2012							"North America"	America	"Albany, New York"	42.65258		-73.756233		Female	Urine								Child	"3-8 y.o."																														"Sample collected from March to September in 2012"	2018/11/5	2018/11/5
PRA000078	SAA004450	ST003	9606			US_kids_T23	"Homo sapiens"	Human	2012							"North America"	America	"Albany, New York"	42.65258		-73.756233		Female	Urine								Child	"3-8 y.o."																														"Sample collected from March to September in 2012"	2018/11/5	2018/11/5
PRA000078	SAA004451	ST003	9606			US_kids_T31	"Homo sapiens"	Human	2012							"North America"	America	"Albany, New York"	42.65258		-73.756233		Male	Urine								Child	"3-8 y.o."																														"Sample collected from March to September in 2012"	2018/11/5	2018/11/5
PRA000078	SAA004452	ST003	9606			US_kids_T32	"Homo sapiens"	Human	2012							"North America"	America	"Albany, New York"	42.65258		-73.756233		Male	Urine								Child	"3-8 y.o."																														"Sample collected from March to September in 2012"	2018/11/5	2018/11/5
PRA000078	SAA004453	ST003	9606			US_kids_T33	"Homo sapiens"	Human	2012							"North America"	America	"Albany, New York"	42.65258		-73.756233		Male	Urine								Child	"3-8 y.o."																														"Sample collected from March to September in 2012"	2018/11/5	2018/11/5
PRA000078	SAA004454	ST003	9606			US_kids_T34	"Homo sapiens"	Human	2012							"North America"	America	"Albany, New York"	42.65258		-73.756233		Male	Urine								Child	"3-8 y.o."																														"Sample collected from March to September in 2012"	2018/11/5	2018/11/5
PRA000078	SAA004455	ST003	9606			US_kids_T35	"Homo sapiens"	Human	2012							"North America"	America	"Albany, New York"	42.65258		-73.756233		Male	Urine								Child	"3-8 y.o."																														"Sample collected from March to September in 2012"	2018/11/5	2018/11/5
PRA000078	SAA004456	ST003	9606			US_kids_T36	"Homo sapiens"	Human	2012							"North America"	America	"Albany, New York"	42.65258		-73.756233		Male	Urine								Child	"3-8 y.o."																														"Sample collected from March to September in 2012"	2018/11/5	2018/11/5
PRA000078	SAA004457	ST003	9606			US_kids_T37	"Homo sapiens"	Human	2012							"North America"	America	"Albany, New York"	42.65258		-73.756233		Male	Urine								Child	"3-8 y.o."																														"Sample collected from March to September in 2012"	2018/11/5	2018/11/5
PRA000078	SAA004458	ST003	9606			US_kids_T38	"Homo sapiens"	Human	2012							"North America"	America	"Albany, New York"	42.65258		-73.756233		Male	Urine								Child	"3-8 y.o."																														"Sample collected from March to September in 2012"	2018/11/5	2018/11/5
PRA000078	SAA004459	ST003	9606			US_kids_T39	"Homo sapiens"	Human	2012							"North America"	America	"Albany, New York"	42.65258		-73.756233		Male	Urine								Child	"3-8 y.o."																														"Sample collected from March to September in 2012"	2018/11/5	2018/11/5
PRA000078	SAA004460	ST003	9606			US_kids_T40	"Homo sapiens"	Human	2012							"North America"	America	"Albany, New York"	42.65258		-73.756233		Male	Urine								Child	"3-8 y.o."																														"Sample collected from March to September in 2012"	2018/11/5	2018/11/5
PRA000078	SAA004461	ST003	9606			US_kids_T41	"Homo sapiens"	Human	2012							"North America"	America	"Albany, New York"	42.65258		-73.756233		Male	Urine								Child	"3-8 y.o."																														"Sample collected from March to September in 2012"	2018/11/5	2018/11/5
PRA000078	SAA004462	ST003	9606			US_kids_T42	"Homo sapiens"	Human	2012							"North America"	America	"Albany, New York"	42.65258		-73.756233		Male	Urine								Child	"3-8 y.o."																														"Sample collected from March to September in 2012"	2018/11/5	2018/11/5
PRA000078	SAA004463	ST003	9606			US_kids_T43	"Homo sapiens"	Human	2012							"North America"	America	"Albany, New York"	42.65258		-73.756233		Male	Urine								Child	"3-8 y.o."																														"Sample collected from March to September in 2012"	2018/11/5	2018/11/5
PRA000078	SAA004464	ST003	9606			US_kids_T44	"Homo sapiens"	Human	2012							"North America"	America	"Albany, New York"	42.65258		-73.756233		Male	Urine								Child	"3-8 y.o."																														"Sample collected from March to September in 2012"	2018/11/5	2018/11/5
PRA000078	SAA004465	ST003	9606			US_kids_T45	"Homo sapiens"	Human	2012							"North America"	America	"Albany, New York"	42.65258		-73.756233		Male	Urine								Child	"3-8 y.o."																														"Sample collected from March to September in 2012"	2018/11/5	2018/11/5
PRA000078	SAA004466	ST003	9606			US_kids_T46	"Homo sapiens"	Human	2012							"North America"	America	"Albany, New York"	42.65258		-73.756233		Male	Urine								Child	"3-8 y.o."																														"Sample collected from March to September in 2012"	2018/11/5	2018/11/5
PRA000078	SAA004467	ST003	9606			US_kids_T47	"Homo sapiens"	Human	2012							"North America"	America	"Albany, New York"	42.65258		-73.756233		Male	Urine								Child	"3-8 y.o."																														"Sample collected from March to September in 2012"	2018/11/5	2018/11/5
PRA000078	SAA004468	ST003	9606			ALB_T1	"Homo sapiens"	Human	2011							"North America"	America	"Albany, New York"	42.65258		-73.756233		Female	Urine								Adult	"50 y.o."																														"Sample collected from May to July in 2011"	2018/11/5	2018/11/5
PRA000078	SAA004469	ST003	9606			ALB_T2	"Homo sapiens"	Human	2011							"North America"	America	"Albany, New York"	42.65258		-73.756233		Female	Urine								Adult	"50 y.o."																														"Sample collected from May to July in 2011"	2018/11/5	2018/11/5
PRA000078	SAA004470	ST003	9606			ALB_T9	"Homo sapiens"	Human	2011							"North America"	America	"Albany, New York"	42.65258		-73.756233		Female	Urine								Adult	"32 y.o."																														"Sample collected from May to July in 2011"	2018/11/5	2018/11/5
PRA000078	SAA004471	ST003	9606			ALB_T18	"Homo sapiens"	Human	2011							"North America"	America	"Albany, New York"	42.65258		-73.756233		Female	Urine								Adult	"38 y.o."																														"Sample collected from May to July in 2011"	2018/11/5	2018/11/5
PRA000078	SAA004472	ST003	9606			ALB_T21	"Homo sapiens"	Human	2011							"North America"	America	"Albany, New York"	42.65258		-73.756233		Female	Urine								Adult	"26 y.o."																														"Sample collected from May to July in 2011"	2018/11/5	2018/11/5
PRA000078	SAA004473	ST003	9606			ALB_T23	"Homo sapiens"	Human	2011							"North America"	America	"Albany, New York"	42.65258		-73.756233		Female	Urine								Adult	"29 y.o."																														"Sample collected from May to July in 2011"	2018/11/5	2018/11/5
PRA000078	SAA004474	ST003	9606			ALB_T24	"Homo sapiens"	Human	2011							"North America"	America	"Albany, New York"	42.65258		-73.756233		Female	Urine								Adult	"51 y.o."																														"Sample collected from May to July in 2011"	2018/11/5	2018/11/5
PRA000078	SAA004475	ST003	9606			ALB_T26	"Homo sapiens"	Human	2011							"North America"	America	"Albany, New York"	42.65258		-73.756233		Female	Urine								Adult	"41 y.o."																														"Sample collected from May to July in 2011"	2018/11/5	2018/11/5
PRA000078	SAA004476	ST003	9606			ALB_T30	"Homo sapiens"	Human	2011							"North America"	America	"Albany, New York"	42.65258		-73.756233		Female	Urine								Adult	"43 y.o."																														"Sample collected from May to July in 2011"	2018/11/5	2018/11/5
PRA000078	SAA004477	ST003	9606			ALB_T31	"Homo sapiens"	Human	2011							"North America"	America	"Albany, New York"	42.65258		-73.756233		Female	Urine								Adult	"25 y.o."																														"Sample collected from May to July in 2011"	2018/11/5	2018/11/5
PRA000078	SAA004478	ST003	9606			ALB_T3	"Homo sapiens"	Human	2011							"North America"	America	"Albany, New York"	42.65258		-73.756233		Male	Urine								Adult	"50 y.o."																														"Sample collected from May to July in 2011"	2018/11/5	2018/11/5
PRA000078	SAA004479	ST003	9606			ALB_T4	"Homo sapiens"	Human	2011							"North America"	America	"Albany, New York"	42.65258		-73.756233		Male	Urine								Adult	"58 y.o."																														"Sample collected from May to July in 2011"	2018/11/5	2018/11/5
PRA000078	SAA004480	ST003	9606			ALB_T5	"Homo sapiens"	Human	2011							"North America"	America	"Albany, New York"	42.65258		-73.756233		Male	Urine								Adult	"60 y.o."																														"Sample collected from May to July in 2011"	2018/11/5	2018/11/5
PRA000078	SAA004481	ST003	9606			ALB_T6	"Homo sapiens"	Human	2011							"North America"	America	"Albany, New York"	42.65258		-73.756233		Male	Urine								Adult	"23 y.o."																														"Sample collected from May to July in 2011"	2018/11/5	2018/11/5
PRA000078	SAA004482	ST003	9606			ALB_T7	"Homo sapiens"	Human	2011							"North America"	America	"Albany, New York"	42.65258		-73.756233		Male	Urine								Adult	"49 y.o."																														"Sample collected from May to July in 2011"	2018/11/5	2018/11/5
PRA000078	SAA004483	ST003	9606			ALB_T8	"Homo sapiens"	Human	2011							"North America"	America	"Albany, New York"	42.65258		-73.756233		Male	Urine								Adult	"34 y.o."																														"Sample collected from May to July in 2011"	2018/11/5	2018/11/5
PRA000078	SAA004484	ST003	9606			ALB_T10	"Homo sapiens"	Human	2011							"North America"	America	"Albany, New York"	42.65258		-73.756233		Male	Urine								Adult	"42 y.o."																														"Sample collected from May to July in 2011"	2018/11/5	2018/11/5
PRA000078	SAA004485	ST003	9606			ALB_T11	"Homo sapiens"	Human	2011							"North America"	America	"Albany, New York"	42.65258		-73.756233		Male	Urine								Adult	"37 y.o."																														"Sample collected from May to July in 2011"	2018/11/5	2018/11/5
PRA000078	SAA004486	ST003	9606			ALB_T12	"Homo sapiens"	Human	2011							"North America"	America	"Albany, New York"	42.65258		-73.756233		Male	Urine								Adult	"27 y.o."																														"Sample collected from May to July in 2011"	2018/11/5	2018/11/5
PRA000078	SAA004487	ST003	9606			ALB_T13	"Homo sapiens"	Human	2011							"North America"	America	"Albany, New York"	42.65258		-73.756233		Male	Urine								Adult	"31 y.o."																														"Sample collected from May to July in 2011"	2018/11/5	2018/11/5
PRA000078	SAA004488	ST003	9606			ALB_T14	"Homo sapiens"	Human	2011							"North America"	America	"Albany, New York"	42.65258		-73.756233		Male	Urine								Adult	"31 y.o."																														"Sample collected from May to July in 2011"	2018/11/5	2018/11/5
PRA000078	SAA004489	ST003	9606			ALB_T15	"Homo sapiens"	Human	2011							"North America"	America	"Albany, New York"	42.65258		-73.756233		Male	Urine								Adult	"33 y.o."																														"Sample collected from May to July in 2011"	2018/11/5	2018/11/5
PRA000078	SAA004490	ST003	9606			ALB_T16	"Homo sapiens"	Human	2011							"North America"	America	"Albany, New York"	42.65258		-73.756233		Male	Urine								Adult	"40 y.o."																														"Sample collected from May to July in 2011"	2018/11/5	2018/11/5
PRA000078	SAA004491	ST003	9606			ALB_T17	"Homo sapiens"	Human	2011							"North America"	America	"Albany, New York"	42.65258		-73.756233		Male	Urine								Adult	"45 y.o."																														"Sample collected from May to July in 2011"	2018/11/5	2018/11/5
PRA000078	SAA004492	ST003	9606			ALB_T19	"Homo sapiens"	Human	2011							"North America"	America	"Albany, New York"	42.65258		-73.756233		Male	Urine								Adult	"15 y.o."																														"Sample collected from May to July in 2011"	2018/11/5	2018/11/5
PRA000078	SAA004493	ST003	9606			ALB_T22	"Homo sapiens"	Human	2011							"North America"	America	"Albany, New York"	42.65258		-73.756233		Male	Urine								Adult	"48 y.o."																														"Sample collected from May to July in 2011"	2018/11/5	2018/11/5
PRA000078	SAA004494	ST003	9606			ALB_T25	"Homo sapiens"	Human	2011							"North America"	America	"Albany, New York"	42.65258		-73.756233		Male	Urine								Adult	"50 y.o."																														"Sample collected from May to July in 2011"	2018/11/5	2018/11/5
PRA000078	SAA004495	ST003	9606			ALB_T27	"Homo sapiens"	Human	2011							"North America"	America	"Albany, New York"	42.65258		-73.756233		Male	Urine								Adult	"41 y.o."																														"Sample collected from May to July in 2011"	2018/11/5	2018/11/5
PRA000078	SAA004496	ST003	9606			ALB_T28	"Homo sapiens"	Human	2011							"North America"	America	"Albany, New York"	42.65258		-73.756233		Male	Urine								Adult	"46 y.o."																														"Sample collected from May to July in 2011"	2018/11/5	2018/11/5
PRA000078	SAA004497	ST003	9606			ALB_T29	"Homo sapiens"	Human	2011							"North America"	America	"Albany, New York"	42.65258		-73.756233		Male	Urine								Adult	"66 y.o."																														"Sample collected from May to July in 2011"	2018/11/5	2018/11/5
